<?xml version="1.0" encoding="UTF-8" standalone="no" ?>
<gpx xmlns="http://www.topografix.com/GPX/1/1" xmlns:xsi="http://www.w3.org/2001/XMLSchema-instance" xsi:schemaLocation="http://www.topografix.com/GPX/1/1 http://www.topografix.com/GPX/1/1/gpx.xsd" version="1.1" creator="VisuGPX - https://www.visugpx.com">
  <metadata>
    <name>[30/06/2017] Nocturne VTT</name>
    <desc><![CDATA[Nocturne VTT de 40 km
Speedeure VTT]]></desc>
  </metadata>
  <trk>
    <name><![CDATA[2017-06-30-01]]></name>
    <trkseg>
      <trkpt lat="48.98442" lon="1.10768">
        <ele>138.4</ele>
        <time>2017-06-30T19:32:57Z</time>
      </trkpt>
      <trkpt lat="48.98427" lon="1.1076">
        <ele>293</ele>
        <time>2017-06-30T19:35:41Z</time>
      </trkpt>
      <trkpt lat="48.98415" lon="1.10764">
        <ele>293.1</ele>
        <time>2017-06-30T19:35:44Z</time>
      </trkpt>
      <trkpt lat="48.98402" lon="1.10767">
        <ele>293.1</ele>
        <time>2017-06-30T19:35:47Z</time>
      </trkpt>
      <trkpt lat="48.9839" lon="1.10773">
        <ele>293.3</ele>
        <time>2017-06-30T19:35:50Z</time>
      </trkpt>
      <trkpt lat="48.98377" lon="1.10777">
        <ele>293.3</ele>
        <time>2017-06-30T19:35:53Z</time>
      </trkpt>
      <trkpt lat="48.98365" lon="1.10781">
        <ele>293.4</ele>
        <time>2017-06-30T19:35:56Z</time>
      </trkpt>
      <trkpt lat="48.98352" lon="1.10786">
        <ele>293.7</ele>
        <time>2017-06-30T19:35:59Z</time>
      </trkpt>
      <trkpt lat="48.98339" lon="1.10792">
        <ele>293.9</ele>
        <time>2017-06-30T19:36:02Z</time>
      </trkpt>
      <trkpt lat="48.9833" lon="1.10797">
        <ele>293.9</ele>
        <time>2017-06-30T19:36:04Z</time>
      </trkpt>
      <trkpt lat="48.98322" lon="1.10802">
        <ele>293.8</ele>
        <time>2017-06-30T19:36:06Z</time>
      </trkpt>
      <trkpt lat="48.98313" lon="1.10808">
        <ele>294</ele>
        <time>2017-06-30T19:36:08Z</time>
      </trkpt>
      <trkpt lat="48.98305" lon="1.10814">
        <ele>294</ele>
        <time>2017-06-30T19:36:10Z</time>
      </trkpt>
      <trkpt lat="48.98297" lon="1.1082">
        <ele>293.8</ele>
        <time>2017-06-30T19:36:12Z</time>
      </trkpt>
      <trkpt lat="48.98288" lon="1.10826">
        <ele>293.8</ele>
        <time>2017-06-30T19:36:14Z</time>
      </trkpt>
      <trkpt lat="48.98277" lon="1.10835">
        <ele>293.8</ele>
        <time>2017-06-30T19:36:17Z</time>
      </trkpt>
      <trkpt lat="48.98266" lon="1.10843">
        <ele>293.7</ele>
        <time>2017-06-30T19:36:20Z</time>
      </trkpt>
      <trkpt lat="48.98255" lon="1.10851">
        <ele>293.8</ele>
        <time>2017-06-30T19:36:23Z</time>
      </trkpt>
      <trkpt lat="48.98244" lon="1.10857">
        <ele>294</ele>
        <time>2017-06-30T19:36:26Z</time>
      </trkpt>
      <trkpt lat="48.98233" lon="1.10861">
        <ele>294</ele>
        <time>2017-06-30T19:36:29Z</time>
      </trkpt>
      <trkpt lat="48.98224" lon="1.10863">
        <ele>293.9</ele>
        <time>2017-06-30T19:36:31Z</time>
      </trkpt>
      <trkpt lat="48.9821" lon="1.1087">
        <ele>293.6</ele>
        <time>2017-06-30T19:36:34Z</time>
      </trkpt>
      <trkpt lat="48.98202" lon="1.10875">
        <ele>293.5</ele>
        <time>2017-06-30T19:36:36Z</time>
      </trkpt>
      <trkpt lat="48.98193" lon="1.10879">
        <ele>293.4</ele>
        <time>2017-06-30T19:36:38Z</time>
      </trkpt>
      <trkpt lat="48.98183" lon="1.10883">
        <ele>293.3</ele>
        <time>2017-06-30T19:36:40Z</time>
      </trkpt>
      <trkpt lat="48.98172" lon="1.10886">
        <ele>293</ele>
        <time>2017-06-30T19:36:42Z</time>
      </trkpt>
      <trkpt lat="48.98161" lon="1.10891">
        <ele>292.9</ele>
        <time>2017-06-30T19:36:44Z</time>
      </trkpt>
      <trkpt lat="48.98149" lon="1.10895">
        <ele>292.6</ele>
        <time>2017-06-30T19:36:46Z</time>
      </trkpt>
      <trkpt lat="48.98139" lon="1.10899">
        <ele>292.4</ele>
        <time>2017-06-30T19:36:48Z</time>
      </trkpt>
      <trkpt lat="48.98128" lon="1.10904">
        <ele>292.2</ele>
        <time>2017-06-30T19:36:50Z</time>
      </trkpt>
      <trkpt lat="48.98117" lon="1.10909">
        <ele>292</ele>
        <time>2017-06-30T19:36:52Z</time>
      </trkpt>
      <trkpt lat="48.98107" lon="1.10912">
        <ele>291.8</ele>
        <time>2017-06-30T19:36:54Z</time>
      </trkpt>
      <trkpt lat="48.98095" lon="1.10916">
        <ele>291.7</ele>
        <time>2017-06-30T19:36:56Z</time>
      </trkpt>
      <trkpt lat="48.98084" lon="1.1092">
        <ele>291.7</ele>
        <time>2017-06-30T19:36:58Z</time>
      </trkpt>
      <trkpt lat="48.98072" lon="1.10923">
        <ele>291.6</ele>
        <time>2017-06-30T19:37:00Z</time>
      </trkpt>
      <trkpt lat="48.98061" lon="1.10927">
        <ele>291.4</ele>
        <time>2017-06-30T19:37:02Z</time>
      </trkpt>
      <trkpt lat="48.9805" lon="1.10933">
        <ele>291.2</ele>
        <time>2017-06-30T19:37:04Z</time>
      </trkpt>
      <trkpt lat="48.98041" lon="1.10939">
        <ele>291.1</ele>
        <time>2017-06-30T19:37:06Z</time>
      </trkpt>
      <trkpt lat="48.98029" lon="1.10944">
        <ele>290.9</ele>
        <time>2017-06-30T19:37:08Z</time>
      </trkpt>
      <trkpt lat="48.98019" lon="1.10951">
        <ele>290.6</ele>
        <time>2017-06-30T19:37:10Z</time>
      </trkpt>
      <trkpt lat="48.98007" lon="1.10959">
        <ele>290.3</ele>
        <time>2017-06-30T19:37:12Z</time>
      </trkpt>
      <trkpt lat="48.97997" lon="1.10966">
        <ele>290</ele>
        <time>2017-06-30T19:37:14Z</time>
      </trkpt>
      <trkpt lat="48.97985" lon="1.10975">
        <ele>289.6</ele>
        <time>2017-06-30T19:37:16Z</time>
      </trkpt>
      <trkpt lat="48.97973" lon="1.10983">
        <ele>289.3</ele>
        <time>2017-06-30T19:37:18Z</time>
      </trkpt>
      <trkpt lat="48.97961" lon="1.10989">
        <ele>289</ele>
        <time>2017-06-30T19:37:20Z</time>
      </trkpt>
      <trkpt lat="48.9795" lon="1.10993">
        <ele>288.7</ele>
        <time>2017-06-30T19:37:22Z</time>
      </trkpt>
      <trkpt lat="48.97939" lon="1.10997">
        <ele>288.4</ele>
        <time>2017-06-30T19:37:24Z</time>
      </trkpt>
      <trkpt lat="48.97927" lon="1.10997">
        <ele>288.3</ele>
        <time>2017-06-30T19:37:26Z</time>
      </trkpt>
      <trkpt lat="48.97915" lon="1.10998">
        <ele>288.2</ele>
        <time>2017-06-30T19:37:28Z</time>
      </trkpt>
      <trkpt lat="48.97903" lon="1.11001">
        <ele>288.1</ele>
        <time>2017-06-30T19:37:30Z</time>
      </trkpt>
      <trkpt lat="48.97891" lon="1.11004">
        <ele>288</ele>
        <time>2017-06-30T19:37:32Z</time>
      </trkpt>
      <trkpt lat="48.97879" lon="1.11006">
        <ele>287.9</ele>
        <time>2017-06-30T19:37:34Z</time>
      </trkpt>
      <trkpt lat="48.97866" lon="1.11006">
        <ele>287.8</ele>
        <time>2017-06-30T19:37:36Z</time>
      </trkpt>
      <trkpt lat="48.97854" lon="1.11008">
        <ele>287.7</ele>
        <time>2017-06-30T19:37:38Z</time>
      </trkpt>
      <trkpt lat="48.97842" lon="1.1101">
        <ele>287.6</ele>
        <time>2017-06-30T19:37:40Z</time>
      </trkpt>
      <trkpt lat="48.97831" lon="1.11012">
        <ele>287.5</ele>
        <time>2017-06-30T19:37:42Z</time>
      </trkpt>
      <trkpt lat="48.9782" lon="1.11012">
        <ele>287.5</ele>
        <time>2017-06-30T19:37:44Z</time>
      </trkpt>
      <trkpt lat="48.97809" lon="1.11013">
        <ele>287.4</ele>
        <time>2017-06-30T19:37:46Z</time>
      </trkpt>
      <trkpt lat="48.97798" lon="1.11016">
        <ele>287.3</ele>
        <time>2017-06-30T19:37:48Z</time>
      </trkpt>
      <trkpt lat="48.97787" lon="1.11017">
        <ele>287.2</ele>
        <time>2017-06-30T19:37:50Z</time>
      </trkpt>
      <trkpt lat="48.97775" lon="1.11018">
        <ele>287.3</ele>
        <time>2017-06-30T19:37:52Z</time>
      </trkpt>
      <trkpt lat="48.97763" lon="1.11019">
        <ele>287.1</ele>
        <time>2017-06-30T19:37:54Z</time>
      </trkpt>
      <trkpt lat="48.97752" lon="1.1102">
        <ele>286.8</ele>
        <time>2017-06-30T19:37:56Z</time>
      </trkpt>
      <trkpt lat="48.9774" lon="1.1102">
        <ele>286.6</ele>
        <time>2017-06-30T19:37:58Z</time>
      </trkpt>
      <trkpt lat="48.97728" lon="1.11017">
        <ele>286.1</ele>
        <time>2017-06-30T19:38:00Z</time>
      </trkpt>
      <trkpt lat="48.97714" lon="1.11016">
        <ele>285.6</ele>
        <time>2017-06-30T19:38:02Z</time>
      </trkpt>
      <trkpt lat="48.97701" lon="1.11014">
        <ele>285.1</ele>
        <time>2017-06-30T19:38:04Z</time>
      </trkpt>
      <trkpt lat="48.97688" lon="1.11009">
        <ele>284.1</ele>
        <time>2017-06-30T19:38:06Z</time>
      </trkpt>
      <trkpt lat="48.97678" lon="1.11012">
        <ele>283.6</ele>
        <time>2017-06-30T19:38:08Z</time>
      </trkpt>
      <trkpt lat="48.97671" lon="1.11027">
        <ele>283.2</ele>
        <time>2017-06-30T19:38:11Z</time>
      </trkpt>
      <trkpt lat="48.97664" lon="1.11041">
        <ele>283.5</ele>
        <time>2017-06-30T19:38:15Z</time>
      </trkpt>
      <trkpt lat="48.97653" lon="1.11045">
        <ele>284</ele>
        <time>2017-06-30T19:38:19Z</time>
      </trkpt>
      <trkpt lat="48.97644" lon="1.11046">
        <ele>284.9</ele>
        <time>2017-06-30T19:38:22Z</time>
      </trkpt>
      <trkpt lat="48.97631" lon="1.11048">
        <ele>285.5</ele>
        <time>2017-06-30T19:38:25Z</time>
      </trkpt>
      <trkpt lat="48.97622" lon="1.11052">
        <ele>285.8</ele>
        <time>2017-06-30T19:38:27Z</time>
      </trkpt>
      <trkpt lat="48.97613" lon="1.11056">
        <ele>286.1</ele>
        <time>2017-06-30T19:38:29Z</time>
      </trkpt>
      <trkpt lat="48.976" lon="1.11059">
        <ele>286.5</ele>
        <time>2017-06-30T19:38:32Z</time>
      </trkpt>
      <trkpt lat="48.97588" lon="1.11063">
        <ele>286.9</ele>
        <time>2017-06-30T19:38:35Z</time>
      </trkpt>
      <trkpt lat="48.97577" lon="1.11067">
        <ele>287.4</ele>
        <time>2017-06-30T19:38:39Z</time>
      </trkpt>
      <trkpt lat="48.97567" lon="1.11072">
        <ele>287.8</ele>
        <time>2017-06-30T19:38:43Z</time>
      </trkpt>
      <trkpt lat="48.97557" lon="1.11078">
        <ele>288</ele>
        <time>2017-06-30T19:38:46Z</time>
      </trkpt>
      <trkpt lat="48.97546" lon="1.1108">
        <ele>288</ele>
        <time>2017-06-30T19:38:49Z</time>
      </trkpt>
      <trkpt lat="48.97538" lon="1.11085">
        <ele>288.1</ele>
        <time>2017-06-30T19:38:51Z</time>
      </trkpt>
      <trkpt lat="48.97526" lon="1.1109">
        <ele>288.4</ele>
        <time>2017-06-30T19:38:54Z</time>
      </trkpt>
      <trkpt lat="48.97513" lon="1.11098">
        <ele>288.5</ele>
        <time>2017-06-30T19:38:57Z</time>
      </trkpt>
      <trkpt lat="48.97503" lon="1.11103">
        <ele>288.6</ele>
        <time>2017-06-30T19:38:59Z</time>
      </trkpt>
      <trkpt lat="48.97495" lon="1.11109">
        <ele>288.6</ele>
        <time>2017-06-30T19:39:01Z</time>
      </trkpt>
      <trkpt lat="48.97487" lon="1.11115">
        <ele>288.6</ele>
        <time>2017-06-30T19:39:03Z</time>
      </trkpt>
      <trkpt lat="48.97478" lon="1.11122">
        <ele>288.8</ele>
        <time>2017-06-30T19:39:05Z</time>
      </trkpt>
      <trkpt lat="48.97467" lon="1.11129">
        <ele>288.9</ele>
        <time>2017-06-30T19:39:08Z</time>
      </trkpt>
      <trkpt lat="48.97457" lon="1.11133">
        <ele>289</ele>
        <time>2017-06-30T19:39:10Z</time>
      </trkpt>
      <trkpt lat="48.97448" lon="1.11137">
        <ele>289.2</ele>
        <time>2017-06-30T19:39:12Z</time>
      </trkpt>
      <trkpt lat="48.97438" lon="1.11137">
        <ele>289.2</ele>
        <time>2017-06-30T19:39:15Z</time>
      </trkpt>
      <trkpt lat="48.97429" lon="1.11145">
        <ele>289.3</ele>
        <time>2017-06-30T19:39:18Z</time>
      </trkpt>
      <trkpt lat="48.97417" lon="1.11149">
        <ele>289.3</ele>
        <time>2017-06-30T19:39:21Z</time>
      </trkpt>
      <trkpt lat="48.97409" lon="1.11153">
        <ele>289.4</ele>
        <time>2017-06-30T19:39:23Z</time>
      </trkpt>
      <trkpt lat="48.97397" lon="1.11158">
        <ele>289.7</ele>
        <time>2017-06-30T19:39:26Z</time>
      </trkpt>
      <trkpt lat="48.97389" lon="1.11164">
        <ele>289.8</ele>
        <time>2017-06-30T19:39:29Z</time>
      </trkpt>
      <trkpt lat="48.97378" lon="1.11167">
        <ele>290.1</ele>
        <time>2017-06-30T19:39:33Z</time>
      </trkpt>
      <trkpt lat="48.97368" lon="1.11174">
        <ele>290.3</ele>
        <time>2017-06-30T19:39:36Z</time>
      </trkpt>
      <trkpt lat="48.97357" lon="1.1118">
        <ele>290.5</ele>
        <time>2017-06-30T19:39:39Z</time>
      </trkpt>
      <trkpt lat="48.97346" lon="1.11187">
        <ele>290.4</ele>
        <time>2017-06-30T19:39:42Z</time>
      </trkpt>
      <trkpt lat="48.97335" lon="1.1119">
        <ele>290.3</ele>
        <time>2017-06-30T19:39:45Z</time>
      </trkpt>
      <trkpt lat="48.97326" lon="1.11194">
        <ele>290.2</ele>
        <time>2017-06-30T19:39:47Z</time>
      </trkpt>
      <trkpt lat="48.97315" lon="1.11198">
        <ele>290.3</ele>
        <time>2017-06-30T19:39:49Z</time>
      </trkpt>
      <trkpt lat="48.97304" lon="1.11198">
        <ele>290.8</ele>
        <time>2017-06-30T19:39:52Z</time>
      </trkpt>
      <trkpt lat="48.97294" lon="1.11194">
        <ele>290.9</ele>
        <time>2017-06-30T19:39:54Z</time>
      </trkpt>
      <trkpt lat="48.97284" lon="1.11194">
        <ele>291</ele>
        <time>2017-06-30T19:39:56Z</time>
      </trkpt>
      <trkpt lat="48.97275" lon="1.11195">
        <ele>291</ele>
        <time>2017-06-30T19:39:58Z</time>
      </trkpt>
      <trkpt lat="48.97263" lon="1.11193">
        <ele>291.1</ele>
        <time>2017-06-30T19:40:01Z</time>
      </trkpt>
      <trkpt lat="48.97251" lon="1.11191">
        <ele>291.2</ele>
        <time>2017-06-30T19:40:04Z</time>
      </trkpt>
      <trkpt lat="48.97238" lon="1.11189">
        <ele>291.2</ele>
        <time>2017-06-30T19:40:07Z</time>
      </trkpt>
      <trkpt lat="48.97228" lon="1.1119">
        <ele>291.3</ele>
        <time>2017-06-30T19:40:09Z</time>
      </trkpt>
      <trkpt lat="48.97218" lon="1.11189">
        <ele>291.5</ele>
        <time>2017-06-30T19:40:12Z</time>
      </trkpt>
      <trkpt lat="48.97207" lon="1.11188">
        <ele>291.7</ele>
        <time>2017-06-30T19:40:15Z</time>
      </trkpt>
      <trkpt lat="48.97193" lon="1.11188">
        <ele>292</ele>
        <time>2017-06-30T19:40:18Z</time>
      </trkpt>
      <trkpt lat="48.97182" lon="1.1119">
        <ele>292</ele>
        <time>2017-06-30T19:40:20Z</time>
      </trkpt>
      <trkpt lat="48.97171" lon="1.11194">
        <ele>292</ele>
        <time>2017-06-30T19:40:23Z</time>
      </trkpt>
      <trkpt lat="48.9716" lon="1.11201">
        <ele>292.5</ele>
        <time>2017-06-30T19:40:26Z</time>
      </trkpt>
      <trkpt lat="48.97148" lon="1.1121">
        <ele>292.8</ele>
        <time>2017-06-30T19:40:29Z</time>
      </trkpt>
      <trkpt lat="48.97136" lon="1.11214">
        <ele>293</ele>
        <time>2017-06-30T19:40:32Z</time>
      </trkpt>
      <trkpt lat="48.97123" lon="1.11218">
        <ele>293.3</ele>
        <time>2017-06-30T19:40:35Z</time>
      </trkpt>
      <trkpt lat="48.97113" lon="1.11222">
        <ele>293.5</ele>
        <time>2017-06-30T19:40:37Z</time>
      </trkpt>
      <trkpt lat="48.97102" lon="1.11225">
        <ele>293.6</ele>
        <time>2017-06-30T19:40:39Z</time>
      </trkpt>
      <trkpt lat="48.97091" lon="1.11226">
        <ele>293.9</ele>
        <time>2017-06-30T19:40:41Z</time>
      </trkpt>
      <trkpt lat="48.97079" lon="1.11227">
        <ele>294.3</ele>
        <time>2017-06-30T19:40:44Z</time>
      </trkpt>
      <trkpt lat="48.97067" lon="1.1123">
        <ele>294.4</ele>
        <time>2017-06-30T19:40:47Z</time>
      </trkpt>
      <trkpt lat="48.97055" lon="1.1123">
        <ele>294.7</ele>
        <time>2017-06-30T19:40:50Z</time>
      </trkpt>
      <trkpt lat="48.97046" lon="1.11232">
        <ele>294.9</ele>
        <time>2017-06-30T19:40:52Z</time>
      </trkpt>
      <trkpt lat="48.97036" lon="1.11233">
        <ele>295</ele>
        <time>2017-06-30T19:40:54Z</time>
      </trkpt>
      <trkpt lat="48.97027" lon="1.11235">
        <ele>295.1</ele>
        <time>2017-06-30T19:40:56Z</time>
      </trkpt>
      <trkpt lat="48.97017" lon="1.11236">
        <ele>295.1</ele>
        <time>2017-06-30T19:40:58Z</time>
      </trkpt>
      <trkpt lat="48.97007" lon="1.1124">
        <ele>295.2</ele>
        <time>2017-06-30T19:41:01Z</time>
      </trkpt>
      <trkpt lat="48.96999" lon="1.11247">
        <ele>295.3</ele>
        <time>2017-06-30T19:41:03Z</time>
      </trkpt>
      <trkpt lat="48.96988" lon="1.11256">
        <ele>295.6</ele>
        <time>2017-06-30T19:41:06Z</time>
      </trkpt>
      <trkpt lat="48.96978" lon="1.11262">
        <ele>295.7</ele>
        <time>2017-06-30T19:41:09Z</time>
      </trkpt>
      <trkpt lat="48.96967" lon="1.11271">
        <ele>296.1</ele>
        <time>2017-06-30T19:41:12Z</time>
      </trkpt>
      <trkpt lat="48.96957" lon="1.11275">
        <ele>296.4</ele>
        <time>2017-06-30T19:41:15Z</time>
      </trkpt>
      <trkpt lat="48.96947" lon="1.11277">
        <ele>296.4</ele>
        <time>2017-06-30T19:41:18Z</time>
      </trkpt>
      <trkpt lat="48.96934" lon="1.1128">
        <ele>296.5</ele>
        <time>2017-06-30T19:41:21Z</time>
      </trkpt>
      <trkpt lat="48.96925" lon="1.11279">
        <ele>296.5</ele>
        <time>2017-06-30T19:41:23Z</time>
      </trkpt>
      <trkpt lat="48.96916" lon="1.11278">
        <ele>296.6</ele>
        <time>2017-06-30T19:41:25Z</time>
      </trkpt>
      <trkpt lat="48.96904" lon="1.11277">
        <ele>296.8</ele>
        <time>2017-06-30T19:41:28Z</time>
      </trkpt>
      <trkpt lat="48.96895" lon="1.11281">
        <ele>297.1</ele>
        <time>2017-06-30T19:41:32Z</time>
      </trkpt>
      <trkpt lat="48.96883" lon="1.11282">
        <ele>297.1</ele>
        <time>2017-06-30T19:41:34Z</time>
      </trkpt>
      <trkpt lat="48.96872" lon="1.11282">
        <ele>297.2</ele>
        <time>2017-06-30T19:41:36Z</time>
      </trkpt>
      <trkpt lat="48.9686" lon="1.11286">
        <ele>297.2</ele>
        <time>2017-06-30T19:41:39Z</time>
      </trkpt>
      <trkpt lat="48.96851" lon="1.1129">
        <ele>297.2</ele>
        <time>2017-06-30T19:41:41Z</time>
      </trkpt>
      <trkpt lat="48.96841" lon="1.11296">
        <ele>297.4</ele>
        <time>2017-06-30T19:41:44Z</time>
      </trkpt>
      <trkpt lat="48.9683" lon="1.11301">
        <ele>297.4</ele>
        <time>2017-06-30T19:41:47Z</time>
      </trkpt>
      <trkpt lat="48.96818" lon="1.11308">
        <ele>297.5</ele>
        <time>2017-06-30T19:41:50Z</time>
      </trkpt>
      <trkpt lat="48.96807" lon="1.11311">
        <ele>297.4</ele>
        <time>2017-06-30T19:41:52Z</time>
      </trkpt>
      <trkpt lat="48.96798" lon="1.11313">
        <ele>297.4</ele>
        <time>2017-06-30T19:41:54Z</time>
      </trkpt>
      <trkpt lat="48.96788" lon="1.11319">
        <ele>297.4</ele>
        <time>2017-06-30T19:41:56Z</time>
      </trkpt>
      <trkpt lat="48.96777" lon="1.11325">
        <ele>297.2</ele>
        <time>2017-06-30T19:41:59Z</time>
      </trkpt>
      <trkpt lat="48.96767" lon="1.11324">
        <ele>297.4</ele>
        <time>2017-06-30T19:42:01Z</time>
      </trkpt>
      <trkpt lat="48.96758" lon="1.11325">
        <ele>297.5</ele>
        <time>2017-06-30T19:42:03Z</time>
      </trkpt>
      <trkpt lat="48.96744" lon="1.11328">
        <ele>297.4</ele>
        <time>2017-06-30T19:42:06Z</time>
      </trkpt>
      <trkpt lat="48.96735" lon="1.11328">
        <ele>297.3</ele>
        <time>2017-06-30T19:42:08Z</time>
      </trkpt>
      <trkpt lat="48.96724" lon="1.11331">
        <ele>297.1</ele>
        <time>2017-06-30T19:42:11Z</time>
      </trkpt>
      <trkpt lat="48.96713" lon="1.11331">
        <ele>297.3</ele>
        <time>2017-06-30T19:42:14Z</time>
      </trkpt>
      <trkpt lat="48.96704" lon="1.11334">
        <ele>297.4</ele>
        <time>2017-06-30T19:42:16Z</time>
      </trkpt>
      <trkpt lat="48.96692" lon="1.11338">
        <ele>297.4</ele>
        <time>2017-06-30T19:42:19Z</time>
      </trkpt>
      <trkpt lat="48.96679" lon="1.11344">
        <ele>297.4</ele>
        <time>2017-06-30T19:42:22Z</time>
      </trkpt>
      <trkpt lat="48.9667" lon="1.11349">
        <ele>297.6</ele>
        <time>2017-06-30T19:42:25Z</time>
      </trkpt>
      <trkpt lat="48.9666" lon="1.11353">
        <ele>297.8</ele>
        <time>2017-06-30T19:42:28Z</time>
      </trkpt>
      <trkpt lat="48.96653" lon="1.11362">
        <ele>297.8</ele>
        <time>2017-06-30T19:42:30Z</time>
      </trkpt>
      <trkpt lat="48.96644" lon="1.11366">
        <ele>297.7</ele>
        <time>2017-06-30T19:42:32Z</time>
      </trkpt>
      <trkpt lat="48.96636" lon="1.11373">
        <ele>297.8</ele>
        <time>2017-06-30T19:42:34Z</time>
      </trkpt>
      <trkpt lat="48.96626" lon="1.11381">
        <ele>297.9</ele>
        <time>2017-06-30T19:42:37Z</time>
      </trkpt>
      <trkpt lat="48.96614" lon="1.11389">
        <ele>298</ele>
        <time>2017-06-30T19:42:40Z</time>
      </trkpt>
      <trkpt lat="48.96605" lon="1.11396">
        <ele>298</ele>
        <time>2017-06-30T19:42:44Z</time>
      </trkpt>
      <trkpt lat="48.96595" lon="1.114">
        <ele>298</ele>
        <time>2017-06-30T19:42:51Z</time>
      </trkpt>
      <trkpt lat="48.96583" lon="1.11408">
        <ele>298</ele>
        <time>2017-06-30T19:42:55Z</time>
      </trkpt>
      <trkpt lat="48.96573" lon="1.11416">
        <ele>298</ele>
        <time>2017-06-30T19:42:58Z</time>
      </trkpt>
      <trkpt lat="48.96565" lon="1.11423">
        <ele>297.9</ele>
        <time>2017-06-30T19:43:01Z</time>
      </trkpt>
      <trkpt lat="48.96555" lon="1.1143">
        <ele>297.9</ele>
        <time>2017-06-30T19:43:04Z</time>
      </trkpt>
      <trkpt lat="48.96543" lon="1.11438">
        <ele>297.9</ele>
        <time>2017-06-30T19:43:07Z</time>
      </trkpt>
      <trkpt lat="48.96533" lon="1.11444">
        <ele>297.8</ele>
        <time>2017-06-30T19:43:10Z</time>
      </trkpt>
      <trkpt lat="48.96526" lon="1.11455">
        <ele>298.1</ele>
        <time>2017-06-30T19:43:13Z</time>
      </trkpt>
      <trkpt lat="48.96515" lon="1.11466">
        <ele>298.1</ele>
        <time>2017-06-30T19:43:16Z</time>
      </trkpt>
      <trkpt lat="48.96507" lon="1.11475">
        <ele>298</ele>
        <time>2017-06-30T19:43:18Z</time>
      </trkpt>
      <trkpt lat="48.96498" lon="1.11484">
        <ele>298.1</ele>
        <time>2017-06-30T19:43:20Z</time>
      </trkpt>
      <trkpt lat="48.96489" lon="1.11493">
        <ele>297.9</ele>
        <time>2017-06-30T19:43:22Z</time>
      </trkpt>
      <trkpt lat="48.9648" lon="1.11501">
        <ele>297.8</ele>
        <time>2017-06-30T19:43:24Z</time>
      </trkpt>
      <trkpt lat="48.96471" lon="1.1151">
        <ele>297.8</ele>
        <time>2017-06-30T19:43:26Z</time>
      </trkpt>
      <trkpt lat="48.96463" lon="1.11519">
        <ele>297.8</ele>
        <time>2017-06-30T19:43:28Z</time>
      </trkpt>
      <trkpt lat="48.96456" lon="1.1153">
        <ele>297.7</ele>
        <time>2017-06-30T19:43:30Z</time>
      </trkpt>
      <trkpt lat="48.96447" lon="1.11536">
        <ele>297.6</ele>
        <time>2017-06-30T19:43:33Z</time>
      </trkpt>
      <trkpt lat="48.96438" lon="1.11531">
        <ele>297.4</ele>
        <time>2017-06-30T19:43:37Z</time>
      </trkpt>
      <trkpt lat="48.96442" lon="1.11517">
        <ele>297.5</ele>
        <time>2017-06-30T19:43:41Z</time>
      </trkpt>
      <trkpt lat="48.96446" lon="1.11502">
        <ele>297.3</ele>
        <time>2017-06-30T19:43:44Z</time>
      </trkpt>
      <trkpt lat="48.9645" lon="1.11485">
        <ele>297.4</ele>
        <time>2017-06-30T19:43:47Z</time>
      </trkpt>
      <trkpt lat="48.96455" lon="1.11468">
        <ele>297.5</ele>
        <time>2017-06-30T19:43:50Z</time>
      </trkpt>
      <trkpt lat="48.96459" lon="1.1145">
        <ele>297.6</ele>
        <time>2017-06-30T19:43:53Z</time>
      </trkpt>
      <trkpt lat="48.96464" lon="1.11431">
        <ele>297.6</ele>
        <time>2017-06-30T19:43:56Z</time>
      </trkpt>
      <trkpt lat="48.96467" lon="1.11417">
        <ele>297.5</ele>
        <time>2017-06-30T19:43:58Z</time>
      </trkpt>
      <trkpt lat="48.9647" lon="1.11404">
        <ele>297.5</ele>
        <time>2017-06-30T19:44:00Z</time>
      </trkpt>
      <trkpt lat="48.96473" lon="1.11391">
        <ele>297.5</ele>
        <time>2017-06-30T19:44:02Z</time>
      </trkpt>
      <trkpt lat="48.96477" lon="1.11377">
        <ele>297.5</ele>
        <time>2017-06-30T19:44:04Z</time>
      </trkpt>
      <trkpt lat="48.9648" lon="1.11364">
        <ele>297.7</ele>
        <time>2017-06-30T19:44:06Z</time>
      </trkpt>
      <trkpt lat="48.96483" lon="1.1135">
        <ele>297.7</ele>
        <time>2017-06-30T19:44:08Z</time>
      </trkpt>
      <trkpt lat="48.96486" lon="1.11337">
        <ele>297.6</ele>
        <time>2017-06-30T19:44:10Z</time>
      </trkpt>
      <trkpt lat="48.96489" lon="1.11318">
        <ele>297.6</ele>
        <time>2017-06-30T19:44:13Z</time>
      </trkpt>
      <trkpt lat="48.96483" lon="1.11302">
        <ele>297.5</ele>
        <time>2017-06-30T19:44:16Z</time>
      </trkpt>
      <trkpt lat="48.96474" lon="1.11288">
        <ele>297.4</ele>
        <time>2017-06-30T19:44:19Z</time>
      </trkpt>
      <trkpt lat="48.96468" lon="1.11278">
        <ele>297.6</ele>
        <time>2017-06-30T19:44:21Z</time>
      </trkpt>
      <trkpt lat="48.9646" lon="1.11263">
        <ele>297.8</ele>
        <time>2017-06-30T19:44:24Z</time>
      </trkpt>
      <trkpt lat="48.96454" lon="1.11253">
        <ele>297.6</ele>
        <time>2017-06-30T19:44:26Z</time>
      </trkpt>
      <trkpt lat="48.96445" lon="1.11238">
        <ele>297.4</ele>
        <time>2017-06-30T19:44:29Z</time>
      </trkpt>
      <trkpt lat="48.96439" lon="1.11226">
        <ele>297.4</ele>
        <time>2017-06-30T19:44:31Z</time>
      </trkpt>
      <trkpt lat="48.9643" lon="1.11211">
        <ele>297.6</ele>
        <time>2017-06-30T19:44:34Z</time>
      </trkpt>
      <trkpt lat="48.96424" lon="1.11201">
        <ele>297.6</ele>
        <time>2017-06-30T19:44:36Z</time>
      </trkpt>
      <trkpt lat="48.96418" lon="1.1119">
        <ele>297.6</ele>
        <time>2017-06-30T19:44:38Z</time>
      </trkpt>
      <trkpt lat="48.96412" lon="1.11179">
        <ele>297.6</ele>
        <time>2017-06-30T19:44:40Z</time>
      </trkpt>
      <trkpt lat="48.96403" lon="1.11164">
        <ele>297.9</ele>
        <time>2017-06-30T19:44:43Z</time>
      </trkpt>
      <trkpt lat="48.96394" lon="1.11148">
        <ele>297.8</ele>
        <time>2017-06-30T19:44:46Z</time>
      </trkpt>
      <trkpt lat="48.96386" lon="1.11133">
        <ele>297.6</ele>
        <time>2017-06-30T19:44:49Z</time>
      </trkpt>
      <trkpt lat="48.9638" lon="1.11122">
        <ele>297.8</ele>
        <time>2017-06-30T19:44:51Z</time>
      </trkpt>
      <trkpt lat="48.96372" lon="1.11106">
        <ele>297.8</ele>
        <time>2017-06-30T19:44:54Z</time>
      </trkpt>
      <trkpt lat="48.96365" lon="1.11091">
        <ele>297.9</ele>
        <time>2017-06-30T19:44:57Z</time>
      </trkpt>
      <trkpt lat="48.96357" lon="1.11076">
        <ele>297.7</ele>
        <time>2017-06-30T19:45:00Z</time>
      </trkpt>
      <trkpt lat="48.96348" lon="1.11061">
        <ele>297.7</ele>
        <time>2017-06-30T19:45:03Z</time>
      </trkpt>
      <trkpt lat="48.96339" lon="1.11046">
        <ele>297.8</ele>
        <time>2017-06-30T19:45:06Z</time>
      </trkpt>
      <trkpt lat="48.96333" lon="1.11035">
        <ele>297.8</ele>
        <time>2017-06-30T19:45:08Z</time>
      </trkpt>
      <trkpt lat="48.96327" lon="1.11024">
        <ele>297.6</ele>
        <time>2017-06-30T19:45:10Z</time>
      </trkpt>
      <trkpt lat="48.96318" lon="1.11009">
        <ele>297.2</ele>
        <time>2017-06-30T19:45:13Z</time>
      </trkpt>
      <trkpt lat="48.9631" lon="1.10994">
        <ele>297.1</ele>
        <time>2017-06-30T19:45:16Z</time>
      </trkpt>
      <trkpt lat="48.96301" lon="1.10979">
        <ele>297.1</ele>
        <time>2017-06-30T19:45:19Z</time>
      </trkpt>
      <trkpt lat="48.96294" lon="1.10967">
        <ele>296.8</ele>
        <time>2017-06-30T19:45:21Z</time>
      </trkpt>
      <trkpt lat="48.96286" lon="1.10955">
        <ele>296.9</ele>
        <time>2017-06-30T19:45:24Z</time>
      </trkpt>
      <trkpt lat="48.96275" lon="1.10952">
        <ele>296.9</ele>
        <time>2017-06-30T19:45:27Z</time>
      </trkpt>
      <trkpt lat="48.96262" lon="1.10956">
        <ele>297</ele>
        <time>2017-06-30T19:45:30Z</time>
      </trkpt>
      <trkpt lat="48.96254" lon="1.10959">
        <ele>297</ele>
        <time>2017-06-30T19:45:32Z</time>
      </trkpt>
      <trkpt lat="48.96245" lon="1.10963">
        <ele>296.9</ele>
        <time>2017-06-30T19:45:34Z</time>
      </trkpt>
      <trkpt lat="48.96235" lon="1.10966">
        <ele>297</ele>
        <time>2017-06-30T19:45:36Z</time>
      </trkpt>
      <trkpt lat="48.96226" lon="1.10969">
        <ele>297</ele>
        <time>2017-06-30T19:45:38Z</time>
      </trkpt>
      <trkpt lat="48.96217" lon="1.10974">
        <ele>297</ele>
        <time>2017-06-30T19:45:40Z</time>
      </trkpt>
      <trkpt lat="48.96208" lon="1.1098">
        <ele>297.2</ele>
        <time>2017-06-30T19:45:42Z</time>
      </trkpt>
      <trkpt lat="48.96199" lon="1.10987">
        <ele>297.2</ele>
        <time>2017-06-30T19:45:44Z</time>
      </trkpt>
      <trkpt lat="48.9619" lon="1.10994">
        <ele>297.2</ele>
        <time>2017-06-30T19:45:46Z</time>
      </trkpt>
      <trkpt lat="48.96181" lon="1.11">
        <ele>297.1</ele>
        <time>2017-06-30T19:45:48Z</time>
      </trkpt>
      <trkpt lat="48.96173" lon="1.11006">
        <ele>297.1</ele>
        <time>2017-06-30T19:45:50Z</time>
      </trkpt>
      <trkpt lat="48.96164" lon="1.11013">
        <ele>297.1</ele>
        <time>2017-06-30T19:45:52Z</time>
      </trkpt>
      <trkpt lat="48.96155" lon="1.11019">
        <ele>297.1</ele>
        <time>2017-06-30T19:45:54Z</time>
      </trkpt>
      <trkpt lat="48.96145" lon="1.11025">
        <ele>297.2</ele>
        <time>2017-06-30T19:45:56Z</time>
      </trkpt>
      <trkpt lat="48.96135" lon="1.11029">
        <ele>297</ele>
        <time>2017-06-30T19:45:58Z</time>
      </trkpt>
      <trkpt lat="48.96124" lon="1.11033">
        <ele>296.8</ele>
        <time>2017-06-30T19:46:00Z</time>
      </trkpt>
      <trkpt lat="48.96115" lon="1.11041">
        <ele>296.7</ele>
        <time>2017-06-30T19:46:02Z</time>
      </trkpt>
      <trkpt lat="48.96106" lon="1.11052">
        <ele>296.7</ele>
        <time>2017-06-30T19:46:04Z</time>
      </trkpt>
      <trkpt lat="48.96099" lon="1.11064">
        <ele>296.6</ele>
        <time>2017-06-30T19:46:06Z</time>
      </trkpt>
      <trkpt lat="48.96091" lon="1.11075">
        <ele>296.3</ele>
        <time>2017-06-30T19:46:08Z</time>
      </trkpt>
      <trkpt lat="48.96083" lon="1.11088">
        <ele>296.2</ele>
        <time>2017-06-30T19:46:10Z</time>
      </trkpt>
      <trkpt lat="48.96075" lon="1.11101">
        <ele>296.2</ele>
        <time>2017-06-30T19:46:12Z</time>
      </trkpt>
      <trkpt lat="48.96067" lon="1.11113">
        <ele>296</ele>
        <time>2017-06-30T19:46:14Z</time>
      </trkpt>
      <trkpt lat="48.96059" lon="1.11121">
        <ele>295.9</ele>
        <time>2017-06-30T19:46:16Z</time>
      </trkpt>
      <trkpt lat="48.96048" lon="1.11112">
        <ele>295.7</ele>
        <time>2017-06-30T19:46:19Z</time>
      </trkpt>
      <trkpt lat="48.96044" lon="1.11094">
        <ele>295.5</ele>
        <time>2017-06-30T19:46:22Z</time>
      </trkpt>
      <trkpt lat="48.96039" lon="1.11081">
        <ele>295.5</ele>
        <time>2017-06-30T19:46:24Z</time>
      </trkpt>
      <trkpt lat="48.96032" lon="1.11071">
        <ele>295.5</ele>
        <time>2017-06-30T19:46:26Z</time>
      </trkpt>
      <trkpt lat="48.96021" lon="1.11062">
        <ele>295.8</ele>
        <time>2017-06-30T19:46:29Z</time>
      </trkpt>
      <trkpt lat="48.9601" lon="1.11052">
        <ele>296.1</ele>
        <time>2017-06-30T19:46:32Z</time>
      </trkpt>
      <trkpt lat="48.95999" lon="1.1104">
        <ele>296.3</ele>
        <time>2017-06-30T19:46:35Z</time>
      </trkpt>
      <trkpt lat="48.95988" lon="1.1103">
        <ele>296.5</ele>
        <time>2017-06-30T19:46:38Z</time>
      </trkpt>
      <trkpt lat="48.95976" lon="1.11021">
        <ele>296.8</ele>
        <time>2017-06-30T19:46:41Z</time>
      </trkpt>
      <trkpt lat="48.95966" lon="1.1101">
        <ele>297</ele>
        <time>2017-06-30T19:46:44Z</time>
      </trkpt>
      <trkpt lat="48.95956" lon="1.11">
        <ele>297</ele>
        <time>2017-06-30T19:46:47Z</time>
      </trkpt>
      <trkpt lat="48.95947" lon="1.10988">
        <ele>297.3</ele>
        <time>2017-06-30T19:46:50Z</time>
      </trkpt>
      <trkpt lat="48.95939" lon="1.1098">
        <ele>297.6</ele>
        <time>2017-06-30T19:46:52Z</time>
      </trkpt>
      <trkpt lat="48.95931" lon="1.10974">
        <ele>297.9</ele>
        <time>2017-06-30T19:46:54Z</time>
      </trkpt>
      <trkpt lat="48.95923" lon="1.10967">
        <ele>298</ele>
        <time>2017-06-30T19:46:56Z</time>
      </trkpt>
      <trkpt lat="48.95915" lon="1.10959">
        <ele>297.9</ele>
        <time>2017-06-30T19:46:58Z</time>
      </trkpt>
      <trkpt lat="48.95904" lon="1.10949">
        <ele>298.2</ele>
        <time>2017-06-30T19:47:01Z</time>
      </trkpt>
      <trkpt lat="48.95892" lon="1.10939">
        <ele>298.6</ele>
        <time>2017-06-30T19:47:04Z</time>
      </trkpt>
      <trkpt lat="48.95881" lon="1.1093">
        <ele>298.7</ele>
        <time>2017-06-30T19:47:07Z</time>
      </trkpt>
      <trkpt lat="48.9587" lon="1.1092">
        <ele>298.8</ele>
        <time>2017-06-30T19:47:10Z</time>
      </trkpt>
      <trkpt lat="48.95859" lon="1.10909">
        <ele>299.3</ele>
        <time>2017-06-30T19:47:13Z</time>
      </trkpt>
      <trkpt lat="48.95848" lon="1.10898">
        <ele>299.7</ele>
        <time>2017-06-30T19:47:16Z</time>
      </trkpt>
      <trkpt lat="48.95837" lon="1.10887">
        <ele>300.2</ele>
        <time>2017-06-30T19:47:19Z</time>
      </trkpt>
      <trkpt lat="48.95826" lon="1.10879">
        <ele>300.9</ele>
        <time>2017-06-30T19:47:22Z</time>
      </trkpt>
      <trkpt lat="48.95816" lon="1.10871">
        <ele>301.5</ele>
        <time>2017-06-30T19:47:26Z</time>
      </trkpt>
      <trkpt lat="48.95805" lon="1.10866">
        <ele>302</ele>
        <time>2017-06-30T19:47:30Z</time>
      </trkpt>
      <trkpt lat="48.95796" lon="1.10861">
        <ele>302.6</ele>
        <time>2017-06-30T19:47:34Z</time>
      </trkpt>
      <trkpt lat="48.95786" lon="1.10853">
        <ele>302.5</ele>
        <time>2017-06-30T19:47:38Z</time>
      </trkpt>
      <trkpt lat="48.95775" lon="1.10844">
        <ele>303.1</ele>
        <time>2017-06-30T19:47:42Z</time>
      </trkpt>
      <trkpt lat="48.95765" lon="1.10837">
        <ele>303.7</ele>
        <time>2017-06-30T19:47:45Z</time>
      </trkpt>
      <trkpt lat="48.95758" lon="1.10825">
        <ele>304.4</ele>
        <time>2017-06-30T19:47:48Z</time>
      </trkpt>
      <trkpt lat="48.95748" lon="1.10817">
        <ele>304.9</ele>
        <time>2017-06-30T19:47:51Z</time>
      </trkpt>
      <trkpt lat="48.95737" lon="1.1081">
        <ele>305.9</ele>
        <time>2017-06-30T19:47:55Z</time>
      </trkpt>
      <trkpt lat="48.95726" lon="1.108">
        <ele>305.6</ele>
        <time>2017-06-30T19:47:58Z</time>
      </trkpt>
      <trkpt lat="48.95717" lon="1.10791">
        <ele>306.1</ele>
        <time>2017-06-30T19:48:01Z</time>
      </trkpt>
      <trkpt lat="48.95707" lon="1.10781">
        <ele>306.8</ele>
        <time>2017-06-30T19:48:05Z</time>
      </trkpt>
      <trkpt lat="48.95698" lon="1.10774">
        <ele>307.4</ele>
        <time>2017-06-30T19:48:08Z</time>
      </trkpt>
      <trkpt lat="48.95687" lon="1.10766">
        <ele>307.7</ele>
        <time>2017-06-30T19:48:11Z</time>
      </trkpt>
      <trkpt lat="48.9568" lon="1.10758">
        <ele>307.8</ele>
        <time>2017-06-30T19:48:13Z</time>
      </trkpt>
      <trkpt lat="48.95671" lon="1.10751">
        <ele>307.8</ele>
        <time>2017-06-30T19:48:15Z</time>
      </trkpt>
      <trkpt lat="48.95662" lon="1.10745">
        <ele>308.3</ele>
        <time>2017-06-30T19:48:17Z</time>
      </trkpt>
      <trkpt lat="48.95655" lon="1.10737">
        <ele>308.5</ele>
        <time>2017-06-30T19:48:19Z</time>
      </trkpt>
      <trkpt lat="48.95645" lon="1.1073">
        <ele>308.4</ele>
        <time>2017-06-30T19:48:21Z</time>
      </trkpt>
      <trkpt lat="48.95634" lon="1.10724">
        <ele>308.5</ele>
        <time>2017-06-30T19:48:23Z</time>
      </trkpt>
      <trkpt lat="48.95625" lon="1.10717">
        <ele>308.8</ele>
        <time>2017-06-30T19:48:25Z</time>
      </trkpt>
      <trkpt lat="48.95615" lon="1.10711">
        <ele>308.9</ele>
        <time>2017-06-30T19:48:27Z</time>
      </trkpt>
      <trkpt lat="48.95606" lon="1.10704">
        <ele>308.9</ele>
        <time>2017-06-30T19:48:29Z</time>
      </trkpt>
      <trkpt lat="48.95596" lon="1.10696">
        <ele>309.3</ele>
        <time>2017-06-30T19:48:31Z</time>
      </trkpt>
      <trkpt lat="48.95586" lon="1.10686">
        <ele>309.5</ele>
        <time>2017-06-30T19:48:34Z</time>
      </trkpt>
      <trkpt lat="48.95585" lon="1.1067">
        <ele>309.8</ele>
        <time>2017-06-30T19:48:39Z</time>
      </trkpt>
      <trkpt lat="48.9559" lon="1.10656">
        <ele>309.7</ele>
        <time>2017-06-30T19:48:42Z</time>
      </trkpt>
      <trkpt lat="48.95595" lon="1.10641">
        <ele>309.6</ele>
        <time>2017-06-30T19:48:45Z</time>
      </trkpt>
      <trkpt lat="48.95601" lon="1.10625">
        <ele>309.6</ele>
        <time>2017-06-30T19:48:48Z</time>
      </trkpt>
      <trkpt lat="48.95606" lon="1.1061">
        <ele>309.5</ele>
        <time>2017-06-30T19:48:51Z</time>
      </trkpt>
      <trkpt lat="48.95612" lon="1.10595">
        <ele>309.4</ele>
        <time>2017-06-30T19:48:54Z</time>
      </trkpt>
      <trkpt lat="48.95617" lon="1.10581">
        <ele>309.3</ele>
        <time>2017-06-30T19:48:57Z</time>
      </trkpt>
      <trkpt lat="48.95625" lon="1.10567">
        <ele>309.1</ele>
        <time>2017-06-30T19:49:00Z</time>
      </trkpt>
      <trkpt lat="48.95631" lon="1.10554">
        <ele>309</ele>
        <time>2017-06-30T19:49:02Z</time>
      </trkpt>
      <trkpt lat="48.95637" lon="1.10542">
        <ele>309</ele>
        <time>2017-06-30T19:49:04Z</time>
      </trkpt>
      <trkpt lat="48.95645" lon="1.10534">
        <ele>308.9</ele>
        <time>2017-06-30T19:49:06Z</time>
      </trkpt>
      <trkpt lat="48.95655" lon="1.10519">
        <ele>308.7</ele>
        <time>2017-06-30T19:49:09Z</time>
      </trkpt>
      <trkpt lat="48.95662" lon="1.10509">
        <ele>308.6</ele>
        <time>2017-06-30T19:49:11Z</time>
      </trkpt>
      <trkpt lat="48.95669" lon="1.10496">
        <ele>308.6</ele>
        <time>2017-06-30T19:49:13Z</time>
      </trkpt>
      <trkpt lat="48.95678" lon="1.10482">
        <ele>308.4</ele>
        <time>2017-06-30T19:49:16Z</time>
      </trkpt>
      <trkpt lat="48.95686" lon="1.10472">
        <ele>308.3</ele>
        <time>2017-06-30T19:49:18Z</time>
      </trkpt>
      <trkpt lat="48.95696" lon="1.10462">
        <ele>308.3</ele>
        <time>2017-06-30T19:49:20Z</time>
      </trkpt>
      <trkpt lat="48.95705" lon="1.10451">
        <ele>308.4</ele>
        <time>2017-06-30T19:49:22Z</time>
      </trkpt>
      <trkpt lat="48.95713" lon="1.10441">
        <ele>308.5</ele>
        <time>2017-06-30T19:49:24Z</time>
      </trkpt>
      <trkpt lat="48.95721" lon="1.1043">
        <ele>308.3</ele>
        <time>2017-06-30T19:49:26Z</time>
      </trkpt>
      <trkpt lat="48.9573" lon="1.1042">
        <ele>308.1</ele>
        <time>2017-06-30T19:49:28Z</time>
      </trkpt>
      <trkpt lat="48.95738" lon="1.10411">
        <ele>307.9</ele>
        <time>2017-06-30T19:49:30Z</time>
      </trkpt>
      <trkpt lat="48.95746" lon="1.10402">
        <ele>307.8</ele>
        <time>2017-06-30T19:49:32Z</time>
      </trkpt>
      <trkpt lat="48.95754" lon="1.10392">
        <ele>307.6</ele>
        <time>2017-06-30T19:49:34Z</time>
      </trkpt>
      <trkpt lat="48.95762" lon="1.10381">
        <ele>307.5</ele>
        <time>2017-06-30T19:49:36Z</time>
      </trkpt>
      <trkpt lat="48.9577" lon="1.10369">
        <ele>307.1</ele>
        <time>2017-06-30T19:49:38Z</time>
      </trkpt>
      <trkpt lat="48.95778" lon="1.1036">
        <ele>307.1</ele>
        <time>2017-06-30T19:49:40Z</time>
      </trkpt>
      <trkpt lat="48.95786" lon="1.10351">
        <ele>306.9</ele>
        <time>2017-06-30T19:49:42Z</time>
      </trkpt>
      <trkpt lat="48.95794" lon="1.10343">
        <ele>306.9</ele>
        <time>2017-06-30T19:49:44Z</time>
      </trkpt>
      <trkpt lat="48.958" lon="1.10332">
        <ele>306.9</ele>
        <time>2017-06-30T19:49:46Z</time>
      </trkpt>
      <trkpt lat="48.95808" lon="1.10317">
        <ele>306.8</ele>
        <time>2017-06-30T19:49:49Z</time>
      </trkpt>
      <trkpt lat="48.95816" lon="1.10308">
        <ele>306.7</ele>
        <time>2017-06-30T19:49:51Z</time>
      </trkpt>
      <trkpt lat="48.95826" lon="1.10294">
        <ele>306.3</ele>
        <time>2017-06-30T19:49:54Z</time>
      </trkpt>
      <trkpt lat="48.95836" lon="1.10282">
        <ele>306.2</ele>
        <time>2017-06-30T19:49:56Z</time>
      </trkpt>
      <trkpt lat="48.95844" lon="1.10272">
        <ele>306.2</ele>
        <time>2017-06-30T19:49:58Z</time>
      </trkpt>
      <trkpt lat="48.95851" lon="1.10262">
        <ele>306</ele>
        <time>2017-06-30T19:50:00Z</time>
      </trkpt>
      <trkpt lat="48.95859" lon="1.10252">
        <ele>306</ele>
        <time>2017-06-30T19:50:02Z</time>
      </trkpt>
      <trkpt lat="48.95861" lon="1.10235">
        <ele>305.9</ele>
        <time>2017-06-30T19:50:06Z</time>
      </trkpt>
      <trkpt lat="48.95857" lon="1.10222">
        <ele>305.9</ele>
        <time>2017-06-30T19:50:09Z</time>
      </trkpt>
      <trkpt lat="48.95854" lon="1.10208">
        <ele>306</ele>
        <time>2017-06-30T19:50:12Z</time>
      </trkpt>
      <trkpt lat="48.95846" lon="1.10192">
        <ele>306.1</ele>
        <time>2017-06-30T19:50:15Z</time>
      </trkpt>
      <trkpt lat="48.95839" lon="1.10176">
        <ele>306.1</ele>
        <time>2017-06-30T19:50:18Z</time>
      </trkpt>
      <trkpt lat="48.95833" lon="1.10162">
        <ele>306.1</ele>
        <time>2017-06-30T19:50:21Z</time>
      </trkpt>
      <trkpt lat="48.95825" lon="1.10147">
        <ele>306.6</ele>
        <time>2017-06-30T19:50:24Z</time>
      </trkpt>
      <trkpt lat="48.95818" lon="1.10133">
        <ele>306.6</ele>
        <time>2017-06-30T19:50:27Z</time>
      </trkpt>
      <trkpt lat="48.9581" lon="1.10118">
        <ele>307</ele>
        <time>2017-06-30T19:50:30Z</time>
      </trkpt>
      <trkpt lat="48.95802" lon="1.10103">
        <ele>307.8</ele>
        <time>2017-06-30T19:50:33Z</time>
      </trkpt>
      <trkpt lat="48.95796" lon="1.10091">
        <ele>307.6</ele>
        <time>2017-06-30T19:50:35Z</time>
      </trkpt>
      <trkpt lat="48.9579" lon="1.1008">
        <ele>307.7</ele>
        <time>2017-06-30T19:50:37Z</time>
      </trkpt>
      <trkpt lat="48.95784" lon="1.10068">
        <ele>308.1</ele>
        <time>2017-06-30T19:50:40Z</time>
      </trkpt>
      <trkpt lat="48.95778" lon="1.10056">
        <ele>308</ele>
        <time>2017-06-30T19:50:42Z</time>
      </trkpt>
      <trkpt lat="48.95772" lon="1.10043">
        <ele>308</ele>
        <time>2017-06-30T19:50:44Z</time>
      </trkpt>
      <trkpt lat="48.95764" lon="1.10029">
        <ele>308</ele>
        <time>2017-06-30T19:50:47Z</time>
      </trkpt>
      <trkpt lat="48.95758" lon="1.10016">
        <ele>307.7</ele>
        <time>2017-06-30T19:50:49Z</time>
      </trkpt>
      <trkpt lat="48.95752" lon="1.10004">
        <ele>307.8</ele>
        <time>2017-06-30T19:50:51Z</time>
      </trkpt>
      <trkpt lat="48.95746" lon="1.09992">
        <ele>307.7</ele>
        <time>2017-06-30T19:50:53Z</time>
      </trkpt>
      <trkpt lat="48.95739" lon="1.0998">
        <ele>307.5</ele>
        <time>2017-06-30T19:50:55Z</time>
      </trkpt>
      <trkpt lat="48.95733" lon="1.09968">
        <ele>307.4</ele>
        <time>2017-06-30T19:50:57Z</time>
      </trkpt>
      <trkpt lat="48.95726" lon="1.09955">
        <ele>307.4</ele>
        <time>2017-06-30T19:50:59Z</time>
      </trkpt>
      <trkpt lat="48.95718" lon="1.09941">
        <ele>307.3</ele>
        <time>2017-06-30T19:51:01Z</time>
      </trkpt>
      <trkpt lat="48.95711" lon="1.09927">
        <ele>307</ele>
        <time>2017-06-30T19:51:03Z</time>
      </trkpt>
      <trkpt lat="48.95703" lon="1.09914">
        <ele>306.6</ele>
        <time>2017-06-30T19:51:05Z</time>
      </trkpt>
      <trkpt lat="48.95695" lon="1.09901">
        <ele>306.1</ele>
        <time>2017-06-30T19:51:07Z</time>
      </trkpt>
      <trkpt lat="48.95689" lon="1.09889">
        <ele>305.8</ele>
        <time>2017-06-30T19:51:09Z</time>
      </trkpt>
      <trkpt lat="48.9568" lon="1.09874">
        <ele>305.3</ele>
        <time>2017-06-30T19:51:11Z</time>
      </trkpt>
      <trkpt lat="48.95672" lon="1.09859">
        <ele>305</ele>
        <time>2017-06-30T19:51:13Z</time>
      </trkpt>
      <trkpt lat="48.95664" lon="1.09844">
        <ele>304.4</ele>
        <time>2017-06-30T19:51:15Z</time>
      </trkpt>
      <trkpt lat="48.95655" lon="1.09828">
        <ele>303.8</ele>
        <time>2017-06-30T19:51:17Z</time>
      </trkpt>
      <trkpt lat="48.95647" lon="1.09813">
        <ele>303.1</ele>
        <time>2017-06-30T19:51:19Z</time>
      </trkpt>
      <trkpt lat="48.95638" lon="1.09798">
        <ele>302.7</ele>
        <time>2017-06-30T19:51:21Z</time>
      </trkpt>
      <trkpt lat="48.9563" lon="1.09785">
        <ele>302.1</ele>
        <time>2017-06-30T19:51:23Z</time>
      </trkpt>
      <trkpt lat="48.95624" lon="1.09771">
        <ele>301.4</ele>
        <time>2017-06-30T19:51:25Z</time>
      </trkpt>
      <trkpt lat="48.95622" lon="1.09756">
        <ele>300.7</ele>
        <time>2017-06-30T19:51:27Z</time>
      </trkpt>
      <trkpt lat="48.95625" lon="1.09743">
        <ele>300.2</ele>
        <time>2017-06-30T19:51:29Z</time>
      </trkpt>
      <trkpt lat="48.95632" lon="1.09727">
        <ele>299.5</ele>
        <time>2017-06-30T19:51:32Z</time>
      </trkpt>
      <trkpt lat="48.95638" lon="1.09715">
        <ele>299.2</ele>
        <time>2017-06-30T19:51:34Z</time>
      </trkpt>
      <trkpt lat="48.95644" lon="1.09703">
        <ele>298.9</ele>
        <time>2017-06-30T19:51:36Z</time>
      </trkpt>
      <trkpt lat="48.9565" lon="1.09691">
        <ele>298.6</ele>
        <time>2017-06-30T19:51:38Z</time>
      </trkpt>
      <trkpt lat="48.95655" lon="1.09678">
        <ele>298.5</ele>
        <time>2017-06-30T19:51:40Z</time>
      </trkpt>
      <trkpt lat="48.95663" lon="1.09662">
        <ele>298.8</ele>
        <time>2017-06-30T19:51:43Z</time>
      </trkpt>
      <trkpt lat="48.9567" lon="1.09651">
        <ele>298.4</ele>
        <time>2017-06-30T19:51:45Z</time>
      </trkpt>
      <trkpt lat="48.95677" lon="1.09639">
        <ele>298.3</ele>
        <time>2017-06-30T19:51:47Z</time>
      </trkpt>
      <trkpt lat="48.95683" lon="1.09629">
        <ele>298.5</ele>
        <time>2017-06-30T19:51:49Z</time>
      </trkpt>
      <trkpt lat="48.95689" lon="1.09618">
        <ele>298.9</ele>
        <time>2017-06-30T19:51:51Z</time>
      </trkpt>
      <trkpt lat="48.95696" lon="1.09607">
        <ele>298.8</ele>
        <time>2017-06-30T19:51:53Z</time>
      </trkpt>
      <trkpt lat="48.95705" lon="1.09593">
        <ele>299</ele>
        <time>2017-06-30T19:51:56Z</time>
      </trkpt>
      <trkpt lat="48.95713" lon="1.09579">
        <ele>299.4</ele>
        <time>2017-06-30T19:51:59Z</time>
      </trkpt>
      <trkpt lat="48.95709" lon="1.09563">
        <ele>299.5</ele>
        <time>2017-06-30T19:52:03Z</time>
      </trkpt>
      <trkpt lat="48.95703" lon="1.09552">
        <ele>299.3</ele>
        <time>2017-06-30T19:52:05Z</time>
      </trkpt>
      <trkpt lat="48.95696" lon="1.09538">
        <ele>298.6</ele>
        <time>2017-06-30T19:52:07Z</time>
      </trkpt>
      <trkpt lat="48.95689" lon="1.09524">
        <ele>297.9</ele>
        <time>2017-06-30T19:52:09Z</time>
      </trkpt>
      <trkpt lat="48.9568" lon="1.09507">
        <ele>296.5</ele>
        <time>2017-06-30T19:52:11Z</time>
      </trkpt>
      <trkpt lat="48.95671" lon="1.09491">
        <ele>295.5</ele>
        <time>2017-06-30T19:52:13Z</time>
      </trkpt>
      <trkpt lat="48.95661" lon="1.09479">
        <ele>294.6</ele>
        <time>2017-06-30T19:52:15Z</time>
      </trkpt>
      <trkpt lat="48.95647" lon="1.09475">
        <ele>293.9</ele>
        <time>2017-06-30T19:52:17Z</time>
      </trkpt>
      <trkpt lat="48.95635" lon="1.09473">
        <ele>293</ele>
        <time>2017-06-30T19:52:19Z</time>
      </trkpt>
      <trkpt lat="48.95621" lon="1.09472">
        <ele>292.4</ele>
        <time>2017-06-30T19:52:21Z</time>
      </trkpt>
      <trkpt lat="48.95609" lon="1.09472">
        <ele>291.8</ele>
        <time>2017-06-30T19:52:23Z</time>
      </trkpt>
      <trkpt lat="48.95597" lon="1.09468">
        <ele>291.5</ele>
        <time>2017-06-30T19:52:25Z</time>
      </trkpt>
      <trkpt lat="48.95585" lon="1.09464">
        <ele>291.1</ele>
        <time>2017-06-30T19:52:27Z</time>
      </trkpt>
      <trkpt lat="48.95575" lon="1.09462">
        <ele>291.1</ele>
        <time>2017-06-30T19:52:29Z</time>
      </trkpt>
      <trkpt lat="48.95565" lon="1.09459">
        <ele>291.1</ele>
        <time>2017-06-30T19:52:31Z</time>
      </trkpt>
      <trkpt lat="48.95553" lon="1.09453">
        <ele>291</ele>
        <time>2017-06-30T19:52:33Z</time>
      </trkpt>
      <trkpt lat="48.95542" lon="1.09448">
        <ele>290.8</ele>
        <time>2017-06-30T19:52:35Z</time>
      </trkpt>
      <trkpt lat="48.95533" lon="1.09443">
        <ele>290.8</ele>
        <time>2017-06-30T19:52:37Z</time>
      </trkpt>
      <trkpt lat="48.95523" lon="1.09439">
        <ele>290.7</ele>
        <time>2017-06-30T19:52:39Z</time>
      </trkpt>
      <trkpt lat="48.95514" lon="1.09432">
        <ele>290.4</ele>
        <time>2017-06-30T19:52:41Z</time>
      </trkpt>
      <trkpt lat="48.95501" lon="1.09423">
        <ele>290.1</ele>
        <time>2017-06-30T19:52:44Z</time>
      </trkpt>
      <trkpt lat="48.95491" lon="1.09419">
        <ele>289.8</ele>
        <time>2017-06-30T19:52:46Z</time>
      </trkpt>
      <trkpt lat="48.95479" lon="1.09412">
        <ele>290.1</ele>
        <time>2017-06-30T19:52:48Z</time>
      </trkpt>
      <trkpt lat="48.95467" lon="1.09405">
        <ele>289.7</ele>
        <time>2017-06-30T19:52:50Z</time>
      </trkpt>
      <trkpt lat="48.95454" lon="1.09397">
        <ele>289.4</ele>
        <time>2017-06-30T19:52:52Z</time>
      </trkpt>
      <trkpt lat="48.95443" lon="1.09388">
        <ele>289</ele>
        <time>2017-06-30T19:52:54Z</time>
      </trkpt>
      <trkpt lat="48.95432" lon="1.09379">
        <ele>288.6</ele>
        <time>2017-06-30T19:52:56Z</time>
      </trkpt>
      <trkpt lat="48.9542" lon="1.09368">
        <ele>288.1</ele>
        <time>2017-06-30T19:52:58Z</time>
      </trkpt>
      <trkpt lat="48.95407" lon="1.09352">
        <ele>287.6</ele>
        <time>2017-06-30T19:53:00Z</time>
      </trkpt>
      <trkpt lat="48.95397" lon="1.09337">
        <ele>286.8</ele>
        <time>2017-06-30T19:53:02Z</time>
      </trkpt>
      <trkpt lat="48.95386" lon="1.09324">
        <ele>286.1</ele>
        <time>2017-06-30T19:53:04Z</time>
      </trkpt>
      <trkpt lat="48.95368" lon="1.09313">
        <ele>285.3</ele>
        <time>2017-06-30T19:53:06Z</time>
      </trkpt>
      <trkpt lat="48.95357" lon="1.09309">
        <ele>284.8</ele>
        <time>2017-06-30T19:53:07Z</time>
      </trkpt>
      <trkpt lat="48.95347" lon="1.09307">
        <ele>284.3</ele>
        <time>2017-06-30T19:53:08Z</time>
      </trkpt>
      <trkpt lat="48.95329" lon="1.09305">
        <ele>283.2</ele>
        <time>2017-06-30T19:53:10Z</time>
      </trkpt>
      <trkpt lat="48.95313" lon="1.09305">
        <ele>282.4</ele>
        <time>2017-06-30T19:53:12Z</time>
      </trkpt>
      <trkpt lat="48.95298" lon="1.09308">
        <ele>281.7</ele>
        <time>2017-06-30T19:53:14Z</time>
      </trkpt>
      <trkpt lat="48.95284" lon="1.09312">
        <ele>281.2</ele>
        <time>2017-06-30T19:53:16Z</time>
      </trkpt>
      <trkpt lat="48.9527" lon="1.09315">
        <ele>280.9</ele>
        <time>2017-06-30T19:53:18Z</time>
      </trkpt>
      <trkpt lat="48.95256" lon="1.09318">
        <ele>280.7</ele>
        <time>2017-06-30T19:53:20Z</time>
      </trkpt>
      <trkpt lat="48.95243" lon="1.09321">
        <ele>280.5</ele>
        <time>2017-06-30T19:53:22Z</time>
      </trkpt>
      <trkpt lat="48.95231" lon="1.09325">
        <ele>280.4</ele>
        <time>2017-06-30T19:53:24Z</time>
      </trkpt>
      <trkpt lat="48.95219" lon="1.0933">
        <ele>280.4</ele>
        <time>2017-06-30T19:53:26Z</time>
      </trkpt>
      <trkpt lat="48.95207" lon="1.09334">
        <ele>280.5</ele>
        <time>2017-06-30T19:53:28Z</time>
      </trkpt>
      <trkpt lat="48.95196" lon="1.09339">
        <ele>280.4</ele>
        <time>2017-06-30T19:53:30Z</time>
      </trkpt>
      <trkpt lat="48.95185" lon="1.09344">
        <ele>280.5</ele>
        <time>2017-06-30T19:53:32Z</time>
      </trkpt>
      <trkpt lat="48.95174" lon="1.09348">
        <ele>280.4</ele>
        <time>2017-06-30T19:53:34Z</time>
      </trkpt>
      <trkpt lat="48.95163" lon="1.09353">
        <ele>280.4</ele>
        <time>2017-06-30T19:53:36Z</time>
      </trkpt>
      <trkpt lat="48.95151" lon="1.09358">
        <ele>280.4</ele>
        <time>2017-06-30T19:53:38Z</time>
      </trkpt>
      <trkpt lat="48.9514" lon="1.09362">
        <ele>280.3</ele>
        <time>2017-06-30T19:53:40Z</time>
      </trkpt>
      <trkpt lat="48.95129" lon="1.09363">
        <ele>280.2</ele>
        <time>2017-06-30T19:53:42Z</time>
      </trkpt>
      <trkpt lat="48.95118" lon="1.09366">
        <ele>280.2</ele>
        <time>2017-06-30T19:53:44Z</time>
      </trkpt>
      <trkpt lat="48.95107" lon="1.0937">
        <ele>280.3</ele>
        <time>2017-06-30T19:53:46Z</time>
      </trkpt>
      <trkpt lat="48.95097" lon="1.09374">
        <ele>280.4</ele>
        <time>2017-06-30T19:53:48Z</time>
      </trkpt>
      <trkpt lat="48.95086" lon="1.09377">
        <ele>280.4</ele>
        <time>2017-06-30T19:53:50Z</time>
      </trkpt>
      <trkpt lat="48.95076" lon="1.09381">
        <ele>280.4</ele>
        <time>2017-06-30T19:53:52Z</time>
      </trkpt>
      <trkpt lat="48.95066" lon="1.09385">
        <ele>280.4</ele>
        <time>2017-06-30T19:53:54Z</time>
      </trkpt>
      <trkpt lat="48.95055" lon="1.09388">
        <ele>280.5</ele>
        <time>2017-06-30T19:53:56Z</time>
      </trkpt>
      <trkpt lat="48.95045" lon="1.09392">
        <ele>280.6</ele>
        <time>2017-06-30T19:53:58Z</time>
      </trkpt>
      <trkpt lat="48.95034" lon="1.09395">
        <ele>280.6</ele>
        <time>2017-06-30T19:54:00Z</time>
      </trkpt>
      <trkpt lat="48.95024" lon="1.09399">
        <ele>280.7</ele>
        <time>2017-06-30T19:54:02Z</time>
      </trkpt>
      <trkpt lat="48.95014" lon="1.09403">
        <ele>281.1</ele>
        <time>2017-06-30T19:54:04Z</time>
      </trkpt>
      <trkpt lat="48.95004" lon="1.09408">
        <ele>281</ele>
        <time>2017-06-30T19:54:06Z</time>
      </trkpt>
      <trkpt lat="48.94994" lon="1.09412">
        <ele>280.7</ele>
        <time>2017-06-30T19:54:08Z</time>
      </trkpt>
      <trkpt lat="48.94985" lon="1.09417">
        <ele>280.8</ele>
        <time>2017-06-30T19:54:10Z</time>
      </trkpt>
      <trkpt lat="48.94975" lon="1.09421">
        <ele>281</ele>
        <time>2017-06-30T19:54:12Z</time>
      </trkpt>
      <trkpt lat="48.94965" lon="1.09425">
        <ele>281.1</ele>
        <time>2017-06-30T19:54:14Z</time>
      </trkpt>
      <trkpt lat="48.94954" lon="1.09428">
        <ele>281.2</ele>
        <time>2017-06-30T19:54:16Z</time>
      </trkpt>
      <trkpt lat="48.94944" lon="1.09432">
        <ele>281.1</ele>
        <time>2017-06-30T19:54:18Z</time>
      </trkpt>
      <trkpt lat="48.94933" lon="1.09436">
        <ele>281</ele>
        <time>2017-06-30T19:54:20Z</time>
      </trkpt>
      <trkpt lat="48.94923" lon="1.0944">
        <ele>280.9</ele>
        <time>2017-06-30T19:54:22Z</time>
      </trkpt>
      <trkpt lat="48.94913" lon="1.09446">
        <ele>281</ele>
        <time>2017-06-30T19:54:24Z</time>
      </trkpt>
      <trkpt lat="48.94903" lon="1.09451">
        <ele>280.8</ele>
        <time>2017-06-30T19:54:26Z</time>
      </trkpt>
      <trkpt lat="48.94894" lon="1.09457">
        <ele>280.8</ele>
        <time>2017-06-30T19:54:28Z</time>
      </trkpt>
      <trkpt lat="48.94884" lon="1.09463">
        <ele>280.8</ele>
        <time>2017-06-30T19:54:30Z</time>
      </trkpt>
      <trkpt lat="48.94875" lon="1.09469">
        <ele>280.7</ele>
        <time>2017-06-30T19:54:32Z</time>
      </trkpt>
      <trkpt lat="48.94866" lon="1.09477">
        <ele>280.7</ele>
        <time>2017-06-30T19:54:34Z</time>
      </trkpt>
      <trkpt lat="48.94857" lon="1.09485">
        <ele>280.8</ele>
        <time>2017-06-30T19:54:36Z</time>
      </trkpt>
      <trkpt lat="48.94849" lon="1.09496">
        <ele>280.9</ele>
        <time>2017-06-30T19:54:38Z</time>
      </trkpt>
      <trkpt lat="48.94841" lon="1.09507">
        <ele>281.1</ele>
        <time>2017-06-30T19:54:40Z</time>
      </trkpt>
      <trkpt lat="48.94834" lon="1.09517">
        <ele>281.2</ele>
        <time>2017-06-30T19:54:42Z</time>
      </trkpt>
      <trkpt lat="48.94827" lon="1.09529">
        <ele>281.4</ele>
        <time>2017-06-30T19:54:44Z</time>
      </trkpt>
      <trkpt lat="48.94817" lon="1.09546">
        <ele>281</ele>
        <time>2017-06-30T19:54:47Z</time>
      </trkpt>
      <trkpt lat="48.94807" lon="1.09562">
        <ele>281.3</ele>
        <time>2017-06-30T19:54:50Z</time>
      </trkpt>
      <trkpt lat="48.948" lon="1.09573">
        <ele>281.4</ele>
        <time>2017-06-30T19:54:52Z</time>
      </trkpt>
      <trkpt lat="48.94793" lon="1.09584">
        <ele>281.5</ele>
        <time>2017-06-30T19:54:54Z</time>
      </trkpt>
      <trkpt lat="48.94786" lon="1.09594">
        <ele>281.3</ele>
        <time>2017-06-30T19:54:56Z</time>
      </trkpt>
      <trkpt lat="48.94779" lon="1.09604">
        <ele>281.2</ele>
        <time>2017-06-30T19:54:58Z</time>
      </trkpt>
      <trkpt lat="48.94772" lon="1.09614">
        <ele>281.2</ele>
        <time>2017-06-30T19:55:00Z</time>
      </trkpt>
      <trkpt lat="48.94766" lon="1.09624">
        <ele>281.1</ele>
        <time>2017-06-30T19:55:02Z</time>
      </trkpt>
      <trkpt lat="48.94759" lon="1.09635">
        <ele>281</ele>
        <time>2017-06-30T19:55:04Z</time>
      </trkpt>
      <trkpt lat="48.94752" lon="1.09645">
        <ele>281.1</ele>
        <time>2017-06-30T19:55:06Z</time>
      </trkpt>
      <trkpt lat="48.94745" lon="1.09654">
        <ele>281.2</ele>
        <time>2017-06-30T19:55:08Z</time>
      </trkpt>
      <trkpt lat="48.94734" lon="1.09664">
        <ele>281.2</ele>
        <time>2017-06-30T19:55:11Z</time>
      </trkpt>
      <trkpt lat="48.94723" lon="1.09673">
        <ele>281.2</ele>
        <time>2017-06-30T19:55:14Z</time>
      </trkpt>
      <trkpt lat="48.9471" lon="1.09678">
        <ele>281.3</ele>
        <time>2017-06-30T19:55:17Z</time>
      </trkpt>
      <trkpt lat="48.94698" lon="1.09683">
        <ele>281.3</ele>
        <time>2017-06-30T19:55:20Z</time>
      </trkpt>
      <trkpt lat="48.94686" lon="1.09688">
        <ele>281.5</ele>
        <time>2017-06-30T19:55:23Z</time>
      </trkpt>
      <trkpt lat="48.94675" lon="1.09683">
        <ele>281.6</ele>
        <time>2017-06-30T19:55:26Z</time>
      </trkpt>
      <trkpt lat="48.94665" lon="1.09674">
        <ele>281.4</ele>
        <time>2017-06-30T19:55:29Z</time>
      </trkpt>
      <trkpt lat="48.94655" lon="1.09665">
        <ele>281.4</ele>
        <time>2017-06-30T19:55:32Z</time>
      </trkpt>
      <trkpt lat="48.94645" lon="1.09657">
        <ele>281.5</ele>
        <time>2017-06-30T19:55:35Z</time>
      </trkpt>
      <trkpt lat="48.94635" lon="1.09648">
        <ele>281.8</ele>
        <time>2017-06-30T19:55:38Z</time>
      </trkpt>
      <trkpt lat="48.94629" lon="1.09637">
        <ele>281.8</ele>
        <time>2017-06-30T19:55:41Z</time>
      </trkpt>
      <trkpt lat="48.94627" lon="1.09621">
        <ele>281.8</ele>
        <time>2017-06-30T19:55:44Z</time>
      </trkpt>
      <trkpt lat="48.94622" lon="1.09606">
        <ele>282.1</ele>
        <time>2017-06-30T19:55:47Z</time>
      </trkpt>
      <trkpt lat="48.94617" lon="1.09594">
        <ele>282.6</ele>
        <time>2017-06-30T19:55:50Z</time>
      </trkpt>
      <trkpt lat="48.9461" lon="1.09582">
        <ele>282.9</ele>
        <time>2017-06-30T19:55:53Z</time>
      </trkpt>
      <trkpt lat="48.94603" lon="1.09572">
        <ele>283.4</ele>
        <time>2017-06-30T19:55:56Z</time>
      </trkpt>
      <trkpt lat="48.94602" lon="1.09558">
        <ele>283.5</ele>
        <time>2017-06-30T19:55:59Z</time>
      </trkpt>
      <trkpt lat="48.94608" lon="1.09544">
        <ele>283.5</ele>
        <time>2017-06-30T19:56:02Z</time>
      </trkpt>
      <trkpt lat="48.94614" lon="1.0953">
        <ele>283.6</ele>
        <time>2017-06-30T19:56:05Z</time>
      </trkpt>
      <trkpt lat="48.9462" lon="1.09518">
        <ele>283.8</ele>
        <time>2017-06-30T19:56:08Z</time>
      </trkpt>
      <trkpt lat="48.94626" lon="1.09505">
        <ele>284</ele>
        <time>2017-06-30T19:56:11Z</time>
      </trkpt>
      <trkpt lat="48.9463" lon="1.0949">
        <ele>284.3</ele>
        <time>2017-06-30T19:56:14Z</time>
      </trkpt>
      <trkpt lat="48.94635" lon="1.09474">
        <ele>284.7</ele>
        <time>2017-06-30T19:56:17Z</time>
      </trkpt>
      <trkpt lat="48.94639" lon="1.09458">
        <ele>284.7</ele>
        <time>2017-06-30T19:56:20Z</time>
      </trkpt>
      <trkpt lat="48.94644" lon="1.09442">
        <ele>284.9</ele>
        <time>2017-06-30T19:56:23Z</time>
      </trkpt>
      <trkpt lat="48.94649" lon="1.09424">
        <ele>285</ele>
        <time>2017-06-30T19:56:26Z</time>
      </trkpt>
      <trkpt lat="48.94654" lon="1.09405">
        <ele>285</ele>
        <time>2017-06-30T19:56:29Z</time>
      </trkpt>
      <trkpt lat="48.94657" lon="1.09391">
        <ele>284.8</ele>
        <time>2017-06-30T19:56:31Z</time>
      </trkpt>
      <trkpt lat="48.94661" lon="1.09372">
        <ele>284.7</ele>
        <time>2017-06-30T19:56:34Z</time>
      </trkpt>
      <trkpt lat="48.94664" lon="1.09358">
        <ele>284.5</ele>
        <time>2017-06-30T19:56:36Z</time>
      </trkpt>
      <trkpt lat="48.94666" lon="1.09344">
        <ele>284.3</ele>
        <time>2017-06-30T19:56:38Z</time>
      </trkpt>
      <trkpt lat="48.94669" lon="1.0933">
        <ele>284.4</ele>
        <time>2017-06-30T19:56:40Z</time>
      </trkpt>
      <trkpt lat="48.94671" lon="1.09316">
        <ele>284.4</ele>
        <time>2017-06-30T19:56:42Z</time>
      </trkpt>
      <trkpt lat="48.94673" lon="1.09302">
        <ele>284.3</ele>
        <time>2017-06-30T19:56:44Z</time>
      </trkpt>
      <trkpt lat="48.94676" lon="1.09288">
        <ele>284.2</ele>
        <time>2017-06-30T19:56:46Z</time>
      </trkpt>
      <trkpt lat="48.94678" lon="1.09274">
        <ele>284.1</ele>
        <time>2017-06-30T19:56:48Z</time>
      </trkpt>
      <trkpt lat="48.9468" lon="1.09261">
        <ele>284</ele>
        <time>2017-06-30T19:56:50Z</time>
      </trkpt>
      <trkpt lat="48.94682" lon="1.09247">
        <ele>284.2</ele>
        <time>2017-06-30T19:56:52Z</time>
      </trkpt>
      <trkpt lat="48.94685" lon="1.09233">
        <ele>284.3</ele>
        <time>2017-06-30T19:56:54Z</time>
      </trkpt>
      <trkpt lat="48.94687" lon="1.09219">
        <ele>284.5</ele>
        <time>2017-06-30T19:56:56Z</time>
      </trkpt>
      <trkpt lat="48.94689" lon="1.09206">
        <ele>284.7</ele>
        <time>2017-06-30T19:56:58Z</time>
      </trkpt>
      <trkpt lat="48.9469" lon="1.09192">
        <ele>284.8</ele>
        <time>2017-06-30T19:57:00Z</time>
      </trkpt>
      <trkpt lat="48.94692" lon="1.09178">
        <ele>284.9</ele>
        <time>2017-06-30T19:57:02Z</time>
      </trkpt>
      <trkpt lat="48.94695" lon="1.09164">
        <ele>285.1</ele>
        <time>2017-06-30T19:57:04Z</time>
      </trkpt>
      <trkpt lat="48.94697" lon="1.09151">
        <ele>285.2</ele>
        <time>2017-06-30T19:57:06Z</time>
      </trkpt>
      <trkpt lat="48.94699" lon="1.09137">
        <ele>285.3</ele>
        <time>2017-06-30T19:57:08Z</time>
      </trkpt>
      <trkpt lat="48.947" lon="1.09123">
        <ele>285.6</ele>
        <time>2017-06-30T19:57:10Z</time>
      </trkpt>
      <trkpt lat="48.94703" lon="1.09103">
        <ele>285.8</ele>
        <time>2017-06-30T19:57:13Z</time>
      </trkpt>
      <trkpt lat="48.94704" lon="1.09089">
        <ele>285.9</ele>
        <time>2017-06-30T19:57:15Z</time>
      </trkpt>
      <trkpt lat="48.94705" lon="1.09075">
        <ele>286.1</ele>
        <time>2017-06-30T19:57:17Z</time>
      </trkpt>
      <trkpt lat="48.94706" lon="1.09062">
        <ele>286.4</ele>
        <time>2017-06-30T19:57:19Z</time>
      </trkpt>
      <trkpt lat="48.94707" lon="1.09042">
        <ele>286.6</ele>
        <time>2017-06-30T19:57:22Z</time>
      </trkpt>
      <trkpt lat="48.94708" lon="1.09023">
        <ele>286.9</ele>
        <time>2017-06-30T19:57:25Z</time>
      </trkpt>
      <trkpt lat="48.94709" lon="1.09003">
        <ele>287.2</ele>
        <time>2017-06-30T19:57:28Z</time>
      </trkpt>
      <trkpt lat="48.94711" lon="1.08983">
        <ele>287.6</ele>
        <time>2017-06-30T19:57:31Z</time>
      </trkpt>
      <trkpt lat="48.94713" lon="1.08963">
        <ele>287.7</ele>
        <time>2017-06-30T19:57:34Z</time>
      </trkpt>
      <trkpt lat="48.94717" lon="1.08944">
        <ele>287.7</ele>
        <time>2017-06-30T19:57:37Z</time>
      </trkpt>
      <trkpt lat="48.94721" lon="1.08926">
        <ele>288</ele>
        <time>2017-06-30T19:57:40Z</time>
      </trkpt>
      <trkpt lat="48.94713" lon="1.08913">
        <ele>288.9</ele>
        <time>2017-06-30T19:57:43Z</time>
      </trkpt>
      <trkpt lat="48.94703" lon="1.08904">
        <ele>289.2</ele>
        <time>2017-06-30T19:57:46Z</time>
      </trkpt>
      <trkpt lat="48.94691" lon="1.08895">
        <ele>289</ele>
        <time>2017-06-30T19:57:49Z</time>
      </trkpt>
      <trkpt lat="48.94679" lon="1.08886">
        <ele>288.8</ele>
        <time>2017-06-30T19:57:52Z</time>
      </trkpt>
      <trkpt lat="48.94671" lon="1.08879">
        <ele>288.8</ele>
        <time>2017-06-30T19:57:54Z</time>
      </trkpt>
      <trkpt lat="48.94663" lon="1.08873">
        <ele>288.9</ele>
        <time>2017-06-30T19:57:56Z</time>
      </trkpt>
      <trkpt lat="48.94653" lon="1.08867">
        <ele>289.1</ele>
        <time>2017-06-30T19:57:58Z</time>
      </trkpt>
      <trkpt lat="48.94643" lon="1.08863">
        <ele>289.2</ele>
        <time>2017-06-30T19:58:00Z</time>
      </trkpt>
      <trkpt lat="48.94634" lon="1.0886">
        <ele>289.2</ele>
        <time>2017-06-30T19:58:02Z</time>
      </trkpt>
      <trkpt lat="48.94621" lon="1.08857">
        <ele>289.3</ele>
        <time>2017-06-30T19:58:05Z</time>
      </trkpt>
      <trkpt lat="48.94607" lon="1.08854">
        <ele>289.5</ele>
        <time>2017-06-30T19:58:08Z</time>
      </trkpt>
      <trkpt lat="48.94594" lon="1.08853">
        <ele>289.6</ele>
        <time>2017-06-30T19:58:11Z</time>
      </trkpt>
      <trkpt lat="48.94581" lon="1.08852">
        <ele>289.7</ele>
        <time>2017-06-30T19:58:14Z</time>
      </trkpt>
      <trkpt lat="48.94567" lon="1.08851">
        <ele>290.1</ele>
        <time>2017-06-30T19:58:17Z</time>
      </trkpt>
      <trkpt lat="48.94554" lon="1.0885">
        <ele>290.2</ele>
        <time>2017-06-30T19:58:20Z</time>
      </trkpt>
      <trkpt lat="48.94541" lon="1.08848">
        <ele>290.3</ele>
        <time>2017-06-30T19:58:23Z</time>
      </trkpt>
      <trkpt lat="48.94529" lon="1.08846">
        <ele>290.5</ele>
        <time>2017-06-30T19:58:26Z</time>
      </trkpt>
      <trkpt lat="48.94516" lon="1.08844">
        <ele>290.7</ele>
        <time>2017-06-30T19:58:29Z</time>
      </trkpt>
      <trkpt lat="48.94502" lon="1.08841">
        <ele>290.2</ele>
        <time>2017-06-30T19:58:32Z</time>
      </trkpt>
      <trkpt lat="48.94489" lon="1.08838">
        <ele>290.4</ele>
        <time>2017-06-30T19:58:35Z</time>
      </trkpt>
      <trkpt lat="48.94481" lon="1.08836">
        <ele>290.4</ele>
        <time>2017-06-30T19:58:37Z</time>
      </trkpt>
      <trkpt lat="48.94472" lon="1.08833">
        <ele>290.6</ele>
        <time>2017-06-30T19:58:39Z</time>
      </trkpt>
      <trkpt lat="48.94459" lon="1.08828">
        <ele>290.6</ele>
        <time>2017-06-30T19:58:42Z</time>
      </trkpt>
      <trkpt lat="48.94447" lon="1.08824">
        <ele>290.9</ele>
        <time>2017-06-30T19:58:45Z</time>
      </trkpt>
      <trkpt lat="48.94434" lon="1.08818">
        <ele>290.8</ele>
        <time>2017-06-30T19:58:48Z</time>
      </trkpt>
      <trkpt lat="48.94421" lon="1.08813">
        <ele>290.8</ele>
        <time>2017-06-30T19:58:51Z</time>
      </trkpt>
      <trkpt lat="48.94409" lon="1.08807">
        <ele>290.7</ele>
        <time>2017-06-30T19:58:54Z</time>
      </trkpt>
      <trkpt lat="48.94396" lon="1.08801">
        <ele>290.4</ele>
        <time>2017-06-30T19:58:57Z</time>
      </trkpt>
      <trkpt lat="48.94385" lon="1.08794">
        <ele>290.3</ele>
        <time>2017-06-30T19:59:00Z</time>
      </trkpt>
      <trkpt lat="48.94372" lon="1.08787">
        <ele>290.2</ele>
        <time>2017-06-30T19:59:03Z</time>
      </trkpt>
      <trkpt lat="48.9436" lon="1.0878">
        <ele>290.4</ele>
        <time>2017-06-30T19:59:06Z</time>
      </trkpt>
      <trkpt lat="48.94348" lon="1.08773">
        <ele>290.5</ele>
        <time>2017-06-30T19:59:09Z</time>
      </trkpt>
      <trkpt lat="48.94337" lon="1.08772">
        <ele>290.6</ele>
        <time>2017-06-30T19:59:12Z</time>
      </trkpt>
      <trkpt lat="48.94326" lon="1.08781">
        <ele>290.6</ele>
        <time>2017-06-30T19:59:15Z</time>
      </trkpt>
      <trkpt lat="48.94315" lon="1.08789">
        <ele>290.8</ele>
        <time>2017-06-30T19:59:18Z</time>
      </trkpt>
      <trkpt lat="48.94303" lon="1.08796">
        <ele>290.8</ele>
        <time>2017-06-30T19:59:21Z</time>
      </trkpt>
      <trkpt lat="48.94292" lon="1.08803">
        <ele>290.9</ele>
        <time>2017-06-30T19:59:24Z</time>
      </trkpt>
      <trkpt lat="48.9428" lon="1.08809">
        <ele>291.3</ele>
        <time>2017-06-30T19:59:27Z</time>
      </trkpt>
      <trkpt lat="48.94269" lon="1.08816">
        <ele>291.7</ele>
        <time>2017-06-30T19:59:30Z</time>
      </trkpt>
      <trkpt lat="48.94257" lon="1.08822">
        <ele>292.1</ele>
        <time>2017-06-30T19:59:33Z</time>
      </trkpt>
      <trkpt lat="48.94246" lon="1.08828">
        <ele>292.2</ele>
        <time>2017-06-30T19:59:36Z</time>
      </trkpt>
      <trkpt lat="48.94234" lon="1.08835">
        <ele>292.1</ele>
        <time>2017-06-30T19:59:39Z</time>
      </trkpt>
      <trkpt lat="48.94221" lon="1.08842">
        <ele>292.2</ele>
        <time>2017-06-30T19:59:42Z</time>
      </trkpt>
      <trkpt lat="48.94209" lon="1.08849">
        <ele>292.1</ele>
        <time>2017-06-30T19:59:45Z</time>
      </trkpt>
      <trkpt lat="48.94197" lon="1.08857">
        <ele>292.1</ele>
        <time>2017-06-30T19:59:48Z</time>
      </trkpt>
      <trkpt lat="48.94184" lon="1.08864">
        <ele>292.1</ele>
        <time>2017-06-30T19:59:51Z</time>
      </trkpt>
      <trkpt lat="48.94176" lon="1.0887">
        <ele>292</ele>
        <time>2017-06-30T19:59:53Z</time>
      </trkpt>
      <trkpt lat="48.94167" lon="1.08875">
        <ele>291.9</ele>
        <time>2017-06-30T19:59:55Z</time>
      </trkpt>
      <trkpt lat="48.94155" lon="1.08883">
        <ele>291.9</ele>
        <time>2017-06-30T19:59:58Z</time>
      </trkpt>
      <trkpt lat="48.94143" lon="1.08891">
        <ele>291.8</ele>
        <time>2017-06-30T20:00:01Z</time>
      </trkpt>
      <trkpt lat="48.94131" lon="1.08898">
        <ele>291.8</ele>
        <time>2017-06-30T20:00:04Z</time>
      </trkpt>
      <trkpt lat="48.94119" lon="1.08906">
        <ele>291.7</ele>
        <time>2017-06-30T20:00:07Z</time>
      </trkpt>
      <trkpt lat="48.94108" lon="1.08913">
        <ele>291.7</ele>
        <time>2017-06-30T20:00:10Z</time>
      </trkpt>
      <trkpt lat="48.94096" lon="1.0892">
        <ele>291.7</ele>
        <time>2017-06-30T20:00:13Z</time>
      </trkpt>
      <trkpt lat="48.94087" lon="1.08926">
        <ele>291.7</ele>
        <time>2017-06-30T20:00:16Z</time>
      </trkpt>
      <trkpt lat="48.94081" lon="1.08912">
        <ele>291.6</ele>
        <time>2017-06-30T20:00:21Z</time>
      </trkpt>
      <trkpt lat="48.94077" lon="1.08899">
        <ele>291.6</ele>
        <time>2017-06-30T20:00:24Z</time>
      </trkpt>
      <trkpt lat="48.94073" lon="1.08885">
        <ele>291.5</ele>
        <time>2017-06-30T20:00:27Z</time>
      </trkpt>
      <trkpt lat="48.94068" lon="1.08871">
        <ele>291.6</ele>
        <time>2017-06-30T20:00:30Z</time>
      </trkpt>
      <trkpt lat="48.94064" lon="1.08856">
        <ele>291.7</ele>
        <time>2017-06-30T20:00:33Z</time>
      </trkpt>
      <trkpt lat="48.9406" lon="1.08841">
        <ele>291.7</ele>
        <time>2017-06-30T20:00:36Z</time>
      </trkpt>
      <trkpt lat="48.94056" lon="1.08826">
        <ele>291.9</ele>
        <time>2017-06-30T20:00:39Z</time>
      </trkpt>
      <trkpt lat="48.94052" lon="1.08811">
        <ele>292.1</ele>
        <time>2017-06-30T20:00:42Z</time>
      </trkpt>
      <trkpt lat="48.94047" lon="1.08796">
        <ele>292.3</ele>
        <time>2017-06-30T20:00:45Z</time>
      </trkpt>
      <trkpt lat="48.94043" lon="1.08781">
        <ele>292.8</ele>
        <time>2017-06-30T20:00:48Z</time>
      </trkpt>
      <trkpt lat="48.94039" lon="1.08766">
        <ele>293</ele>
        <time>2017-06-30T20:00:51Z</time>
      </trkpt>
      <trkpt lat="48.94035" lon="1.08751">
        <ele>293.3</ele>
        <time>2017-06-30T20:00:54Z</time>
      </trkpt>
      <trkpt lat="48.94031" lon="1.08736">
        <ele>293.4</ele>
        <time>2017-06-30T20:00:57Z</time>
      </trkpt>
      <trkpt lat="48.94027" lon="1.08722">
        <ele>293.5</ele>
        <time>2017-06-30T20:01:00Z</time>
      </trkpt>
      <trkpt lat="48.94022" lon="1.08706">
        <ele>293.8</ele>
        <time>2017-06-30T20:01:03Z</time>
      </trkpt>
      <trkpt lat="48.94018" lon="1.08691">
        <ele>293.9</ele>
        <time>2017-06-30T20:01:06Z</time>
      </trkpt>
      <trkpt lat="48.94013" lon="1.08675">
        <ele>294.1</ele>
        <time>2017-06-30T20:01:09Z</time>
      </trkpt>
      <trkpt lat="48.94009" lon="1.0866">
        <ele>294.2</ele>
        <time>2017-06-30T20:01:12Z</time>
      </trkpt>
      <trkpt lat="48.94004" lon="1.08644">
        <ele>294.6</ele>
        <time>2017-06-30T20:01:15Z</time>
      </trkpt>
      <trkpt lat="48.94" lon="1.08628">
        <ele>294.8</ele>
        <time>2017-06-30T20:01:18Z</time>
      </trkpt>
      <trkpt lat="48.93995" lon="1.08611">
        <ele>295</ele>
        <time>2017-06-30T20:01:21Z</time>
      </trkpt>
      <trkpt lat="48.93991" lon="1.08595">
        <ele>295.2</ele>
        <time>2017-06-30T20:01:24Z</time>
      </trkpt>
      <trkpt lat="48.93986" lon="1.0858">
        <ele>295.4</ele>
        <time>2017-06-30T20:01:27Z</time>
      </trkpt>
      <trkpt lat="48.93982" lon="1.08566">
        <ele>295.8</ele>
        <time>2017-06-30T20:01:30Z</time>
      </trkpt>
      <trkpt lat="48.93978" lon="1.08552">
        <ele>296.3</ele>
        <time>2017-06-30T20:01:33Z</time>
      </trkpt>
      <trkpt lat="48.93974" lon="1.08538">
        <ele>296.7</ele>
        <time>2017-06-30T20:01:36Z</time>
      </trkpt>
      <trkpt lat="48.93969" lon="1.08522">
        <ele>296.8</ele>
        <time>2017-06-30T20:01:39Z</time>
      </trkpt>
      <trkpt lat="48.93963" lon="1.08506">
        <ele>297</ele>
        <time>2017-06-30T20:01:42Z</time>
      </trkpt>
      <trkpt lat="48.93959" lon="1.0849">
        <ele>297</ele>
        <time>2017-06-30T20:01:45Z</time>
      </trkpt>
      <trkpt lat="48.93954" lon="1.08475">
        <ele>297.2</ele>
        <time>2017-06-30T20:01:48Z</time>
      </trkpt>
      <trkpt lat="48.9395" lon="1.08459">
        <ele>297.3</ele>
        <time>2017-06-30T20:01:51Z</time>
      </trkpt>
      <trkpt lat="48.93945" lon="1.08442">
        <ele>297.5</ele>
        <time>2017-06-30T20:01:54Z</time>
      </trkpt>
      <trkpt lat="48.9394" lon="1.08425">
        <ele>297.8</ele>
        <time>2017-06-30T20:01:57Z</time>
      </trkpt>
      <trkpt lat="48.93936" lon="1.08408">
        <ele>298</ele>
        <time>2017-06-30T20:02:00Z</time>
      </trkpt>
      <trkpt lat="48.93931" lon="1.08391">
        <ele>298.3</ele>
        <time>2017-06-30T20:02:03Z</time>
      </trkpt>
      <trkpt lat="48.93926" lon="1.08374">
        <ele>298.5</ele>
        <time>2017-06-30T20:02:06Z</time>
      </trkpt>
      <trkpt lat="48.93921" lon="1.08357">
        <ele>299</ele>
        <time>2017-06-30T20:02:09Z</time>
      </trkpt>
      <trkpt lat="48.93916" lon="1.08339">
        <ele>299.1</ele>
        <time>2017-06-30T20:02:12Z</time>
      </trkpt>
      <trkpt lat="48.93911" lon="1.08322">
        <ele>299.5</ele>
        <time>2017-06-30T20:02:15Z</time>
      </trkpt>
      <trkpt lat="48.93906" lon="1.08305">
        <ele>299.6</ele>
        <time>2017-06-30T20:02:18Z</time>
      </trkpt>
      <trkpt lat="48.93901" lon="1.08287">
        <ele>299.7</ele>
        <time>2017-06-30T20:02:21Z</time>
      </trkpt>
      <trkpt lat="48.93896" lon="1.08269">
        <ele>299.9</ele>
        <time>2017-06-30T20:02:24Z</time>
      </trkpt>
      <trkpt lat="48.93891" lon="1.08251">
        <ele>299.8</ele>
        <time>2017-06-30T20:02:27Z</time>
      </trkpt>
      <trkpt lat="48.93885" lon="1.08232">
        <ele>300</ele>
        <time>2017-06-30T20:02:30Z</time>
      </trkpt>
      <trkpt lat="48.9388" lon="1.08214">
        <ele>300</ele>
        <time>2017-06-30T20:02:33Z</time>
      </trkpt>
      <trkpt lat="48.93875" lon="1.08196">
        <ele>299.9</ele>
        <time>2017-06-30T20:02:36Z</time>
      </trkpt>
      <trkpt lat="48.9387" lon="1.08178">
        <ele>299.9</ele>
        <time>2017-06-30T20:02:39Z</time>
      </trkpt>
      <trkpt lat="48.93865" lon="1.0816">
        <ele>300</ele>
        <time>2017-06-30T20:02:42Z</time>
      </trkpt>
      <trkpt lat="48.9386" lon="1.08141">
        <ele>300.3</ele>
        <time>2017-06-30T20:02:45Z</time>
      </trkpt>
      <trkpt lat="48.93854" lon="1.08123">
        <ele>300.2</ele>
        <time>2017-06-30T20:02:48Z</time>
      </trkpt>
      <trkpt lat="48.93849" lon="1.08105">
        <ele>300.1</ele>
        <time>2017-06-30T20:02:51Z</time>
      </trkpt>
      <trkpt lat="48.93843" lon="1.08086">
        <ele>300.2</ele>
        <time>2017-06-30T20:02:54Z</time>
      </trkpt>
      <trkpt lat="48.93838" lon="1.08068">
        <ele>300</ele>
        <time>2017-06-30T20:02:57Z</time>
      </trkpt>
      <trkpt lat="48.93832" lon="1.0805">
        <ele>300.1</ele>
        <time>2017-06-30T20:03:00Z</time>
      </trkpt>
      <trkpt lat="48.93828" lon="1.08032">
        <ele>300.4</ele>
        <time>2017-06-30T20:03:03Z</time>
      </trkpt>
      <trkpt lat="48.93822" lon="1.08013">
        <ele>300.3</ele>
        <time>2017-06-30T20:03:06Z</time>
      </trkpt>
      <trkpt lat="48.93819" lon="1.07999">
        <ele>300.3</ele>
        <time>2017-06-30T20:03:08Z</time>
      </trkpt>
      <trkpt lat="48.93815" lon="1.07986">
        <ele>300.3</ele>
        <time>2017-06-30T20:03:10Z</time>
      </trkpt>
      <trkpt lat="48.9381" lon="1.07974">
        <ele>300.1</ele>
        <time>2017-06-30T20:03:12Z</time>
      </trkpt>
      <trkpt lat="48.93805" lon="1.07962">
        <ele>299.8</ele>
        <time>2017-06-30T20:03:14Z</time>
      </trkpt>
      <trkpt lat="48.93799" lon="1.07944">
        <ele>299.8</ele>
        <time>2017-06-30T20:03:17Z</time>
      </trkpt>
      <trkpt lat="48.93796" lon="1.07928">
        <ele>299.7</ele>
        <time>2017-06-30T20:03:20Z</time>
      </trkpt>
      <trkpt lat="48.93791" lon="1.07913">
        <ele>299.6</ele>
        <time>2017-06-30T20:03:23Z</time>
      </trkpt>
      <trkpt lat="48.93787" lon="1.07897">
        <ele>299.7</ele>
        <time>2017-06-30T20:03:26Z</time>
      </trkpt>
      <trkpt lat="48.93782" lon="1.07882">
        <ele>299.6</ele>
        <time>2017-06-30T20:03:29Z</time>
      </trkpt>
      <trkpt lat="48.93788" lon="1.07867">
        <ele>299.4</ele>
        <time>2017-06-30T20:03:33Z</time>
      </trkpt>
      <trkpt lat="48.93799" lon="1.07862">
        <ele>299</ele>
        <time>2017-06-30T20:03:36Z</time>
      </trkpt>
      <trkpt lat="48.93811" lon="1.07856">
        <ele>299.1</ele>
        <time>2017-06-30T20:03:39Z</time>
      </trkpt>
      <trkpt lat="48.9382" lon="1.07852">
        <ele>299</ele>
        <time>2017-06-30T20:03:41Z</time>
      </trkpt>
      <trkpt lat="48.93829" lon="1.07848">
        <ele>298.9</ele>
        <time>2017-06-30T20:03:43Z</time>
      </trkpt>
      <trkpt lat="48.93838" lon="1.07844">
        <ele>298.8</ele>
        <time>2017-06-30T20:03:45Z</time>
      </trkpt>
      <trkpt lat="48.93846" lon="1.0784">
        <ele>298.8</ele>
        <time>2017-06-30T20:03:47Z</time>
      </trkpt>
      <trkpt lat="48.93859" lon="1.07833">
        <ele>298.6</ele>
        <time>2017-06-30T20:03:50Z</time>
      </trkpt>
      <trkpt lat="48.93869" lon="1.07829">
        <ele>298.6</ele>
        <time>2017-06-30T20:03:52Z</time>
      </trkpt>
      <trkpt lat="48.93878" lon="1.07824">
        <ele>298.5</ele>
        <time>2017-06-30T20:03:54Z</time>
      </trkpt>
      <trkpt lat="48.93887" lon="1.0782">
        <ele>298.5</ele>
        <time>2017-06-30T20:03:56Z</time>
      </trkpt>
      <trkpt lat="48.93897" lon="1.07815">
        <ele>298.6</ele>
        <time>2017-06-30T20:03:58Z</time>
      </trkpt>
      <trkpt lat="48.93907" lon="1.07811">
        <ele>298.7</ele>
        <time>2017-06-30T20:04:00Z</time>
      </trkpt>
      <trkpt lat="48.93916" lon="1.07806">
        <ele>298.6</ele>
        <time>2017-06-30T20:04:02Z</time>
      </trkpt>
      <trkpt lat="48.93925" lon="1.07801">
        <ele>298.5</ele>
        <time>2017-06-30T20:04:04Z</time>
      </trkpt>
      <trkpt lat="48.93935" lon="1.07796">
        <ele>298.5</ele>
        <time>2017-06-30T20:04:06Z</time>
      </trkpt>
      <trkpt lat="48.93944" lon="1.07792">
        <ele>298.5</ele>
        <time>2017-06-30T20:04:08Z</time>
      </trkpt>
      <trkpt lat="48.93954" lon="1.07787">
        <ele>298.5</ele>
        <time>2017-06-30T20:04:10Z</time>
      </trkpt>
      <trkpt lat="48.93963" lon="1.07783">
        <ele>298.6</ele>
        <time>2017-06-30T20:04:12Z</time>
      </trkpt>
      <trkpt lat="48.93973" lon="1.07778">
        <ele>298.6</ele>
        <time>2017-06-30T20:04:14Z</time>
      </trkpt>
      <trkpt lat="48.93982" lon="1.07773">
        <ele>298.6</ele>
        <time>2017-06-30T20:04:16Z</time>
      </trkpt>
      <trkpt lat="48.93992" lon="1.07769">
        <ele>298.6</ele>
        <time>2017-06-30T20:04:18Z</time>
      </trkpt>
      <trkpt lat="48.94003" lon="1.07764">
        <ele>298.6</ele>
        <time>2017-06-30T20:04:20Z</time>
      </trkpt>
      <trkpt lat="48.94013" lon="1.07759">
        <ele>298.7</ele>
        <time>2017-06-30T20:04:22Z</time>
      </trkpt>
      <trkpt lat="48.94023" lon="1.07755">
        <ele>298.8</ele>
        <time>2017-06-30T20:04:24Z</time>
      </trkpt>
      <trkpt lat="48.94033" lon="1.07751">
        <ele>298.8</ele>
        <time>2017-06-30T20:04:26Z</time>
      </trkpt>
      <trkpt lat="48.94042" lon="1.07747">
        <ele>298.8</ele>
        <time>2017-06-30T20:04:28Z</time>
      </trkpt>
      <trkpt lat="48.94052" lon="1.07743">
        <ele>298.9</ele>
        <time>2017-06-30T20:04:30Z</time>
      </trkpt>
      <trkpt lat="48.94062" lon="1.07738">
        <ele>298.9</ele>
        <time>2017-06-30T20:04:32Z</time>
      </trkpt>
      <trkpt lat="48.94072" lon="1.07734">
        <ele>298.9</ele>
        <time>2017-06-30T20:04:34Z</time>
      </trkpt>
      <trkpt lat="48.94083" lon="1.07729">
        <ele>298.9</ele>
        <time>2017-06-30T20:04:36Z</time>
      </trkpt>
      <trkpt lat="48.94092" lon="1.07724">
        <ele>298.8</ele>
        <time>2017-06-30T20:04:38Z</time>
      </trkpt>
      <trkpt lat="48.94102" lon="1.0772">
        <ele>298.9</ele>
        <time>2017-06-30T20:04:40Z</time>
      </trkpt>
      <trkpt lat="48.94113" lon="1.07716">
        <ele>298.8</ele>
        <time>2017-06-30T20:04:42Z</time>
      </trkpt>
      <trkpt lat="48.94122" lon="1.07712">
        <ele>298.8</ele>
        <time>2017-06-30T20:04:44Z</time>
      </trkpt>
      <trkpt lat="48.94131" lon="1.07708">
        <ele>298.7</ele>
        <time>2017-06-30T20:04:46Z</time>
      </trkpt>
      <trkpt lat="48.94142" lon="1.07702">
        <ele>298.8</ele>
        <time>2017-06-30T20:04:49Z</time>
      </trkpt>
      <trkpt lat="48.94142" lon="1.07686">
        <ele>298.7</ele>
        <time>2017-06-30T20:04:54Z</time>
      </trkpt>
      <trkpt lat="48.94146" lon="1.0767">
        <ele>298.1</ele>
        <time>2017-06-30T20:05:01Z</time>
      </trkpt>
      <trkpt lat="48.94156" lon="1.07664">
        <ele>298.2</ele>
        <time>2017-06-30T20:05:05Z</time>
      </trkpt>
      <trkpt lat="48.94163" lon="1.07651">
        <ele>298.2</ele>
        <time>2017-06-30T20:05:09Z</time>
      </trkpt>
      <trkpt lat="48.94165" lon="1.07637">
        <ele>298.9</ele>
        <time>2017-06-30T20:05:55Z</time>
      </trkpt>
      <trkpt lat="48.94164" lon="1.07623">
        <ele>298.9</ele>
        <time>2017-06-30T20:06:00Z</time>
      </trkpt>
      <trkpt lat="48.94165" lon="1.07608">
        <ele>298.9</ele>
        <time>2017-06-30T20:06:04Z</time>
      </trkpt>
      <trkpt lat="48.94165" lon="1.07593">
        <ele>298.8</ele>
        <time>2017-06-30T20:06:08Z</time>
      </trkpt>
      <trkpt lat="48.94168" lon="1.07578">
        <ele>298.5</ele>
        <time>2017-06-30T20:06:11Z</time>
      </trkpt>
      <trkpt lat="48.94173" lon="1.07565">
        <ele>298.2</ele>
        <time>2017-06-30T20:06:14Z</time>
      </trkpt>
      <trkpt lat="48.94177" lon="1.07545">
        <ele>298.3</ele>
        <time>2017-06-30T20:06:18Z</time>
      </trkpt>
      <trkpt lat="48.94176" lon="1.07525">
        <ele>298.2</ele>
        <time>2017-06-30T20:06:21Z</time>
      </trkpt>
      <trkpt lat="48.94173" lon="1.07511">
        <ele>298.2</ele>
        <time>2017-06-30T20:06:23Z</time>
      </trkpt>
      <trkpt lat="48.9417" lon="1.07496">
        <ele>298.2</ele>
        <time>2017-06-30T20:06:25Z</time>
      </trkpt>
      <trkpt lat="48.94169" lon="1.07482">
        <ele>298.1</ele>
        <time>2017-06-30T20:06:27Z</time>
      </trkpt>
      <trkpt lat="48.94172" lon="1.07469">
        <ele>298</ele>
        <time>2017-06-30T20:06:29Z</time>
      </trkpt>
      <trkpt lat="48.94174" lon="1.07455">
        <ele>297.9</ele>
        <time>2017-06-30T20:06:31Z</time>
      </trkpt>
      <trkpt lat="48.94178" lon="1.07441">
        <ele>297.8</ele>
        <time>2017-06-30T20:06:33Z</time>
      </trkpt>
      <trkpt lat="48.94182" lon="1.07426">
        <ele>297.7</ele>
        <time>2017-06-30T20:06:36Z</time>
      </trkpt>
      <trkpt lat="48.94187" lon="1.07414">
        <ele>297.8</ele>
        <time>2017-06-30T20:06:41Z</time>
      </trkpt>
      <trkpt lat="48.9418" lon="1.074">
        <ele>297.9</ele>
        <time>2017-06-30T20:07:02Z</time>
      </trkpt>
      <trkpt lat="48.94173" lon="1.07392">
        <ele>297.9</ele>
        <time>2017-06-30T20:07:34Z</time>
      </trkpt>
      <trkpt lat="48.9418" lon="1.07401">
        <ele>298</ele>
        <time>2017-06-30T20:07:59Z</time>
      </trkpt>
      <trkpt lat="48.94181" lon="1.07384">
        <ele>297.7</ele>
        <time>2017-06-30T20:09:55Z</time>
      </trkpt>
      <trkpt lat="48.94184" lon="1.07369">
        <ele>297.4</ele>
        <time>2017-06-30T20:10:00Z</time>
      </trkpt>
      <trkpt lat="48.94186" lon="1.07355">
        <ele>297.3</ele>
        <time>2017-06-30T20:10:03Z</time>
      </trkpt>
      <trkpt lat="48.94179" lon="1.07344">
        <ele>297.1</ele>
        <time>2017-06-30T20:10:09Z</time>
      </trkpt>
      <trkpt lat="48.94169" lon="1.07339">
        <ele>296.8</ele>
        <time>2017-06-30T20:10:12Z</time>
      </trkpt>
      <trkpt lat="48.94159" lon="1.07333">
        <ele>296.5</ele>
        <time>2017-06-30T20:10:15Z</time>
      </trkpt>
      <trkpt lat="48.94148" lon="1.07333">
        <ele>296.4</ele>
        <time>2017-06-30T20:10:18Z</time>
      </trkpt>
      <trkpt lat="48.94137" lon="1.0734">
        <ele>296.4</ele>
        <time>2017-06-30T20:10:21Z</time>
      </trkpt>
      <trkpt lat="48.94127" lon="1.07348">
        <ele>296.3</ele>
        <time>2017-06-30T20:10:24Z</time>
      </trkpt>
      <trkpt lat="48.94116" lon="1.07351">
        <ele>296.3</ele>
        <time>2017-06-30T20:10:28Z</time>
      </trkpt>
      <trkpt lat="48.94107" lon="1.07356">
        <ele>296</ele>
        <time>2017-06-30T20:10:31Z</time>
      </trkpt>
      <trkpt lat="48.94096" lon="1.07363">
        <ele>295.9</ele>
        <time>2017-06-30T20:10:34Z</time>
      </trkpt>
      <trkpt lat="48.94084" lon="1.0737">
        <ele>296.1</ele>
        <time>2017-06-30T20:10:37Z</time>
      </trkpt>
      <trkpt lat="48.94074" lon="1.07378">
        <ele>296.1</ele>
        <time>2017-06-30T20:10:40Z</time>
      </trkpt>
      <trkpt lat="48.94065" lon="1.07382">
        <ele>295.9</ele>
        <time>2017-06-30T20:10:42Z</time>
      </trkpt>
      <trkpt lat="48.94055" lon="1.07389">
        <ele>295.8</ele>
        <time>2017-06-30T20:10:45Z</time>
      </trkpt>
      <trkpt lat="48.94046" lon="1.07397">
        <ele>295.4</ele>
        <time>2017-06-30T20:10:48Z</time>
      </trkpt>
      <trkpt lat="48.94034" lon="1.07403">
        <ele>295.4</ele>
        <time>2017-06-30T20:10:51Z</time>
      </trkpt>
      <trkpt lat="48.94024" lon="1.07412">
        <ele>295.5</ele>
        <time>2017-06-30T20:10:54Z</time>
      </trkpt>
      <trkpt lat="48.94013" lon="1.0742">
        <ele>294.9</ele>
        <time>2017-06-30T20:10:57Z</time>
      </trkpt>
      <trkpt lat="48.94" lon="1.07429">
        <ele>295</ele>
        <time>2017-06-30T20:11:00Z</time>
      </trkpt>
      <trkpt lat="48.9399" lon="1.07435">
        <ele>295.1</ele>
        <time>2017-06-30T20:11:03Z</time>
      </trkpt>
      <trkpt lat="48.93979" lon="1.07443">
        <ele>295.2</ele>
        <time>2017-06-30T20:11:06Z</time>
      </trkpt>
      <trkpt lat="48.9397" lon="1.07447">
        <ele>295</ele>
        <time>2017-06-30T20:11:08Z</time>
      </trkpt>
      <trkpt lat="48.93961" lon="1.07453">
        <ele>295</ele>
        <time>2017-06-30T20:11:10Z</time>
      </trkpt>
      <trkpt lat="48.93951" lon="1.07459">
        <ele>295.1</ele>
        <time>2017-06-30T20:11:12Z</time>
      </trkpt>
      <trkpt lat="48.93941" lon="1.07464">
        <ele>295.1</ele>
        <time>2017-06-30T20:11:14Z</time>
      </trkpt>
      <trkpt lat="48.93931" lon="1.0747">
        <ele>295</ele>
        <time>2017-06-30T20:11:16Z</time>
      </trkpt>
      <trkpt lat="48.93919" lon="1.07477">
        <ele>294.8</ele>
        <time>2017-06-30T20:11:19Z</time>
      </trkpt>
      <trkpt lat="48.9391" lon="1.07482">
        <ele>294.7</ele>
        <time>2017-06-30T20:11:21Z</time>
      </trkpt>
      <trkpt lat="48.93901" lon="1.07489">
        <ele>294.5</ele>
        <time>2017-06-30T20:11:23Z</time>
      </trkpt>
      <trkpt lat="48.93893" lon="1.07495">
        <ele>294.5</ele>
        <time>2017-06-30T20:11:25Z</time>
      </trkpt>
      <trkpt lat="48.93882" lon="1.07501">
        <ele>294.5</ele>
        <time>2017-06-30T20:11:27Z</time>
      </trkpt>
      <trkpt lat="48.93873" lon="1.07506">
        <ele>294.4</ele>
        <time>2017-06-30T20:11:29Z</time>
      </trkpt>
      <trkpt lat="48.93862" lon="1.07513">
        <ele>294.2</ele>
        <time>2017-06-30T20:11:32Z</time>
      </trkpt>
      <trkpt lat="48.93853" lon="1.0752">
        <ele>294.2</ele>
        <time>2017-06-30T20:11:34Z</time>
      </trkpt>
      <trkpt lat="48.93844" lon="1.07525">
        <ele>293.8</ele>
        <time>2017-06-30T20:11:36Z</time>
      </trkpt>
      <trkpt lat="48.93834" lon="1.07534">
        <ele>293.6</ele>
        <time>2017-06-30T20:11:39Z</time>
      </trkpt>
      <trkpt lat="48.93825" lon="1.07538">
        <ele>293.6</ele>
        <time>2017-06-30T20:11:41Z</time>
      </trkpt>
      <trkpt lat="48.93817" lon="1.07543">
        <ele>293.6</ele>
        <time>2017-06-30T20:11:43Z</time>
      </trkpt>
      <trkpt lat="48.93804" lon="1.07551">
        <ele>293.6</ele>
        <time>2017-06-30T20:11:46Z</time>
      </trkpt>
      <trkpt lat="48.93796" lon="1.07559">
        <ele>293.5</ele>
        <time>2017-06-30T20:11:48Z</time>
      </trkpt>
      <trkpt lat="48.93786" lon="1.07566">
        <ele>293.3</ele>
        <time>2017-06-30T20:11:51Z</time>
      </trkpt>
      <trkpt lat="48.93775" lon="1.07568">
        <ele>293.3</ele>
        <time>2017-06-30T20:11:54Z</time>
      </trkpt>
      <trkpt lat="48.93767" lon="1.07559">
        <ele>293.3</ele>
        <time>2017-06-30T20:11:59Z</time>
      </trkpt>
      <trkpt lat="48.9376" lon="1.07542">
        <ele>292.8</ele>
        <time>2017-06-30T20:12:04Z</time>
      </trkpt>
      <trkpt lat="48.93757" lon="1.07528">
        <ele>292.8</ele>
        <time>2017-06-30T20:12:07Z</time>
      </trkpt>
      <trkpt lat="48.93753" lon="1.07511">
        <ele>292.4</ele>
        <time>2017-06-30T20:12:12Z</time>
      </trkpt>
      <trkpt lat="48.9375" lon="1.07497">
        <ele>292.7</ele>
        <time>2017-06-30T20:12:16Z</time>
      </trkpt>
      <trkpt lat="48.93747" lon="1.0748">
        <ele>292.7</ele>
        <time>2017-06-30T20:12:20Z</time>
      </trkpt>
      <trkpt lat="48.93744" lon="1.07467">
        <ele>292.8</ele>
        <time>2017-06-30T20:12:23Z</time>
      </trkpt>
      <trkpt lat="48.93738" lon="1.07451">
        <ele>292.5</ele>
        <time>2017-06-30T20:12:26Z</time>
      </trkpt>
      <trkpt lat="48.93734" lon="1.07438">
        <ele>292.3</ele>
        <time>2017-06-30T20:12:28Z</time>
      </trkpt>
      <trkpt lat="48.93731" lon="1.07425">
        <ele>292.1</ele>
        <time>2017-06-30T20:12:30Z</time>
      </trkpt>
      <trkpt lat="48.93725" lon="1.07408">
        <ele>291.8</ele>
        <time>2017-06-30T20:12:33Z</time>
      </trkpt>
      <trkpt lat="48.9372" lon="1.07396">
        <ele>291.8</ele>
        <time>2017-06-30T20:12:35Z</time>
      </trkpt>
      <trkpt lat="48.93715" lon="1.07378">
        <ele>291.1</ele>
        <time>2017-06-30T20:12:38Z</time>
      </trkpt>
      <trkpt lat="48.93713" lon="1.0736">
        <ele>291</ele>
        <time>2017-06-30T20:12:41Z</time>
      </trkpt>
      <trkpt lat="48.93709" lon="1.07346">
        <ele>291</ele>
        <time>2017-06-30T20:12:43Z</time>
      </trkpt>
      <trkpt lat="48.93705" lon="1.07333">
        <ele>290.6</ele>
        <time>2017-06-30T20:12:45Z</time>
      </trkpt>
      <trkpt lat="48.93701" lon="1.0732">
        <ele>290.3</ele>
        <time>2017-06-30T20:12:47Z</time>
      </trkpt>
      <trkpt lat="48.93696" lon="1.07302">
        <ele>290</ele>
        <time>2017-06-30T20:12:50Z</time>
      </trkpt>
      <trkpt lat="48.93692" lon="1.07288">
        <ele>290</ele>
        <time>2017-06-30T20:12:53Z</time>
      </trkpt>
      <trkpt lat="48.93687" lon="1.07275">
        <ele>289.6</ele>
        <time>2017-06-30T20:12:56Z</time>
      </trkpt>
      <trkpt lat="48.93683" lon="1.07261">
        <ele>289</ele>
        <time>2017-06-30T20:12:59Z</time>
      </trkpt>
      <trkpt lat="48.93676" lon="1.07248">
        <ele>288.7</ele>
        <time>2017-06-30T20:13:02Z</time>
      </trkpt>
      <trkpt lat="48.93666" lon="1.07239">
        <ele>288.4</ele>
        <time>2017-06-30T20:13:05Z</time>
      </trkpt>
      <trkpt lat="48.93659" lon="1.07229">
        <ele>288.1</ele>
        <time>2017-06-30T20:13:10Z</time>
      </trkpt>
      <trkpt lat="48.93651" lon="1.07222">
        <ele>288.1</ele>
        <time>2017-06-30T20:13:14Z</time>
      </trkpt>
      <trkpt lat="48.93643" lon="1.07218">
        <ele>288.1</ele>
        <time>2017-06-30T20:13:17Z</time>
      </trkpt>
      <trkpt lat="48.93633" lon="1.07211">
        <ele>288.2</ele>
        <time>2017-06-30T20:13:20Z</time>
      </trkpt>
      <trkpt lat="48.93623" lon="1.07205">
        <ele>288.1</ele>
        <time>2017-06-30T20:13:23Z</time>
      </trkpt>
      <trkpt lat="48.9361" lon="1.07199">
        <ele>288</ele>
        <time>2017-06-30T20:13:26Z</time>
      </trkpt>
      <trkpt lat="48.93599" lon="1.0719">
        <ele>288</ele>
        <time>2017-06-30T20:13:29Z</time>
      </trkpt>
      <trkpt lat="48.93589" lon="1.07182">
        <ele>287.5</ele>
        <time>2017-06-30T20:13:32Z</time>
      </trkpt>
      <trkpt lat="48.9358" lon="1.07174">
        <ele>287.8</ele>
        <time>2017-06-30T20:13:35Z</time>
      </trkpt>
      <trkpt lat="48.9357" lon="1.07165">
        <ele>288</ele>
        <time>2017-06-30T20:13:39Z</time>
      </trkpt>
      <trkpt lat="48.93559" lon="1.07157">
        <ele>288.1</ele>
        <time>2017-06-30T20:13:42Z</time>
      </trkpt>
      <trkpt lat="48.9355" lon="1.07153">
        <ele>288.1</ele>
        <time>2017-06-30T20:13:44Z</time>
      </trkpt>
      <trkpt lat="48.93541" lon="1.07148">
        <ele>288.2</ele>
        <time>2017-06-30T20:13:46Z</time>
      </trkpt>
      <trkpt lat="48.93531" lon="1.07146">
        <ele>288.2</ele>
        <time>2017-06-30T20:13:49Z</time>
      </trkpt>
      <trkpt lat="48.93521" lon="1.07145">
        <ele>288.4</ele>
        <time>2017-06-30T20:13:52Z</time>
      </trkpt>
      <trkpt lat="48.93511" lon="1.07139">
        <ele>288.8</ele>
        <time>2017-06-30T20:13:57Z</time>
      </trkpt>
      <trkpt lat="48.935" lon="1.07131">
        <ele>288.9</ele>
        <time>2017-06-30T20:14:01Z</time>
      </trkpt>
      <trkpt lat="48.93491" lon="1.07125">
        <ele>289</ele>
        <time>2017-06-30T20:14:03Z</time>
      </trkpt>
      <trkpt lat="48.93483" lon="1.0712">
        <ele>289</ele>
        <time>2017-06-30T20:14:05Z</time>
      </trkpt>
      <trkpt lat="48.93473" lon="1.07111">
        <ele>289.1</ele>
        <time>2017-06-30T20:14:08Z</time>
      </trkpt>
      <trkpt lat="48.93461" lon="1.07103">
        <ele>289.1</ele>
        <time>2017-06-30T20:14:11Z</time>
      </trkpt>
      <trkpt lat="48.93448" lon="1.07098">
        <ele>288.3</ele>
        <time>2017-06-30T20:14:14Z</time>
      </trkpt>
      <trkpt lat="48.93438" lon="1.07095">
        <ele>288.5</ele>
        <time>2017-06-30T20:14:16Z</time>
      </trkpt>
      <trkpt lat="48.93429" lon="1.07093">
        <ele>288.6</ele>
        <time>2017-06-30T20:14:18Z</time>
      </trkpt>
      <trkpt lat="48.93419" lon="1.07092">
        <ele>288.5</ele>
        <time>2017-06-30T20:14:20Z</time>
      </trkpt>
      <trkpt lat="48.93409" lon="1.07091">
        <ele>288.4</ele>
        <time>2017-06-30T20:14:22Z</time>
      </trkpt>
      <trkpt lat="48.93399" lon="1.07091">
        <ele>288.3</ele>
        <time>2017-06-30T20:14:24Z</time>
      </trkpt>
      <trkpt lat="48.93387" lon="1.07092">
        <ele>288.2</ele>
        <time>2017-06-30T20:14:27Z</time>
      </trkpt>
      <trkpt lat="48.93373" lon="1.0709">
        <ele>288.5</ele>
        <time>2017-06-30T20:14:30Z</time>
      </trkpt>
      <trkpt lat="48.93362" lon="1.07081">
        <ele>288.8</ele>
        <time>2017-06-30T20:14:33Z</time>
      </trkpt>
      <trkpt lat="48.93351" lon="1.07072">
        <ele>289</ele>
        <time>2017-06-30T20:14:36Z</time>
      </trkpt>
      <trkpt lat="48.9334" lon="1.07065">
        <ele>289</ele>
        <time>2017-06-30T20:14:39Z</time>
      </trkpt>
      <trkpt lat="48.9333" lon="1.0706">
        <ele>289.1</ele>
        <time>2017-06-30T20:14:41Z</time>
      </trkpt>
      <trkpt lat="48.93318" lon="1.0706">
        <ele>289.1</ele>
        <time>2017-06-30T20:14:44Z</time>
      </trkpt>
      <trkpt lat="48.93307" lon="1.07065">
        <ele>288.7</ele>
        <time>2017-06-30T20:14:47Z</time>
      </trkpt>
      <trkpt lat="48.93296" lon="1.07074">
        <ele>287.9</ele>
        <time>2017-06-30T20:14:50Z</time>
      </trkpt>
      <trkpt lat="48.93286" lon="1.07083">
        <ele>287</ele>
        <time>2017-06-30T20:14:53Z</time>
      </trkpt>
      <trkpt lat="48.93274" lon="1.0709">
        <ele>286.4</ele>
        <time>2017-06-30T20:14:56Z</time>
      </trkpt>
      <trkpt lat="48.93263" lon="1.07091">
        <ele>286.4</ele>
        <time>2017-06-30T20:14:59Z</time>
      </trkpt>
      <trkpt lat="48.93253" lon="1.07096">
        <ele>286.7</ele>
        <time>2017-06-30T20:15:02Z</time>
      </trkpt>
      <trkpt lat="48.93243" lon="1.07104">
        <ele>286.7</ele>
        <time>2017-06-30T20:15:05Z</time>
      </trkpt>
      <trkpt lat="48.93234" lon="1.0711">
        <ele>286.8</ele>
        <time>2017-06-30T20:15:08Z</time>
      </trkpt>
      <trkpt lat="48.93224" lon="1.07117">
        <ele>287.3</ele>
        <time>2017-06-30T20:15:11Z</time>
      </trkpt>
      <trkpt lat="48.93215" lon="1.07125">
        <ele>287.5</ele>
        <time>2017-06-30T20:15:14Z</time>
      </trkpt>
      <trkpt lat="48.93207" lon="1.07132">
        <ele>287.8</ele>
        <time>2017-06-30T20:15:17Z</time>
      </trkpt>
      <trkpt lat="48.93198" lon="1.07138">
        <ele>288</ele>
        <time>2017-06-30T20:15:19Z</time>
      </trkpt>
      <trkpt lat="48.93188" lon="1.07146">
        <ele>288.1</ele>
        <time>2017-06-30T20:15:22Z</time>
      </trkpt>
      <trkpt lat="48.93177" lon="1.07155">
        <ele>288.3</ele>
        <time>2017-06-30T20:15:25Z</time>
      </trkpt>
      <trkpt lat="48.93167" lon="1.0716">
        <ele>288.2</ele>
        <time>2017-06-30T20:15:28Z</time>
      </trkpt>
      <trkpt lat="48.93156" lon="1.07166">
        <ele>288.3</ele>
        <time>2017-06-30T20:15:32Z</time>
      </trkpt>
      <trkpt lat="48.93146" lon="1.07172">
        <ele>288.3</ele>
        <time>2017-06-30T20:15:35Z</time>
      </trkpt>
      <trkpt lat="48.93137" lon="1.0718">
        <ele>288.3</ele>
        <time>2017-06-30T20:15:39Z</time>
      </trkpt>
      <trkpt lat="48.93127" lon="1.07189">
        <ele>288.4</ele>
        <time>2017-06-30T20:15:43Z</time>
      </trkpt>
      <trkpt lat="48.93117" lon="1.07196">
        <ele>288.4</ele>
        <time>2017-06-30T20:15:46Z</time>
      </trkpt>
      <trkpt lat="48.93105" lon="1.07199">
        <ele>288.6</ele>
        <time>2017-06-30T20:15:49Z</time>
      </trkpt>
      <trkpt lat="48.93093" lon="1.07204">
        <ele>288.6</ele>
        <time>2017-06-30T20:15:52Z</time>
      </trkpt>
      <trkpt lat="48.93082" lon="1.07213">
        <ele>288.7</ele>
        <time>2017-06-30T20:15:55Z</time>
      </trkpt>
      <trkpt lat="48.93074" lon="1.07219">
        <ele>288.8</ele>
        <time>2017-06-30T20:15:57Z</time>
      </trkpt>
      <trkpt lat="48.93066" lon="1.07225">
        <ele>288.9</ele>
        <time>2017-06-30T20:15:59Z</time>
      </trkpt>
      <trkpt lat="48.93054" lon="1.07233">
        <ele>289</ele>
        <time>2017-06-30T20:16:02Z</time>
      </trkpt>
      <trkpt lat="48.93042" lon="1.07241">
        <ele>289.2</ele>
        <time>2017-06-30T20:16:05Z</time>
      </trkpt>
      <trkpt lat="48.93031" lon="1.07251">
        <ele>289.4</ele>
        <time>2017-06-30T20:16:08Z</time>
      </trkpt>
      <trkpt lat="48.93019" lon="1.07256">
        <ele>289.8</ele>
        <time>2017-06-30T20:16:11Z</time>
      </trkpt>
      <trkpt lat="48.93008" lon="1.07263">
        <ele>290</ele>
        <time>2017-06-30T20:16:14Z</time>
      </trkpt>
      <trkpt lat="48.93" lon="1.0727">
        <ele>290.1</ele>
        <time>2017-06-30T20:16:16Z</time>
      </trkpt>
      <trkpt lat="48.92992" lon="1.07274">
        <ele>290.3</ele>
        <time>2017-06-30T20:16:18Z</time>
      </trkpt>
      <trkpt lat="48.92982" lon="1.07283">
        <ele>290.2</ele>
        <time>2017-06-30T20:16:21Z</time>
      </trkpt>
      <trkpt lat="48.92971" lon="1.07289">
        <ele>290.2</ele>
        <time>2017-06-30T20:16:24Z</time>
      </trkpt>
      <trkpt lat="48.92963" lon="1.07298">
        <ele>290</ele>
        <time>2017-06-30T20:16:26Z</time>
      </trkpt>
      <trkpt lat="48.92952" lon="1.07306">
        <ele>289.3</ele>
        <time>2017-06-30T20:16:29Z</time>
      </trkpt>
      <trkpt lat="48.92942" lon="1.07312">
        <ele>289.1</ele>
        <time>2017-06-30T20:16:32Z</time>
      </trkpt>
      <trkpt lat="48.92934" lon="1.07321">
        <ele>288.9</ele>
        <time>2017-06-30T20:16:36Z</time>
      </trkpt>
      <trkpt lat="48.92925" lon="1.0733">
        <ele>288.8</ele>
        <time>2017-06-30T20:16:40Z</time>
      </trkpt>
      <trkpt lat="48.92918" lon="1.0734">
        <ele>289.1</ele>
        <time>2017-06-30T20:16:45Z</time>
      </trkpt>
      <trkpt lat="48.92908" lon="1.07347">
        <ele>289</ele>
        <time>2017-06-30T20:16:50Z</time>
      </trkpt>
      <trkpt lat="48.92898" lon="1.07351">
        <ele>288.8</ele>
        <time>2017-06-30T20:16:54Z</time>
      </trkpt>
      <trkpt lat="48.92888" lon="1.07356">
        <ele>288.6</ele>
        <time>2017-06-30T20:16:58Z</time>
      </trkpt>
      <trkpt lat="48.92881" lon="1.07366">
        <ele>289</ele>
        <time>2017-06-30T20:17:02Z</time>
      </trkpt>
      <trkpt lat="48.92874" lon="1.07375">
        <ele>289</ele>
        <time>2017-06-30T20:17:08Z</time>
      </trkpt>
      <trkpt lat="48.92864" lon="1.0737">
        <ele>289</ele>
        <time>2017-06-30T20:17:14Z</time>
      </trkpt>
      <trkpt lat="48.92855" lon="1.07379">
        <ele>288.8</ele>
        <time>2017-06-30T20:17:18Z</time>
      </trkpt>
      <trkpt lat="48.92844" lon="1.07385">
        <ele>288.7</ele>
        <time>2017-06-30T20:17:22Z</time>
      </trkpt>
      <trkpt lat="48.92834" lon="1.07392">
        <ele>288.7</ele>
        <time>2017-06-30T20:17:26Z</time>
      </trkpt>
      <trkpt lat="48.92826" lon="1.074">
        <ele>288.6</ele>
        <time>2017-06-30T20:17:30Z</time>
      </trkpt>
      <trkpt lat="48.92817" lon="1.07406">
        <ele>288.5</ele>
        <time>2017-06-30T20:17:33Z</time>
      </trkpt>
      <trkpt lat="48.92807" lon="1.07414">
        <ele>288.6</ele>
        <time>2017-06-30T20:17:36Z</time>
      </trkpt>
      <trkpt lat="48.92798" lon="1.07422">
        <ele>288.4</ele>
        <time>2017-06-30T20:17:39Z</time>
      </trkpt>
      <trkpt lat="48.92787" lon="1.07429">
        <ele>288.2</ele>
        <time>2017-06-30T20:17:42Z</time>
      </trkpt>
      <trkpt lat="48.92776" lon="1.07435">
        <ele>288</ele>
        <time>2017-06-30T20:17:46Z</time>
      </trkpt>
      <trkpt lat="48.92768" lon="1.07441">
        <ele>287.9</ele>
        <time>2017-06-30T20:17:49Z</time>
      </trkpt>
      <trkpt lat="48.9276" lon="1.07446">
        <ele>287.8</ele>
        <time>2017-06-30T20:17:54Z</time>
      </trkpt>
      <trkpt lat="48.92751" lon="1.07451">
        <ele>287.8</ele>
        <time>2017-06-30T20:18:11Z</time>
      </trkpt>
      <trkpt lat="48.92743" lon="1.07458">
        <ele>287.7</ele>
        <time>2017-06-30T20:18:27Z</time>
      </trkpt>
      <trkpt lat="48.92738" lon="1.07472">
        <ele>287.4</ele>
        <time>2017-06-30T20:18:34Z</time>
      </trkpt>
      <trkpt lat="48.92734" lon="1.07488">
        <ele>287.5</ele>
        <time>2017-06-30T20:18:38Z</time>
      </trkpt>
      <trkpt lat="48.9273" lon="1.07503">
        <ele>287.6</ele>
        <time>2017-06-30T20:18:42Z</time>
      </trkpt>
      <trkpt lat="48.92728" lon="1.07519">
        <ele>288.1</ele>
        <time>2017-06-30T20:18:46Z</time>
      </trkpt>
      <trkpt lat="48.92727" lon="1.07537">
        <ele>288.6</ele>
        <time>2017-06-30T20:18:50Z</time>
      </trkpt>
      <trkpt lat="48.92726" lon="1.07552">
        <ele>289.1</ele>
        <time>2017-06-30T20:18:53Z</time>
      </trkpt>
      <trkpt lat="48.92725" lon="1.07567">
        <ele>289.4</ele>
        <time>2017-06-30T20:18:56Z</time>
      </trkpt>
      <trkpt lat="48.92722" lon="1.07582">
        <ele>289.9</ele>
        <time>2017-06-30T20:18:59Z</time>
      </trkpt>
      <trkpt lat="48.92721" lon="1.07599">
        <ele>290.3</ele>
        <time>2017-06-30T20:19:02Z</time>
      </trkpt>
      <trkpt lat="48.92723" lon="1.07618">
        <ele>290.5</ele>
        <time>2017-06-30T20:19:05Z</time>
      </trkpt>
      <trkpt lat="48.92723" lon="1.07635">
        <ele>290.8</ele>
        <time>2017-06-30T20:19:08Z</time>
      </trkpt>
      <trkpt lat="48.92723" lon="1.07652">
        <ele>291.1</ele>
        <time>2017-06-30T20:19:11Z</time>
      </trkpt>
      <trkpt lat="48.92723" lon="1.07668">
        <ele>291.3</ele>
        <time>2017-06-30T20:19:14Z</time>
      </trkpt>
      <trkpt lat="48.92724" lon="1.07685">
        <ele>291.6</ele>
        <time>2017-06-30T20:19:17Z</time>
      </trkpt>
      <trkpt lat="48.92724" lon="1.07699">
        <ele>291.7</ele>
        <time>2017-06-30T20:19:19Z</time>
      </trkpt>
      <trkpt lat="48.92724" lon="1.07719">
        <ele>291.9</ele>
        <time>2017-06-30T20:19:22Z</time>
      </trkpt>
      <trkpt lat="48.92725" lon="1.07739">
        <ele>292</ele>
        <time>2017-06-30T20:19:25Z</time>
      </trkpt>
      <trkpt lat="48.92725" lon="1.07754">
        <ele>292.3</ele>
        <time>2017-06-30T20:19:28Z</time>
      </trkpt>
      <trkpt lat="48.92727" lon="1.07771">
        <ele>292.6</ele>
        <time>2017-06-30T20:19:31Z</time>
      </trkpt>
      <trkpt lat="48.92729" lon="1.07788">
        <ele>292.9</ele>
        <time>2017-06-30T20:19:34Z</time>
      </trkpt>
      <trkpt lat="48.9273" lon="1.07802">
        <ele>293.1</ele>
        <time>2017-06-30T20:19:37Z</time>
      </trkpt>
      <trkpt lat="48.92729" lon="1.07818">
        <ele>293.4</ele>
        <time>2017-06-30T20:19:40Z</time>
      </trkpt>
      <trkpt lat="48.92729" lon="1.07834">
        <ele>293.7</ele>
        <time>2017-06-30T20:19:43Z</time>
      </trkpt>
      <trkpt lat="48.92728" lon="1.07849">
        <ele>294</ele>
        <time>2017-06-30T20:19:47Z</time>
      </trkpt>
      <trkpt lat="48.92721" lon="1.07839">
        <ele>294</ele>
        <time>2017-06-30T20:19:51Z</time>
      </trkpt>
      <trkpt lat="48.9271" lon="1.07828">
        <ele>294</ele>
        <time>2017-06-30T20:19:55Z</time>
      </trkpt>
      <trkpt lat="48.927" lon="1.07821">
        <ele>293.8</ele>
        <time>2017-06-30T20:19:58Z</time>
      </trkpt>
      <trkpt lat="48.92692" lon="1.07814">
        <ele>293.4</ele>
        <time>2017-06-30T20:20:00Z</time>
      </trkpt>
      <trkpt lat="48.92683" lon="1.07809">
        <ele>293.1</ele>
        <time>2017-06-30T20:20:02Z</time>
      </trkpt>
      <trkpt lat="48.92673" lon="1.07806">
        <ele>292.8</ele>
        <time>2017-06-30T20:20:04Z</time>
      </trkpt>
      <trkpt lat="48.92663" lon="1.07806">
        <ele>292.6</ele>
        <time>2017-06-30T20:20:06Z</time>
      </trkpt>
      <trkpt lat="48.9265" lon="1.07805">
        <ele>292.3</ele>
        <time>2017-06-30T20:20:09Z</time>
      </trkpt>
      <trkpt lat="48.9264" lon="1.07806">
        <ele>292.1</ele>
        <time>2017-06-30T20:20:11Z</time>
      </trkpt>
      <trkpt lat="48.9263" lon="1.07807">
        <ele>292</ele>
        <time>2017-06-30T20:20:13Z</time>
      </trkpt>
      <trkpt lat="48.9262" lon="1.07808">
        <ele>291.8</ele>
        <time>2017-06-30T20:20:15Z</time>
      </trkpt>
      <trkpt lat="48.92611" lon="1.07809">
        <ele>291.8</ele>
        <time>2017-06-30T20:20:17Z</time>
      </trkpt>
      <trkpt lat="48.92602" lon="1.07811">
        <ele>291.7</ele>
        <time>2017-06-30T20:20:19Z</time>
      </trkpt>
      <trkpt lat="48.92593" lon="1.07815">
        <ele>291.6</ele>
        <time>2017-06-30T20:20:21Z</time>
      </trkpt>
      <trkpt lat="48.92584" lon="1.07821">
        <ele>291.4</ele>
        <time>2017-06-30T20:20:23Z</time>
      </trkpt>
      <trkpt lat="48.92573" lon="1.07832">
        <ele>291.1</ele>
        <time>2017-06-30T20:20:26Z</time>
      </trkpt>
      <trkpt lat="48.92565" lon="1.0784">
        <ele>291.2</ele>
        <time>2017-06-30T20:20:28Z</time>
      </trkpt>
      <trkpt lat="48.92556" lon="1.07848">
        <ele>290.9</ele>
        <time>2017-06-30T20:20:30Z</time>
      </trkpt>
      <trkpt lat="48.92547" lon="1.07855">
        <ele>290.6</ele>
        <time>2017-06-30T20:20:32Z</time>
      </trkpt>
      <trkpt lat="48.92537" lon="1.07859">
        <ele>289.6</ele>
        <time>2017-06-30T20:20:34Z</time>
      </trkpt>
      <trkpt lat="48.92527" lon="1.07862">
        <ele>289.8</ele>
        <time>2017-06-30T20:20:36Z</time>
      </trkpt>
      <trkpt lat="48.92517" lon="1.07866">
        <ele>290.1</ele>
        <time>2017-06-30T20:20:38Z</time>
      </trkpt>
      <trkpt lat="48.92508" lon="1.0787">
        <ele>290.2</ele>
        <time>2017-06-30T20:20:40Z</time>
      </trkpt>
      <trkpt lat="48.92499" lon="1.07875">
        <ele>290.1</ele>
        <time>2017-06-30T20:20:42Z</time>
      </trkpt>
      <trkpt lat="48.9249" lon="1.07881">
        <ele>290.4</ele>
        <time>2017-06-30T20:20:44Z</time>
      </trkpt>
      <trkpt lat="48.92482" lon="1.07886">
        <ele>290.6</ele>
        <time>2017-06-30T20:20:46Z</time>
      </trkpt>
      <trkpt lat="48.92469" lon="1.07893">
        <ele>290.7</ele>
        <time>2017-06-30T20:20:49Z</time>
      </trkpt>
      <trkpt lat="48.9246" lon="1.07897">
        <ele>290.8</ele>
        <time>2017-06-30T20:20:51Z</time>
      </trkpt>
      <trkpt lat="48.92451" lon="1.07899">
        <ele>290.9</ele>
        <time>2017-06-30T20:20:53Z</time>
      </trkpt>
      <trkpt lat="48.92442" lon="1.07902">
        <ele>291</ele>
        <time>2017-06-30T20:20:55Z</time>
      </trkpt>
      <trkpt lat="48.92433" lon="1.07904">
        <ele>291</ele>
        <time>2017-06-30T20:20:57Z</time>
      </trkpt>
      <trkpt lat="48.92424" lon="1.07906">
        <ele>291.2</ele>
        <time>2017-06-30T20:20:59Z</time>
      </trkpt>
      <trkpt lat="48.92415" lon="1.07906">
        <ele>291.4</ele>
        <time>2017-06-30T20:21:01Z</time>
      </trkpt>
      <trkpt lat="48.92405" lon="1.07907">
        <ele>291.4</ele>
        <time>2017-06-30T20:21:03Z</time>
      </trkpt>
      <trkpt lat="48.92395" lon="1.07908">
        <ele>291.4</ele>
        <time>2017-06-30T20:21:05Z</time>
      </trkpt>
      <trkpt lat="48.92385" lon="1.0791">
        <ele>291.5</ele>
        <time>2017-06-30T20:21:07Z</time>
      </trkpt>
      <trkpt lat="48.92376" lon="1.07913">
        <ele>291.5</ele>
        <time>2017-06-30T20:21:09Z</time>
      </trkpt>
      <trkpt lat="48.92366" lon="1.07917">
        <ele>291.6</ele>
        <time>2017-06-30T20:21:11Z</time>
      </trkpt>
      <trkpt lat="48.92357" lon="1.0792">
        <ele>291.7</ele>
        <time>2017-06-30T20:21:13Z</time>
      </trkpt>
      <trkpt lat="48.92348" lon="1.07924">
        <ele>291.8</ele>
        <time>2017-06-30T20:21:15Z</time>
      </trkpt>
      <trkpt lat="48.92338" lon="1.07925">
        <ele>291.7</ele>
        <time>2017-06-30T20:21:17Z</time>
      </trkpt>
      <trkpt lat="48.92328" lon="1.07924">
        <ele>291.8</ele>
        <time>2017-06-30T20:21:19Z</time>
      </trkpt>
      <trkpt lat="48.92319" lon="1.07919">
        <ele>291.7</ele>
        <time>2017-06-30T20:21:21Z</time>
      </trkpt>
      <trkpt lat="48.9231" lon="1.07912">
        <ele>291.5</ele>
        <time>2017-06-30T20:21:23Z</time>
      </trkpt>
      <trkpt lat="48.92302" lon="1.07905">
        <ele>291.3</ele>
        <time>2017-06-30T20:21:25Z</time>
      </trkpt>
      <trkpt lat="48.92293" lon="1.07897">
        <ele>291.2</ele>
        <time>2017-06-30T20:21:27Z</time>
      </trkpt>
      <trkpt lat="48.92284" lon="1.0789">
        <ele>291.1</ele>
        <time>2017-06-30T20:21:29Z</time>
      </trkpt>
      <trkpt lat="48.92273" lon="1.07882">
        <ele>290.8</ele>
        <time>2017-06-30T20:21:31Z</time>
      </trkpt>
      <trkpt lat="48.92262" lon="1.07877">
        <ele>290.3</ele>
        <time>2017-06-30T20:21:33Z</time>
      </trkpt>
      <trkpt lat="48.92252" lon="1.07873">
        <ele>290.4</ele>
        <time>2017-06-30T20:21:35Z</time>
      </trkpt>
      <trkpt lat="48.92242" lon="1.07871">
        <ele>290.5</ele>
        <time>2017-06-30T20:21:37Z</time>
      </trkpt>
      <trkpt lat="48.92233" lon="1.07868">
        <ele>290</ele>
        <time>2017-06-30T20:21:39Z</time>
      </trkpt>
      <trkpt lat="48.92224" lon="1.07865">
        <ele>289.7</ele>
        <time>2017-06-30T20:21:41Z</time>
      </trkpt>
      <trkpt lat="48.92211" lon="1.0786">
        <ele>289.6</ele>
        <time>2017-06-30T20:21:44Z</time>
      </trkpt>
      <trkpt lat="48.92199" lon="1.07854">
        <ele>289.4</ele>
        <time>2017-06-30T20:21:47Z</time>
      </trkpt>
      <trkpt lat="48.92188" lon="1.07849">
        <ele>289.4</ele>
        <time>2017-06-30T20:21:50Z</time>
      </trkpt>
      <trkpt lat="48.92178" lon="1.07842">
        <ele>289.8</ele>
        <time>2017-06-30T20:21:54Z</time>
      </trkpt>
      <trkpt lat="48.9217" lon="1.07835">
        <ele>289.5</ele>
        <time>2017-06-30T20:21:57Z</time>
      </trkpt>
      <trkpt lat="48.9216" lon="1.07827">
        <ele>289.4</ele>
        <time>2017-06-30T20:22:00Z</time>
      </trkpt>
      <trkpt lat="48.92149" lon="1.07819">
        <ele>289.5</ele>
        <time>2017-06-30T20:22:03Z</time>
      </trkpt>
      <trkpt lat="48.92138" lon="1.07811">
        <ele>289.6</ele>
        <time>2017-06-30T20:22:06Z</time>
      </trkpt>
      <trkpt lat="48.92127" lon="1.07804">
        <ele>289.7</ele>
        <time>2017-06-30T20:22:09Z</time>
      </trkpt>
      <trkpt lat="48.92117" lon="1.07797">
        <ele>290</ele>
        <time>2017-06-30T20:22:12Z</time>
      </trkpt>
      <trkpt lat="48.92105" lon="1.0779">
        <ele>290.2</ele>
        <time>2017-06-30T20:22:15Z</time>
      </trkpt>
      <trkpt lat="48.92096" lon="1.07786">
        <ele>290.4</ele>
        <time>2017-06-30T20:22:18Z</time>
      </trkpt>
      <trkpt lat="48.92085" lon="1.07781">
        <ele>290.7</ele>
        <time>2017-06-30T20:22:21Z</time>
      </trkpt>
      <trkpt lat="48.92073" lon="1.07773">
        <ele>290.9</ele>
        <time>2017-06-30T20:22:24Z</time>
      </trkpt>
      <trkpt lat="48.92066" lon="1.07765">
        <ele>291</ele>
        <time>2017-06-30T20:22:26Z</time>
      </trkpt>
      <trkpt lat="48.92058" lon="1.07755">
        <ele>291</ele>
        <time>2017-06-30T20:22:29Z</time>
      </trkpt>
      <trkpt lat="48.92049" lon="1.07748">
        <ele>291</ele>
        <time>2017-06-30T20:22:32Z</time>
      </trkpt>
      <trkpt lat="48.92041" lon="1.07741">
        <ele>290.9</ele>
        <time>2017-06-30T20:22:34Z</time>
      </trkpt>
      <trkpt lat="48.92032" lon="1.07736">
        <ele>291.2</ele>
        <time>2017-06-30T20:22:36Z</time>
      </trkpt>
      <trkpt lat="48.92022" lon="1.07731">
        <ele>291.3</ele>
        <time>2017-06-30T20:22:38Z</time>
      </trkpt>
      <trkpt lat="48.92012" lon="1.07725">
        <ele>291.3</ele>
        <time>2017-06-30T20:22:40Z</time>
      </trkpt>
      <trkpt lat="48.92002" lon="1.07721">
        <ele>291.3</ele>
        <time>2017-06-30T20:22:42Z</time>
      </trkpt>
      <trkpt lat="48.91993" lon="1.07718">
        <ele>291.3</ele>
        <time>2017-06-30T20:22:44Z</time>
      </trkpt>
      <trkpt lat="48.91984" lon="1.07714">
        <ele>291.2</ele>
        <time>2017-06-30T20:22:46Z</time>
      </trkpt>
      <trkpt lat="48.91974" lon="1.0771">
        <ele>291.2</ele>
        <time>2017-06-30T20:22:48Z</time>
      </trkpt>
      <trkpt lat="48.91964" lon="1.07706">
        <ele>291.2</ele>
        <time>2017-06-30T20:22:50Z</time>
      </trkpt>
      <trkpt lat="48.91953" lon="1.07702">
        <ele>291.1</ele>
        <time>2017-06-30T20:22:52Z</time>
      </trkpt>
      <trkpt lat="48.91942" lon="1.07697">
        <ele>291</ele>
        <time>2017-06-30T20:22:54Z</time>
      </trkpt>
      <trkpt lat="48.91931" lon="1.07694">
        <ele>290.8</ele>
        <time>2017-06-30T20:22:56Z</time>
      </trkpt>
      <trkpt lat="48.91921" lon="1.07692">
        <ele>290.6</ele>
        <time>2017-06-30T20:22:58Z</time>
      </trkpt>
      <trkpt lat="48.91911" lon="1.07688">
        <ele>290.5</ele>
        <time>2017-06-30T20:23:00Z</time>
      </trkpt>
      <trkpt lat="48.91901" lon="1.07684">
        <ele>290.3</ele>
        <time>2017-06-30T20:23:02Z</time>
      </trkpt>
      <trkpt lat="48.9189" lon="1.07682">
        <ele>290.1</ele>
        <time>2017-06-30T20:23:04Z</time>
      </trkpt>
      <trkpt lat="48.91879" lon="1.07678">
        <ele>290.1</ele>
        <time>2017-06-30T20:23:06Z</time>
      </trkpt>
      <trkpt lat="48.91868" lon="1.07673">
        <ele>289.7</ele>
        <time>2017-06-30T20:23:09Z</time>
      </trkpt>
      <trkpt lat="48.91864" lon="1.07658">
        <ele>289.4</ele>
        <time>2017-06-30T20:23:13Z</time>
      </trkpt>
      <trkpt lat="48.91866" lon="1.07644">
        <ele>289.1</ele>
        <time>2017-06-30T20:23:16Z</time>
      </trkpt>
      <trkpt lat="48.9187" lon="1.07628">
        <ele>288.6</ele>
        <time>2017-06-30T20:23:20Z</time>
      </trkpt>
      <trkpt lat="48.91878" lon="1.07613">
        <ele>289.1</ele>
        <time>2017-06-30T20:23:24Z</time>
      </trkpt>
      <trkpt lat="48.91886" lon="1.07602">
        <ele>289.2</ele>
        <time>2017-06-30T20:23:27Z</time>
      </trkpt>
      <trkpt lat="48.91893" lon="1.07594">
        <ele>289.5</ele>
        <time>2017-06-30T20:23:30Z</time>
      </trkpt>
      <trkpt lat="48.91902" lon="1.07584">
        <ele>289.5</ele>
        <time>2017-06-30T20:23:33Z</time>
      </trkpt>
      <trkpt lat="48.91909" lon="1.07575">
        <ele>289.7</ele>
        <time>2017-06-30T20:23:36Z</time>
      </trkpt>
      <trkpt lat="48.91918" lon="1.07565">
        <ele>289.5</ele>
        <time>2017-06-30T20:23:39Z</time>
      </trkpt>
      <trkpt lat="48.91926" lon="1.07557">
        <ele>289.5</ele>
        <time>2017-06-30T20:23:41Z</time>
      </trkpt>
      <trkpt lat="48.91934" lon="1.07549">
        <ele>289.8</ele>
        <time>2017-06-30T20:23:43Z</time>
      </trkpt>
      <trkpt lat="48.91941" lon="1.0754">
        <ele>289.9</ele>
        <time>2017-06-30T20:23:45Z</time>
      </trkpt>
      <trkpt lat="48.91949" lon="1.07529">
        <ele>290</ele>
        <time>2017-06-30T20:23:47Z</time>
      </trkpt>
      <trkpt lat="48.91956" lon="1.07518">
        <ele>290.1</ele>
        <time>2017-06-30T20:23:49Z</time>
      </trkpt>
      <trkpt lat="48.91962" lon="1.07506">
        <ele>290.1</ele>
        <time>2017-06-30T20:23:51Z</time>
      </trkpt>
      <trkpt lat="48.91969" lon="1.07493">
        <ele>290</ele>
        <time>2017-06-30T20:23:53Z</time>
      </trkpt>
      <trkpt lat="48.91977" lon="1.0748">
        <ele>290.2</ele>
        <time>2017-06-30T20:23:55Z</time>
      </trkpt>
      <trkpt lat="48.91986" lon="1.07469">
        <ele>290.5</ele>
        <time>2017-06-30T20:23:57Z</time>
      </trkpt>
      <trkpt lat="48.91997" lon="1.07458">
        <ele>290.6</ele>
        <time>2017-06-30T20:23:59Z</time>
      </trkpt>
      <trkpt lat="48.92003" lon="1.07445">
        <ele>290.5</ele>
        <time>2017-06-30T20:24:01Z</time>
      </trkpt>
      <trkpt lat="48.9201" lon="1.07433">
        <ele>290.4</ele>
        <time>2017-06-30T20:24:03Z</time>
      </trkpt>
      <trkpt lat="48.92018" lon="1.07426">
        <ele>290.1</ele>
        <time>2017-06-30T20:24:05Z</time>
      </trkpt>
      <trkpt lat="48.92026" lon="1.07418">
        <ele>289.7</ele>
        <time>2017-06-30T20:24:07Z</time>
      </trkpt>
      <trkpt lat="48.92036" lon="1.07406">
        <ele>289.5</ele>
        <time>2017-06-30T20:24:10Z</time>
      </trkpt>
      <trkpt lat="48.92045" lon="1.07396">
        <ele>289.5</ele>
        <time>2017-06-30T20:24:12Z</time>
      </trkpt>
      <trkpt lat="48.92052" lon="1.07387">
        <ele>289</ele>
        <time>2017-06-30T20:24:14Z</time>
      </trkpt>
      <trkpt lat="48.92061" lon="1.07378">
        <ele>289</ele>
        <time>2017-06-30T20:24:16Z</time>
      </trkpt>
      <trkpt lat="48.92068" lon="1.07366">
        <ele>289</ele>
        <time>2017-06-30T20:24:18Z</time>
      </trkpt>
      <trkpt lat="48.92074" lon="1.07355">
        <ele>288.9</ele>
        <time>2017-06-30T20:24:20Z</time>
      </trkpt>
      <trkpt lat="48.92084" lon="1.07343">
        <ele>288.6</ele>
        <time>2017-06-30T20:24:23Z</time>
      </trkpt>
      <trkpt lat="48.92094" lon="1.07336">
        <ele>288.5</ele>
        <time>2017-06-30T20:24:27Z</time>
      </trkpt>
      <trkpt lat="48.92106" lon="1.07327">
        <ele>288.4</ele>
        <time>2017-06-30T20:24:31Z</time>
      </trkpt>
      <trkpt lat="48.92117" lon="1.07323">
        <ele>288.5</ele>
        <time>2017-06-30T20:24:34Z</time>
      </trkpt>
      <trkpt lat="48.92132" lon="1.07321">
        <ele>288.7</ele>
        <time>2017-06-30T20:24:37Z</time>
      </trkpt>
      <trkpt lat="48.92142" lon="1.07318">
        <ele>288.6</ele>
        <time>2017-06-30T20:24:39Z</time>
      </trkpt>
      <trkpt lat="48.92155" lon="1.07312">
        <ele>288.7</ele>
        <time>2017-06-30T20:24:42Z</time>
      </trkpt>
      <trkpt lat="48.92166" lon="1.07304">
        <ele>288.8</ele>
        <time>2017-06-30T20:24:45Z</time>
      </trkpt>
      <trkpt lat="48.92176" lon="1.07298">
        <ele>288.5</ele>
        <time>2017-06-30T20:24:48Z</time>
      </trkpt>
      <trkpt lat="48.92186" lon="1.07292">
        <ele>288.4</ele>
        <time>2017-06-30T20:24:51Z</time>
      </trkpt>
      <trkpt lat="48.92196" lon="1.07285">
        <ele>288.5</ele>
        <time>2017-06-30T20:24:53Z</time>
      </trkpt>
      <trkpt lat="48.92204" lon="1.0728">
        <ele>288.5</ele>
        <time>2017-06-30T20:24:55Z</time>
      </trkpt>
      <trkpt lat="48.92217" lon="1.07274">
        <ele>288.6</ele>
        <time>2017-06-30T20:24:58Z</time>
      </trkpt>
      <trkpt lat="48.92227" lon="1.07272">
        <ele>288.6</ele>
        <time>2017-06-30T20:25:00Z</time>
      </trkpt>
      <trkpt lat="48.92237" lon="1.0727">
        <ele>288.3</ele>
        <time>2017-06-30T20:25:02Z</time>
      </trkpt>
      <trkpt lat="48.92247" lon="1.07265">
        <ele>288.3</ele>
        <time>2017-06-30T20:25:04Z</time>
      </trkpt>
      <trkpt lat="48.92256" lon="1.07258">
        <ele>287.8</ele>
        <time>2017-06-30T20:25:06Z</time>
      </trkpt>
      <trkpt lat="48.92267" lon="1.0725">
        <ele>287.6</ele>
        <time>2017-06-30T20:25:08Z</time>
      </trkpt>
      <trkpt lat="48.92279" lon="1.07243">
        <ele>287.4</ele>
        <time>2017-06-30T20:25:10Z</time>
      </trkpt>
      <trkpt lat="48.92289" lon="1.07234">
        <ele>287.2</ele>
        <time>2017-06-30T20:25:12Z</time>
      </trkpt>
      <trkpt lat="48.923" lon="1.07226">
        <ele>287</ele>
        <time>2017-06-30T20:25:14Z</time>
      </trkpt>
      <trkpt lat="48.92308" lon="1.07219">
        <ele>286.7</ele>
        <time>2017-06-30T20:25:16Z</time>
      </trkpt>
      <trkpt lat="48.92316" lon="1.0721">
        <ele>286.5</ele>
        <time>2017-06-30T20:25:18Z</time>
      </trkpt>
      <trkpt lat="48.92326" lon="1.07204">
        <ele>286.1</ele>
        <time>2017-06-30T20:25:20Z</time>
      </trkpt>
      <trkpt lat="48.92335" lon="1.07199">
        <ele>285.2</ele>
        <time>2017-06-30T20:25:22Z</time>
      </trkpt>
      <trkpt lat="48.92344" lon="1.07192">
        <ele>285.2</ele>
        <time>2017-06-30T20:25:24Z</time>
      </trkpt>
      <trkpt lat="48.92355" lon="1.07186">
        <ele>285</ele>
        <time>2017-06-30T20:25:26Z</time>
      </trkpt>
      <trkpt lat="48.92365" lon="1.07179">
        <ele>284.6</ele>
        <time>2017-06-30T20:25:28Z</time>
      </trkpt>
      <trkpt lat="48.92376" lon="1.07173">
        <ele>284.3</ele>
        <time>2017-06-30T20:25:30Z</time>
      </trkpt>
      <trkpt lat="48.92386" lon="1.07168">
        <ele>284.2</ele>
        <time>2017-06-30T20:25:32Z</time>
      </trkpt>
      <trkpt lat="48.92397" lon="1.07161">
        <ele>284</ele>
        <time>2017-06-30T20:25:34Z</time>
      </trkpt>
      <trkpt lat="48.92405" lon="1.07151">
        <ele>283.7</ele>
        <time>2017-06-30T20:25:36Z</time>
      </trkpt>
      <trkpt lat="48.92413" lon="1.07141">
        <ele>283.5</ele>
        <time>2017-06-30T20:25:38Z</time>
      </trkpt>
      <trkpt lat="48.92423" lon="1.07132">
        <ele>283</ele>
        <time>2017-06-30T20:25:40Z</time>
      </trkpt>
      <trkpt lat="48.92435" lon="1.07125">
        <ele>282.1</ele>
        <time>2017-06-30T20:25:43Z</time>
      </trkpt>
      <trkpt lat="48.92443" lon="1.07114">
        <ele>281.2</ele>
        <time>2017-06-30T20:25:46Z</time>
      </trkpt>
      <trkpt lat="48.92451" lon="1.07107">
        <ele>280.7</ele>
        <time>2017-06-30T20:25:48Z</time>
      </trkpt>
      <trkpt lat="48.92462" lon="1.071">
        <ele>280.3</ele>
        <time>2017-06-30T20:25:50Z</time>
      </trkpt>
      <trkpt lat="48.9247" lon="1.07094">
        <ele>279.8</ele>
        <time>2017-06-30T20:25:52Z</time>
      </trkpt>
      <trkpt lat="48.9248" lon="1.07084">
        <ele>279.4</ele>
        <time>2017-06-30T20:25:54Z</time>
      </trkpt>
      <trkpt lat="48.9249" lon="1.07078">
        <ele>279.2</ele>
        <time>2017-06-30T20:25:56Z</time>
      </trkpt>
      <trkpt lat="48.92501" lon="1.07076">
        <ele>278</ele>
        <time>2017-06-30T20:25:58Z</time>
      </trkpt>
      <trkpt lat="48.92519" lon="1.07075">
        <ele>278.3</ele>
        <time>2017-06-30T20:26:01Z</time>
      </trkpt>
      <trkpt lat="48.92533" lon="1.07072">
        <ele>278.1</ele>
        <time>2017-06-30T20:26:03Z</time>
      </trkpt>
      <trkpt lat="48.92542" lon="1.07065">
        <ele>277.9</ele>
        <time>2017-06-30T20:26:05Z</time>
      </trkpt>
      <trkpt lat="48.92551" lon="1.07059">
        <ele>277.3</ele>
        <time>2017-06-30T20:26:07Z</time>
      </trkpt>
      <trkpt lat="48.92562" lon="1.07051">
        <ele>276.7</ele>
        <time>2017-06-30T20:26:10Z</time>
      </trkpt>
      <trkpt lat="48.92573" lon="1.07046">
        <ele>276.5</ele>
        <time>2017-06-30T20:26:12Z</time>
      </trkpt>
      <trkpt lat="48.92583" lon="1.07041">
        <ele>276.3</ele>
        <time>2017-06-30T20:26:14Z</time>
      </trkpt>
      <trkpt lat="48.92594" lon="1.07037">
        <ele>276.1</ele>
        <time>2017-06-30T20:26:17Z</time>
      </trkpt>
      <trkpt lat="48.92603" lon="1.07029">
        <ele>276.2</ele>
        <time>2017-06-30T20:26:21Z</time>
      </trkpt>
      <trkpt lat="48.92607" lon="1.07013">
        <ele>276.1</ele>
        <time>2017-06-30T20:26:24Z</time>
      </trkpt>
      <trkpt lat="48.92609" lon="1.06998">
        <ele>275.8</ele>
        <time>2017-06-30T20:26:26Z</time>
      </trkpt>
      <trkpt lat="48.92609" lon="1.06982">
        <ele>275.3</ele>
        <time>2017-06-30T20:26:28Z</time>
      </trkpt>
      <trkpt lat="48.9261" lon="1.06967">
        <ele>274.7</ele>
        <time>2017-06-30T20:26:30Z</time>
      </trkpt>
      <trkpt lat="48.9261" lon="1.06946">
        <ele>274</ele>
        <time>2017-06-30T20:26:32Z</time>
      </trkpt>
      <trkpt lat="48.92606" lon="1.06925">
        <ele>273.1</ele>
        <time>2017-06-30T20:26:34Z</time>
      </trkpt>
      <trkpt lat="48.92599" lon="1.06906">
        <ele>272.6</ele>
        <time>2017-06-30T20:26:36Z</time>
      </trkpt>
      <trkpt lat="48.92593" lon="1.06887">
        <ele>271.8</ele>
        <time>2017-06-30T20:26:38Z</time>
      </trkpt>
      <trkpt lat="48.92586" lon="1.06867">
        <ele>270.9</ele>
        <time>2017-06-30T20:26:40Z</time>
      </trkpt>
      <trkpt lat="48.92581" lon="1.06844">
        <ele>269.8</ele>
        <time>2017-06-30T20:26:42Z</time>
      </trkpt>
      <trkpt lat="48.92577" lon="1.06821">
        <ele>269</ele>
        <time>2017-06-30T20:26:44Z</time>
      </trkpt>
      <trkpt lat="48.92573" lon="1.06798">
        <ele>268.1</ele>
        <time>2017-06-30T20:26:46Z</time>
      </trkpt>
      <trkpt lat="48.92566" lon="1.06774">
        <ele>267.2</ele>
        <time>2017-06-30T20:26:48Z</time>
      </trkpt>
      <trkpt lat="48.92559" lon="1.06751">
        <ele>266.3</ele>
        <time>2017-06-30T20:26:50Z</time>
      </trkpt>
      <trkpt lat="48.92551" lon="1.06727">
        <ele>265.1</ele>
        <time>2017-06-30T20:26:52Z</time>
      </trkpt>
      <trkpt lat="48.92546" lon="1.06715">
        <ele>264.4</ele>
        <time>2017-06-30T20:26:53Z</time>
      </trkpt>
      <trkpt lat="48.9254" lon="1.06703">
        <ele>263.8</ele>
        <time>2017-06-30T20:26:54Z</time>
      </trkpt>
      <trkpt lat="48.92534" lon="1.06692">
        <ele>263</ele>
        <time>2017-06-30T20:26:55Z</time>
      </trkpt>
      <trkpt lat="48.92529" lon="1.06681">
        <ele>262.3</ele>
        <time>2017-06-30T20:26:56Z</time>
      </trkpt>
      <trkpt lat="48.92517" lon="1.06661">
        <ele>261.1</ele>
        <time>2017-06-30T20:26:58Z</time>
      </trkpt>
      <trkpt lat="48.92507" lon="1.06642">
        <ele>260.1</ele>
        <time>2017-06-30T20:27:00Z</time>
      </trkpt>
      <trkpt lat="48.92499" lon="1.06623">
        <ele>259.7</ele>
        <time>2017-06-30T20:27:02Z</time>
      </trkpt>
      <trkpt lat="48.92491" lon="1.06606">
        <ele>259.3</ele>
        <time>2017-06-30T20:27:04Z</time>
      </trkpt>
      <trkpt lat="48.92481" lon="1.06592">
        <ele>259.2</ele>
        <time>2017-06-30T20:27:06Z</time>
      </trkpt>
      <trkpt lat="48.92468" lon="1.06589">
        <ele>259</ele>
        <time>2017-06-30T20:27:08Z</time>
      </trkpt>
      <trkpt lat="48.92457" lon="1.06597">
        <ele>258.8</ele>
        <time>2017-06-30T20:27:10Z</time>
      </trkpt>
      <trkpt lat="48.92446" lon="1.06606">
        <ele>258.6</ele>
        <time>2017-06-30T20:27:12Z</time>
      </trkpt>
      <trkpt lat="48.92435" lon="1.06614">
        <ele>258.4</ele>
        <time>2017-06-30T20:27:14Z</time>
      </trkpt>
      <trkpt lat="48.92425" lon="1.06622">
        <ele>258.3</ele>
        <time>2017-06-30T20:27:16Z</time>
      </trkpt>
      <trkpt lat="48.92414" lon="1.06629">
        <ele>258.4</ele>
        <time>2017-06-30T20:27:18Z</time>
      </trkpt>
      <trkpt lat="48.92403" lon="1.06635">
        <ele>258.4</ele>
        <time>2017-06-30T20:27:20Z</time>
      </trkpt>
      <trkpt lat="48.92392" lon="1.0664">
        <ele>258.3</ele>
        <time>2017-06-30T20:27:22Z</time>
      </trkpt>
      <trkpt lat="48.92381" lon="1.06644">
        <ele>258.1</ele>
        <time>2017-06-30T20:27:24Z</time>
      </trkpt>
      <trkpt lat="48.92371" lon="1.06648">
        <ele>258.2</ele>
        <time>2017-06-30T20:27:26Z</time>
      </trkpt>
      <trkpt lat="48.9236" lon="1.06651">
        <ele>258.2</ele>
        <time>2017-06-30T20:27:28Z</time>
      </trkpt>
      <trkpt lat="48.9235" lon="1.06655">
        <ele>258.3</ele>
        <time>2017-06-30T20:27:30Z</time>
      </trkpt>
      <trkpt lat="48.92339" lon="1.06659">
        <ele>258.4</ele>
        <time>2017-06-30T20:27:32Z</time>
      </trkpt>
      <trkpt lat="48.92328" lon="1.06662">
        <ele>258.5</ele>
        <time>2017-06-30T20:27:34Z</time>
      </trkpt>
      <trkpt lat="48.92318" lon="1.06666">
        <ele>258.6</ele>
        <time>2017-06-30T20:27:36Z</time>
      </trkpt>
      <trkpt lat="48.92309" lon="1.06669">
        <ele>258.7</ele>
        <time>2017-06-30T20:27:38Z</time>
      </trkpt>
      <trkpt lat="48.92299" lon="1.06672">
        <ele>258.8</ele>
        <time>2017-06-30T20:27:40Z</time>
      </trkpt>
      <trkpt lat="48.9229" lon="1.06675">
        <ele>258.8</ele>
        <time>2017-06-30T20:27:42Z</time>
      </trkpt>
      <trkpt lat="48.92278" lon="1.06668">
        <ele>258.9</ele>
        <time>2017-06-30T20:27:45Z</time>
      </trkpt>
      <trkpt lat="48.92268" lon="1.06654">
        <ele>259</ele>
        <time>2017-06-30T20:27:48Z</time>
      </trkpt>
      <trkpt lat="48.92259" lon="1.0664">
        <ele>259</ele>
        <time>2017-06-30T20:27:51Z</time>
      </trkpt>
      <trkpt lat="48.92249" lon="1.06628">
        <ele>259.3</ele>
        <time>2017-06-30T20:27:54Z</time>
      </trkpt>
      <trkpt lat="48.92239" lon="1.06615">
        <ele>259.9</ele>
        <time>2017-06-30T20:27:57Z</time>
      </trkpt>
      <trkpt lat="48.9223" lon="1.06602">
        <ele>260.3</ele>
        <time>2017-06-30T20:28:00Z</time>
      </trkpt>
      <trkpt lat="48.9222" lon="1.06589">
        <ele>260.6</ele>
        <time>2017-06-30T20:28:03Z</time>
      </trkpt>
      <trkpt lat="48.92211" lon="1.06575">
        <ele>260.9</ele>
        <time>2017-06-30T20:28:06Z</time>
      </trkpt>
      <trkpt lat="48.92205" lon="1.06565">
        <ele>261.1</ele>
        <time>2017-06-30T20:28:08Z</time>
      </trkpt>
      <trkpt lat="48.92199" lon="1.06554">
        <ele>260.9</ele>
        <time>2017-06-30T20:28:10Z</time>
      </trkpt>
      <trkpt lat="48.9219" lon="1.06538">
        <ele>261</ele>
        <time>2017-06-30T20:28:13Z</time>
      </trkpt>
      <trkpt lat="48.92185" lon="1.06527">
        <ele>261.2</ele>
        <time>2017-06-30T20:28:15Z</time>
      </trkpt>
      <trkpt lat="48.92177" lon="1.06511">
        <ele>261.2</ele>
        <time>2017-06-30T20:28:18Z</time>
      </trkpt>
      <trkpt lat="48.92168" lon="1.06495">
        <ele>261.1</ele>
        <time>2017-06-30T20:28:21Z</time>
      </trkpt>
      <trkpt lat="48.92161" lon="1.06479">
        <ele>261.4</ele>
        <time>2017-06-30T20:28:24Z</time>
      </trkpt>
      <trkpt lat="48.92154" lon="1.06467">
        <ele>261.9</ele>
        <time>2017-06-30T20:28:28Z</time>
      </trkpt>
      <trkpt lat="48.92148" lon="1.06455">
        <ele>263.4</ele>
        <time>2017-06-30T20:28:33Z</time>
      </trkpt>
      <trkpt lat="48.92142" lon="1.06444">
        <ele>264.6</ele>
        <time>2017-06-30T20:28:37Z</time>
      </trkpt>
      <trkpt lat="48.92135" lon="1.06432">
        <ele>266.6</ele>
        <time>2017-06-30T20:28:42Z</time>
      </trkpt>
      <trkpt lat="48.92127" lon="1.06421">
        <ele>268.2</ele>
        <time>2017-06-30T20:28:46Z</time>
      </trkpt>
      <trkpt lat="48.92119" lon="1.06411">
        <ele>269.7</ele>
        <time>2017-06-30T20:28:51Z</time>
      </trkpt>
      <trkpt lat="48.92111" lon="1.06403">
        <ele>271</ele>
        <time>2017-06-30T20:28:56Z</time>
      </trkpt>
      <trkpt lat="48.92101" lon="1.06399">
        <ele>272.8</ele>
        <time>2017-06-30T20:29:02Z</time>
      </trkpt>
      <trkpt lat="48.92091" lon="1.06397">
        <ele>274.5</ele>
        <time>2017-06-30T20:29:07Z</time>
      </trkpt>
      <trkpt lat="48.92081" lon="1.06392">
        <ele>276.1</ele>
        <time>2017-06-30T20:29:12Z</time>
      </trkpt>
      <trkpt lat="48.92073" lon="1.06386">
        <ele>277.4</ele>
        <time>2017-06-30T20:29:16Z</time>
      </trkpt>
      <trkpt lat="48.92064" lon="1.06377">
        <ele>278.7</ele>
        <time>2017-06-30T20:29:21Z</time>
      </trkpt>
      <trkpt lat="48.92055" lon="1.06368">
        <ele>279.6</ele>
        <time>2017-06-30T20:29:25Z</time>
      </trkpt>
      <trkpt lat="48.92048" lon="1.06359">
        <ele>280.7</ele>
        <time>2017-06-30T20:29:31Z</time>
      </trkpt>
      <trkpt lat="48.92036" lon="1.06351">
        <ele>281.2</ele>
        <time>2017-06-30T20:29:34Z</time>
      </trkpt>
      <trkpt lat="48.92028" lon="1.06343">
        <ele>281.8</ele>
        <time>2017-06-30T20:29:37Z</time>
      </trkpt>
      <trkpt lat="48.92019" lon="1.06334">
        <ele>282.3</ele>
        <time>2017-06-30T20:29:41Z</time>
      </trkpt>
      <trkpt lat="48.92011" lon="1.06324">
        <ele>282.8</ele>
        <time>2017-06-30T20:29:44Z</time>
      </trkpt>
      <trkpt lat="48.92003" lon="1.06315">
        <ele>283.1</ele>
        <time>2017-06-30T20:29:47Z</time>
      </trkpt>
      <trkpt lat="48.91994" lon="1.06307">
        <ele>283.5</ele>
        <time>2017-06-30T20:29:50Z</time>
      </trkpt>
      <trkpt lat="48.91984" lon="1.06298">
        <ele>283.7</ele>
        <time>2017-06-30T20:29:53Z</time>
      </trkpt>
      <trkpt lat="48.91974" lon="1.06286">
        <ele>284</ele>
        <time>2017-06-30T20:29:56Z</time>
      </trkpt>
      <trkpt lat="48.91967" lon="1.06278">
        <ele>284.1</ele>
        <time>2017-06-30T20:29:58Z</time>
      </trkpt>
      <trkpt lat="48.91958" lon="1.06269">
        <ele>284.3</ele>
        <time>2017-06-30T20:30:01Z</time>
      </trkpt>
      <trkpt lat="48.9195" lon="1.06261">
        <ele>284.6</ele>
        <time>2017-06-30T20:30:04Z</time>
      </trkpt>
      <trkpt lat="48.9194" lon="1.06253">
        <ele>284.9</ele>
        <time>2017-06-30T20:30:07Z</time>
      </trkpt>
      <trkpt lat="48.91932" lon="1.06243">
        <ele>285</ele>
        <time>2017-06-30T20:30:10Z</time>
      </trkpt>
      <trkpt lat="48.91925" lon="1.06235">
        <ele>285</ele>
        <time>2017-06-30T20:30:12Z</time>
      </trkpt>
      <trkpt lat="48.91917" lon="1.06227">
        <ele>285.1</ele>
        <time>2017-06-30T20:30:14Z</time>
      </trkpt>
      <trkpt lat="48.91909" lon="1.0622">
        <ele>285.1</ele>
        <time>2017-06-30T20:30:16Z</time>
      </trkpt>
      <trkpt lat="48.91899" lon="1.06212">
        <ele>285.2</ele>
        <time>2017-06-30T20:30:19Z</time>
      </trkpt>
      <trkpt lat="48.91889" lon="1.06204">
        <ele>285.2</ele>
        <time>2017-06-30T20:30:22Z</time>
      </trkpt>
      <trkpt lat="48.9188" lon="1.06196">
        <ele>285.3</ele>
        <time>2017-06-30T20:30:25Z</time>
      </trkpt>
      <trkpt lat="48.91871" lon="1.06189">
        <ele>285.3</ele>
        <time>2017-06-30T20:30:28Z</time>
      </trkpt>
      <trkpt lat="48.91861" lon="1.0618">
        <ele>285.5</ele>
        <time>2017-06-30T20:30:31Z</time>
      </trkpt>
      <trkpt lat="48.91852" lon="1.0617">
        <ele>285.5</ele>
        <time>2017-06-30T20:30:34Z</time>
      </trkpt>
      <trkpt lat="48.91842" lon="1.0616">
        <ele>285.5</ele>
        <time>2017-06-30T20:30:37Z</time>
      </trkpt>
      <trkpt lat="48.91832" lon="1.06157">
        <ele>285.6</ele>
        <time>2017-06-30T20:30:40Z</time>
      </trkpt>
      <trkpt lat="48.91822" lon="1.06154">
        <ele>285.8</ele>
        <time>2017-06-30T20:30:43Z</time>
      </trkpt>
      <trkpt lat="48.91812" lon="1.06151">
        <ele>285.7</ele>
        <time>2017-06-30T20:30:46Z</time>
      </trkpt>
      <trkpt lat="48.91801" lon="1.06149">
        <ele>285.7</ele>
        <time>2017-06-30T20:30:49Z</time>
      </trkpt>
      <trkpt lat="48.91789" lon="1.06147">
        <ele>285.8</ele>
        <time>2017-06-30T20:30:52Z</time>
      </trkpt>
      <trkpt lat="48.91777" lon="1.06146">
        <ele>285.8</ele>
        <time>2017-06-30T20:30:55Z</time>
      </trkpt>
      <trkpt lat="48.91765" lon="1.06145">
        <ele>285.9</ele>
        <time>2017-06-30T20:30:58Z</time>
      </trkpt>
      <trkpt lat="48.91752" lon="1.06144">
        <ele>286.2</ele>
        <time>2017-06-30T20:31:01Z</time>
      </trkpt>
      <trkpt lat="48.91742" lon="1.06143">
        <ele>286.4</ele>
        <time>2017-06-30T20:31:03Z</time>
      </trkpt>
      <trkpt lat="48.91733" lon="1.06141">
        <ele>286.6</ele>
        <time>2017-06-30T20:31:05Z</time>
      </trkpt>
      <trkpt lat="48.9172" lon="1.06136">
        <ele>286.9</ele>
        <time>2017-06-30T20:31:08Z</time>
      </trkpt>
      <trkpt lat="48.91709" lon="1.06127">
        <ele>286.9</ele>
        <time>2017-06-30T20:31:11Z</time>
      </trkpt>
      <trkpt lat="48.91702" lon="1.0612">
        <ele>287.1</ele>
        <time>2017-06-30T20:31:13Z</time>
      </trkpt>
      <trkpt lat="48.91691" lon="1.06109">
        <ele>287.6</ele>
        <time>2017-06-30T20:31:16Z</time>
      </trkpt>
      <trkpt lat="48.9168" lon="1.06098">
        <ele>287.8</ele>
        <time>2017-06-30T20:31:19Z</time>
      </trkpt>
      <trkpt lat="48.9167" lon="1.06086">
        <ele>288</ele>
        <time>2017-06-30T20:31:22Z</time>
      </trkpt>
      <trkpt lat="48.9166" lon="1.06075">
        <ele>288.3</ele>
        <time>2017-06-30T20:31:25Z</time>
      </trkpt>
      <trkpt lat="48.91649" lon="1.06064">
        <ele>288.7</ele>
        <time>2017-06-30T20:31:28Z</time>
      </trkpt>
      <trkpt lat="48.91639" lon="1.06053">
        <ele>288.8</ele>
        <time>2017-06-30T20:31:31Z</time>
      </trkpt>
      <trkpt lat="48.9163" lon="1.06042">
        <ele>288.9</ele>
        <time>2017-06-30T20:31:34Z</time>
      </trkpt>
      <trkpt lat="48.91622" lon="1.06028">
        <ele>289.2</ele>
        <time>2017-06-30T20:31:37Z</time>
      </trkpt>
      <trkpt lat="48.91614" lon="1.06016">
        <ele>289.7</ele>
        <time>2017-06-30T20:31:40Z</time>
      </trkpt>
      <trkpt lat="48.91604" lon="1.06011">
        <ele>290</ele>
        <time>2017-06-30T20:31:43Z</time>
      </trkpt>
      <trkpt lat="48.91593" lon="1.06013">
        <ele>290.3</ele>
        <time>2017-06-30T20:31:46Z</time>
      </trkpt>
      <trkpt lat="48.91583" lon="1.06016">
        <ele>290.6</ele>
        <time>2017-06-30T20:31:49Z</time>
      </trkpt>
      <trkpt lat="48.91573" lon="1.06022">
        <ele>290.9</ele>
        <time>2017-06-30T20:31:52Z</time>
      </trkpt>
      <trkpt lat="48.91561" lon="1.06029">
        <ele>290.8</ele>
        <time>2017-06-30T20:31:55Z</time>
      </trkpt>
      <trkpt lat="48.9155" lon="1.06031">
        <ele>290.7</ele>
        <time>2017-06-30T20:31:57Z</time>
      </trkpt>
      <trkpt lat="48.91542" lon="1.06036">
        <ele>290.7</ele>
        <time>2017-06-30T20:31:59Z</time>
      </trkpt>
      <trkpt lat="48.9153" lon="1.06043">
        <ele>290.5</ele>
        <time>2017-06-30T20:32:02Z</time>
      </trkpt>
      <trkpt lat="48.91518" lon="1.06049">
        <ele>290.5</ele>
        <time>2017-06-30T20:32:05Z</time>
      </trkpt>
      <trkpt lat="48.91509" lon="1.06051">
        <ele>290.6</ele>
        <time>2017-06-30T20:32:07Z</time>
      </trkpt>
      <trkpt lat="48.91495" lon="1.06054">
        <ele>290.6</ele>
        <time>2017-06-30T20:32:10Z</time>
      </trkpt>
      <trkpt lat="48.91486" lon="1.06056">
        <ele>290.6</ele>
        <time>2017-06-30T20:32:12Z</time>
      </trkpt>
      <trkpt lat="48.91476" lon="1.06057">
        <ele>290.6</ele>
        <time>2017-06-30T20:32:14Z</time>
      </trkpt>
      <trkpt lat="48.91466" lon="1.06057">
        <ele>290.6</ele>
        <time>2017-06-30T20:32:16Z</time>
      </trkpt>
      <trkpt lat="48.91456" lon="1.06056">
        <ele>290.4</ele>
        <time>2017-06-30T20:32:18Z</time>
      </trkpt>
      <trkpt lat="48.91448" lon="1.06053">
        <ele>290.4</ele>
        <time>2017-06-30T20:32:20Z</time>
      </trkpt>
      <trkpt lat="48.91436" lon="1.06047">
        <ele>290.4</ele>
        <time>2017-06-30T20:32:23Z</time>
      </trkpt>
      <trkpt lat="48.91425" lon="1.06041">
        <ele>290.1</ele>
        <time>2017-06-30T20:32:26Z</time>
      </trkpt>
      <trkpt lat="48.91416" lon="1.06032">
        <ele>290</ele>
        <time>2017-06-30T20:32:29Z</time>
      </trkpt>
      <trkpt lat="48.91415" lon="1.06015">
        <ele>289.7</ele>
        <time>2017-06-30T20:32:32Z</time>
      </trkpt>
      <trkpt lat="48.91414" lon="1.05995">
        <ele>289.2</ele>
        <time>2017-06-30T20:32:35Z</time>
      </trkpt>
      <trkpt lat="48.91413" lon="1.05981">
        <ele>288.9</ele>
        <time>2017-06-30T20:32:37Z</time>
      </trkpt>
      <trkpt lat="48.91412" lon="1.05967">
        <ele>288.7</ele>
        <time>2017-06-30T20:32:39Z</time>
      </trkpt>
      <trkpt lat="48.9141" lon="1.05952">
        <ele>288.5</ele>
        <time>2017-06-30T20:32:41Z</time>
      </trkpt>
      <trkpt lat="48.91408" lon="1.05938">
        <ele>288.3</ele>
        <time>2017-06-30T20:32:43Z</time>
      </trkpt>
      <trkpt lat="48.91404" lon="1.05925">
        <ele>288.2</ele>
        <time>2017-06-30T20:32:45Z</time>
      </trkpt>
      <trkpt lat="48.914" lon="1.05912">
        <ele>288.1</ele>
        <time>2017-06-30T20:32:47Z</time>
      </trkpt>
      <trkpt lat="48.91394" lon="1.05901">
        <ele>287.8</ele>
        <time>2017-06-30T20:32:49Z</time>
      </trkpt>
      <trkpt lat="48.91387" lon="1.05891">
        <ele>287.6</ele>
        <time>2017-06-30T20:32:51Z</time>
      </trkpt>
      <trkpt lat="48.9138" lon="1.05882">
        <ele>287.5</ele>
        <time>2017-06-30T20:32:53Z</time>
      </trkpt>
      <trkpt lat="48.91373" lon="1.05873">
        <ele>287.5</ele>
        <time>2017-06-30T20:32:55Z</time>
      </trkpt>
      <trkpt lat="48.91365" lon="1.05863">
        <ele>287.4</ele>
        <time>2017-06-30T20:32:57Z</time>
      </trkpt>
      <trkpt lat="48.91357" lon="1.05854">
        <ele>287.4</ele>
        <time>2017-06-30T20:32:59Z</time>
      </trkpt>
      <trkpt lat="48.91349" lon="1.05844">
        <ele>287.2</ele>
        <time>2017-06-30T20:33:01Z</time>
      </trkpt>
      <trkpt lat="48.91342" lon="1.05834">
        <ele>287.1</ele>
        <time>2017-06-30T20:33:03Z</time>
      </trkpt>
      <trkpt lat="48.91333" lon="1.05824">
        <ele>287.1</ele>
        <time>2017-06-30T20:33:05Z</time>
      </trkpt>
      <trkpt lat="48.91324" lon="1.05815">
        <ele>287.1</ele>
        <time>2017-06-30T20:33:07Z</time>
      </trkpt>
      <trkpt lat="48.91316" lon="1.05804">
        <ele>286.8</ele>
        <time>2017-06-30T20:33:09Z</time>
      </trkpt>
      <trkpt lat="48.91307" lon="1.05793">
        <ele>286.8</ele>
        <time>2017-06-30T20:33:11Z</time>
      </trkpt>
      <trkpt lat="48.91299" lon="1.05781">
        <ele>286.7</ele>
        <time>2017-06-30T20:33:13Z</time>
      </trkpt>
      <trkpt lat="48.9129" lon="1.05768">
        <ele>286.5</ele>
        <time>2017-06-30T20:33:15Z</time>
      </trkpt>
      <trkpt lat="48.91282" lon="1.05754">
        <ele>286.2</ele>
        <time>2017-06-30T20:33:17Z</time>
      </trkpt>
      <trkpt lat="48.91273" lon="1.05739">
        <ele>286</ele>
        <time>2017-06-30T20:33:19Z</time>
      </trkpt>
      <trkpt lat="48.91263" lon="1.05724">
        <ele>285.4</ele>
        <time>2017-06-30T20:33:21Z</time>
      </trkpt>
      <trkpt lat="48.91253" lon="1.05711">
        <ele>284.6</ele>
        <time>2017-06-30T20:33:23Z</time>
      </trkpt>
      <trkpt lat="48.91244" lon="1.05699">
        <ele>284.1</ele>
        <time>2017-06-30T20:33:25Z</time>
      </trkpt>
      <trkpt lat="48.91235" lon="1.05688">
        <ele>284</ele>
        <time>2017-06-30T20:33:27Z</time>
      </trkpt>
      <trkpt lat="48.91227" lon="1.05679">
        <ele>283.8</ele>
        <time>2017-06-30T20:33:29Z</time>
      </trkpt>
      <trkpt lat="48.91218" lon="1.0567">
        <ele>283.8</ele>
        <time>2017-06-30T20:33:31Z</time>
      </trkpt>
      <trkpt lat="48.9121" lon="1.05663">
        <ele>284</ele>
        <time>2017-06-30T20:33:33Z</time>
      </trkpt>
      <trkpt lat="48.91201" lon="1.05656">
        <ele>284.3</ele>
        <time>2017-06-30T20:33:35Z</time>
      </trkpt>
      <trkpt lat="48.91192" lon="1.05649">
        <ele>284.5</ele>
        <time>2017-06-30T20:33:37Z</time>
      </trkpt>
      <trkpt lat="48.91184" lon="1.05642">
        <ele>284.6</ele>
        <time>2017-06-30T20:33:39Z</time>
      </trkpt>
      <trkpt lat="48.91175" lon="1.05635">
        <ele>284.7</ele>
        <time>2017-06-30T20:33:41Z</time>
      </trkpt>
      <trkpt lat="48.91167" lon="1.05627">
        <ele>284.8</ele>
        <time>2017-06-30T20:33:43Z</time>
      </trkpt>
      <trkpt lat="48.91158" lon="1.05619">
        <ele>284.9</ele>
        <time>2017-06-30T20:33:45Z</time>
      </trkpt>
      <trkpt lat="48.9115" lon="1.0561">
        <ele>284.8</ele>
        <time>2017-06-30T20:33:47Z</time>
      </trkpt>
      <trkpt lat="48.91143" lon="1.05598">
        <ele>284.6</ele>
        <time>2017-06-30T20:33:49Z</time>
      </trkpt>
      <trkpt lat="48.91137" lon="1.05585">
        <ele>284.4</ele>
        <time>2017-06-30T20:33:51Z</time>
      </trkpt>
      <trkpt lat="48.91133" lon="1.05571">
        <ele>284.3</ele>
        <time>2017-06-30T20:33:53Z</time>
      </trkpt>
      <trkpt lat="48.91128" lon="1.05558">
        <ele>284.2</ele>
        <time>2017-06-30T20:33:55Z</time>
      </trkpt>
      <trkpt lat="48.91123" lon="1.05545">
        <ele>284.2</ele>
        <time>2017-06-30T20:33:57Z</time>
      </trkpt>
      <trkpt lat="48.91119" lon="1.05531">
        <ele>284.1</ele>
        <time>2017-06-30T20:33:59Z</time>
      </trkpt>
      <trkpt lat="48.91114" lon="1.05519">
        <ele>284.4</ele>
        <time>2017-06-30T20:34:01Z</time>
      </trkpt>
      <trkpt lat="48.9111" lon="1.05503">
        <ele>284.6</ele>
        <time>2017-06-30T20:34:04Z</time>
      </trkpt>
      <trkpt lat="48.91119" lon="1.05496">
        <ele>284.3</ele>
        <time>2017-06-30T20:34:08Z</time>
      </trkpt>
      <trkpt lat="48.91129" lon="1.05492">
        <ele>283.9</ele>
        <time>2017-06-30T20:34:11Z</time>
      </trkpt>
      <trkpt lat="48.9114" lon="1.05486">
        <ele>283.6</ele>
        <time>2017-06-30T20:34:14Z</time>
      </trkpt>
      <trkpt lat="48.91151" lon="1.05483">
        <ele>283.8</ele>
        <time>2017-06-30T20:34:17Z</time>
      </trkpt>
      <trkpt lat="48.91162" lon="1.05479">
        <ele>283.7</ele>
        <time>2017-06-30T20:34:20Z</time>
      </trkpt>
      <trkpt lat="48.91172" lon="1.05474">
        <ele>283.5</ele>
        <time>2017-06-30T20:34:23Z</time>
      </trkpt>
      <trkpt lat="48.91182" lon="1.0547">
        <ele>283.6</ele>
        <time>2017-06-30T20:34:26Z</time>
      </trkpt>
      <trkpt lat="48.91192" lon="1.05466">
        <ele>283.9</ele>
        <time>2017-06-30T20:34:29Z</time>
      </trkpt>
      <trkpt lat="48.91202" lon="1.05462">
        <ele>284.2</ele>
        <time>2017-06-30T20:34:32Z</time>
      </trkpt>
      <trkpt lat="48.91212" lon="1.05457">
        <ele>284.6</ele>
        <time>2017-06-30T20:34:35Z</time>
      </trkpt>
      <trkpt lat="48.91222" lon="1.05454">
        <ele>284.9</ele>
        <time>2017-06-30T20:34:38Z</time>
      </trkpt>
      <trkpt lat="48.91232" lon="1.0545">
        <ele>285.2</ele>
        <time>2017-06-30T20:34:41Z</time>
      </trkpt>
      <trkpt lat="48.91243" lon="1.05446">
        <ele>285.6</ele>
        <time>2017-06-30T20:34:44Z</time>
      </trkpt>
      <trkpt lat="48.91254" lon="1.05441">
        <ele>285.7</ele>
        <time>2017-06-30T20:34:47Z</time>
      </trkpt>
      <trkpt lat="48.91265" lon="1.05435">
        <ele>285.5</ele>
        <time>2017-06-30T20:34:50Z</time>
      </trkpt>
      <trkpt lat="48.91275" lon="1.0543">
        <ele>285.6</ele>
        <time>2017-06-30T20:34:53Z</time>
      </trkpt>
      <trkpt lat="48.91286" lon="1.05426">
        <ele>285.8</ele>
        <time>2017-06-30T20:34:56Z</time>
      </trkpt>
      <trkpt lat="48.91296" lon="1.05421">
        <ele>285.9</ele>
        <time>2017-06-30T20:34:59Z</time>
      </trkpt>
      <trkpt lat="48.91307" lon="1.05417">
        <ele>286</ele>
        <time>2017-06-30T20:35:02Z</time>
      </trkpt>
      <trkpt lat="48.91317" lon="1.05413">
        <ele>286.1</ele>
        <time>2017-06-30T20:35:05Z</time>
      </trkpt>
      <trkpt lat="48.91328" lon="1.0541">
        <ele>286.2</ele>
        <time>2017-06-30T20:35:08Z</time>
      </trkpt>
      <trkpt lat="48.91338" lon="1.05406">
        <ele>286.2</ele>
        <time>2017-06-30T20:35:11Z</time>
      </trkpt>
      <trkpt lat="48.91349" lon="1.05401">
        <ele>286.4</ele>
        <time>2017-06-30T20:35:14Z</time>
      </trkpt>
      <trkpt lat="48.91359" lon="1.05397">
        <ele>286.6</ele>
        <time>2017-06-30T20:35:17Z</time>
      </trkpt>
      <trkpt lat="48.91369" lon="1.05393">
        <ele>286.5</ele>
        <time>2017-06-30T20:35:20Z</time>
      </trkpt>
      <trkpt lat="48.91379" lon="1.05389">
        <ele>286.5</ele>
        <time>2017-06-30T20:35:23Z</time>
      </trkpt>
      <trkpt lat="48.91388" lon="1.05386">
        <ele>286.8</ele>
        <time>2017-06-30T20:35:26Z</time>
      </trkpt>
      <trkpt lat="48.91398" lon="1.05382">
        <ele>286.8</ele>
        <time>2017-06-30T20:35:29Z</time>
      </trkpt>
      <trkpt lat="48.91408" lon="1.05378">
        <ele>286.9</ele>
        <time>2017-06-30T20:35:32Z</time>
      </trkpt>
      <trkpt lat="48.91419" lon="1.05374">
        <ele>286.6</ele>
        <time>2017-06-30T20:35:35Z</time>
      </trkpt>
      <trkpt lat="48.91429" lon="1.05369">
        <ele>286.7</ele>
        <time>2017-06-30T20:35:38Z</time>
      </trkpt>
      <trkpt lat="48.9144" lon="1.05365">
        <ele>286.9</ele>
        <time>2017-06-30T20:35:41Z</time>
      </trkpt>
      <trkpt lat="48.91451" lon="1.0536">
        <ele>287.1</ele>
        <time>2017-06-30T20:35:44Z</time>
      </trkpt>
      <trkpt lat="48.91461" lon="1.05356">
        <ele>287.1</ele>
        <time>2017-06-30T20:35:47Z</time>
      </trkpt>
      <trkpt lat="48.91472" lon="1.05352">
        <ele>287.1</ele>
        <time>2017-06-30T20:35:50Z</time>
      </trkpt>
      <trkpt lat="48.91482" lon="1.05347">
        <ele>287.1</ele>
        <time>2017-06-30T20:35:53Z</time>
      </trkpt>
      <trkpt lat="48.91492" lon="1.05342">
        <ele>287.1</ele>
        <time>2017-06-30T20:35:56Z</time>
      </trkpt>
      <trkpt lat="48.91503" lon="1.05337">
        <ele>287.1</ele>
        <time>2017-06-30T20:35:59Z</time>
      </trkpt>
      <trkpt lat="48.91514" lon="1.05333">
        <ele>287.1</ele>
        <time>2017-06-30T20:36:02Z</time>
      </trkpt>
      <trkpt lat="48.91524" lon="1.05327">
        <ele>287.2</ele>
        <time>2017-06-30T20:36:05Z</time>
      </trkpt>
      <trkpt lat="48.91535" lon="1.05321">
        <ele>287.3</ele>
        <time>2017-06-30T20:36:08Z</time>
      </trkpt>
      <trkpt lat="48.91546" lon="1.05316">
        <ele>287.2</ele>
        <time>2017-06-30T20:36:11Z</time>
      </trkpt>
      <trkpt lat="48.91556" lon="1.05311">
        <ele>287.1</ele>
        <time>2017-06-30T20:36:14Z</time>
      </trkpt>
      <trkpt lat="48.91566" lon="1.05305">
        <ele>287.3</ele>
        <time>2017-06-30T20:36:17Z</time>
      </trkpt>
      <trkpt lat="48.91577" lon="1.053">
        <ele>287.3</ele>
        <time>2017-06-30T20:36:20Z</time>
      </trkpt>
      <trkpt lat="48.91588" lon="1.05294">
        <ele>287.3</ele>
        <time>2017-06-30T20:36:23Z</time>
      </trkpt>
      <trkpt lat="48.91599" lon="1.05287">
        <ele>287.2</ele>
        <time>2017-06-30T20:36:26Z</time>
      </trkpt>
      <trkpt lat="48.91609" lon="1.05281">
        <ele>287.1</ele>
        <time>2017-06-30T20:36:29Z</time>
      </trkpt>
      <trkpt lat="48.91619" lon="1.05275">
        <ele>287.3</ele>
        <time>2017-06-30T20:36:32Z</time>
      </trkpt>
      <trkpt lat="48.9163" lon="1.05269">
        <ele>287.3</ele>
        <time>2017-06-30T20:36:35Z</time>
      </trkpt>
      <trkpt lat="48.91643" lon="1.05263">
        <ele>287</ele>
        <time>2017-06-30T20:36:38Z</time>
      </trkpt>
      <trkpt lat="48.91654" lon="1.05256">
        <ele>286.7</ele>
        <time>2017-06-30T20:36:41Z</time>
      </trkpt>
      <trkpt lat="48.91667" lon="1.0525">
        <ele>286.6</ele>
        <time>2017-06-30T20:36:44Z</time>
      </trkpt>
      <trkpt lat="48.9168" lon="1.05242">
        <ele>286.6</ele>
        <time>2017-06-30T20:36:47Z</time>
      </trkpt>
      <trkpt lat="48.91688" lon="1.05237">
        <ele>286.4</ele>
        <time>2017-06-30T20:36:49Z</time>
      </trkpt>
      <trkpt lat="48.91697" lon="1.05232">
        <ele>286.7</ele>
        <time>2017-06-30T20:36:51Z</time>
      </trkpt>
      <trkpt lat="48.91705" lon="1.05227">
        <ele>286.9</ele>
        <time>2017-06-30T20:36:53Z</time>
      </trkpt>
      <trkpt lat="48.91714" lon="1.05222">
        <ele>286.8</ele>
        <time>2017-06-30T20:36:55Z</time>
      </trkpt>
      <trkpt lat="48.91724" lon="1.05218">
        <ele>286.7</ele>
        <time>2017-06-30T20:36:57Z</time>
      </trkpt>
      <trkpt lat="48.91732" lon="1.05214">
        <ele>286.4</ele>
        <time>2017-06-30T20:36:59Z</time>
      </trkpt>
      <trkpt lat="48.91743" lon="1.0521">
        <ele>286.3</ele>
        <time>2017-06-30T20:37:01Z</time>
      </trkpt>
      <trkpt lat="48.91754" lon="1.05206">
        <ele>286.3</ele>
        <time>2017-06-30T20:37:03Z</time>
      </trkpt>
      <trkpt lat="48.91764" lon="1.05202">
        <ele>286.1</ele>
        <time>2017-06-30T20:37:05Z</time>
      </trkpt>
      <trkpt lat="48.91774" lon="1.05198">
        <ele>285.8</ele>
        <time>2017-06-30T20:37:07Z</time>
      </trkpt>
      <trkpt lat="48.91784" lon="1.05191">
        <ele>285.4</ele>
        <time>2017-06-30T20:37:09Z</time>
      </trkpt>
      <trkpt lat="48.91794" lon="1.05182">
        <ele>285.2</ele>
        <time>2017-06-30T20:37:11Z</time>
      </trkpt>
      <trkpt lat="48.91802" lon="1.05171">
        <ele>285.3</ele>
        <time>2017-06-30T20:37:13Z</time>
      </trkpt>
      <trkpt lat="48.91811" lon="1.0516">
        <ele>285</ele>
        <time>2017-06-30T20:37:15Z</time>
      </trkpt>
      <trkpt lat="48.91819" lon="1.05149">
        <ele>284.9</ele>
        <time>2017-06-30T20:37:17Z</time>
      </trkpt>
      <trkpt lat="48.91828" lon="1.05137">
        <ele>284.4</ele>
        <time>2017-06-30T20:37:20Z</time>
      </trkpt>
      <trkpt lat="48.91839" lon="1.0513">
        <ele>283.7</ele>
        <time>2017-06-30T20:37:23Z</time>
      </trkpt>
      <trkpt lat="48.91851" lon="1.05127">
        <ele>282.5</ele>
        <time>2017-06-30T20:37:26Z</time>
      </trkpt>
      <trkpt lat="48.91862" lon="1.05127">
        <ele>281.7</ele>
        <time>2017-06-30T20:37:28Z</time>
      </trkpt>
      <trkpt lat="48.91872" lon="1.05128">
        <ele>280.8</ele>
        <time>2017-06-30T20:37:30Z</time>
      </trkpt>
      <trkpt lat="48.91882" lon="1.05127">
        <ele>280.3</ele>
        <time>2017-06-30T20:37:32Z</time>
      </trkpt>
      <trkpt lat="48.91894" lon="1.05125">
        <ele>279.5</ele>
        <time>2017-06-30T20:37:35Z</time>
      </trkpt>
      <trkpt lat="48.91897" lon="1.05142">
        <ele>278.7</ele>
        <time>2017-06-30T20:37:40Z</time>
      </trkpt>
      <trkpt lat="48.91899" lon="1.05156">
        <ele>278.3</ele>
        <time>2017-06-30T20:37:43Z</time>
      </trkpt>
      <trkpt lat="48.91901" lon="1.05171">
        <ele>278.9</ele>
        <time>2017-06-30T20:37:48Z</time>
      </trkpt>
      <trkpt lat="48.91903" lon="1.05187">
        <ele>280.2</ele>
        <time>2017-06-30T20:37:52Z</time>
      </trkpt>
      <trkpt lat="48.91909" lon="1.052">
        <ele>282.2</ele>
        <time>2017-06-30T20:37:57Z</time>
      </trkpt>
      <trkpt lat="48.91914" lon="1.05215">
        <ele>283.3</ele>
        <time>2017-06-30T20:38:01Z</time>
      </trkpt>
      <trkpt lat="48.91921" lon="1.05228">
        <ele>283.9</ele>
        <time>2017-06-30T20:38:05Z</time>
      </trkpt>
      <trkpt lat="48.91926" lon="1.0524">
        <ele>284.2</ele>
        <time>2017-06-30T20:38:08Z</time>
      </trkpt>
      <trkpt lat="48.91932" lon="1.05255">
        <ele>284.6</ele>
        <time>2017-06-30T20:38:12Z</time>
      </trkpt>
      <trkpt lat="48.91938" lon="1.05269">
        <ele>284.7</ele>
        <time>2017-06-30T20:38:16Z</time>
      </trkpt>
      <trkpt lat="48.91944" lon="1.05282">
        <ele>284.8</ele>
        <time>2017-06-30T20:38:19Z</time>
      </trkpt>
      <trkpt lat="48.91951" lon="1.05295">
        <ele>284.7</ele>
        <time>2017-06-30T20:38:22Z</time>
      </trkpt>
      <trkpt lat="48.91956" lon="1.05309">
        <ele>284.5</ele>
        <time>2017-06-30T20:38:25Z</time>
      </trkpt>
      <trkpt lat="48.91962" lon="1.0532">
        <ele>284.4</ele>
        <time>2017-06-30T20:38:27Z</time>
      </trkpt>
      <trkpt lat="48.91968" lon="1.05334">
        <ele>284.4</ele>
        <time>2017-06-30T20:38:29Z</time>
      </trkpt>
      <trkpt lat="48.91972" lon="1.05347">
        <ele>284.3</ele>
        <time>2017-06-30T20:38:32Z</time>
      </trkpt>
      <trkpt lat="48.91978" lon="1.05362">
        <ele>284.1</ele>
        <time>2017-06-30T20:38:36Z</time>
      </trkpt>
      <trkpt lat="48.91984" lon="1.05373">
        <ele>283.8</ele>
        <time>2017-06-30T20:38:39Z</time>
      </trkpt>
      <trkpt lat="48.91989" lon="1.05386">
        <ele>283.7</ele>
        <time>2017-06-30T20:38:42Z</time>
      </trkpt>
      <trkpt lat="48.91996" lon="1.054">
        <ele>283.9</ele>
        <time>2017-06-30T20:38:45Z</time>
      </trkpt>
      <trkpt lat="48.92002" lon="1.05412">
        <ele>284.1</ele>
        <time>2017-06-30T20:38:48Z</time>
      </trkpt>
      <trkpt lat="48.92011" lon="1.05427">
        <ele>284.4</ele>
        <time>2017-06-30T20:38:52Z</time>
      </trkpt>
      <trkpt lat="48.92017" lon="1.05442">
        <ele>284.5</ele>
        <time>2017-06-30T20:38:55Z</time>
      </trkpt>
      <trkpt lat="48.92025" lon="1.05454">
        <ele>284.6</ele>
        <time>2017-06-30T20:38:58Z</time>
      </trkpt>
      <trkpt lat="48.9203" lon="1.05465">
        <ele>284.7</ele>
        <time>2017-06-30T20:39:01Z</time>
      </trkpt>
      <trkpt lat="48.92038" lon="1.05479">
        <ele>285</ele>
        <time>2017-06-30T20:39:04Z</time>
      </trkpt>
      <trkpt lat="48.92044" lon="1.0549">
        <ele>284.9</ele>
        <time>2017-06-30T20:39:06Z</time>
      </trkpt>
      <trkpt lat="48.92052" lon="1.05502">
        <ele>285.1</ele>
        <time>2017-06-30T20:39:09Z</time>
      </trkpt>
      <trkpt lat="48.92059" lon="1.05517">
        <ele>285</ele>
        <time>2017-06-30T20:39:12Z</time>
      </trkpt>
      <trkpt lat="48.92066" lon="1.05535">
        <ele>285.3</ele>
        <time>2017-06-30T20:39:15Z</time>
      </trkpt>
      <trkpt lat="48.92074" lon="1.05549">
        <ele>285.2</ele>
        <time>2017-06-30T20:39:18Z</time>
      </trkpt>
      <trkpt lat="48.92081" lon="1.05558">
        <ele>285.4</ele>
        <time>2017-06-30T20:39:20Z</time>
      </trkpt>
      <trkpt lat="48.9209" lon="1.05567">
        <ele>285.5</ele>
        <time>2017-06-30T20:39:22Z</time>
      </trkpt>
      <trkpt lat="48.92099" lon="1.05575">
        <ele>285.6</ele>
        <time>2017-06-30T20:39:24Z</time>
      </trkpt>
      <trkpt lat="48.9211" lon="1.05585">
        <ele>285.9</ele>
        <time>2017-06-30T20:39:27Z</time>
      </trkpt>
      <trkpt lat="48.92121" lon="1.05597">
        <ele>285.7</ele>
        <time>2017-06-30T20:39:30Z</time>
      </trkpt>
      <trkpt lat="48.92131" lon="1.05611">
        <ele>286</ele>
        <time>2017-06-30T20:39:33Z</time>
      </trkpt>
      <trkpt lat="48.9214" lon="1.05621">
        <ele>286.1</ele>
        <time>2017-06-30T20:39:35Z</time>
      </trkpt>
      <trkpt lat="48.92147" lon="1.0563">
        <ele>286</ele>
        <time>2017-06-30T20:39:37Z</time>
      </trkpt>
      <trkpt lat="48.92156" lon="1.05639">
        <ele>285.9</ele>
        <time>2017-06-30T20:39:39Z</time>
      </trkpt>
      <trkpt lat="48.92164" lon="1.05647">
        <ele>285.9</ele>
        <time>2017-06-30T20:39:41Z</time>
      </trkpt>
      <trkpt lat="48.92172" lon="1.05656">
        <ele>285.9</ele>
        <time>2017-06-30T20:39:43Z</time>
      </trkpt>
      <trkpt lat="48.92181" lon="1.05665">
        <ele>286</ele>
        <time>2017-06-30T20:39:45Z</time>
      </trkpt>
      <trkpt lat="48.92189" lon="1.05673">
        <ele>286</ele>
        <time>2017-06-30T20:39:47Z</time>
      </trkpt>
      <trkpt lat="48.92197" lon="1.05683">
        <ele>286</ele>
        <time>2017-06-30T20:39:49Z</time>
      </trkpt>
      <trkpt lat="48.92206" lon="1.05695">
        <ele>285.9</ele>
        <time>2017-06-30T20:39:51Z</time>
      </trkpt>
      <trkpt lat="48.92214" lon="1.05705">
        <ele>286.1</ele>
        <time>2017-06-30T20:39:53Z</time>
      </trkpt>
      <trkpt lat="48.92222" lon="1.05719">
        <ele>285.9</ele>
        <time>2017-06-30T20:39:56Z</time>
      </trkpt>
      <trkpt lat="48.92228" lon="1.05731">
        <ele>285.6</ele>
        <time>2017-06-30T20:39:59Z</time>
      </trkpt>
      <trkpt lat="48.92235" lon="1.05742">
        <ele>285.4</ele>
        <time>2017-06-30T20:40:07Z</time>
      </trkpt>
      <trkpt lat="48.92245" lon="1.05743">
        <ele>284.8</ele>
        <time>2017-06-30T20:41:03Z</time>
      </trkpt>
      <trkpt lat="48.92254" lon="1.05737">
        <ele>284.6</ele>
        <time>2017-06-30T20:41:09Z</time>
      </trkpt>
      <trkpt lat="48.92257" lon="1.05723">
        <ele>284.7</ele>
        <time>2017-06-30T20:41:14Z</time>
      </trkpt>
      <trkpt lat="48.9226" lon="1.05705">
        <ele>285.1</ele>
        <time>2017-06-30T20:41:19Z</time>
      </trkpt>
      <trkpt lat="48.92259" lon="1.0569">
        <ele>285.4</ele>
        <time>2017-06-30T20:41:23Z</time>
      </trkpt>
      <trkpt lat="48.92258" lon="1.05675">
        <ele>286.1</ele>
        <time>2017-06-30T20:41:27Z</time>
      </trkpt>
      <trkpt lat="48.92252" lon="1.05659">
        <ele>286.4</ele>
        <time>2017-06-30T20:41:30Z</time>
      </trkpt>
      <trkpt lat="48.92247" lon="1.05644">
        <ele>286.7</ele>
        <time>2017-06-30T20:41:33Z</time>
      </trkpt>
      <trkpt lat="48.9224" lon="1.0563">
        <ele>286.9</ele>
        <time>2017-06-30T20:41:36Z</time>
      </trkpt>
      <trkpt lat="48.92237" lon="1.05615">
        <ele>287</ele>
        <time>2017-06-30T20:41:39Z</time>
      </trkpt>
      <trkpt lat="48.92235" lon="1.05599">
        <ele>287</ele>
        <time>2017-06-30T20:41:42Z</time>
      </trkpt>
      <trkpt lat="48.92232" lon="1.05581">
        <ele>287</ele>
        <time>2017-06-30T20:41:45Z</time>
      </trkpt>
      <trkpt lat="48.92228" lon="1.05568">
        <ele>287</ele>
        <time>2017-06-30T20:41:48Z</time>
      </trkpt>
      <trkpt lat="48.92227" lon="1.05553">
        <ele>287.2</ele>
        <time>2017-06-30T20:41:51Z</time>
      </trkpt>
      <trkpt lat="48.92229" lon="1.05534">
        <ele>287</ele>
        <time>2017-06-30T20:41:54Z</time>
      </trkpt>
      <trkpt lat="48.92229" lon="1.05515">
        <ele>287</ele>
        <time>2017-06-30T20:41:57Z</time>
      </trkpt>
      <trkpt lat="48.92231" lon="1.05499">
        <ele>287.2</ele>
        <time>2017-06-30T20:42:00Z</time>
      </trkpt>
      <trkpt lat="48.92232" lon="1.05486">
        <ele>287.3</ele>
        <time>2017-06-30T20:42:02Z</time>
      </trkpt>
      <trkpt lat="48.92233" lon="1.05468">
        <ele>287.3</ele>
        <time>2017-06-30T20:42:05Z</time>
      </trkpt>
      <trkpt lat="48.92232" lon="1.05448">
        <ele>287.4</ele>
        <time>2017-06-30T20:42:08Z</time>
      </trkpt>
      <trkpt lat="48.9223" lon="1.05429">
        <ele>287.6</ele>
        <time>2017-06-30T20:42:11Z</time>
      </trkpt>
      <trkpt lat="48.9223" lon="1.05413">
        <ele>287.5</ele>
        <time>2017-06-30T20:42:14Z</time>
      </trkpt>
      <trkpt lat="48.92229" lon="1.05392">
        <ele>287.4</ele>
        <time>2017-06-30T20:42:18Z</time>
      </trkpt>
      <trkpt lat="48.92227" lon="1.05375">
        <ele>287.3</ele>
        <time>2017-06-30T20:42:21Z</time>
      </trkpt>
      <trkpt lat="48.92224" lon="1.05359">
        <ele>287.3</ele>
        <time>2017-06-30T20:42:24Z</time>
      </trkpt>
      <trkpt lat="48.92224" lon="1.05343">
        <ele>287.2</ele>
        <time>2017-06-30T20:42:27Z</time>
      </trkpt>
      <trkpt lat="48.92222" lon="1.05328">
        <ele>287.1</ele>
        <time>2017-06-30T20:42:30Z</time>
      </trkpt>
      <trkpt lat="48.9222" lon="1.05313">
        <ele>287</ele>
        <time>2017-06-30T20:42:32Z</time>
      </trkpt>
      <trkpt lat="48.92219" lon="1.05294">
        <ele>286.9</ele>
        <time>2017-06-30T20:42:35Z</time>
      </trkpt>
      <trkpt lat="48.92217" lon="1.05278">
        <ele>286.8</ele>
        <time>2017-06-30T20:42:38Z</time>
      </trkpt>
      <trkpt lat="48.92215" lon="1.0526">
        <ele>286.4</ele>
        <time>2017-06-30T20:42:41Z</time>
      </trkpt>
      <trkpt lat="48.92212" lon="1.05242">
        <ele>286.4</ele>
        <time>2017-06-30T20:42:45Z</time>
      </trkpt>
      <trkpt lat="48.9221" lon="1.05225">
        <ele>286.7</ele>
        <time>2017-06-30T20:42:48Z</time>
      </trkpt>
      <trkpt lat="48.92208" lon="1.0521">
        <ele>286.9</ele>
        <time>2017-06-30T20:42:51Z</time>
      </trkpt>
      <trkpt lat="48.92207" lon="1.05196">
        <ele>286.8</ele>
        <time>2017-06-30T20:42:54Z</time>
      </trkpt>
      <trkpt lat="48.92203" lon="1.0518">
        <ele>286.9</ele>
        <time>2017-06-30T20:42:57Z</time>
      </trkpt>
      <trkpt lat="48.922" lon="1.05163">
        <ele>287</ele>
        <time>2017-06-30T20:43:00Z</time>
      </trkpt>
      <trkpt lat="48.92199" lon="1.05146">
        <ele>287.1</ele>
        <time>2017-06-30T20:43:03Z</time>
      </trkpt>
      <trkpt lat="48.92198" lon="1.05131">
        <ele>287.2</ele>
        <time>2017-06-30T20:43:06Z</time>
      </trkpt>
      <trkpt lat="48.92193" lon="1.0511">
        <ele>287</ele>
        <time>2017-06-30T20:43:09Z</time>
      </trkpt>
      <trkpt lat="48.9219" lon="1.05096">
        <ele>287.2</ele>
        <time>2017-06-30T20:43:11Z</time>
      </trkpt>
      <trkpt lat="48.92187" lon="1.05082">
        <ele>287.3</ele>
        <time>2017-06-30T20:43:13Z</time>
      </trkpt>
      <trkpt lat="48.92185" lon="1.05068">
        <ele>287.3</ele>
        <time>2017-06-30T20:43:15Z</time>
      </trkpt>
      <trkpt lat="48.92183" lon="1.05049">
        <ele>287.4</ele>
        <time>2017-06-30T20:43:18Z</time>
      </trkpt>
      <trkpt lat="48.92182" lon="1.05027">
        <ele>287.3</ele>
        <time>2017-06-30T20:43:21Z</time>
      </trkpt>
      <trkpt lat="48.92181" lon="1.05011">
        <ele>287</ele>
        <time>2017-06-30T20:43:23Z</time>
      </trkpt>
      <trkpt lat="48.92183" lon="1.04991">
        <ele>286.7</ele>
        <time>2017-06-30T20:43:26Z</time>
      </trkpt>
      <trkpt lat="48.92183" lon="1.04976">
        <ele>286.7</ele>
        <time>2017-06-30T20:43:28Z</time>
      </trkpt>
      <trkpt lat="48.92183" lon="1.04961">
        <ele>286.6</ele>
        <time>2017-06-30T20:43:30Z</time>
      </trkpt>
      <trkpt lat="48.92183" lon="1.04937">
        <ele>286.3</ele>
        <time>2017-06-30T20:43:33Z</time>
      </trkpt>
      <trkpt lat="48.92184" lon="1.04918">
        <ele>286.1</ele>
        <time>2017-06-30T20:43:35Z</time>
      </trkpt>
      <trkpt lat="48.92182" lon="1.04902">
        <ele>285.7</ele>
        <time>2017-06-30T20:43:37Z</time>
      </trkpt>
      <trkpt lat="48.92181" lon="1.04886">
        <ele>285.4</ele>
        <time>2017-06-30T20:43:39Z</time>
      </trkpt>
      <trkpt lat="48.92182" lon="1.04866">
        <ele>284.9</ele>
        <time>2017-06-30T20:43:42Z</time>
      </trkpt>
      <trkpt lat="48.92185" lon="1.04851">
        <ele>284.6</ele>
        <time>2017-06-30T20:43:44Z</time>
      </trkpt>
      <trkpt lat="48.92188" lon="1.04836">
        <ele>284.4</ele>
        <time>2017-06-30T20:43:46Z</time>
      </trkpt>
      <trkpt lat="48.92193" lon="1.04821">
        <ele>284.5</ele>
        <time>2017-06-30T20:43:48Z</time>
      </trkpt>
      <trkpt lat="48.92197" lon="1.04807">
        <ele>284.5</ele>
        <time>2017-06-30T20:43:50Z</time>
      </trkpt>
      <trkpt lat="48.922" lon="1.04791">
        <ele>284.5</ele>
        <time>2017-06-30T20:43:52Z</time>
      </trkpt>
      <trkpt lat="48.92204" lon="1.04777">
        <ele>284.5</ele>
        <time>2017-06-30T20:43:54Z</time>
      </trkpt>
      <trkpt lat="48.92207" lon="1.04764">
        <ele>284.3</ele>
        <time>2017-06-30T20:43:56Z</time>
      </trkpt>
      <trkpt lat="48.92206" lon="1.04747">
        <ele>284</ele>
        <time>2017-06-30T20:43:59Z</time>
      </trkpt>
      <trkpt lat="48.92198" lon="1.04734">
        <ele>284.1</ele>
        <time>2017-06-30T20:44:02Z</time>
      </trkpt>
      <trkpt lat="48.92191" lon="1.04722">
        <ele>283.6</ele>
        <time>2017-06-30T20:44:04Z</time>
      </trkpt>
      <trkpt lat="48.92185" lon="1.04708">
        <ele>283.1</ele>
        <time>2017-06-30T20:44:06Z</time>
      </trkpt>
      <trkpt lat="48.92179" lon="1.04697">
        <ele>283</ele>
        <time>2017-06-30T20:44:08Z</time>
      </trkpt>
      <trkpt lat="48.92173" lon="1.04683">
        <ele>283</ele>
        <time>2017-06-30T20:44:10Z</time>
      </trkpt>
      <trkpt lat="48.92168" lon="1.04669">
        <ele>283.2</ele>
        <time>2017-06-30T20:44:12Z</time>
      </trkpt>
      <trkpt lat="48.92163" lon="1.04655">
        <ele>283.1</ele>
        <time>2017-06-30T20:44:14Z</time>
      </trkpt>
      <trkpt lat="48.92158" lon="1.04641">
        <ele>283.1</ele>
        <time>2017-06-30T20:44:16Z</time>
      </trkpt>
      <trkpt lat="48.92153" lon="1.04628">
        <ele>283.2</ele>
        <time>2017-06-30T20:44:18Z</time>
      </trkpt>
      <trkpt lat="48.92148" lon="1.04616">
        <ele>283.4</ele>
        <time>2017-06-30T20:44:20Z</time>
      </trkpt>
      <trkpt lat="48.92143" lon="1.04605">
        <ele>283.5</ele>
        <time>2017-06-30T20:44:22Z</time>
      </trkpt>
      <trkpt lat="48.92138" lon="1.04593">
        <ele>283.5</ele>
        <time>2017-06-30T20:44:24Z</time>
      </trkpt>
      <trkpt lat="48.92133" lon="1.0458">
        <ele>283.3</ele>
        <time>2017-06-30T20:44:26Z</time>
      </trkpt>
      <trkpt lat="48.92129" lon="1.04565">
        <ele>283.1</ele>
        <time>2017-06-30T20:44:28Z</time>
      </trkpt>
      <trkpt lat="48.92125" lon="1.04552">
        <ele>283</ele>
        <time>2017-06-30T20:44:30Z</time>
      </trkpt>
      <trkpt lat="48.9212" lon="1.04538">
        <ele>282.7</ele>
        <time>2017-06-30T20:44:32Z</time>
      </trkpt>
      <trkpt lat="48.92116" lon="1.04525">
        <ele>282.8</ele>
        <time>2017-06-30T20:44:34Z</time>
      </trkpt>
      <trkpt lat="48.92111" lon="1.04507">
        <ele>282.3</ele>
        <time>2017-06-30T20:44:37Z</time>
      </trkpt>
      <trkpt lat="48.92107" lon="1.04494">
        <ele>282.3</ele>
        <time>2017-06-30T20:44:39Z</time>
      </trkpt>
      <trkpt lat="48.92103" lon="1.04482">
        <ele>282.3</ele>
        <time>2017-06-30T20:44:41Z</time>
      </trkpt>
      <trkpt lat="48.92099" lon="1.04469">
        <ele>282.4</ele>
        <time>2017-06-30T20:44:43Z</time>
      </trkpt>
      <trkpt lat="48.92093" lon="1.04451">
        <ele>282.3</ele>
        <time>2017-06-30T20:44:46Z</time>
      </trkpt>
      <trkpt lat="48.92087" lon="1.04434">
        <ele>282.4</ele>
        <time>2017-06-30T20:44:49Z</time>
      </trkpt>
      <trkpt lat="48.92081" lon="1.04417">
        <ele>282.4</ele>
        <time>2017-06-30T20:44:52Z</time>
      </trkpt>
      <trkpt lat="48.92075" lon="1.044">
        <ele>282.4</ele>
        <time>2017-06-30T20:44:55Z</time>
      </trkpt>
      <trkpt lat="48.92069" lon="1.04383">
        <ele>282.5</ele>
        <time>2017-06-30T20:44:58Z</time>
      </trkpt>
      <trkpt lat="48.92064" lon="1.04369">
        <ele>282.8</ele>
        <time>2017-06-30T20:45:01Z</time>
      </trkpt>
      <trkpt lat="48.9207" lon="1.04355">
        <ele>283</ele>
        <time>2017-06-30T20:45:05Z</time>
      </trkpt>
      <trkpt lat="48.92078" lon="1.04344">
        <ele>283.3</ele>
        <time>2017-06-30T20:45:08Z</time>
      </trkpt>
      <trkpt lat="48.92086" lon="1.04333">
        <ele>283.3</ele>
        <time>2017-06-30T20:45:11Z</time>
      </trkpt>
      <trkpt lat="48.92094" lon="1.04322">
        <ele>283.6</ele>
        <time>2017-06-30T20:45:14Z</time>
      </trkpt>
      <trkpt lat="48.92104" lon="1.04312">
        <ele>284</ele>
        <time>2017-06-30T20:45:17Z</time>
      </trkpt>
      <trkpt lat="48.92114" lon="1.04305">
        <ele>284.6</ele>
        <time>2017-06-30T20:45:20Z</time>
      </trkpt>
      <trkpt lat="48.92126" lon="1.04299">
        <ele>285.1</ele>
        <time>2017-06-30T20:45:23Z</time>
      </trkpt>
      <trkpt lat="48.92137" lon="1.04293">
        <ele>285.5</ele>
        <time>2017-06-30T20:45:26Z</time>
      </trkpt>
      <trkpt lat="48.92148" lon="1.04286">
        <ele>285.7</ele>
        <time>2017-06-30T20:45:29Z</time>
      </trkpt>
      <trkpt lat="48.9216" lon="1.04276">
        <ele>286</ele>
        <time>2017-06-30T20:45:32Z</time>
      </trkpt>
      <trkpt lat="48.92171" lon="1.04265">
        <ele>286.3</ele>
        <time>2017-06-30T20:45:35Z</time>
      </trkpt>
      <trkpt lat="48.92181" lon="1.04253">
        <ele>286.4</ele>
        <time>2017-06-30T20:45:38Z</time>
      </trkpt>
      <trkpt lat="48.92192" lon="1.04243">
        <ele>286.4</ele>
        <time>2017-06-30T20:45:41Z</time>
      </trkpt>
      <trkpt lat="48.92203" lon="1.04232">
        <ele>286.3</ele>
        <time>2017-06-30T20:45:44Z</time>
      </trkpt>
      <trkpt lat="48.92211" lon="1.04225">
        <ele>286.2</ele>
        <time>2017-06-30T20:45:46Z</time>
      </trkpt>
      <trkpt lat="48.92223" lon="1.04217">
        <ele>286.3</ele>
        <time>2017-06-30T20:45:49Z</time>
      </trkpt>
      <trkpt lat="48.92235" lon="1.0421">
        <ele>286.7</ele>
        <time>2017-06-30T20:45:52Z</time>
      </trkpt>
      <trkpt lat="48.92247" lon="1.04204">
        <ele>286.9</ele>
        <time>2017-06-30T20:45:55Z</time>
      </trkpt>
      <trkpt lat="48.92256" lon="1.042">
        <ele>287</ele>
        <time>2017-06-30T20:45:57Z</time>
      </trkpt>
      <trkpt lat="48.92268" lon="1.04195">
        <ele>287.2</ele>
        <time>2017-06-30T20:46:00Z</time>
      </trkpt>
      <trkpt lat="48.92281" lon="1.0419">
        <ele>287.4</ele>
        <time>2017-06-30T20:46:03Z</time>
      </trkpt>
      <trkpt lat="48.9229" lon="1.04186">
        <ele>287.5</ele>
        <time>2017-06-30T20:46:05Z</time>
      </trkpt>
      <trkpt lat="48.923" lon="1.04183">
        <ele>287.8</ele>
        <time>2017-06-30T20:46:07Z</time>
      </trkpt>
      <trkpt lat="48.92309" lon="1.0418">
        <ele>287.9</ele>
        <time>2017-06-30T20:46:09Z</time>
      </trkpt>
      <trkpt lat="48.92319" lon="1.04177">
        <ele>287.9</ele>
        <time>2017-06-30T20:46:11Z</time>
      </trkpt>
      <trkpt lat="48.92328" lon="1.04175">
        <ele>288.1</ele>
        <time>2017-06-30T20:46:13Z</time>
      </trkpt>
      <trkpt lat="48.92337" lon="1.04172">
        <ele>288.2</ele>
        <time>2017-06-30T20:46:15Z</time>
      </trkpt>
      <trkpt lat="48.92346" lon="1.04171">
        <ele>288.3</ele>
        <time>2017-06-30T20:46:17Z</time>
      </trkpt>
      <trkpt lat="48.92359" lon="1.04169">
        <ele>288.4</ele>
        <time>2017-06-30T20:46:20Z</time>
      </trkpt>
      <trkpt lat="48.9237" lon="1.04171">
        <ele>288.6</ele>
        <time>2017-06-30T20:46:23Z</time>
      </trkpt>
      <trkpt lat="48.92377" lon="1.04184">
        <ele>288.7</ele>
        <time>2017-06-30T20:46:27Z</time>
      </trkpt>
      <trkpt lat="48.92382" lon="1.04196">
        <ele>288.8</ele>
        <time>2017-06-30T20:46:30Z</time>
      </trkpt>
      <trkpt lat="48.92387" lon="1.0421">
        <ele>289</ele>
        <time>2017-06-30T20:46:34Z</time>
      </trkpt>
      <trkpt lat="48.92392" lon="1.04224">
        <ele>289.1</ele>
        <time>2017-06-30T20:46:37Z</time>
      </trkpt>
      <trkpt lat="48.92398" lon="1.0424">
        <ele>288.9</ele>
        <time>2017-06-30T20:46:40Z</time>
      </trkpt>
      <trkpt lat="48.92405" lon="1.04257">
        <ele>288.7</ele>
        <time>2017-06-30T20:46:43Z</time>
      </trkpt>
      <trkpt lat="48.9241" lon="1.04275">
        <ele>288.3</ele>
        <time>2017-06-30T20:46:46Z</time>
      </trkpt>
      <trkpt lat="48.92415" lon="1.04291">
        <ele>288.2</ele>
        <time>2017-06-30T20:46:49Z</time>
      </trkpt>
      <trkpt lat="48.92421" lon="1.04307">
        <ele>288.3</ele>
        <time>2017-06-30T20:46:52Z</time>
      </trkpt>
      <trkpt lat="48.92426" lon="1.04324">
        <ele>287.8</ele>
        <time>2017-06-30T20:46:55Z</time>
      </trkpt>
      <trkpt lat="48.92432" lon="1.0434">
        <ele>287.7</ele>
        <time>2017-06-30T20:46:58Z</time>
      </trkpt>
      <trkpt lat="48.92437" lon="1.04356">
        <ele>287.8</ele>
        <time>2017-06-30T20:47:01Z</time>
      </trkpt>
      <trkpt lat="48.92442" lon="1.0437">
        <ele>288</ele>
        <time>2017-06-30T20:47:04Z</time>
      </trkpt>
      <trkpt lat="48.92443" lon="1.04384">
        <ele>288.4</ele>
        <time>2017-06-30T20:47:08Z</time>
      </trkpt>
      <trkpt lat="48.92448" lon="1.04397">
        <ele>288.6</ele>
        <time>2017-06-30T20:47:13Z</time>
      </trkpt>
      <trkpt lat="48.92453" lon="1.04409">
        <ele>288.6</ele>
        <time>2017-06-30T20:47:17Z</time>
      </trkpt>
      <trkpt lat="48.92459" lon="1.04421">
        <ele>288.6</ele>
        <time>2017-06-30T20:47:23Z</time>
      </trkpt>
      <trkpt lat="48.92464" lon="1.04433">
        <ele>288.7</ele>
        <time>2017-06-30T20:47:27Z</time>
      </trkpt>
      <trkpt lat="48.92469" lon="1.04448">
        <ele>288.8</ele>
        <time>2017-06-30T20:47:31Z</time>
      </trkpt>
      <trkpt lat="48.92474" lon="1.04462">
        <ele>288.8</ele>
        <time>2017-06-30T20:47:35Z</time>
      </trkpt>
      <trkpt lat="48.92468" lon="1.04472">
        <ele>289</ele>
        <time>2017-06-30T20:47:55Z</time>
      </trkpt>
      <trkpt lat="48.92457" lon="1.04477">
        <ele>289.1</ele>
        <time>2017-06-30T20:47:59Z</time>
      </trkpt>
      <trkpt lat="48.92449" lon="1.04482">
        <ele>289</ele>
        <time>2017-06-30T20:48:02Z</time>
      </trkpt>
      <trkpt lat="48.92437" lon="1.04488">
        <ele>288.8</ele>
        <time>2017-06-30T20:48:05Z</time>
      </trkpt>
      <trkpt lat="48.92425" lon="1.04494">
        <ele>288.6</ele>
        <time>2017-06-30T20:48:08Z</time>
      </trkpt>
      <trkpt lat="48.92416" lon="1.04499">
        <ele>288.3</ele>
        <time>2017-06-30T20:48:10Z</time>
      </trkpt>
      <trkpt lat="48.92408" lon="1.04504">
        <ele>288.2</ele>
        <time>2017-06-30T20:48:12Z</time>
      </trkpt>
      <trkpt lat="48.92399" lon="1.0451">
        <ele>288.2</ele>
        <time>2017-06-30T20:48:14Z</time>
      </trkpt>
      <trkpt lat="48.92391" lon="1.04516">
        <ele>288.1</ele>
        <time>2017-06-30T20:48:16Z</time>
      </trkpt>
      <trkpt lat="48.92382" lon="1.04522">
        <ele>287.8</ele>
        <time>2017-06-30T20:48:18Z</time>
      </trkpt>
      <trkpt lat="48.92374" lon="1.04529">
        <ele>287.6</ele>
        <time>2017-06-30T20:48:20Z</time>
      </trkpt>
      <trkpt lat="48.92366" lon="1.04536">
        <ele>287.4</ele>
        <time>2017-06-30T20:48:22Z</time>
      </trkpt>
      <trkpt lat="48.92357" lon="1.04544">
        <ele>287.2</ele>
        <time>2017-06-30T20:48:24Z</time>
      </trkpt>
      <trkpt lat="48.92349" lon="1.04552">
        <ele>287.1</ele>
        <time>2017-06-30T20:48:26Z</time>
      </trkpt>
      <trkpt lat="48.9234" lon="1.0456">
        <ele>286.6</ele>
        <time>2017-06-30T20:48:28Z</time>
      </trkpt>
      <trkpt lat="48.92332" lon="1.04568">
        <ele>286.5</ele>
        <time>2017-06-30T20:48:30Z</time>
      </trkpt>
      <trkpt lat="48.92324" lon="1.04576">
        <ele>286.5</ele>
        <time>2017-06-30T20:48:32Z</time>
      </trkpt>
      <trkpt lat="48.92316" lon="1.04585">
        <ele>286</ele>
        <time>2017-06-30T20:48:34Z</time>
      </trkpt>
      <trkpt lat="48.92309" lon="1.04593">
        <ele>286</ele>
        <time>2017-06-30T20:48:36Z</time>
      </trkpt>
      <trkpt lat="48.92301" lon="1.04603">
        <ele>285.6</ele>
        <time>2017-06-30T20:48:38Z</time>
      </trkpt>
      <trkpt lat="48.92294" lon="1.04612">
        <ele>285.4</ele>
        <time>2017-06-30T20:48:40Z</time>
      </trkpt>
      <trkpt lat="48.92286" lon="1.04621">
        <ele>285.2</ele>
        <time>2017-06-30T20:48:42Z</time>
      </trkpt>
      <trkpt lat="48.92278" lon="1.04631">
        <ele>284.8</ele>
        <time>2017-06-30T20:48:44Z</time>
      </trkpt>
      <trkpt lat="48.92271" lon="1.0464">
        <ele>284.6</ele>
        <time>2017-06-30T20:48:46Z</time>
      </trkpt>
      <trkpt lat="48.92263" lon="1.0465">
        <ele>284.4</ele>
        <time>2017-06-30T20:48:48Z</time>
      </trkpt>
      <trkpt lat="48.92256" lon="1.04659">
        <ele>284.3</ele>
        <time>2017-06-30T20:48:50Z</time>
      </trkpt>
      <trkpt lat="48.92249" lon="1.04668">
        <ele>284.2</ele>
        <time>2017-06-30T20:48:52Z</time>
      </trkpt>
      <trkpt lat="48.92241" lon="1.04678">
        <ele>284.3</ele>
        <time>2017-06-30T20:48:54Z</time>
      </trkpt>
      <trkpt lat="48.92234" lon="1.04688">
        <ele>284.1</ele>
        <time>2017-06-30T20:48:56Z</time>
      </trkpt>
      <trkpt lat="48.92227" lon="1.04697">
        <ele>283.9</ele>
        <time>2017-06-30T20:48:58Z</time>
      </trkpt>
      <trkpt lat="48.92218" lon="1.04711">
        <ele>283.7</ele>
        <time>2017-06-30T20:49:01Z</time>
      </trkpt>
      <trkpt lat="48.92212" lon="1.04722">
        <ele>283.8</ele>
        <time>2017-06-30T20:49:04Z</time>
      </trkpt>
      <trkpt lat="48.9222" lon="1.04732">
        <ele>283.9</ele>
        <time>2017-06-30T20:49:08Z</time>
      </trkpt>
      <trkpt lat="48.92227" lon="1.0474">
        <ele>284.1</ele>
        <time>2017-06-30T20:49:11Z</time>
      </trkpt>
      <trkpt lat="48.92236" lon="1.04749">
        <ele>284.1</ele>
        <time>2017-06-30T20:49:14Z</time>
      </trkpt>
      <trkpt lat="48.92245" lon="1.04759">
        <ele>284.4</ele>
        <time>2017-06-30T20:49:17Z</time>
      </trkpt>
      <trkpt lat="48.92253" lon="1.04768">
        <ele>284.8</ele>
        <time>2017-06-30T20:49:20Z</time>
      </trkpt>
      <trkpt lat="48.92263" lon="1.04778">
        <ele>285.2</ele>
        <time>2017-06-30T20:49:24Z</time>
      </trkpt>
      <trkpt lat="48.92273" lon="1.04784">
        <ele>285.5</ele>
        <time>2017-06-30T20:49:27Z</time>
      </trkpt>
      <trkpt lat="48.92282" lon="1.04794">
        <ele>285.8</ele>
        <time>2017-06-30T20:49:30Z</time>
      </trkpt>
      <trkpt lat="48.92294" lon="1.04801">
        <ele>286.3</ele>
        <time>2017-06-30T20:49:33Z</time>
      </trkpt>
      <trkpt lat="48.92303" lon="1.04807">
        <ele>286.3</ele>
        <time>2017-06-30T20:49:35Z</time>
      </trkpt>
      <trkpt lat="48.92311" lon="1.04816">
        <ele>286.6</ele>
        <time>2017-06-30T20:49:38Z</time>
      </trkpt>
      <trkpt lat="48.92321" lon="1.04827">
        <ele>287</ele>
        <time>2017-06-30T20:49:41Z</time>
      </trkpt>
      <trkpt lat="48.92331" lon="1.04836">
        <ele>287</ele>
        <time>2017-06-30T20:49:43Z</time>
      </trkpt>
      <trkpt lat="48.92339" lon="1.04845">
        <ele>287.1</ele>
        <time>2017-06-30T20:49:45Z</time>
      </trkpt>
      <trkpt lat="48.92347" lon="1.04853">
        <ele>287.3</ele>
        <time>2017-06-30T20:49:47Z</time>
      </trkpt>
      <trkpt lat="48.92355" lon="1.0486">
        <ele>287.5</ele>
        <time>2017-06-30T20:49:49Z</time>
      </trkpt>
      <trkpt lat="48.92363" lon="1.04868">
        <ele>287.7</ele>
        <time>2017-06-30T20:49:51Z</time>
      </trkpt>
      <trkpt lat="48.92371" lon="1.04876">
        <ele>287.8</ele>
        <time>2017-06-30T20:49:53Z</time>
      </trkpt>
      <trkpt lat="48.92378" lon="1.04885">
        <ele>287.9</ele>
        <time>2017-06-30T20:49:55Z</time>
      </trkpt>
      <trkpt lat="48.92388" lon="1.04896">
        <ele>288.1</ele>
        <time>2017-06-30T20:49:57Z</time>
      </trkpt>
      <trkpt lat="48.92398" lon="1.04907">
        <ele>288.2</ele>
        <time>2017-06-30T20:50:00Z</time>
      </trkpt>
      <trkpt lat="48.92405" lon="1.0492">
        <ele>288.4</ele>
        <time>2017-06-30T20:50:02Z</time>
      </trkpt>
      <trkpt lat="48.92414" lon="1.04931">
        <ele>288.3</ele>
        <time>2017-06-30T20:50:04Z</time>
      </trkpt>
      <trkpt lat="48.92422" lon="1.04944">
        <ele>288.3</ele>
        <time>2017-06-30T20:50:06Z</time>
      </trkpt>
      <trkpt lat="48.92432" lon="1.04961">
        <ele>288.2</ele>
        <time>2017-06-30T20:50:08Z</time>
      </trkpt>
      <trkpt lat="48.92441" lon="1.04972">
        <ele>288.2</ele>
        <time>2017-06-30T20:50:10Z</time>
      </trkpt>
      <trkpt lat="48.9245" lon="1.04983">
        <ele>288.1</ele>
        <time>2017-06-30T20:50:12Z</time>
      </trkpt>
      <trkpt lat="48.92459" lon="1.04993">
        <ele>288</ele>
        <time>2017-06-30T20:50:14Z</time>
      </trkpt>
      <trkpt lat="48.92469" lon="1.05002">
        <ele>288.1</ele>
        <time>2017-06-30T20:50:16Z</time>
      </trkpt>
      <trkpt lat="48.92479" lon="1.05011">
        <ele>288</ele>
        <time>2017-06-30T20:50:18Z</time>
      </trkpt>
      <trkpt lat="48.92489" lon="1.05019">
        <ele>287.8</ele>
        <time>2017-06-30T20:50:20Z</time>
      </trkpt>
      <trkpt lat="48.92499" lon="1.05026">
        <ele>287.5</ele>
        <time>2017-06-30T20:50:22Z</time>
      </trkpt>
      <trkpt lat="48.92508" lon="1.05033">
        <ele>287.4</ele>
        <time>2017-06-30T20:50:24Z</time>
      </trkpt>
      <trkpt lat="48.92517" lon="1.0504">
        <ele>287.5</ele>
        <time>2017-06-30T20:50:26Z</time>
      </trkpt>
      <trkpt lat="48.92527" lon="1.05045">
        <ele>287.5</ele>
        <time>2017-06-30T20:50:28Z</time>
      </trkpt>
      <trkpt lat="48.92536" lon="1.05051">
        <ele>287.3</ele>
        <time>2017-06-30T20:50:30Z</time>
      </trkpt>
      <trkpt lat="48.92546" lon="1.05057">
        <ele>287.3</ele>
        <time>2017-06-30T20:50:32Z</time>
      </trkpt>
      <trkpt lat="48.92555" lon="1.05062">
        <ele>286.9</ele>
        <time>2017-06-30T20:50:34Z</time>
      </trkpt>
      <trkpt lat="48.92565" lon="1.05067">
        <ele>287.1</ele>
        <time>2017-06-30T20:50:36Z</time>
      </trkpt>
      <trkpt lat="48.92575" lon="1.05071">
        <ele>287.2</ele>
        <time>2017-06-30T20:50:38Z</time>
      </trkpt>
      <trkpt lat="48.92583" lon="1.05075">
        <ele>287.2</ele>
        <time>2017-06-30T20:50:40Z</time>
      </trkpt>
      <trkpt lat="48.92592" lon="1.0508">
        <ele>287</ele>
        <time>2017-06-30T20:50:42Z</time>
      </trkpt>
      <trkpt lat="48.92601" lon="1.05083">
        <ele>286.8</ele>
        <time>2017-06-30T20:50:44Z</time>
      </trkpt>
      <trkpt lat="48.9261" lon="1.05087">
        <ele>286.7</ele>
        <time>2017-06-30T20:50:46Z</time>
      </trkpt>
      <trkpt lat="48.92619" lon="1.05089">
        <ele>286.7</ele>
        <time>2017-06-30T20:50:48Z</time>
      </trkpt>
      <trkpt lat="48.92632" lon="1.05091">
        <ele>286.4</ele>
        <time>2017-06-30T20:50:51Z</time>
      </trkpt>
      <trkpt lat="48.92644" lon="1.05091">
        <ele>285.8</ele>
        <time>2017-06-30T20:50:54Z</time>
      </trkpt>
      <trkpt lat="48.92654" lon="1.0509">
        <ele>284.4</ele>
        <time>2017-06-30T20:50:58Z</time>
      </trkpt>
      <trkpt lat="48.92665" lon="1.05094">
        <ele>283</ele>
        <time>2017-06-30T20:51:01Z</time>
      </trkpt>
      <trkpt lat="48.92676" lon="1.05106">
        <ele>282.2</ele>
        <time>2017-06-30T20:51:04Z</time>
      </trkpt>
      <trkpt lat="48.92686" lon="1.05118">
        <ele>281.2</ele>
        <time>2017-06-30T20:51:07Z</time>
      </trkpt>
      <trkpt lat="48.92696" lon="1.05127">
        <ele>280.1</ele>
        <time>2017-06-30T20:51:11Z</time>
      </trkpt>
      <trkpt lat="48.92703" lon="1.05136">
        <ele>279</ele>
        <time>2017-06-30T20:51:14Z</time>
      </trkpt>
      <trkpt lat="48.92711" lon="1.05144">
        <ele>277.7</ele>
        <time>2017-06-30T20:51:17Z</time>
      </trkpt>
      <trkpt lat="48.9272" lon="1.05153">
        <ele>276.3</ele>
        <time>2017-06-30T20:51:20Z</time>
      </trkpt>
      <trkpt lat="48.92732" lon="1.05166">
        <ele>274.6</ele>
        <time>2017-06-30T20:51:23Z</time>
      </trkpt>
      <trkpt lat="48.92741" lon="1.05177">
        <ele>273.1</ele>
        <time>2017-06-30T20:51:26Z</time>
      </trkpt>
      <trkpt lat="48.9275" lon="1.05187">
        <ele>271.9</ele>
        <time>2017-06-30T20:51:28Z</time>
      </trkpt>
      <trkpt lat="48.92758" lon="1.05198">
        <ele>271.3</ele>
        <time>2017-06-30T20:51:30Z</time>
      </trkpt>
      <trkpt lat="48.92764" lon="1.0521">
        <ele>270.5</ele>
        <time>2017-06-30T20:51:32Z</time>
      </trkpt>
      <trkpt lat="48.9277" lon="1.05225">
        <ele>269.9</ele>
        <time>2017-06-30T20:51:34Z</time>
      </trkpt>
      <trkpt lat="48.92775" lon="1.05239">
        <ele>269.4</ele>
        <time>2017-06-30T20:51:36Z</time>
      </trkpt>
      <trkpt lat="48.92778" lon="1.05256">
        <ele>268.8</ele>
        <time>2017-06-30T20:51:38Z</time>
      </trkpt>
      <trkpt lat="48.92782" lon="1.05272">
        <ele>268.3</ele>
        <time>2017-06-30T20:51:40Z</time>
      </trkpt>
      <trkpt lat="48.92787" lon="1.0529">
        <ele>267.6</ele>
        <time>2017-06-30T20:51:42Z</time>
      </trkpt>
      <trkpt lat="48.92791" lon="1.05308">
        <ele>266.9</ele>
        <time>2017-06-30T20:51:44Z</time>
      </trkpt>
      <trkpt lat="48.92796" lon="1.05327">
        <ele>266.4</ele>
        <time>2017-06-30T20:51:46Z</time>
      </trkpt>
      <trkpt lat="48.92802" lon="1.05347">
        <ele>265.7</ele>
        <time>2017-06-30T20:51:48Z</time>
      </trkpt>
      <trkpt lat="48.92808" lon="1.05367">
        <ele>265.1</ele>
        <time>2017-06-30T20:51:50Z</time>
      </trkpt>
      <trkpt lat="48.92815" lon="1.05388">
        <ele>264.4</ele>
        <time>2017-06-30T20:51:52Z</time>
      </trkpt>
      <trkpt lat="48.92821" lon="1.0541">
        <ele>263.5</ele>
        <time>2017-06-30T20:51:54Z</time>
      </trkpt>
      <trkpt lat="48.92828" lon="1.05432">
        <ele>262.6</ele>
        <time>2017-06-30T20:51:56Z</time>
      </trkpt>
      <trkpt lat="48.92835" lon="1.05453">
        <ele>261.6</ele>
        <time>2017-06-30T20:51:58Z</time>
      </trkpt>
      <trkpt lat="48.92845" lon="1.05471">
        <ele>260.8</ele>
        <time>2017-06-30T20:52:00Z</time>
      </trkpt>
      <trkpt lat="48.92858" lon="1.05483">
        <ele>260.1</ele>
        <time>2017-06-30T20:52:02Z</time>
      </trkpt>
      <trkpt lat="48.92871" lon="1.05493">
        <ele>259.5</ele>
        <time>2017-06-30T20:52:04Z</time>
      </trkpt>
      <trkpt lat="48.92885" lon="1.055">
        <ele>259.3</ele>
        <time>2017-06-30T20:52:06Z</time>
      </trkpt>
      <trkpt lat="48.92899" lon="1.05507">
        <ele>259.2</ele>
        <time>2017-06-30T20:52:08Z</time>
      </trkpt>
      <trkpt lat="48.92912" lon="1.05514">
        <ele>258.9</ele>
        <time>2017-06-30T20:52:10Z</time>
      </trkpt>
      <trkpt lat="48.92926" lon="1.05521">
        <ele>258.7</ele>
        <time>2017-06-30T20:52:12Z</time>
      </trkpt>
      <trkpt lat="48.92941" lon="1.05529">
        <ele>258.4</ele>
        <time>2017-06-30T20:52:14Z</time>
      </trkpt>
      <trkpt lat="48.92955" lon="1.05536">
        <ele>258.1</ele>
        <time>2017-06-30T20:52:16Z</time>
      </trkpt>
      <trkpt lat="48.92969" lon="1.05543">
        <ele>257.7</ele>
        <time>2017-06-30T20:52:18Z</time>
      </trkpt>
      <trkpt lat="48.92982" lon="1.05548">
        <ele>257.2</ele>
        <time>2017-06-30T20:52:20Z</time>
      </trkpt>
      <trkpt lat="48.92994" lon="1.05549">
        <ele>256.9</ele>
        <time>2017-06-30T20:52:22Z</time>
      </trkpt>
      <trkpt lat="48.93006" lon="1.05544">
        <ele>256.6</ele>
        <time>2017-06-30T20:52:24Z</time>
      </trkpt>
      <trkpt lat="48.93017" lon="1.05536">
        <ele>256.4</ele>
        <time>2017-06-30T20:52:26Z</time>
      </trkpt>
      <trkpt lat="48.93026" lon="1.05527">
        <ele>256.3</ele>
        <time>2017-06-30T20:52:28Z</time>
      </trkpt>
      <trkpt lat="48.93034" lon="1.05517">
        <ele>256.4</ele>
        <time>2017-06-30T20:52:30Z</time>
      </trkpt>
      <trkpt lat="48.93044" lon="1.05507">
        <ele>256.5</ele>
        <time>2017-06-30T20:52:32Z</time>
      </trkpt>
      <trkpt lat="48.93053" lon="1.05498">
        <ele>256.5</ele>
        <time>2017-06-30T20:52:34Z</time>
      </trkpt>
      <trkpt lat="48.93062" lon="1.05488">
        <ele>256.5</ele>
        <time>2017-06-30T20:52:36Z</time>
      </trkpt>
      <trkpt lat="48.9307" lon="1.05478">
        <ele>256.6</ele>
        <time>2017-06-30T20:52:38Z</time>
      </trkpt>
      <trkpt lat="48.93078" lon="1.05466">
        <ele>256.6</ele>
        <time>2017-06-30T20:52:40Z</time>
      </trkpt>
      <trkpt lat="48.93085" lon="1.05454">
        <ele>256.6</ele>
        <time>2017-06-30T20:52:42Z</time>
      </trkpt>
      <trkpt lat="48.93092" lon="1.05441">
        <ele>256.6</ele>
        <time>2017-06-30T20:52:44Z</time>
      </trkpt>
      <trkpt lat="48.93098" lon="1.05427">
        <ele>256.6</ele>
        <time>2017-06-30T20:52:46Z</time>
      </trkpt>
      <trkpt lat="48.93104" lon="1.05413">
        <ele>256.4</ele>
        <time>2017-06-30T20:52:48Z</time>
      </trkpt>
      <trkpt lat="48.9311" lon="1.05398">
        <ele>256.1</ele>
        <time>2017-06-30T20:52:50Z</time>
      </trkpt>
      <trkpt lat="48.93117" lon="1.05384">
        <ele>255.9</ele>
        <time>2017-06-30T20:52:52Z</time>
      </trkpt>
      <trkpt lat="48.93123" lon="1.0537">
        <ele>256.2</ele>
        <time>2017-06-30T20:52:54Z</time>
      </trkpt>
      <trkpt lat="48.93129" lon="1.05355">
        <ele>255.5</ele>
        <time>2017-06-30T20:52:56Z</time>
      </trkpt>
      <trkpt lat="48.93136" lon="1.05342">
        <ele>255</ele>
        <time>2017-06-30T20:52:58Z</time>
      </trkpt>
      <trkpt lat="48.93143" lon="1.05329">
        <ele>254.9</ele>
        <time>2017-06-30T20:53:00Z</time>
      </trkpt>
      <trkpt lat="48.93149" lon="1.05316">
        <ele>254.8</ele>
        <time>2017-06-30T20:53:02Z</time>
      </trkpt>
      <trkpt lat="48.93155" lon="1.05302">
        <ele>254.6</ele>
        <time>2017-06-30T20:53:04Z</time>
      </trkpt>
      <trkpt lat="48.93162" lon="1.0529">
        <ele>254.3</ele>
        <time>2017-06-30T20:53:06Z</time>
      </trkpt>
      <trkpt lat="48.93169" lon="1.05277">
        <ele>254.2</ele>
        <time>2017-06-30T20:53:08Z</time>
      </trkpt>
      <trkpt lat="48.93175" lon="1.05264">
        <ele>254</ele>
        <time>2017-06-30T20:53:10Z</time>
      </trkpt>
      <trkpt lat="48.93182" lon="1.05251">
        <ele>253.7</ele>
        <time>2017-06-30T20:53:12Z</time>
      </trkpt>
      <trkpt lat="48.93189" lon="1.05238">
        <ele>253.4</ele>
        <time>2017-06-30T20:53:14Z</time>
      </trkpt>
      <trkpt lat="48.93196" lon="1.05225">
        <ele>253.2</ele>
        <time>2017-06-30T20:53:16Z</time>
      </trkpt>
      <trkpt lat="48.93203" lon="1.05213">
        <ele>253.1</ele>
        <time>2017-06-30T20:53:18Z</time>
      </trkpt>
      <trkpt lat="48.93211" lon="1.052">
        <ele>252.6</ele>
        <time>2017-06-30T20:53:20Z</time>
      </trkpt>
      <trkpt lat="48.93219" lon="1.05187">
        <ele>252.3</ele>
        <time>2017-06-30T20:53:22Z</time>
      </trkpt>
      <trkpt lat="48.93229" lon="1.05176">
        <ele>252.1</ele>
        <time>2017-06-30T20:53:24Z</time>
      </trkpt>
      <trkpt lat="48.93239" lon="1.05168">
        <ele>251.8</ele>
        <time>2017-06-30T20:53:26Z</time>
      </trkpt>
      <trkpt lat="48.9325" lon="1.05161">
        <ele>251.7</ele>
        <time>2017-06-30T20:53:28Z</time>
      </trkpt>
      <trkpt lat="48.93262" lon="1.05157">
        <ele>251.4</ele>
        <time>2017-06-30T20:53:30Z</time>
      </trkpt>
      <trkpt lat="48.93273" lon="1.05155">
        <ele>251.1</ele>
        <time>2017-06-30T20:53:32Z</time>
      </trkpt>
      <trkpt lat="48.93285" lon="1.05155">
        <ele>250.8</ele>
        <time>2017-06-30T20:53:34Z</time>
      </trkpt>
      <trkpt lat="48.93296" lon="1.05156">
        <ele>250.7</ele>
        <time>2017-06-30T20:53:36Z</time>
      </trkpt>
      <trkpt lat="48.93307" lon="1.05157">
        <ele>250.6</ele>
        <time>2017-06-30T20:53:38Z</time>
      </trkpt>
      <trkpt lat="48.93318" lon="1.05159">
        <ele>250.7</ele>
        <time>2017-06-30T20:53:40Z</time>
      </trkpt>
      <trkpt lat="48.93328" lon="1.05161">
        <ele>250.7</ele>
        <time>2017-06-30T20:53:42Z</time>
      </trkpt>
      <trkpt lat="48.93339" lon="1.05162">
        <ele>250.7</ele>
        <time>2017-06-30T20:53:44Z</time>
      </trkpt>
      <trkpt lat="48.93349" lon="1.05163">
        <ele>250.7</ele>
        <time>2017-06-30T20:53:46Z</time>
      </trkpt>
      <trkpt lat="48.93359" lon="1.05165">
        <ele>250.7</ele>
        <time>2017-06-30T20:53:48Z</time>
      </trkpt>
      <trkpt lat="48.93369" lon="1.05166">
        <ele>250.6</ele>
        <time>2017-06-30T20:53:50Z</time>
      </trkpt>
      <trkpt lat="48.93379" lon="1.05168">
        <ele>250.7</ele>
        <time>2017-06-30T20:53:52Z</time>
      </trkpt>
      <trkpt lat="48.9339" lon="1.0517">
        <ele>251</ele>
        <time>2017-06-30T20:53:54Z</time>
      </trkpt>
      <trkpt lat="48.934" lon="1.05171">
        <ele>251.2</ele>
        <time>2017-06-30T20:53:56Z</time>
      </trkpt>
      <trkpt lat="48.9341" lon="1.05173">
        <ele>251.3</ele>
        <time>2017-06-30T20:53:58Z</time>
      </trkpt>
      <trkpt lat="48.93419" lon="1.05176">
        <ele>251.5</ele>
        <time>2017-06-30T20:54:00Z</time>
      </trkpt>
      <trkpt lat="48.93429" lon="1.0518">
        <ele>251.6</ele>
        <time>2017-06-30T20:54:02Z</time>
      </trkpt>
      <trkpt lat="48.93439" lon="1.05186">
        <ele>251.6</ele>
        <time>2017-06-30T20:54:04Z</time>
      </trkpt>
      <trkpt lat="48.93449" lon="1.05194">
        <ele>251.5</ele>
        <time>2017-06-30T20:54:06Z</time>
      </trkpt>
      <trkpt lat="48.93458" lon="1.05203">
        <ele>251.4</ele>
        <time>2017-06-30T20:54:08Z</time>
      </trkpt>
      <trkpt lat="48.93465" lon="1.05214">
        <ele>251.2</ele>
        <time>2017-06-30T20:54:10Z</time>
      </trkpt>
      <trkpt lat="48.93473" lon="1.05227">
        <ele>250.8</ele>
        <time>2017-06-30T20:54:12Z</time>
      </trkpt>
      <trkpt lat="48.9348" lon="1.05241">
        <ele>250.4</ele>
        <time>2017-06-30T20:54:14Z</time>
      </trkpt>
      <trkpt lat="48.93484" lon="1.05256">
        <ele>249.7</ele>
        <time>2017-06-30T20:54:17Z</time>
      </trkpt>
      <trkpt lat="48.93478" lon="1.05266">
        <ele>249.2</ele>
        <time>2017-06-30T20:54:20Z</time>
      </trkpt>
      <trkpt lat="48.93471" lon="1.05277">
        <ele>248.8</ele>
        <time>2017-06-30T20:54:23Z</time>
      </trkpt>
      <trkpt lat="48.93463" lon="1.05291">
        <ele>248.8</ele>
        <time>2017-06-30T20:54:27Z</time>
      </trkpt>
      <trkpt lat="48.93457" lon="1.05303">
        <ele>249.4</ele>
        <time>2017-06-30T20:54:31Z</time>
      </trkpt>
      <trkpt lat="48.93452" lon="1.05316">
        <ele>250.7</ele>
        <time>2017-06-30T20:54:36Z</time>
      </trkpt>
      <trkpt lat="48.93446" lon="1.05328">
        <ele>252.6</ele>
        <time>2017-06-30T20:54:44Z</time>
      </trkpt>
      <trkpt lat="48.93441" lon="1.05342">
        <ele>254.1</ele>
        <time>2017-06-30T20:54:52Z</time>
      </trkpt>
      <trkpt lat="48.93438" lon="1.05357">
        <ele>255.4</ele>
        <time>2017-06-30T20:54:59Z</time>
      </trkpt>
      <trkpt lat="48.93433" lon="1.05369">
        <ele>256.8</ele>
        <time>2017-06-30T20:55:06Z</time>
      </trkpt>
      <trkpt lat="48.93427" lon="1.05382">
        <ele>258</ele>
        <time>2017-06-30T20:55:12Z</time>
      </trkpt>
      <trkpt lat="48.93421" lon="1.05395">
        <ele>258.8</ele>
        <time>2017-06-30T20:55:16Z</time>
      </trkpt>
      <trkpt lat="48.93415" lon="1.05405">
        <ele>259.3</ele>
        <time>2017-06-30T20:55:20Z</time>
      </trkpt>
      <trkpt lat="48.93409" lon="1.05419">
        <ele>259.5</ele>
        <time>2017-06-30T20:55:23Z</time>
      </trkpt>
      <trkpt lat="48.93402" lon="1.05434">
        <ele>259.7</ele>
        <time>2017-06-30T20:55:27Z</time>
      </trkpt>
      <trkpt lat="48.93396" lon="1.05448">
        <ele>260.1</ele>
        <time>2017-06-30T20:55:31Z</time>
      </trkpt>
      <trkpt lat="48.93391" lon="1.0546">
        <ele>260.8</ele>
        <time>2017-06-30T20:55:35Z</time>
      </trkpt>
      <trkpt lat="48.93385" lon="1.05474">
        <ele>261.9</ele>
        <time>2017-06-30T20:55:40Z</time>
      </trkpt>
      <trkpt lat="48.9338" lon="1.05486">
        <ele>262.6</ele>
        <time>2017-06-30T20:55:43Z</time>
      </trkpt>
      <trkpt lat="48.93374" lon="1.05498">
        <ele>263.3</ele>
        <time>2017-06-30T20:55:46Z</time>
      </trkpt>
      <trkpt lat="48.93365" lon="1.0551">
        <ele>264.4</ele>
        <time>2017-06-30T20:55:50Z</time>
      </trkpt>
      <trkpt lat="48.93357" lon="1.05521">
        <ele>265.4</ele>
        <time>2017-06-30T20:55:54Z</time>
      </trkpt>
      <trkpt lat="48.93348" lon="1.05529">
        <ele>266.6</ele>
        <time>2017-06-30T20:55:59Z</time>
      </trkpt>
      <trkpt lat="48.93341" lon="1.05538">
        <ele>267.5</ele>
        <time>2017-06-30T20:56:02Z</time>
      </trkpt>
      <trkpt lat="48.93333" lon="1.05546">
        <ele>268.4</ele>
        <time>2017-06-30T20:56:05Z</time>
      </trkpt>
      <trkpt lat="48.93326" lon="1.05559">
        <ele>270.2</ele>
        <time>2017-06-30T20:56:10Z</time>
      </trkpt>
      <trkpt lat="48.93324" lon="1.05575">
        <ele>271.9</ele>
        <time>2017-06-30T20:56:15Z</time>
      </trkpt>
      <trkpt lat="48.93325" lon="1.05592">
        <ele>273.2</ele>
        <time>2017-06-30T20:56:20Z</time>
      </trkpt>
      <trkpt lat="48.93324" lon="1.05609">
        <ele>274.4</ele>
        <time>2017-06-30T20:56:24Z</time>
      </trkpt>
      <trkpt lat="48.93323" lon="1.05625">
        <ele>275.2</ele>
        <time>2017-06-30T20:56:28Z</time>
      </trkpt>
      <trkpt lat="48.93323" lon="1.05639">
        <ele>275.7</ele>
        <time>2017-06-30T20:56:31Z</time>
      </trkpt>
      <trkpt lat="48.93322" lon="1.05654">
        <ele>275.9</ele>
        <time>2017-06-30T20:56:34Z</time>
      </trkpt>
      <trkpt lat="48.93323" lon="1.05672">
        <ele>276.3</ele>
        <time>2017-06-30T20:56:38Z</time>
      </trkpt>
      <trkpt lat="48.93324" lon="1.05686">
        <ele>276.6</ele>
        <time>2017-06-30T20:56:41Z</time>
      </trkpt>
      <trkpt lat="48.93325" lon="1.05701">
        <ele>276.9</ele>
        <time>2017-06-30T20:56:44Z</time>
      </trkpt>
      <trkpt lat="48.93325" lon="1.05717">
        <ele>276.8</ele>
        <time>2017-06-30T20:56:47Z</time>
      </trkpt>
      <trkpt lat="48.93325" lon="1.05734">
        <ele>276.8</ele>
        <time>2017-06-30T20:56:50Z</time>
      </trkpt>
      <trkpt lat="48.93324" lon="1.05748">
        <ele>276.6</ele>
        <time>2017-06-30T20:56:53Z</time>
      </trkpt>
      <trkpt lat="48.93325" lon="1.05767">
        <ele>276.5</ele>
        <time>2017-06-30T20:56:56Z</time>
      </trkpt>
      <trkpt lat="48.93326" lon="1.05783">
        <ele>276.3</ele>
        <time>2017-06-30T20:56:59Z</time>
      </trkpt>
      <trkpt lat="48.93328" lon="1.05797">
        <ele>276.3</ele>
        <time>2017-06-30T20:57:01Z</time>
      </trkpt>
      <trkpt lat="48.93327" lon="1.05812">
        <ele>276.2</ele>
        <time>2017-06-30T20:57:03Z</time>
      </trkpt>
      <trkpt lat="48.93329" lon="1.05829">
        <ele>276.2</ele>
        <time>2017-06-30T20:57:06Z</time>
      </trkpt>
      <trkpt lat="48.93329" lon="1.05845">
        <ele>276</ele>
        <time>2017-06-30T20:57:09Z</time>
      </trkpt>
      <trkpt lat="48.93325" lon="1.05863">
        <ele>276</ele>
        <time>2017-06-30T20:57:12Z</time>
      </trkpt>
      <trkpt lat="48.93322" lon="1.05884">
        <ele>276.1</ele>
        <time>2017-06-30T20:57:15Z</time>
      </trkpt>
      <trkpt lat="48.93318" lon="1.05897">
        <ele>276.1</ele>
        <time>2017-06-30T20:57:17Z</time>
      </trkpt>
      <trkpt lat="48.93314" lon="1.05917">
        <ele>276</ele>
        <time>2017-06-30T20:57:19Z</time>
      </trkpt>
      <trkpt lat="48.93308" lon="1.05937">
        <ele>276.2</ele>
        <time>2017-06-30T20:57:22Z</time>
      </trkpt>
      <trkpt lat="48.93304" lon="1.05951">
        <ele>276.1</ele>
        <time>2017-06-30T20:57:24Z</time>
      </trkpt>
      <trkpt lat="48.933" lon="1.05965">
        <ele>276.1</ele>
        <time>2017-06-30T20:57:26Z</time>
      </trkpt>
      <trkpt lat="48.93295" lon="1.0598">
        <ele>276.2</ele>
        <time>2017-06-30T20:57:28Z</time>
      </trkpt>
      <trkpt lat="48.93293" lon="1.05995">
        <ele>276.3</ele>
        <time>2017-06-30T20:57:30Z</time>
      </trkpt>
      <trkpt lat="48.9329" lon="1.06014">
        <ele>276.6</ele>
        <time>2017-06-30T20:57:33Z</time>
      </trkpt>
      <trkpt lat="48.93285" lon="1.0603">
        <ele>277.2</ele>
        <time>2017-06-30T20:57:36Z</time>
      </trkpt>
      <trkpt lat="48.93279" lon="1.06044">
        <ele>277.2</ele>
        <time>2017-06-30T20:57:38Z</time>
      </trkpt>
      <trkpt lat="48.93272" lon="1.06057">
        <ele>277.1</ele>
        <time>2017-06-30T20:57:40Z</time>
      </trkpt>
      <trkpt lat="48.93266" lon="1.0607">
        <ele>277</ele>
        <time>2017-06-30T20:57:43Z</time>
      </trkpt>
      <trkpt lat="48.9326" lon="1.06087">
        <ele>277</ele>
        <time>2017-06-30T20:57:46Z</time>
      </trkpt>
      <trkpt lat="48.93258" lon="1.06103">
        <ele>276.9</ele>
        <time>2017-06-30T20:57:48Z</time>
      </trkpt>
      <trkpt lat="48.93254" lon="1.06117">
        <ele>276.9</ele>
        <time>2017-06-30T20:57:50Z</time>
      </trkpt>
      <trkpt lat="48.93247" lon="1.06136">
        <ele>277.3</ele>
        <time>2017-06-30T20:57:53Z</time>
      </trkpt>
      <trkpt lat="48.93243" lon="1.0615">
        <ele>277.5</ele>
        <time>2017-06-30T20:57:55Z</time>
      </trkpt>
      <trkpt lat="48.9324" lon="1.0617">
        <ele>278.3</ele>
        <time>2017-06-30T20:57:58Z</time>
      </trkpt>
      <trkpt lat="48.9324" lon="1.06189">
        <ele>279</ele>
        <time>2017-06-30T20:58:01Z</time>
      </trkpt>
      <trkpt lat="48.93241" lon="1.06208">
        <ele>280.1</ele>
        <time>2017-06-30T20:58:04Z</time>
      </trkpt>
      <trkpt lat="48.93238" lon="1.06227">
        <ele>280.8</ele>
        <time>2017-06-30T20:58:07Z</time>
      </trkpt>
      <trkpt lat="48.93236" lon="1.06246">
        <ele>281.6</ele>
        <time>2017-06-30T20:58:10Z</time>
      </trkpt>
      <trkpt lat="48.93236" lon="1.06264">
        <ele>282.4</ele>
        <time>2017-06-30T20:58:13Z</time>
      </trkpt>
      <trkpt lat="48.93235" lon="1.06284">
        <ele>283.1</ele>
        <time>2017-06-30T20:58:16Z</time>
      </trkpt>
      <trkpt lat="48.93232" lon="1.06298">
        <ele>283.6</ele>
        <time>2017-06-30T20:58:18Z</time>
      </trkpt>
      <trkpt lat="48.93226" lon="1.06314">
        <ele>284.4</ele>
        <time>2017-06-30T20:58:21Z</time>
      </trkpt>
      <trkpt lat="48.93223" lon="1.06334">
        <ele>284.7</ele>
        <time>2017-06-30T20:58:24Z</time>
      </trkpt>
      <trkpt lat="48.93224" lon="1.06351">
        <ele>285.2</ele>
        <time>2017-06-30T20:58:27Z</time>
      </trkpt>
      <trkpt lat="48.93226" lon="1.06371">
        <ele>285.5</ele>
        <time>2017-06-30T20:58:30Z</time>
      </trkpt>
      <trkpt lat="48.93233" lon="1.06382">
        <ele>285.4</ele>
        <time>2017-06-30T20:58:34Z</time>
      </trkpt>
      <trkpt lat="48.93242" lon="1.06384">
        <ele>285.3</ele>
        <time>2017-06-30T20:58:59Z</time>
      </trkpt>
      <trkpt lat="48.93251" lon="1.06384">
        <ele>285.6</ele>
        <time>2017-06-30T21:00:36Z</time>
      </trkpt>
      <trkpt lat="48.93262" lon="1.06375">
        <ele>285.2</ele>
        <time>2017-06-30T21:00:41Z</time>
      </trkpt>
      <trkpt lat="48.93273" lon="1.06367">
        <ele>285.1</ele>
        <time>2017-06-30T21:00:45Z</time>
      </trkpt>
      <trkpt lat="48.93282" lon="1.06359">
        <ele>285.1</ele>
        <time>2017-06-30T21:00:48Z</time>
      </trkpt>
      <trkpt lat="48.93293" lon="1.06351">
        <ele>285.1</ele>
        <time>2017-06-30T21:00:51Z</time>
      </trkpt>
      <trkpt lat="48.93302" lon="1.06346">
        <ele>284.9</ele>
        <time>2017-06-30T21:00:53Z</time>
      </trkpt>
      <trkpt lat="48.93311" lon="1.06341">
        <ele>284.7</ele>
        <time>2017-06-30T21:00:55Z</time>
      </trkpt>
      <trkpt lat="48.9332" lon="1.06335">
        <ele>284.7</ele>
        <time>2017-06-30T21:00:57Z</time>
      </trkpt>
      <trkpt lat="48.93332" lon="1.06326">
        <ele>284.2</ele>
        <time>2017-06-30T21:01:00Z</time>
      </trkpt>
      <trkpt lat="48.93342" lon="1.06319">
        <ele>283.9</ele>
        <time>2017-06-30T21:01:03Z</time>
      </trkpt>
      <trkpt lat="48.93353" lon="1.0631">
        <ele>284</ele>
        <time>2017-06-30T21:01:06Z</time>
      </trkpt>
      <trkpt lat="48.93365" lon="1.06303">
        <ele>283.9</ele>
        <time>2017-06-30T21:01:09Z</time>
      </trkpt>
      <trkpt lat="48.93375" lon="1.06297">
        <ele>283.3</ele>
        <time>2017-06-30T21:01:12Z</time>
      </trkpt>
      <trkpt lat="48.93386" lon="1.0629">
        <ele>283</ele>
        <time>2017-06-30T21:01:15Z</time>
      </trkpt>
      <trkpt lat="48.93395" lon="1.06281">
        <ele>282.8</ele>
        <time>2017-06-30T21:01:18Z</time>
      </trkpt>
      <trkpt lat="48.93405" lon="1.06275">
        <ele>282.7</ele>
        <time>2017-06-30T21:01:20Z</time>
      </trkpt>
      <trkpt lat="48.93414" lon="1.06268">
        <ele>282.3</ele>
        <time>2017-06-30T21:01:23Z</time>
      </trkpt>
      <trkpt lat="48.93423" lon="1.0626">
        <ele>282.1</ele>
        <time>2017-06-30T21:01:26Z</time>
      </trkpt>
      <trkpt lat="48.93432" lon="1.06254">
        <ele>281.6</ele>
        <time>2017-06-30T21:01:28Z</time>
      </trkpt>
      <trkpt lat="48.93444" lon="1.06244">
        <ele>281.1</ele>
        <time>2017-06-30T21:01:31Z</time>
      </trkpt>
      <trkpt lat="48.93455" lon="1.06234">
        <ele>280.6</ele>
        <time>2017-06-30T21:01:34Z</time>
      </trkpt>
      <trkpt lat="48.93466" lon="1.06224">
        <ele>280.2</ele>
        <time>2017-06-30T21:01:37Z</time>
      </trkpt>
      <trkpt lat="48.93475" lon="1.06215">
        <ele>279.6</ele>
        <time>2017-06-30T21:01:40Z</time>
      </trkpt>
      <trkpt lat="48.93486" lon="1.06211">
        <ele>279.7</ele>
        <time>2017-06-30T21:01:43Z</time>
      </trkpt>
      <trkpt lat="48.93496" lon="1.06208">
        <ele>279.5</ele>
        <time>2017-06-30T21:01:45Z</time>
      </trkpt>
      <trkpt lat="48.93505" lon="1.06204">
        <ele>279.4</ele>
        <time>2017-06-30T21:01:48Z</time>
      </trkpt>
      <trkpt lat="48.93515" lon="1.06202">
        <ele>279.1</ele>
        <time>2017-06-30T21:01:52Z</time>
      </trkpt>
      <trkpt lat="48.93525" lon="1.0621">
        <ele>279.4</ele>
        <time>2017-06-30T21:01:56Z</time>
      </trkpt>
      <trkpt lat="48.93534" lon="1.0622">
        <ele>279.4</ele>
        <time>2017-06-30T21:01:59Z</time>
      </trkpt>
      <trkpt lat="48.93542" lon="1.06228">
        <ele>279.4</ele>
        <time>2017-06-30T21:02:02Z</time>
      </trkpt>
      <trkpt lat="48.9355" lon="1.06234">
        <ele>279.6</ele>
        <time>2017-06-30T21:02:04Z</time>
      </trkpt>
      <trkpt lat="48.93557" lon="1.06244">
        <ele>279.7</ele>
        <time>2017-06-30T21:02:06Z</time>
      </trkpt>
      <trkpt lat="48.93565" lon="1.06255">
        <ele>279.3</ele>
        <time>2017-06-30T21:02:09Z</time>
      </trkpt>
      <trkpt lat="48.9357" lon="1.0627">
        <ele>279.9</ele>
        <time>2017-06-30T21:02:13Z</time>
      </trkpt>
      <trkpt lat="48.93574" lon="1.06282">
        <ele>280</ele>
        <time>2017-06-30T21:02:16Z</time>
      </trkpt>
      <trkpt lat="48.93581" lon="1.06293">
        <ele>280</ele>
        <time>2017-06-30T21:02:21Z</time>
      </trkpt>
      <trkpt lat="48.93587" lon="1.06305">
        <ele>279.6</ele>
        <time>2017-06-30T21:02:34Z</time>
      </trkpt>
      <trkpt lat="48.93593" lon="1.06317">
        <ele>279.6</ele>
        <time>2017-06-30T21:02:43Z</time>
      </trkpt>
      <trkpt lat="48.93599" lon="1.06328">
        <ele>279.3</ele>
        <time>2017-06-30T21:02:47Z</time>
      </trkpt>
      <trkpt lat="48.93607" lon="1.06339">
        <ele>279.1</ele>
        <time>2017-06-30T21:02:51Z</time>
      </trkpt>
      <trkpt lat="48.9362" lon="1.06346">
        <ele>278.9</ele>
        <time>2017-06-30T21:02:54Z</time>
      </trkpt>
      <trkpt lat="48.93628" lon="1.06355">
        <ele>278.6</ele>
        <time>2017-06-30T21:02:58Z</time>
      </trkpt>
      <trkpt lat="48.93632" lon="1.06369">
        <ele>278</ele>
        <time>2017-06-30T21:03:02Z</time>
      </trkpt>
      <trkpt lat="48.93634" lon="1.06391">
        <ele>277.9</ele>
        <time>2017-06-30T21:03:05Z</time>
      </trkpt>
      <trkpt lat="48.93638" lon="1.06406">
        <ele>276.9</ele>
        <time>2017-06-30T21:03:08Z</time>
      </trkpt>
      <trkpt lat="48.93641" lon="1.06423">
        <ele>275.8</ele>
        <time>2017-06-30T21:03:11Z</time>
      </trkpt>
      <trkpt lat="48.93639" lon="1.0644">
        <ele>275.8</ele>
        <time>2017-06-30T21:03:15Z</time>
      </trkpt>
      <trkpt lat="48.93638" lon="1.06454">
        <ele>276.2</ele>
        <time>2017-06-30T21:03:17Z</time>
      </trkpt>
      <trkpt lat="48.93634" lon="1.06472">
        <ele>276.7</ele>
        <time>2017-06-30T21:03:20Z</time>
      </trkpt>
      <trkpt lat="48.93633" lon="1.06485">
        <ele>276.8</ele>
        <time>2017-06-30T21:03:22Z</time>
      </trkpt>
      <trkpt lat="48.9363" lon="1.06499">
        <ele>277.4</ele>
        <time>2017-06-30T21:03:24Z</time>
      </trkpt>
      <trkpt lat="48.93627" lon="1.06513">
        <ele>278.2</ele>
        <time>2017-06-30T21:03:28Z</time>
      </trkpt>
      <trkpt lat="48.93622" lon="1.06526">
        <ele>278.7</ele>
        <time>2017-06-30T21:03:32Z</time>
      </trkpt>
      <trkpt lat="48.93617" lon="1.06541">
        <ele>279</ele>
        <time>2017-06-30T21:03:35Z</time>
      </trkpt>
      <trkpt lat="48.93613" lon="1.06554">
        <ele>279.3</ele>
        <time>2017-06-30T21:03:38Z</time>
      </trkpt>
      <trkpt lat="48.93609" lon="1.06566">
        <ele>279.3</ele>
        <time>2017-06-30T21:03:40Z</time>
      </trkpt>
      <trkpt lat="48.93602" lon="1.06581">
        <ele>279.5</ele>
        <time>2017-06-30T21:03:43Z</time>
      </trkpt>
      <trkpt lat="48.93597" lon="1.066">
        <ele>279.6</ele>
        <time>2017-06-30T21:03:46Z</time>
      </trkpt>
      <trkpt lat="48.93593" lon="1.06616">
        <ele>279.9</ele>
        <time>2017-06-30T21:03:49Z</time>
      </trkpt>
      <trkpt lat="48.93591" lon="1.0663">
        <ele>280.3</ele>
        <time>2017-06-30T21:03:52Z</time>
      </trkpt>
      <trkpt lat="48.93587" lon="1.06643">
        <ele>280.5</ele>
        <time>2017-06-30T21:03:54Z</time>
      </trkpt>
      <trkpt lat="48.93579" lon="1.06658">
        <ele>280.8</ele>
        <time>2017-06-30T21:03:57Z</time>
      </trkpt>
      <trkpt lat="48.9357" lon="1.0667">
        <ele>281.1</ele>
        <time>2017-06-30T21:04:00Z</time>
      </trkpt>
      <trkpt lat="48.93563" lon="1.06682">
        <ele>281.3</ele>
        <time>2017-06-30T21:04:03Z</time>
      </trkpt>
      <trkpt lat="48.93556" lon="1.06695">
        <ele>281.6</ele>
        <time>2017-06-30T21:04:06Z</time>
      </trkpt>
      <trkpt lat="48.9355" lon="1.06712">
        <ele>281.8</ele>
        <time>2017-06-30T21:04:09Z</time>
      </trkpt>
      <trkpt lat="48.93547" lon="1.0673">
        <ele>282.5</ele>
        <time>2017-06-30T21:04:13Z</time>
      </trkpt>
      <trkpt lat="48.93546" lon="1.06746">
        <ele>282.7</ele>
        <time>2017-06-30T21:04:16Z</time>
      </trkpt>
      <trkpt lat="48.93549" lon="1.06764">
        <ele>282.6</ele>
        <time>2017-06-30T21:04:19Z</time>
      </trkpt>
      <trkpt lat="48.93552" lon="1.06781">
        <ele>282.3</ele>
        <time>2017-06-30T21:04:22Z</time>
      </trkpt>
      <trkpt lat="48.93554" lon="1.06799">
        <ele>282.2</ele>
        <time>2017-06-30T21:04:25Z</time>
      </trkpt>
      <trkpt lat="48.93557" lon="1.06816">
        <ele>281.9</ele>
        <time>2017-06-30T21:04:28Z</time>
      </trkpt>
      <trkpt lat="48.93559" lon="1.06832">
        <ele>281.7</ele>
        <time>2017-06-30T21:04:31Z</time>
      </trkpt>
      <trkpt lat="48.9356" lon="1.06848">
        <ele>281.7</ele>
        <time>2017-06-30T21:04:35Z</time>
      </trkpt>
      <trkpt lat="48.93569" lon="1.0685">
        <ele>281.4</ele>
        <time>2017-06-30T21:04:42Z</time>
      </trkpt>
      <trkpt lat="48.93579" lon="1.06846">
        <ele>281.4</ele>
        <time>2017-06-30T21:04:46Z</time>
      </trkpt>
      <trkpt lat="48.93589" lon="1.06842">
        <ele>281.5</ele>
        <time>2017-06-30T21:04:49Z</time>
      </trkpt>
      <trkpt lat="48.93598" lon="1.06836">
        <ele>281.4</ele>
        <time>2017-06-30T21:04:52Z</time>
      </trkpt>
      <trkpt lat="48.93609" lon="1.06829">
        <ele>281.2</ele>
        <time>2017-06-30T21:04:55Z</time>
      </trkpt>
      <trkpt lat="48.93619" lon="1.06821">
        <ele>281</ele>
        <time>2017-06-30T21:04:58Z</time>
      </trkpt>
      <trkpt lat="48.93628" lon="1.06815">
        <ele>280.8</ele>
        <time>2017-06-30T21:05:01Z</time>
      </trkpt>
      <trkpt lat="48.93639" lon="1.06808">
        <ele>280.6</ele>
        <time>2017-06-30T21:05:04Z</time>
      </trkpt>
      <trkpt lat="48.93649" lon="1.06802">
        <ele>280.4</ele>
        <time>2017-06-30T21:05:07Z</time>
      </trkpt>
      <trkpt lat="48.93661" lon="1.06795">
        <ele>280.1</ele>
        <time>2017-06-30T21:05:10Z</time>
      </trkpt>
      <trkpt lat="48.9367" lon="1.06788">
        <ele>279.7</ele>
        <time>2017-06-30T21:05:13Z</time>
      </trkpt>
      <trkpt lat="48.93679" lon="1.06783">
        <ele>279.3</ele>
        <time>2017-06-30T21:05:15Z</time>
      </trkpt>
      <trkpt lat="48.9369" lon="1.06778">
        <ele>278.9</ele>
        <time>2017-06-30T21:05:18Z</time>
      </trkpt>
      <trkpt lat="48.937" lon="1.06771">
        <ele>278.6</ele>
        <time>2017-06-30T21:05:21Z</time>
      </trkpt>
      <trkpt lat="48.93711" lon="1.06763">
        <ele>278.7</ele>
        <time>2017-06-30T21:05:24Z</time>
      </trkpt>
      <trkpt lat="48.93722" lon="1.06757">
        <ele>278.2</ele>
        <time>2017-06-30T21:05:27Z</time>
      </trkpt>
      <trkpt lat="48.93732" lon="1.06749">
        <ele>277.7</ele>
        <time>2017-06-30T21:05:30Z</time>
      </trkpt>
      <trkpt lat="48.93743" lon="1.06741">
        <ele>277.4</ele>
        <time>2017-06-30T21:05:33Z</time>
      </trkpt>
      <trkpt lat="48.93753" lon="1.06734">
        <ele>277.2</ele>
        <time>2017-06-30T21:05:36Z</time>
      </trkpt>
      <trkpt lat="48.93764" lon="1.06728">
        <ele>277</ele>
        <time>2017-06-30T21:05:39Z</time>
      </trkpt>
      <trkpt lat="48.93776" lon="1.06723">
        <ele>276.7</ele>
        <time>2017-06-30T21:05:42Z</time>
      </trkpt>
      <trkpt lat="48.93785" lon="1.06717">
        <ele>276.5</ele>
        <time>2017-06-30T21:05:45Z</time>
      </trkpt>
      <trkpt lat="48.93794" lon="1.0671">
        <ele>276.3</ele>
        <time>2017-06-30T21:05:48Z</time>
      </trkpt>
      <trkpt lat="48.93805" lon="1.06699">
        <ele>276.1</ele>
        <time>2017-06-30T21:05:52Z</time>
      </trkpt>
      <trkpt lat="48.93815" lon="1.06695">
        <ele>275.4</ele>
        <time>2017-06-30T21:05:55Z</time>
      </trkpt>
      <trkpt lat="48.93824" lon="1.06688">
        <ele>275.1</ele>
        <time>2017-06-30T21:05:58Z</time>
      </trkpt>
      <trkpt lat="48.93831" lon="1.06679">
        <ele>274.8</ele>
        <time>2017-06-30T21:06:01Z</time>
      </trkpt>
      <trkpt lat="48.93841" lon="1.06671">
        <ele>274.3</ele>
        <time>2017-06-30T21:06:04Z</time>
      </trkpt>
      <trkpt lat="48.9385" lon="1.06663">
        <ele>273.1</ele>
        <time>2017-06-30T21:06:07Z</time>
      </trkpt>
      <trkpt lat="48.93859" lon="1.06657">
        <ele>272.5</ele>
        <time>2017-06-30T21:06:10Z</time>
      </trkpt>
      <trkpt lat="48.93873" lon="1.06648">
        <ele>271.8</ele>
        <time>2017-06-30T21:06:13Z</time>
      </trkpt>
      <trkpt lat="48.93881" lon="1.06642">
        <ele>271.4</ele>
        <time>2017-06-30T21:06:15Z</time>
      </trkpt>
      <trkpt lat="48.93891" lon="1.06636">
        <ele>270.9</ele>
        <time>2017-06-30T21:06:17Z</time>
      </trkpt>
      <trkpt lat="48.93903" lon="1.06628">
        <ele>270.1</ele>
        <time>2017-06-30T21:06:20Z</time>
      </trkpt>
      <trkpt lat="48.93912" lon="1.06622">
        <ele>269.7</ele>
        <time>2017-06-30T21:06:22Z</time>
      </trkpt>
      <trkpt lat="48.93921" lon="1.06616">
        <ele>269.3</ele>
        <time>2017-06-30T21:06:24Z</time>
      </trkpt>
      <trkpt lat="48.93931" lon="1.06608">
        <ele>269</ele>
        <time>2017-06-30T21:06:27Z</time>
      </trkpt>
      <trkpt lat="48.93941" lon="1.06601">
        <ele>269.4</ele>
        <time>2017-06-30T21:06:30Z</time>
      </trkpt>
      <trkpt lat="48.93952" lon="1.06592">
        <ele>270.3</ele>
        <time>2017-06-30T21:06:33Z</time>
      </trkpt>
      <trkpt lat="48.93963" lon="1.06586">
        <ele>271</ele>
        <time>2017-06-30T21:06:36Z</time>
      </trkpt>
      <trkpt lat="48.93971" lon="1.06581">
        <ele>271.4</ele>
        <time>2017-06-30T21:06:38Z</time>
      </trkpt>
      <trkpt lat="48.93979" lon="1.06575">
        <ele>272.3</ele>
        <time>2017-06-30T21:06:40Z</time>
      </trkpt>
      <trkpt lat="48.93988" lon="1.06569">
        <ele>273</ele>
        <time>2017-06-30T21:06:42Z</time>
      </trkpt>
      <trkpt lat="48.94003" lon="1.06561">
        <ele>273.3</ele>
        <time>2017-06-30T21:06:44Z</time>
      </trkpt>
      <trkpt lat="48.94015" lon="1.06554">
        <ele>273.8</ele>
        <time>2017-06-30T21:06:46Z</time>
      </trkpt>
      <trkpt lat="48.94027" lon="1.06549">
        <ele>274.4</ele>
        <time>2017-06-30T21:06:48Z</time>
      </trkpt>
      <trkpt lat="48.94039" lon="1.06542">
        <ele>275.1</ele>
        <time>2017-06-30T21:06:50Z</time>
      </trkpt>
      <trkpt lat="48.9405" lon="1.06537">
        <ele>275.6</ele>
        <time>2017-06-30T21:06:52Z</time>
      </trkpt>
      <trkpt lat="48.94062" lon="1.0653">
        <ele>276.3</ele>
        <time>2017-06-30T21:06:54Z</time>
      </trkpt>
      <trkpt lat="48.94071" lon="1.06524">
        <ele>277.1</ele>
        <time>2017-06-30T21:06:56Z</time>
      </trkpt>
      <trkpt lat="48.94084" lon="1.06515">
        <ele>277.6</ele>
        <time>2017-06-30T21:06:58Z</time>
      </trkpt>
      <trkpt lat="48.94093" lon="1.06509">
        <ele>278</ele>
        <time>2017-06-30T21:07:00Z</time>
      </trkpt>
      <trkpt lat="48.94104" lon="1.06501">
        <ele>278.8</ele>
        <time>2017-06-30T21:07:03Z</time>
      </trkpt>
      <trkpt lat="48.94114" lon="1.06492">
        <ele>279.1</ele>
        <time>2017-06-30T21:07:06Z</time>
      </trkpt>
      <trkpt lat="48.94123" lon="1.06486">
        <ele>279.3</ele>
        <time>2017-06-30T21:07:09Z</time>
      </trkpt>
      <trkpt lat="48.94135" lon="1.0648">
        <ele>279.3</ele>
        <time>2017-06-30T21:07:12Z</time>
      </trkpt>
      <trkpt lat="48.94143" lon="1.06475">
        <ele>279.7</ele>
        <time>2017-06-30T21:07:14Z</time>
      </trkpt>
      <trkpt lat="48.94154" lon="1.06469">
        <ele>279.8</ele>
        <time>2017-06-30T21:07:16Z</time>
      </trkpt>
      <trkpt lat="48.94163" lon="1.06464">
        <ele>279.8</ele>
        <time>2017-06-30T21:07:18Z</time>
      </trkpt>
      <trkpt lat="48.94174" lon="1.06456">
        <ele>280.1</ele>
        <time>2017-06-30T21:07:21Z</time>
      </trkpt>
      <trkpt lat="48.94187" lon="1.06447">
        <ele>280.4</ele>
        <time>2017-06-30T21:07:24Z</time>
      </trkpt>
      <trkpt lat="48.94198" lon="1.0644">
        <ele>280.5</ele>
        <time>2017-06-30T21:07:26Z</time>
      </trkpt>
      <trkpt lat="48.94211" lon="1.06432">
        <ele>280.7</ele>
        <time>2017-06-30T21:07:28Z</time>
      </trkpt>
      <trkpt lat="48.94221" lon="1.06425">
        <ele>280.9</ele>
        <time>2017-06-30T21:07:30Z</time>
      </trkpt>
      <trkpt lat="48.94232" lon="1.06418">
        <ele>281.1</ele>
        <time>2017-06-30T21:07:32Z</time>
      </trkpt>
      <trkpt lat="48.94243" lon="1.06412">
        <ele>281.5</ele>
        <time>2017-06-30T21:07:34Z</time>
      </trkpt>
      <trkpt lat="48.94252" lon="1.06405">
        <ele>281.9</ele>
        <time>2017-06-30T21:07:36Z</time>
      </trkpt>
      <trkpt lat="48.94261" lon="1.064">
        <ele>282.1</ele>
        <time>2017-06-30T21:07:38Z</time>
      </trkpt>
      <trkpt lat="48.9427" lon="1.06393">
        <ele>282.3</ele>
        <time>2017-06-30T21:07:40Z</time>
      </trkpt>
      <trkpt lat="48.94282" lon="1.06385">
        <ele>282.7</ele>
        <time>2017-06-30T21:07:43Z</time>
      </trkpt>
      <trkpt lat="48.94291" lon="1.06379">
        <ele>283.1</ele>
        <time>2017-06-30T21:07:45Z</time>
      </trkpt>
      <trkpt lat="48.943" lon="1.06374">
        <ele>283.3</ele>
        <time>2017-06-30T21:07:47Z</time>
      </trkpt>
      <trkpt lat="48.94309" lon="1.06368">
        <ele>283.4</ele>
        <time>2017-06-30T21:07:49Z</time>
      </trkpt>
      <trkpt lat="48.94319" lon="1.06361">
        <ele>283.7</ele>
        <time>2017-06-30T21:07:51Z</time>
      </trkpt>
      <trkpt lat="48.94327" lon="1.06355">
        <ele>283.8</ele>
        <time>2017-06-30T21:07:53Z</time>
      </trkpt>
      <trkpt lat="48.94339" lon="1.06346">
        <ele>284</ele>
        <time>2017-06-30T21:07:56Z</time>
      </trkpt>
      <trkpt lat="48.94348" lon="1.0634">
        <ele>284.2</ele>
        <time>2017-06-30T21:07:58Z</time>
      </trkpt>
      <trkpt lat="48.94357" lon="1.06335">
        <ele>284.4</ele>
        <time>2017-06-30T21:08:00Z</time>
      </trkpt>
      <trkpt lat="48.94367" lon="1.06328">
        <ele>284.7</ele>
        <time>2017-06-30T21:08:02Z</time>
      </trkpt>
      <trkpt lat="48.94377" lon="1.06322">
        <ele>284.7</ele>
        <time>2017-06-30T21:08:04Z</time>
      </trkpt>
      <trkpt lat="48.94386" lon="1.06316">
        <ele>285</ele>
        <time>2017-06-30T21:08:06Z</time>
      </trkpt>
      <trkpt lat="48.94396" lon="1.06309">
        <ele>285.3</ele>
        <time>2017-06-30T21:08:08Z</time>
      </trkpt>
      <trkpt lat="48.94408" lon="1.06301">
        <ele>285.7</ele>
        <time>2017-06-30T21:08:11Z</time>
      </trkpt>
      <trkpt lat="48.94417" lon="1.06294">
        <ele>285.9</ele>
        <time>2017-06-30T21:08:13Z</time>
      </trkpt>
      <trkpt lat="48.94426" lon="1.06287">
        <ele>286</ele>
        <time>2017-06-30T21:08:15Z</time>
      </trkpt>
      <trkpt lat="48.94436" lon="1.0628">
        <ele>286.3</ele>
        <time>2017-06-30T21:08:17Z</time>
      </trkpt>
      <trkpt lat="48.94448" lon="1.06271">
        <ele>286.5</ele>
        <time>2017-06-30T21:08:19Z</time>
      </trkpt>
      <trkpt lat="48.94458" lon="1.06263">
        <ele>286.6</ele>
        <time>2017-06-30T21:08:21Z</time>
      </trkpt>
      <trkpt lat="48.94468" lon="1.06257">
        <ele>286.6</ele>
        <time>2017-06-30T21:08:23Z</time>
      </trkpt>
      <trkpt lat="48.94477" lon="1.0625">
        <ele>286.6</ele>
        <time>2017-06-30T21:08:25Z</time>
      </trkpt>
      <trkpt lat="48.94486" lon="1.06243">
        <ele>286.7</ele>
        <time>2017-06-30T21:08:27Z</time>
      </trkpt>
      <trkpt lat="48.94495" lon="1.06237">
        <ele>286.8</ele>
        <time>2017-06-30T21:08:29Z</time>
      </trkpt>
      <trkpt lat="48.94506" lon="1.06228">
        <ele>287</ele>
        <time>2017-06-30T21:08:32Z</time>
      </trkpt>
      <trkpt lat="48.94516" lon="1.0622">
        <ele>287</ele>
        <time>2017-06-30T21:08:34Z</time>
      </trkpt>
      <trkpt lat="48.94524" lon="1.06214">
        <ele>287</ele>
        <time>2017-06-30T21:08:36Z</time>
      </trkpt>
      <trkpt lat="48.94533" lon="1.06208">
        <ele>287</ele>
        <time>2017-06-30T21:08:38Z</time>
      </trkpt>
      <trkpt lat="48.94541" lon="1.06201">
        <ele>287.2</ele>
        <time>2017-06-30T21:08:40Z</time>
      </trkpt>
      <trkpt lat="48.94549" lon="1.06195">
        <ele>287.4</ele>
        <time>2017-06-30T21:08:42Z</time>
      </trkpt>
      <trkpt lat="48.9456" lon="1.06187">
        <ele>287.8</ele>
        <time>2017-06-30T21:08:45Z</time>
      </trkpt>
      <trkpt lat="48.94571" lon="1.06181">
        <ele>288.1</ele>
        <time>2017-06-30T21:08:49Z</time>
      </trkpt>
      <trkpt lat="48.9458" lon="1.06176">
        <ele>288.4</ele>
        <time>2017-06-30T21:08:55Z</time>
      </trkpt>
      <trkpt lat="48.94591" lon="1.0617">
        <ele>288.5</ele>
        <time>2017-06-30T21:09:00Z</time>
      </trkpt>
      <trkpt lat="48.94601" lon="1.06164">
        <ele>288.4</ele>
        <time>2017-06-30T21:09:04Z</time>
      </trkpt>
      <trkpt lat="48.9461" lon="1.06157">
        <ele>288.2</ele>
        <time>2017-06-30T21:09:07Z</time>
      </trkpt>
      <trkpt lat="48.9462" lon="1.0615">
        <ele>288.1</ele>
        <time>2017-06-30T21:09:10Z</time>
      </trkpt>
      <trkpt lat="48.94629" lon="1.0614">
        <ele>288</ele>
        <time>2017-06-30T21:09:14Z</time>
      </trkpt>
      <trkpt lat="48.94639" lon="1.06134">
        <ele>288.1</ele>
        <time>2017-06-30T21:09:17Z</time>
      </trkpt>
      <trkpt lat="48.94648" lon="1.06128">
        <ele>288.1</ele>
        <time>2017-06-30T21:09:20Z</time>
      </trkpt>
      <trkpt lat="48.94657" lon="1.06122">
        <ele>287.9</ele>
        <time>2017-06-30T21:09:23Z</time>
      </trkpt>
      <trkpt lat="48.94668" lon="1.06113">
        <ele>287.9</ele>
        <time>2017-06-30T21:09:27Z</time>
      </trkpt>
      <trkpt lat="48.9468" lon="1.06105">
        <ele>288.1</ele>
        <time>2017-06-30T21:09:31Z</time>
      </trkpt>
      <trkpt lat="48.94688" lon="1.06098">
        <ele>288.1</ele>
        <time>2017-06-30T21:09:34Z</time>
      </trkpt>
      <trkpt lat="48.94697" lon="1.06093">
        <ele>287.9</ele>
        <time>2017-06-30T21:09:37Z</time>
      </trkpt>
      <trkpt lat="48.94709" lon="1.06088">
        <ele>287.8</ele>
        <time>2017-06-30T21:09:41Z</time>
      </trkpt>
      <trkpt lat="48.94721" lon="1.0608">
        <ele>287.7</ele>
        <time>2017-06-30T21:09:44Z</time>
      </trkpt>
      <trkpt lat="48.94732" lon="1.06073">
        <ele>287.8</ele>
        <time>2017-06-30T21:09:47Z</time>
      </trkpt>
      <trkpt lat="48.94741" lon="1.06064">
        <ele>287.7</ele>
        <time>2017-06-30T21:09:50Z</time>
      </trkpt>
      <trkpt lat="48.94751" lon="1.06057">
        <ele>287.8</ele>
        <time>2017-06-30T21:09:53Z</time>
      </trkpt>
      <trkpt lat="48.94761" lon="1.0605">
        <ele>287.7</ele>
        <time>2017-06-30T21:09:56Z</time>
      </trkpt>
      <trkpt lat="48.9477" lon="1.06044">
        <ele>287.7</ele>
        <time>2017-06-30T21:09:59Z</time>
      </trkpt>
      <trkpt lat="48.9478" lon="1.06037">
        <ele>287.7</ele>
        <time>2017-06-30T21:10:02Z</time>
      </trkpt>
      <trkpt lat="48.9479" lon="1.0603">
        <ele>287.5</ele>
        <time>2017-06-30T21:10:05Z</time>
      </trkpt>
      <trkpt lat="48.94803" lon="1.06023">
        <ele>287.5</ele>
        <time>2017-06-30T21:10:08Z</time>
      </trkpt>
      <trkpt lat="48.94815" lon="1.06016">
        <ele>287.5</ele>
        <time>2017-06-30T21:10:11Z</time>
      </trkpt>
      <trkpt lat="48.94826" lon="1.06009">
        <ele>287.6</ele>
        <time>2017-06-30T21:10:14Z</time>
      </trkpt>
      <trkpt lat="48.94837" lon="1.06002">
        <ele>287.6</ele>
        <time>2017-06-30T21:10:17Z</time>
      </trkpt>
      <trkpt lat="48.94847" lon="1.05994">
        <ele>287.6</ele>
        <time>2017-06-30T21:10:20Z</time>
      </trkpt>
      <trkpt lat="48.94859" lon="1.05986">
        <ele>287.6</ele>
        <time>2017-06-30T21:10:23Z</time>
      </trkpt>
      <trkpt lat="48.94872" lon="1.05977">
        <ele>287.5</ele>
        <time>2017-06-30T21:10:26Z</time>
      </trkpt>
      <trkpt lat="48.94882" lon="1.0597">
        <ele>287.4</ele>
        <time>2017-06-30T21:10:28Z</time>
      </trkpt>
      <trkpt lat="48.94891" lon="1.05964">
        <ele>287.3</ele>
        <time>2017-06-30T21:10:30Z</time>
      </trkpt>
      <trkpt lat="48.949" lon="1.05958">
        <ele>287.2</ele>
        <time>2017-06-30T21:10:32Z</time>
      </trkpt>
      <trkpt lat="48.9491" lon="1.05952">
        <ele>287</ele>
        <time>2017-06-30T21:10:34Z</time>
      </trkpt>
      <trkpt lat="48.9492" lon="1.05946">
        <ele>286.9</ele>
        <time>2017-06-30T21:10:36Z</time>
      </trkpt>
      <trkpt lat="48.94931" lon="1.0594">
        <ele>286.6</ele>
        <time>2017-06-30T21:10:38Z</time>
      </trkpt>
      <trkpt lat="48.94941" lon="1.05933">
        <ele>286.3</ele>
        <time>2017-06-30T21:10:40Z</time>
      </trkpt>
      <trkpt lat="48.9495" lon="1.05926">
        <ele>286.1</ele>
        <time>2017-06-30T21:10:42Z</time>
      </trkpt>
      <trkpt lat="48.9496" lon="1.05919">
        <ele>285.7</ele>
        <time>2017-06-30T21:10:45Z</time>
      </trkpt>
      <trkpt lat="48.94969" lon="1.05914">
        <ele>285.4</ele>
        <time>2017-06-30T21:10:48Z</time>
      </trkpt>
      <trkpt lat="48.94979" lon="1.05911">
        <ele>285.3</ele>
        <time>2017-06-30T21:10:51Z</time>
      </trkpt>
      <trkpt lat="48.94988" lon="1.05906">
        <ele>285.6</ele>
        <time>2017-06-30T21:10:55Z</time>
      </trkpt>
      <trkpt lat="48.94995" lon="1.05895">
        <ele>285.3</ele>
        <time>2017-06-30T21:11:00Z</time>
      </trkpt>
      <trkpt lat="48.95004" lon="1.05889">
        <ele>285.1</ele>
        <time>2017-06-30T21:11:29Z</time>
      </trkpt>
      <trkpt lat="48.95013" lon="1.05884">
        <ele>285</ele>
        <time>2017-06-30T21:11:36Z</time>
      </trkpt>
      <trkpt lat="48.95022" lon="1.05879">
        <ele>285.2</ele>
        <time>2017-06-30T21:11:42Z</time>
      </trkpt>
      <trkpt lat="48.9503" lon="1.05872">
        <ele>285</ele>
        <time>2017-06-30T21:11:49Z</time>
      </trkpt>
      <trkpt lat="48.95039" lon="1.05864">
        <ele>284.7</ele>
        <time>2017-06-30T21:11:58Z</time>
      </trkpt>
      <trkpt lat="48.95047" lon="1.05857">
        <ele>284.3</ele>
        <time>2017-06-30T21:12:01Z</time>
      </trkpt>
      <trkpt lat="48.95057" lon="1.05851">
        <ele>284.1</ele>
        <time>2017-06-30T21:12:04Z</time>
      </trkpt>
      <trkpt lat="48.95069" lon="1.05843">
        <ele>283.8</ele>
        <time>2017-06-30T21:12:07Z</time>
      </trkpt>
      <trkpt lat="48.9508" lon="1.05834">
        <ele>283.8</ele>
        <time>2017-06-30T21:12:10Z</time>
      </trkpt>
      <trkpt lat="48.95091" lon="1.05826">
        <ele>283.7</ele>
        <time>2017-06-30T21:12:13Z</time>
      </trkpt>
      <trkpt lat="48.95103" lon="1.05819">
        <ele>283.5</ele>
        <time>2017-06-30T21:12:16Z</time>
      </trkpt>
      <trkpt lat="48.95112" lon="1.05813">
        <ele>283.4</ele>
        <time>2017-06-30T21:12:18Z</time>
      </trkpt>
      <trkpt lat="48.95125" lon="1.05804">
        <ele>283.3</ele>
        <time>2017-06-30T21:12:21Z</time>
      </trkpt>
      <trkpt lat="48.95135" lon="1.05796">
        <ele>283.2</ele>
        <time>2017-06-30T21:12:24Z</time>
      </trkpt>
      <trkpt lat="48.95144" lon="1.05789">
        <ele>283.2</ele>
        <time>2017-06-30T21:12:26Z</time>
      </trkpt>
      <trkpt lat="48.95154" lon="1.05783">
        <ele>283</ele>
        <time>2017-06-30T21:12:28Z</time>
      </trkpt>
      <trkpt lat="48.95167" lon="1.05774">
        <ele>282.8</ele>
        <time>2017-06-30T21:12:31Z</time>
      </trkpt>
      <trkpt lat="48.95176" lon="1.05768">
        <ele>282.7</ele>
        <time>2017-06-30T21:12:33Z</time>
      </trkpt>
      <trkpt lat="48.95186" lon="1.05761">
        <ele>282.5</ele>
        <time>2017-06-30T21:12:35Z</time>
      </trkpt>
      <trkpt lat="48.95196" lon="1.05754">
        <ele>282.2</ele>
        <time>2017-06-30T21:12:37Z</time>
      </trkpt>
      <trkpt lat="48.95206" lon="1.05747">
        <ele>281.7</ele>
        <time>2017-06-30T21:12:39Z</time>
      </trkpt>
      <trkpt lat="48.95217" lon="1.05741">
        <ele>281.6</ele>
        <time>2017-06-30T21:12:41Z</time>
      </trkpt>
      <trkpt lat="48.95228" lon="1.05733">
        <ele>281.4</ele>
        <time>2017-06-30T21:12:43Z</time>
      </trkpt>
      <trkpt lat="48.9524" lon="1.05726">
        <ele>281.3</ele>
        <time>2017-06-30T21:12:45Z</time>
      </trkpt>
      <trkpt lat="48.95251" lon="1.05719">
        <ele>281</ele>
        <time>2017-06-30T21:12:47Z</time>
      </trkpt>
      <trkpt lat="48.95264" lon="1.0571">
        <ele>280.9</ele>
        <time>2017-06-30T21:12:49Z</time>
      </trkpt>
      <trkpt lat="48.95273" lon="1.05702">
        <ele>280.8</ele>
        <time>2017-06-30T21:12:51Z</time>
      </trkpt>
      <trkpt lat="48.95284" lon="1.05695">
        <ele>280.7</ele>
        <time>2017-06-30T21:12:54Z</time>
      </trkpt>
      <trkpt lat="48.95298" lon="1.05686">
        <ele>280.2</ele>
        <time>2017-06-30T21:12:57Z</time>
      </trkpt>
      <trkpt lat="48.95311" lon="1.05676">
        <ele>279.9</ele>
        <time>2017-06-30T21:12:59Z</time>
      </trkpt>
      <trkpt lat="48.95323" lon="1.05669">
        <ele>279.5</ele>
        <time>2017-06-30T21:13:01Z</time>
      </trkpt>
      <trkpt lat="48.95337" lon="1.05661">
        <ele>279.2</ele>
        <time>2017-06-30T21:13:03Z</time>
      </trkpt>
      <trkpt lat="48.95351" lon="1.05653">
        <ele>279</ele>
        <time>2017-06-30T21:13:05Z</time>
      </trkpt>
      <trkpt lat="48.9536" lon="1.05646">
        <ele>278.9</ele>
        <time>2017-06-30T21:13:07Z</time>
      </trkpt>
      <trkpt lat="48.95371" lon="1.05639">
        <ele>279.2</ele>
        <time>2017-06-30T21:13:10Z</time>
      </trkpt>
      <trkpt lat="48.95385" lon="1.05631">
        <ele>279.6</ele>
        <time>2017-06-30T21:13:13Z</time>
      </trkpt>
      <trkpt lat="48.95394" lon="1.05625">
        <ele>280</ele>
        <time>2017-06-30T21:13:15Z</time>
      </trkpt>
      <trkpt lat="48.95404" lon="1.05618">
        <ele>280.3</ele>
        <time>2017-06-30T21:13:17Z</time>
      </trkpt>
      <trkpt lat="48.95412" lon="1.05612">
        <ele>280.6</ele>
        <time>2017-06-30T21:13:19Z</time>
      </trkpt>
      <trkpt lat="48.95422" lon="1.05606">
        <ele>280.9</ele>
        <time>2017-06-30T21:13:21Z</time>
      </trkpt>
      <trkpt lat="48.9543" lon="1.05601">
        <ele>281.1</ele>
        <time>2017-06-30T21:13:23Z</time>
      </trkpt>
      <trkpt lat="48.95439" lon="1.05594">
        <ele>281.6</ele>
        <time>2017-06-30T21:13:25Z</time>
      </trkpt>
      <trkpt lat="48.95448" lon="1.05587">
        <ele>281.9</ele>
        <time>2017-06-30T21:13:27Z</time>
      </trkpt>
      <trkpt lat="48.95458" lon="1.0558">
        <ele>282.1</ele>
        <time>2017-06-30T21:13:29Z</time>
      </trkpt>
      <trkpt lat="48.95467" lon="1.05573">
        <ele>282.2</ele>
        <time>2017-06-30T21:13:31Z</time>
      </trkpt>
      <trkpt lat="48.95476" lon="1.05567">
        <ele>282.4</ele>
        <time>2017-06-30T21:13:33Z</time>
      </trkpt>
      <trkpt lat="48.95485" lon="1.05561">
        <ele>282.7</ele>
        <time>2017-06-30T21:13:35Z</time>
      </trkpt>
      <trkpt lat="48.95494" lon="1.05555">
        <ele>283</ele>
        <time>2017-06-30T21:13:37Z</time>
      </trkpt>
      <trkpt lat="48.95503" lon="1.05548">
        <ele>283.1</ele>
        <time>2017-06-30T21:13:39Z</time>
      </trkpt>
      <trkpt lat="48.95513" lon="1.05541">
        <ele>283.1</ele>
        <time>2017-06-30T21:13:41Z</time>
      </trkpt>
      <trkpt lat="48.95521" lon="1.05536">
        <ele>283.3</ele>
        <time>2017-06-30T21:13:43Z</time>
      </trkpt>
      <trkpt lat="48.9553" lon="1.0553">
        <ele>282.9</ele>
        <time>2017-06-30T21:13:45Z</time>
      </trkpt>
      <trkpt lat="48.95539" lon="1.05523">
        <ele>283.3</ele>
        <time>2017-06-30T21:13:47Z</time>
      </trkpt>
      <trkpt lat="48.95548" lon="1.05518">
        <ele>283.5</ele>
        <time>2017-06-30T21:13:49Z</time>
      </trkpt>
      <trkpt lat="48.95557" lon="1.05511">
        <ele>283.6</ele>
        <time>2017-06-30T21:13:51Z</time>
      </trkpt>
      <trkpt lat="48.95566" lon="1.05505">
        <ele>283.6</ele>
        <time>2017-06-30T21:13:53Z</time>
      </trkpt>
      <trkpt lat="48.95576" lon="1.05498">
        <ele>283.7</ele>
        <time>2017-06-30T21:13:55Z</time>
      </trkpt>
      <trkpt lat="48.95585" lon="1.05491">
        <ele>284</ele>
        <time>2017-06-30T21:13:57Z</time>
      </trkpt>
      <trkpt lat="48.95594" lon="1.05485">
        <ele>284.1</ele>
        <time>2017-06-30T21:13:59Z</time>
      </trkpt>
      <trkpt lat="48.95604" lon="1.0548">
        <ele>284.2</ele>
        <time>2017-06-30T21:14:01Z</time>
      </trkpt>
      <trkpt lat="48.95612" lon="1.05474">
        <ele>284.3</ele>
        <time>2017-06-30T21:14:03Z</time>
      </trkpt>
      <trkpt lat="48.95621" lon="1.05468">
        <ele>284.4</ele>
        <time>2017-06-30T21:14:05Z</time>
      </trkpt>
      <trkpt lat="48.9563" lon="1.05462">
        <ele>284.4</ele>
        <time>2017-06-30T21:14:07Z</time>
      </trkpt>
      <trkpt lat="48.95641" lon="1.05454">
        <ele>284.1</ele>
        <time>2017-06-30T21:14:10Z</time>
      </trkpt>
      <trkpt lat="48.95652" lon="1.05447">
        <ele>284.1</ele>
        <time>2017-06-30T21:14:13Z</time>
      </trkpt>
      <trkpt lat="48.95662" lon="1.0544">
        <ele>283.9</ele>
        <time>2017-06-30T21:14:16Z</time>
      </trkpt>
      <trkpt lat="48.9567" lon="1.05431">
        <ele>284.1</ele>
        <time>2017-06-30T21:14:20Z</time>
      </trkpt>
      <trkpt lat="48.95679" lon="1.05422">
        <ele>284</ele>
        <time>2017-06-30T21:14:25Z</time>
      </trkpt>
      <trkpt lat="48.95687" lon="1.05416">
        <ele>284</ele>
        <time>2017-06-30T21:14:33Z</time>
      </trkpt>
      <trkpt lat="48.95698" lon="1.05415">
        <ele>283.7</ele>
        <time>2017-06-30T21:14:41Z</time>
      </trkpt>
      <trkpt lat="48.95706" lon="1.0541">
        <ele>283.7</ele>
        <time>2017-06-30T21:14:44Z</time>
      </trkpt>
      <trkpt lat="48.95717" lon="1.05401">
        <ele>283.5</ele>
        <time>2017-06-30T21:14:48Z</time>
      </trkpt>
      <trkpt lat="48.95725" lon="1.05395">
        <ele>283.3</ele>
        <time>2017-06-30T21:14:51Z</time>
      </trkpt>
      <trkpt lat="48.95736" lon="1.05389">
        <ele>283.3</ele>
        <time>2017-06-30T21:14:54Z</time>
      </trkpt>
      <trkpt lat="48.95749" lon="1.05383">
        <ele>283</ele>
        <time>2017-06-30T21:14:57Z</time>
      </trkpt>
      <trkpt lat="48.95762" lon="1.05374">
        <ele>282.9</ele>
        <time>2017-06-30T21:15:00Z</time>
      </trkpt>
      <trkpt lat="48.95773" lon="1.05367">
        <ele>282.9</ele>
        <time>2017-06-30T21:15:02Z</time>
      </trkpt>
      <trkpt lat="48.95783" lon="1.05361">
        <ele>282.8</ele>
        <time>2017-06-30T21:15:04Z</time>
      </trkpt>
      <trkpt lat="48.95795" lon="1.05354">
        <ele>282.8</ele>
        <time>2017-06-30T21:15:06Z</time>
      </trkpt>
      <trkpt lat="48.95808" lon="1.05345">
        <ele>282.6</ele>
        <time>2017-06-30T21:15:08Z</time>
      </trkpt>
      <trkpt lat="48.95818" lon="1.05337">
        <ele>282.3</ele>
        <time>2017-06-30T21:15:10Z</time>
      </trkpt>
      <trkpt lat="48.95831" lon="1.05329">
        <ele>282.1</ele>
        <time>2017-06-30T21:15:12Z</time>
      </trkpt>
      <trkpt lat="48.95844" lon="1.05319">
        <ele>282</ele>
        <time>2017-06-30T21:15:14Z</time>
      </trkpt>
      <trkpt lat="48.95857" lon="1.05311">
        <ele>281.9</ele>
        <time>2017-06-30T21:15:16Z</time>
      </trkpt>
      <trkpt lat="48.9587" lon="1.05302">
        <ele>281.7</ele>
        <time>2017-06-30T21:15:18Z</time>
      </trkpt>
      <trkpt lat="48.95882" lon="1.05294">
        <ele>281.4</ele>
        <time>2017-06-30T21:15:20Z</time>
      </trkpt>
      <trkpt lat="48.95893" lon="1.05287">
        <ele>281.2</ele>
        <time>2017-06-30T21:15:22Z</time>
      </trkpt>
      <trkpt lat="48.95904" lon="1.05279">
        <ele>280.8</ele>
        <time>2017-06-30T21:15:24Z</time>
      </trkpt>
      <trkpt lat="48.95915" lon="1.05272">
        <ele>280.7</ele>
        <time>2017-06-30T21:15:26Z</time>
      </trkpt>
      <trkpt lat="48.95925" lon="1.05267">
        <ele>280.4</ele>
        <time>2017-06-30T21:15:28Z</time>
      </trkpt>
      <trkpt lat="48.95935" lon="1.0526">
        <ele>279.9</ele>
        <time>2017-06-30T21:15:30Z</time>
      </trkpt>
      <trkpt lat="48.95944" lon="1.05253">
        <ele>279.7</ele>
        <time>2017-06-30T21:15:32Z</time>
      </trkpt>
      <trkpt lat="48.95952" lon="1.05247">
        <ele>279.5</ele>
        <time>2017-06-30T21:15:34Z</time>
      </trkpt>
      <trkpt lat="48.95961" lon="1.05242">
        <ele>279.2</ele>
        <time>2017-06-30T21:15:36Z</time>
      </trkpt>
      <trkpt lat="48.9597" lon="1.05234">
        <ele>279.1</ele>
        <time>2017-06-30T21:15:38Z</time>
      </trkpt>
      <trkpt lat="48.9598" lon="1.05225">
        <ele>278.9</ele>
        <time>2017-06-30T21:15:42Z</time>
      </trkpt>
      <trkpt lat="48.95991" lon="1.05217">
        <ele>279</ele>
        <time>2017-06-30T21:15:46Z</time>
      </trkpt>
      <trkpt lat="48.96" lon="1.05212">
        <ele>279.1</ele>
        <time>2017-06-30T21:15:49Z</time>
      </trkpt>
      <trkpt lat="48.96009" lon="1.05206">
        <ele>279</ele>
        <time>2017-06-30T21:15:51Z</time>
      </trkpt>
      <trkpt lat="48.96018" lon="1.05199">
        <ele>279</ele>
        <time>2017-06-30T21:15:53Z</time>
      </trkpt>
      <trkpt lat="48.96029" lon="1.0519">
        <ele>279</ele>
        <time>2017-06-30T21:15:56Z</time>
      </trkpt>
      <trkpt lat="48.96042" lon="1.05183">
        <ele>278.8</ele>
        <time>2017-06-30T21:15:59Z</time>
      </trkpt>
      <trkpt lat="48.96051" lon="1.05178">
        <ele>278.9</ele>
        <time>2017-06-30T21:16:01Z</time>
      </trkpt>
      <trkpt lat="48.96063" lon="1.05172">
        <ele>278.6</ele>
        <time>2017-06-30T21:16:04Z</time>
      </trkpt>
      <trkpt lat="48.96073" lon="1.05164">
        <ele>278.6</ele>
        <time>2017-06-30T21:16:07Z</time>
      </trkpt>
      <trkpt lat="48.96082" lon="1.05159">
        <ele>278.7</ele>
        <time>2017-06-30T21:16:09Z</time>
      </trkpt>
      <trkpt lat="48.9609" lon="1.05153">
        <ele>278.6</ele>
        <time>2017-06-30T21:16:11Z</time>
      </trkpt>
      <trkpt lat="48.96102" lon="1.05145">
        <ele>278.5</ele>
        <time>2017-06-30T21:16:14Z</time>
      </trkpt>
      <trkpt lat="48.96112" lon="1.05138">
        <ele>278.5</ele>
        <time>2017-06-30T21:16:16Z</time>
      </trkpt>
      <trkpt lat="48.9612" lon="1.05131">
        <ele>278.4</ele>
        <time>2017-06-30T21:16:18Z</time>
      </trkpt>
      <trkpt lat="48.9613" lon="1.05124">
        <ele>278.5</ele>
        <time>2017-06-30T21:16:20Z</time>
      </trkpt>
      <trkpt lat="48.96141" lon="1.05117">
        <ele>278.4</ele>
        <time>2017-06-30T21:16:22Z</time>
      </trkpt>
      <trkpt lat="48.9615" lon="1.05111">
        <ele>278.3</ele>
        <time>2017-06-30T21:16:24Z</time>
      </trkpt>
      <trkpt lat="48.96162" lon="1.05104">
        <ele>278.3</ele>
        <time>2017-06-30T21:16:26Z</time>
      </trkpt>
      <trkpt lat="48.96173" lon="1.05095">
        <ele>277.9</ele>
        <time>2017-06-30T21:16:28Z</time>
      </trkpt>
      <trkpt lat="48.96182" lon="1.05087">
        <ele>277.6</ele>
        <time>2017-06-30T21:16:30Z</time>
      </trkpt>
      <trkpt lat="48.96192" lon="1.0508">
        <ele>277.2</ele>
        <time>2017-06-30T21:16:32Z</time>
      </trkpt>
      <trkpt lat="48.96202" lon="1.05074">
        <ele>277</ele>
        <time>2017-06-30T21:16:34Z</time>
      </trkpt>
      <trkpt lat="48.96213" lon="1.05069">
        <ele>276.8</ele>
        <time>2017-06-30T21:16:36Z</time>
      </trkpt>
      <trkpt lat="48.96224" lon="1.05062">
        <ele>276.6</ele>
        <time>2017-06-30T21:16:38Z</time>
      </trkpt>
      <trkpt lat="48.96232" lon="1.05056">
        <ele>276.4</ele>
        <time>2017-06-30T21:16:40Z</time>
      </trkpt>
      <trkpt lat="48.96243" lon="1.05054">
        <ele>276.3</ele>
        <time>2017-06-30T21:16:42Z</time>
      </trkpt>
      <trkpt lat="48.96252" lon="1.05057">
        <ele>275.9</ele>
        <time>2017-06-30T21:16:44Z</time>
      </trkpt>
      <trkpt lat="48.96263" lon="1.05058">
        <ele>275.4</ele>
        <time>2017-06-30T21:16:46Z</time>
      </trkpt>
      <trkpt lat="48.96274" lon="1.05054">
        <ele>274.7</ele>
        <time>2017-06-30T21:16:48Z</time>
      </trkpt>
      <trkpt lat="48.96287" lon="1.05046">
        <ele>274.1</ele>
        <time>2017-06-30T21:16:50Z</time>
      </trkpt>
      <trkpt lat="48.96295" lon="1.05034">
        <ele>273.9</ele>
        <time>2017-06-30T21:16:52Z</time>
      </trkpt>
      <trkpt lat="48.96303" lon="1.05022">
        <ele>274</ele>
        <time>2017-06-30T21:16:54Z</time>
      </trkpt>
      <trkpt lat="48.96312" lon="1.05009">
        <ele>274.2</ele>
        <time>2017-06-30T21:16:56Z</time>
      </trkpt>
      <trkpt lat="48.9632" lon="1.04998">
        <ele>274.3</ele>
        <time>2017-06-30T21:16:58Z</time>
      </trkpt>
      <trkpt lat="48.96331" lon="1.04988">
        <ele>274.5</ele>
        <time>2017-06-30T21:17:00Z</time>
      </trkpt>
      <trkpt lat="48.96342" lon="1.04979">
        <ele>274.8</ele>
        <time>2017-06-30T21:17:02Z</time>
      </trkpt>
      <trkpt lat="48.96354" lon="1.04971">
        <ele>275</ele>
        <time>2017-06-30T21:17:04Z</time>
      </trkpt>
      <trkpt lat="48.96367" lon="1.04963">
        <ele>275.2</ele>
        <time>2017-06-30T21:17:06Z</time>
      </trkpt>
      <trkpt lat="48.96378" lon="1.04957">
        <ele>275.3</ele>
        <time>2017-06-30T21:17:08Z</time>
      </trkpt>
      <trkpt lat="48.96388" lon="1.04949">
        <ele>275.4</ele>
        <time>2017-06-30T21:17:10Z</time>
      </trkpt>
      <trkpt lat="48.96398" lon="1.04942">
        <ele>275.4</ele>
        <time>2017-06-30T21:17:12Z</time>
      </trkpt>
      <trkpt lat="48.96409" lon="1.04934">
        <ele>275.4</ele>
        <time>2017-06-30T21:17:14Z</time>
      </trkpt>
      <trkpt lat="48.96421" lon="1.04927">
        <ele>275.5</ele>
        <time>2017-06-30T21:17:16Z</time>
      </trkpt>
      <trkpt lat="48.96433" lon="1.04919">
        <ele>275.3</ele>
        <time>2017-06-30T21:17:18Z</time>
      </trkpt>
      <trkpt lat="48.96446" lon="1.04911">
        <ele>275</ele>
        <time>2017-06-30T21:17:20Z</time>
      </trkpt>
      <trkpt lat="48.96455" lon="1.04905">
        <ele>274.8</ele>
        <time>2017-06-30T21:17:22Z</time>
      </trkpt>
      <trkpt lat="48.96464" lon="1.04899">
        <ele>274.7</ele>
        <time>2017-06-30T21:17:24Z</time>
      </trkpt>
      <trkpt lat="48.96473" lon="1.04896">
        <ele>274.7</ele>
        <time>2017-06-30T21:17:28Z</time>
      </trkpt>
      <trkpt lat="48.96481" lon="1.04903">
        <ele>274.8</ele>
        <time>2017-06-30T21:17:31Z</time>
      </trkpt>
      <trkpt lat="48.96488" lon="1.04912">
        <ele>275.1</ele>
        <time>2017-06-30T21:17:35Z</time>
      </trkpt>
      <trkpt lat="48.96497" lon="1.04922">
        <ele>275.2</ele>
        <time>2017-06-30T21:17:39Z</time>
      </trkpt>
      <trkpt lat="48.96506" lon="1.0493">
        <ele>275.5</ele>
        <time>2017-06-30T21:17:43Z</time>
      </trkpt>
      <trkpt lat="48.96517" lon="1.04931">
        <ele>275.5</ele>
        <time>2017-06-30T21:17:47Z</time>
      </trkpt>
      <trkpt lat="48.96527" lon="1.04927">
        <ele>275.3</ele>
        <time>2017-06-30T21:17:50Z</time>
      </trkpt>
      <trkpt lat="48.96538" lon="1.04925">
        <ele>274.9</ele>
        <time>2017-06-30T21:17:53Z</time>
      </trkpt>
      <trkpt lat="48.96549" lon="1.04921">
        <ele>274.9</ele>
        <time>2017-06-30T21:17:56Z</time>
      </trkpt>
      <trkpt lat="48.96557" lon="1.0491">
        <ele>274.4</ele>
        <time>2017-06-30T21:17:59Z</time>
      </trkpt>
      <trkpt lat="48.96566" lon="1.04897">
        <ele>273.9</ele>
        <time>2017-06-30T21:18:02Z</time>
      </trkpt>
      <trkpt lat="48.96572" lon="1.04882">
        <ele>273</ele>
        <time>2017-06-30T21:18:05Z</time>
      </trkpt>
      <trkpt lat="48.96579" lon="1.04867">
        <ele>272.6</ele>
        <time>2017-06-30T21:18:09Z</time>
      </trkpt>
      <trkpt lat="48.96583" lon="1.04854">
        <ele>272.9</ele>
        <time>2017-06-30T21:18:12Z</time>
      </trkpt>
      <trkpt lat="48.96588" lon="1.04841">
        <ele>273</ele>
        <time>2017-06-30T21:18:15Z</time>
      </trkpt>
      <trkpt lat="48.96593" lon="1.04827">
        <ele>273.5</ele>
        <time>2017-06-30T21:18:18Z</time>
      </trkpt>
      <trkpt lat="48.96599" lon="1.04816">
        <ele>274</ele>
        <time>2017-06-30T21:18:21Z</time>
      </trkpt>
      <trkpt lat="48.96607" lon="1.04808">
        <ele>274.3</ele>
        <time>2017-06-30T21:18:24Z</time>
      </trkpt>
      <trkpt lat="48.96615" lon="1.04803">
        <ele>274.5</ele>
        <time>2017-06-30T21:18:27Z</time>
      </trkpt>
      <trkpt lat="48.96623" lon="1.04797">
        <ele>274.5</ele>
        <time>2017-06-30T21:18:30Z</time>
      </trkpt>
      <trkpt lat="48.96632" lon="1.0479">
        <ele>274.5</ele>
        <time>2017-06-30T21:18:33Z</time>
      </trkpt>
      <trkpt lat="48.96642" lon="1.04782">
        <ele>274.6</ele>
        <time>2017-06-30T21:18:36Z</time>
      </trkpt>
      <trkpt lat="48.96651" lon="1.04775">
        <ele>274.6</ele>
        <time>2017-06-30T21:18:39Z</time>
      </trkpt>
      <trkpt lat="48.9666" lon="1.04769">
        <ele>274.8</ele>
        <time>2017-06-30T21:18:42Z</time>
      </trkpt>
      <trkpt lat="48.9667" lon="1.04762">
        <ele>274.9</ele>
        <time>2017-06-30T21:18:45Z</time>
      </trkpt>
      <trkpt lat="48.9668" lon="1.04755">
        <ele>274.8</ele>
        <time>2017-06-30T21:18:48Z</time>
      </trkpt>
      <trkpt lat="48.9669" lon="1.04749">
        <ele>274.9</ele>
        <time>2017-06-30T21:18:51Z</time>
      </trkpt>
      <trkpt lat="48.96701" lon="1.04742">
        <ele>275</ele>
        <time>2017-06-30T21:18:55Z</time>
      </trkpt>
      <trkpt lat="48.96713" lon="1.04735">
        <ele>275.2</ele>
        <time>2017-06-30T21:18:58Z</time>
      </trkpt>
      <trkpt lat="48.96725" lon="1.04727">
        <ele>275</ele>
        <time>2017-06-30T21:19:01Z</time>
      </trkpt>
      <trkpt lat="48.96734" lon="1.04721">
        <ele>274.9</ele>
        <time>2017-06-30T21:19:03Z</time>
      </trkpt>
      <trkpt lat="48.96742" lon="1.04715">
        <ele>274.6</ele>
        <time>2017-06-30T21:19:05Z</time>
      </trkpt>
      <trkpt lat="48.96751" lon="1.0471">
        <ele>274.6</ele>
        <time>2017-06-30T21:19:07Z</time>
      </trkpt>
      <trkpt lat="48.96759" lon="1.04703">
        <ele>274.7</ele>
        <time>2017-06-30T21:19:09Z</time>
      </trkpt>
      <trkpt lat="48.96771" lon="1.04695">
        <ele>274.7</ele>
        <time>2017-06-30T21:19:12Z</time>
      </trkpt>
      <trkpt lat="48.96783" lon="1.04686">
        <ele>274.7</ele>
        <time>2017-06-30T21:19:15Z</time>
      </trkpt>
      <trkpt lat="48.96795" lon="1.04678">
        <ele>274.6</ele>
        <time>2017-06-30T21:19:18Z</time>
      </trkpt>
      <trkpt lat="48.96806" lon="1.04668">
        <ele>274.6</ele>
        <time>2017-06-30T21:19:21Z</time>
      </trkpt>
      <trkpt lat="48.96818" lon="1.0466">
        <ele>274.6</ele>
        <time>2017-06-30T21:19:24Z</time>
      </trkpt>
      <trkpt lat="48.9683" lon="1.04652">
        <ele>274.6</ele>
        <time>2017-06-30T21:19:27Z</time>
      </trkpt>
      <trkpt lat="48.96841" lon="1.04644">
        <ele>274.9</ele>
        <time>2017-06-30T21:19:30Z</time>
      </trkpt>
      <trkpt lat="48.96852" lon="1.04636">
        <ele>275.1</ele>
        <time>2017-06-30T21:19:33Z</time>
      </trkpt>
      <trkpt lat="48.96863" lon="1.04629">
        <ele>275.4</ele>
        <time>2017-06-30T21:19:36Z</time>
      </trkpt>
      <trkpt lat="48.96873" lon="1.04623">
        <ele>275.4</ele>
        <time>2017-06-30T21:19:39Z</time>
      </trkpt>
      <trkpt lat="48.96882" lon="1.04617">
        <ele>275.5</ele>
        <time>2017-06-30T21:19:42Z</time>
      </trkpt>
      <trkpt lat="48.96893" lon="1.04611">
        <ele>275.9</ele>
        <time>2017-06-30T21:19:45Z</time>
      </trkpt>
      <trkpt lat="48.96903" lon="1.04605">
        <ele>275.8</ele>
        <time>2017-06-30T21:19:48Z</time>
      </trkpt>
      <trkpt lat="48.96912" lon="1.04598">
        <ele>275.8</ele>
        <time>2017-06-30T21:19:50Z</time>
      </trkpt>
      <trkpt lat="48.96921" lon="1.04592">
        <ele>275.8</ele>
        <time>2017-06-30T21:19:52Z</time>
      </trkpt>
      <trkpt lat="48.96932" lon="1.04585">
        <ele>275.9</ele>
        <time>2017-06-30T21:19:55Z</time>
      </trkpt>
      <trkpt lat="48.96943" lon="1.04578">
        <ele>275.5</ele>
        <time>2017-06-30T21:19:58Z</time>
      </trkpt>
      <trkpt lat="48.96955" lon="1.0457">
        <ele>275.7</ele>
        <time>2017-06-30T21:20:01Z</time>
      </trkpt>
      <trkpt lat="48.96967" lon="1.04561">
        <ele>276.1</ele>
        <time>2017-06-30T21:20:04Z</time>
      </trkpt>
      <trkpt lat="48.96976" lon="1.04555">
        <ele>276.1</ele>
        <time>2017-06-30T21:20:06Z</time>
      </trkpt>
      <trkpt lat="48.96986" lon="1.04548">
        <ele>276</ele>
        <time>2017-06-30T21:20:08Z</time>
      </trkpt>
      <trkpt lat="48.96996" lon="1.04541">
        <ele>276.1</ele>
        <time>2017-06-30T21:20:10Z</time>
      </trkpt>
      <trkpt lat="48.97005" lon="1.04534">
        <ele>276.3</ele>
        <time>2017-06-30T21:20:12Z</time>
      </trkpt>
      <trkpt lat="48.97014" lon="1.04528">
        <ele>276.4</ele>
        <time>2017-06-30T21:20:14Z</time>
      </trkpt>
      <trkpt lat="48.97023" lon="1.04522">
        <ele>276.5</ele>
        <time>2017-06-30T21:20:16Z</time>
      </trkpt>
      <trkpt lat="48.97034" lon="1.04513">
        <ele>276.4</ele>
        <time>2017-06-30T21:20:19Z</time>
      </trkpt>
      <trkpt lat="48.97045" lon="1.04505">
        <ele>276.3</ele>
        <time>2017-06-30T21:20:22Z</time>
      </trkpt>
      <trkpt lat="48.97056" lon="1.04498">
        <ele>276.4</ele>
        <time>2017-06-30T21:20:25Z</time>
      </trkpt>
      <trkpt lat="48.97064" lon="1.04492">
        <ele>276.5</ele>
        <time>2017-06-30T21:20:27Z</time>
      </trkpt>
      <trkpt lat="48.97076" lon="1.04484">
        <ele>276.7</ele>
        <time>2017-06-30T21:20:30Z</time>
      </trkpt>
      <trkpt lat="48.97085" lon="1.04477">
        <ele>276.7</ele>
        <time>2017-06-30T21:20:33Z</time>
      </trkpt>
      <trkpt lat="48.97095" lon="1.0447">
        <ele>276.7</ele>
        <time>2017-06-30T21:20:36Z</time>
      </trkpt>
      <trkpt lat="48.97104" lon="1.04464">
        <ele>277.1</ele>
        <time>2017-06-30T21:20:39Z</time>
      </trkpt>
      <trkpt lat="48.97114" lon="1.04457">
        <ele>277.4</ele>
        <time>2017-06-30T21:20:42Z</time>
      </trkpt>
      <trkpt lat="48.97122" lon="1.0445">
        <ele>277.8</ele>
        <time>2017-06-30T21:20:46Z</time>
      </trkpt>
      <trkpt lat="48.97132" lon="1.04444">
        <ele>277.9</ele>
        <time>2017-06-30T21:20:52Z</time>
      </trkpt>
      <trkpt lat="48.9714" lon="1.04437">
        <ele>278.1</ele>
        <time>2017-06-30T21:21:06Z</time>
      </trkpt>
      <trkpt lat="48.97152" lon="1.0443">
        <ele>278.2</ele>
        <time>2017-06-30T21:21:14Z</time>
      </trkpt>
      <trkpt lat="48.9716" lon="1.04424">
        <ele>278.3</ele>
        <time>2017-06-30T21:21:17Z</time>
      </trkpt>
      <trkpt lat="48.97169" lon="1.04419">
        <ele>278.2</ele>
        <time>2017-06-30T21:21:20Z</time>
      </trkpt>
      <trkpt lat="48.9718" lon="1.0441">
        <ele>278.4</ele>
        <time>2017-06-30T21:21:24Z</time>
      </trkpt>
      <trkpt lat="48.97184" lon="1.04397">
        <ele>278.3</ele>
        <time>2017-06-30T21:21:28Z</time>
      </trkpt>
      <trkpt lat="48.97183" lon="1.0438">
        <ele>278.4</ele>
        <time>2017-06-30T21:21:34Z</time>
      </trkpt>
      <trkpt lat="48.97191" lon="1.04367">
        <ele>278.4</ele>
        <time>2017-06-30T21:21:37Z</time>
      </trkpt>
      <trkpt lat="48.97193" lon="1.04353">
        <ele>278.3</ele>
        <time>2017-06-30T21:21:40Z</time>
      </trkpt>
      <trkpt lat="48.9719" lon="1.04339">
        <ele>278.3</ele>
        <time>2017-06-30T21:21:43Z</time>
      </trkpt>
      <trkpt lat="48.97189" lon="1.04322">
        <ele>278.3</ele>
        <time>2017-06-30T21:21:46Z</time>
      </trkpt>
      <trkpt lat="48.97187" lon="1.04304">
        <ele>278.5</ele>
        <time>2017-06-30T21:21:49Z</time>
      </trkpt>
      <trkpt lat="48.97185" lon="1.04284">
        <ele>278.7</ele>
        <time>2017-06-30T21:21:52Z</time>
      </trkpt>
      <trkpt lat="48.97182" lon="1.04265">
        <ele>278.7</ele>
        <time>2017-06-30T21:21:55Z</time>
      </trkpt>
      <trkpt lat="48.97181" lon="1.04247">
        <ele>278.7</ele>
        <time>2017-06-30T21:21:58Z</time>
      </trkpt>
      <trkpt lat="48.97185" lon="1.04231">
        <ele>278.8</ele>
        <time>2017-06-30T21:22:01Z</time>
      </trkpt>
      <trkpt lat="48.97193" lon="1.04217">
        <ele>278.6</ele>
        <time>2017-06-30T21:22:04Z</time>
      </trkpt>
      <trkpt lat="48.97202" lon="1.04202">
        <ele>278.7</ele>
        <time>2017-06-30T21:22:07Z</time>
      </trkpt>
      <trkpt lat="48.97209" lon="1.04188">
        <ele>278.8</ele>
        <time>2017-06-30T21:22:10Z</time>
      </trkpt>
      <trkpt lat="48.97215" lon="1.04172">
        <ele>278.8</ele>
        <time>2017-06-30T21:22:13Z</time>
      </trkpt>
      <trkpt lat="48.97221" lon="1.04158">
        <ele>278.8</ele>
        <time>2017-06-30T21:22:16Z</time>
      </trkpt>
      <trkpt lat="48.97226" lon="1.04146">
        <ele>278.8</ele>
        <time>2017-06-30T21:22:18Z</time>
      </trkpt>
      <trkpt lat="48.97235" lon="1.04132">
        <ele>278.9</ele>
        <time>2017-06-30T21:22:21Z</time>
      </trkpt>
      <trkpt lat="48.97243" lon="1.04116">
        <ele>279</ele>
        <time>2017-06-30T21:22:24Z</time>
      </trkpt>
      <trkpt lat="48.9725" lon="1.04105">
        <ele>279</ele>
        <time>2017-06-30T21:22:26Z</time>
      </trkpt>
      <trkpt lat="48.97257" lon="1.04095">
        <ele>279</ele>
        <time>2017-06-30T21:22:28Z</time>
      </trkpt>
      <trkpt lat="48.97264" lon="1.04084">
        <ele>278.8</ele>
        <time>2017-06-30T21:22:30Z</time>
      </trkpt>
      <trkpt lat="48.97271" lon="1.04069">
        <ele>279</ele>
        <time>2017-06-30T21:22:33Z</time>
      </trkpt>
      <trkpt lat="48.97279" lon="1.04053">
        <ele>279.2</ele>
        <time>2017-06-30T21:22:36Z</time>
      </trkpt>
      <trkpt lat="48.97289" lon="1.04038">
        <ele>279.2</ele>
        <time>2017-06-30T21:22:39Z</time>
      </trkpt>
      <trkpt lat="48.973" lon="1.04029">
        <ele>279.3</ele>
        <time>2017-06-30T21:22:42Z</time>
      </trkpt>
      <trkpt lat="48.97312" lon="1.04019">
        <ele>279.9</ele>
        <time>2017-06-30T21:22:45Z</time>
      </trkpt>
      <trkpt lat="48.9732" lon="1.04011">
        <ele>280</ele>
        <time>2017-06-30T21:22:47Z</time>
      </trkpt>
      <trkpt lat="48.97327" lon="1.04004">
        <ele>280</ele>
        <time>2017-06-30T21:22:49Z</time>
      </trkpt>
      <trkpt lat="48.97338" lon="1.03994">
        <ele>280</ele>
        <time>2017-06-30T21:22:52Z</time>
      </trkpt>
      <trkpt lat="48.97346" lon="1.03987">
        <ele>280.1</ele>
        <time>2017-06-30T21:22:54Z</time>
      </trkpt>
      <trkpt lat="48.97354" lon="1.03981">
        <ele>280</ele>
        <time>2017-06-30T21:22:56Z</time>
      </trkpt>
      <trkpt lat="48.97363" lon="1.03974">
        <ele>279.9</ele>
        <time>2017-06-30T21:22:58Z</time>
      </trkpt>
      <trkpt lat="48.97371" lon="1.03968">
        <ele>279.8</ele>
        <time>2017-06-30T21:23:00Z</time>
      </trkpt>
      <trkpt lat="48.97383" lon="1.03959">
        <ele>279.9</ele>
        <time>2017-06-30T21:23:03Z</time>
      </trkpt>
      <trkpt lat="48.97394" lon="1.03949">
        <ele>279.8</ele>
        <time>2017-06-30T21:23:06Z</time>
      </trkpt>
      <trkpt lat="48.97403" lon="1.03937">
        <ele>279.9</ele>
        <time>2017-06-30T21:23:09Z</time>
      </trkpt>
      <trkpt lat="48.97411" lon="1.03923">
        <ele>279.8</ele>
        <time>2017-06-30T21:23:12Z</time>
      </trkpt>
      <trkpt lat="48.9742" lon="1.03908">
        <ele>279.9</ele>
        <time>2017-06-30T21:23:15Z</time>
      </trkpt>
      <trkpt lat="48.97426" lon="1.03889">
        <ele>279.9</ele>
        <time>2017-06-30T21:23:18Z</time>
      </trkpt>
      <trkpt lat="48.97432" lon="1.03872">
        <ele>279.7</ele>
        <time>2017-06-30T21:23:21Z</time>
      </trkpt>
      <trkpt lat="48.97438" lon="1.03855">
        <ele>279.6</ele>
        <time>2017-06-30T21:23:24Z</time>
      </trkpt>
      <trkpt lat="48.97443" lon="1.03843">
        <ele>279.6</ele>
        <time>2017-06-30T21:23:26Z</time>
      </trkpt>
      <trkpt lat="48.97448" lon="1.0383">
        <ele>279.4</ele>
        <time>2017-06-30T21:23:28Z</time>
      </trkpt>
      <trkpt lat="48.97455" lon="1.03812">
        <ele>279.3</ele>
        <time>2017-06-30T21:23:31Z</time>
      </trkpt>
      <trkpt lat="48.9746" lon="1.03799">
        <ele>279.1</ele>
        <time>2017-06-30T21:23:33Z</time>
      </trkpt>
      <trkpt lat="48.97466" lon="1.03786">
        <ele>278.9</ele>
        <time>2017-06-30T21:23:35Z</time>
      </trkpt>
      <trkpt lat="48.97471" lon="1.03772">
        <ele>278.5</ele>
        <time>2017-06-30T21:23:37Z</time>
      </trkpt>
      <trkpt lat="48.97476" lon="1.03758">
        <ele>278.2</ele>
        <time>2017-06-30T21:23:39Z</time>
      </trkpt>
      <trkpt lat="48.9748" lon="1.03745">
        <ele>278</ele>
        <time>2017-06-30T21:23:41Z</time>
      </trkpt>
      <trkpt lat="48.97486" lon="1.03728">
        <ele>277.9</ele>
        <time>2017-06-30T21:23:44Z</time>
      </trkpt>
      <trkpt lat="48.97489" lon="1.03711">
        <ele>277.8</ele>
        <time>2017-06-30T21:23:47Z</time>
      </trkpt>
      <trkpt lat="48.97493" lon="1.03693">
        <ele>277.7</ele>
        <time>2017-06-30T21:23:50Z</time>
      </trkpt>
      <trkpt lat="48.97499" lon="1.03678">
        <ele>277.6</ele>
        <time>2017-06-30T21:23:53Z</time>
      </trkpt>
      <trkpt lat="48.9751" lon="1.03677">
        <ele>277.5</ele>
        <time>2017-06-30T21:23:57Z</time>
      </trkpt>
      <trkpt lat="48.97521" lon="1.03683">
        <ele>277.2</ele>
        <time>2017-06-30T21:24:01Z</time>
      </trkpt>
      <trkpt lat="48.97531" lon="1.03691">
        <ele>277.5</ele>
        <time>2017-06-30T21:24:05Z</time>
      </trkpt>
      <trkpt lat="48.97541" lon="1.037">
        <ele>277.7</ele>
        <time>2017-06-30T21:24:09Z</time>
      </trkpt>
      <trkpt lat="48.97552" lon="1.03709">
        <ele>277.5</ele>
        <time>2017-06-30T21:24:13Z</time>
      </trkpt>
      <trkpt lat="48.9756" lon="1.03719">
        <ele>277.6</ele>
        <time>2017-06-30T21:24:16Z</time>
      </trkpt>
      <trkpt lat="48.9757" lon="1.03728">
        <ele>277.2</ele>
        <time>2017-06-30T21:24:19Z</time>
      </trkpt>
      <trkpt lat="48.9758" lon="1.03738">
        <ele>277.1</ele>
        <time>2017-06-30T21:24:22Z</time>
      </trkpt>
      <trkpt lat="48.97589" lon="1.03749">
        <ele>277.4</ele>
        <time>2017-06-30T21:24:25Z</time>
      </trkpt>
      <trkpt lat="48.97599" lon="1.03756">
        <ele>277.6</ele>
        <time>2017-06-30T21:24:28Z</time>
      </trkpt>
      <trkpt lat="48.97607" lon="1.03767">
        <ele>278</ele>
        <time>2017-06-30T21:24:31Z</time>
      </trkpt>
      <trkpt lat="48.9762" lon="1.03774">
        <ele>277.9</ele>
        <time>2017-06-30T21:24:34Z</time>
      </trkpt>
      <trkpt lat="48.97629" lon="1.0378">
        <ele>277.9</ele>
        <time>2017-06-30T21:24:36Z</time>
      </trkpt>
      <trkpt lat="48.97637" lon="1.03788">
        <ele>277.8</ele>
        <time>2017-06-30T21:24:38Z</time>
      </trkpt>
      <trkpt lat="48.97646" lon="1.03794">
        <ele>277.9</ele>
        <time>2017-06-30T21:24:40Z</time>
      </trkpt>
      <trkpt lat="48.97655" lon="1.038">
        <ele>278.1</ele>
        <time>2017-06-30T21:24:42Z</time>
      </trkpt>
      <trkpt lat="48.97667" lon="1.03811">
        <ele>277.9</ele>
        <time>2017-06-30T21:24:45Z</time>
      </trkpt>
      <trkpt lat="48.97678" lon="1.03819">
        <ele>277.7</ele>
        <time>2017-06-30T21:24:47Z</time>
      </trkpt>
      <trkpt lat="48.97686" lon="1.03827">
        <ele>277.6</ele>
        <time>2017-06-30T21:24:49Z</time>
      </trkpt>
      <trkpt lat="48.97696" lon="1.03836">
        <ele>277.6</ele>
        <time>2017-06-30T21:24:51Z</time>
      </trkpt>
      <trkpt lat="48.97705" lon="1.03843">
        <ele>277.6</ele>
        <time>2017-06-30T21:24:53Z</time>
      </trkpt>
      <trkpt lat="48.97714" lon="1.03851">
        <ele>277.6</ele>
        <time>2017-06-30T21:24:55Z</time>
      </trkpt>
      <trkpt lat="48.97724" lon="1.03857">
        <ele>277.6</ele>
        <time>2017-06-30T21:24:57Z</time>
      </trkpt>
      <trkpt lat="48.97733" lon="1.03862">
        <ele>277.6</ele>
        <time>2017-06-30T21:24:59Z</time>
      </trkpt>
      <trkpt lat="48.97743" lon="1.0387">
        <ele>276.8</ele>
        <time>2017-06-30T21:25:02Z</time>
      </trkpt>
      <trkpt lat="48.97755" lon="1.03878">
        <ele>277</ele>
        <time>2017-06-30T21:25:05Z</time>
      </trkpt>
      <trkpt lat="48.97766" lon="1.03885">
        <ele>277.1</ele>
        <time>2017-06-30T21:25:08Z</time>
      </trkpt>
      <trkpt lat="48.97778" lon="1.03888">
        <ele>277.3</ele>
        <time>2017-06-30T21:25:11Z</time>
      </trkpt>
      <trkpt lat="48.97789" lon="1.03889">
        <ele>277.1</ele>
        <time>2017-06-30T21:25:14Z</time>
      </trkpt>
      <trkpt lat="48.97801" lon="1.03888">
        <ele>277.4</ele>
        <time>2017-06-30T21:25:17Z</time>
      </trkpt>
      <trkpt lat="48.97812" lon="1.03886">
        <ele>277.2</ele>
        <time>2017-06-30T21:25:19Z</time>
      </trkpt>
      <trkpt lat="48.97822" lon="1.03885">
        <ele>277.3</ele>
        <time>2017-06-30T21:25:21Z</time>
      </trkpt>
      <trkpt lat="48.97831" lon="1.03882">
        <ele>277.4</ele>
        <time>2017-06-30T21:25:23Z</time>
      </trkpt>
      <trkpt lat="48.97841" lon="1.03879">
        <ele>277.2</ele>
        <time>2017-06-30T21:25:25Z</time>
      </trkpt>
      <trkpt lat="48.97853" lon="1.03875">
        <ele>277.1</ele>
        <time>2017-06-30T21:25:28Z</time>
      </trkpt>
      <trkpt lat="48.97866" lon="1.03871">
        <ele>276.9</ele>
        <time>2017-06-30T21:25:31Z</time>
      </trkpt>
      <trkpt lat="48.97874" lon="1.03863">
        <ele>276.8</ele>
        <time>2017-06-30T21:25:33Z</time>
      </trkpt>
      <trkpt lat="48.97884" lon="1.03853">
        <ele>276.7</ele>
        <time>2017-06-30T21:25:36Z</time>
      </trkpt>
      <trkpt lat="48.97894" lon="1.0384">
        <ele>276.6</ele>
        <time>2017-06-30T21:25:39Z</time>
      </trkpt>
      <trkpt lat="48.97901" lon="1.03831">
        <ele>276.5</ele>
        <time>2017-06-30T21:25:41Z</time>
      </trkpt>
      <trkpt lat="48.97909" lon="1.03824">
        <ele>276.1</ele>
        <time>2017-06-30T21:25:43Z</time>
      </trkpt>
      <trkpt lat="48.9792" lon="1.03818">
        <ele>275.9</ele>
        <time>2017-06-30T21:25:45Z</time>
      </trkpt>
      <trkpt lat="48.9793" lon="1.03811">
        <ele>275.8</ele>
        <time>2017-06-30T21:25:47Z</time>
      </trkpt>
      <trkpt lat="48.97939" lon="1.03803">
        <ele>276</ele>
        <time>2017-06-30T21:25:49Z</time>
      </trkpt>
      <trkpt lat="48.97949" lon="1.03798">
        <ele>276.1</ele>
        <time>2017-06-30T21:25:51Z</time>
      </trkpt>
      <trkpt lat="48.97961" lon="1.03792">
        <ele>276.1</ele>
        <time>2017-06-30T21:25:54Z</time>
      </trkpt>
      <trkpt lat="48.97972" lon="1.03786">
        <ele>276.2</ele>
        <time>2017-06-30T21:25:57Z</time>
      </trkpt>
      <trkpt lat="48.97985" lon="1.0378">
        <ele>276.1</ele>
        <time>2017-06-30T21:26:00Z</time>
      </trkpt>
      <trkpt lat="48.97996" lon="1.03776">
        <ele>276.1</ele>
        <time>2017-06-30T21:26:02Z</time>
      </trkpt>
      <trkpt lat="48.98005" lon="1.0377">
        <ele>276.4</ele>
        <time>2017-06-30T21:26:04Z</time>
      </trkpt>
      <trkpt lat="48.98015" lon="1.03766">
        <ele>276.3</ele>
        <time>2017-06-30T21:26:06Z</time>
      </trkpt>
      <trkpt lat="48.98026" lon="1.03761">
        <ele>275.9</ele>
        <time>2017-06-30T21:26:09Z</time>
      </trkpt>
      <trkpt lat="48.98039" lon="1.03756">
        <ele>275.4</ele>
        <time>2017-06-30T21:26:12Z</time>
      </trkpt>
      <trkpt lat="48.98048" lon="1.03751">
        <ele>275.2</ele>
        <time>2017-06-30T21:26:14Z</time>
      </trkpt>
      <trkpt lat="48.98057" lon="1.03748">
        <ele>275.3</ele>
        <time>2017-06-30T21:26:16Z</time>
      </trkpt>
      <trkpt lat="48.98066" lon="1.03742">
        <ele>275.2</ele>
        <time>2017-06-30T21:26:18Z</time>
      </trkpt>
      <trkpt lat="48.98075" lon="1.03736">
        <ele>275.2</ele>
        <time>2017-06-30T21:26:20Z</time>
      </trkpt>
      <trkpt lat="48.98086" lon="1.03732">
        <ele>275</ele>
        <time>2017-06-30T21:26:23Z</time>
      </trkpt>
      <trkpt lat="48.98099" lon="1.03727">
        <ele>274.8</ele>
        <time>2017-06-30T21:26:26Z</time>
      </trkpt>
      <trkpt lat="48.98107" lon="1.03723">
        <ele>274.6</ele>
        <time>2017-06-30T21:26:28Z</time>
      </trkpt>
      <trkpt lat="48.98117" lon="1.03718">
        <ele>274.6</ele>
        <time>2017-06-30T21:26:30Z</time>
      </trkpt>
      <trkpt lat="48.98127" lon="1.03714">
        <ele>274.7</ele>
        <time>2017-06-30T21:26:33Z</time>
      </trkpt>
      <trkpt lat="48.98137" lon="1.0371">
        <ele>274.8</ele>
        <time>2017-06-30T21:26:36Z</time>
      </trkpt>
      <trkpt lat="48.98148" lon="1.03705">
        <ele>274.7</ele>
        <time>2017-06-30T21:26:38Z</time>
      </trkpt>
      <trkpt lat="48.98159" lon="1.037">
        <ele>274.5</ele>
        <time>2017-06-30T21:26:41Z</time>
      </trkpt>
      <trkpt lat="48.98168" lon="1.03695">
        <ele>274.3</ele>
        <time>2017-06-30T21:26:44Z</time>
      </trkpt>
      <trkpt lat="48.98179" lon="1.03691">
        <ele>274.4</ele>
        <time>2017-06-30T21:26:47Z</time>
      </trkpt>
      <trkpt lat="48.98194" lon="1.03686">
        <ele>274</ele>
        <time>2017-06-30T21:26:51Z</time>
      </trkpt>
      <trkpt lat="48.98205" lon="1.03683">
        <ele>273.9</ele>
        <time>2017-06-30T21:26:53Z</time>
      </trkpt>
      <trkpt lat="48.98215" lon="1.03682">
        <ele>273.8</ele>
        <time>2017-06-30T21:26:55Z</time>
      </trkpt>
      <trkpt lat="48.98224" lon="1.0368">
        <ele>273.7</ele>
        <time>2017-06-30T21:26:57Z</time>
      </trkpt>
      <trkpt lat="48.98237" lon="1.03677">
        <ele>273.6</ele>
        <time>2017-06-30T21:27:00Z</time>
      </trkpt>
      <trkpt lat="48.98248" lon="1.03675">
        <ele>273.5</ele>
        <time>2017-06-30T21:27:02Z</time>
      </trkpt>
      <trkpt lat="48.98258" lon="1.03673">
        <ele>273.3</ele>
        <time>2017-06-30T21:27:04Z</time>
      </trkpt>
      <trkpt lat="48.98268" lon="1.03671">
        <ele>273.4</ele>
        <time>2017-06-30T21:27:06Z</time>
      </trkpt>
      <trkpt lat="48.98279" lon="1.03668">
        <ele>273.5</ele>
        <time>2017-06-30T21:27:10Z</time>
      </trkpt>
      <trkpt lat="48.98288" lon="1.03662">
        <ele>273.7</ele>
        <time>2017-06-30T21:27:19Z</time>
      </trkpt>
      <trkpt lat="48.98296" lon="1.03656">
        <ele>273.3</ele>
        <time>2017-06-30T21:27:38Z</time>
      </trkpt>
      <trkpt lat="48.98306" lon="1.03652">
        <ele>273.4</ele>
        <time>2017-06-30T21:28:14Z</time>
      </trkpt>
      <trkpt lat="48.98316" lon="1.0365">
        <ele>273.4</ele>
        <time>2017-06-30T21:28:18Z</time>
      </trkpt>
      <trkpt lat="48.98328" lon="1.03648">
        <ele>273.3</ele>
        <time>2017-06-30T21:28:21Z</time>
      </trkpt>
      <trkpt lat="48.98342" lon="1.03644">
        <ele>273.2</ele>
        <time>2017-06-30T21:28:24Z</time>
      </trkpt>
      <trkpt lat="48.98351" lon="1.0364">
        <ele>273.2</ele>
        <time>2017-06-30T21:28:26Z</time>
      </trkpt>
      <trkpt lat="48.98361" lon="1.03639">
        <ele>272.9</ele>
        <time>2017-06-30T21:28:29Z</time>
      </trkpt>
      <trkpt lat="48.98367" lon="1.03651">
        <ele>272.2</ele>
        <time>2017-06-30T21:28:33Z</time>
      </trkpt>
      <trkpt lat="48.98366" lon="1.03666">
        <ele>272.4</ele>
        <time>2017-06-30T21:28:37Z</time>
      </trkpt>
      <trkpt lat="48.98363" lon="1.03679">
        <ele>272.3</ele>
        <time>2017-06-30T21:28:42Z</time>
      </trkpt>
      <trkpt lat="48.98359" lon="1.03692">
        <ele>272.6</ele>
        <time>2017-06-30T21:28:45Z</time>
      </trkpt>
      <trkpt lat="48.98356" lon="1.03706">
        <ele>273.2</ele>
        <time>2017-06-30T21:28:49Z</time>
      </trkpt>
      <trkpt lat="48.98349" lon="1.03716">
        <ele>273.4</ele>
        <time>2017-06-30T21:28:55Z</time>
      </trkpt>
      <trkpt lat="48.98341" lon="1.03727">
        <ele>273.4</ele>
        <time>2017-06-30T21:29:01Z</time>
      </trkpt>
      <trkpt lat="48.98332" lon="1.03733">
        <ele>273.5</ele>
        <time>2017-06-30T21:29:06Z</time>
      </trkpt>
      <trkpt lat="48.98323" lon="1.03744">
        <ele>273.7</ele>
        <time>2017-06-30T21:29:10Z</time>
      </trkpt>
      <trkpt lat="48.98314" lon="1.03751">
        <ele>273.9</ele>
        <time>2017-06-30T21:29:14Z</time>
      </trkpt>
      <trkpt lat="48.98305" lon="1.03763">
        <ele>274</ele>
        <time>2017-06-30T21:29:17Z</time>
      </trkpt>
      <trkpt lat="48.98297" lon="1.03775">
        <ele>274</ele>
        <time>2017-06-30T21:29:20Z</time>
      </trkpt>
      <trkpt lat="48.98288" lon="1.03784">
        <ele>273.9</ele>
        <time>2017-06-30T21:29:23Z</time>
      </trkpt>
      <trkpt lat="48.98278" lon="1.03792">
        <ele>273.9</ele>
        <time>2017-06-30T21:29:26Z</time>
      </trkpt>
      <trkpt lat="48.98269" lon="1.038">
        <ele>273.9</ele>
        <time>2017-06-30T21:29:28Z</time>
      </trkpt>
      <trkpt lat="48.98257" lon="1.03809">
        <ele>274</ele>
        <time>2017-06-30T21:29:31Z</time>
      </trkpt>
      <trkpt lat="48.98247" lon="1.03819">
        <ele>274.1</ele>
        <time>2017-06-30T21:29:34Z</time>
      </trkpt>
      <trkpt lat="48.98237" lon="1.03828">
        <ele>274.2</ele>
        <time>2017-06-30T21:29:37Z</time>
      </trkpt>
      <trkpt lat="48.98226" lon="1.03836">
        <ele>274.1</ele>
        <time>2017-06-30T21:29:40Z</time>
      </trkpt>
      <trkpt lat="48.98215" lon="1.03845">
        <ele>274.2</ele>
        <time>2017-06-30T21:29:43Z</time>
      </trkpt>
      <trkpt lat="48.98205" lon="1.03856">
        <ele>274.3</ele>
        <time>2017-06-30T21:29:46Z</time>
      </trkpt>
      <trkpt lat="48.98196" lon="1.03867">
        <ele>274.4</ele>
        <time>2017-06-30T21:29:49Z</time>
      </trkpt>
      <trkpt lat="48.98186" lon="1.03878">
        <ele>274.5</ele>
        <time>2017-06-30T21:29:52Z</time>
      </trkpt>
      <trkpt lat="48.98176" lon="1.03889">
        <ele>274.6</ele>
        <time>2017-06-30T21:29:54Z</time>
      </trkpt>
      <trkpt lat="48.9817" lon="1.03899">
        <ele>274.5</ele>
        <time>2017-06-30T21:29:56Z</time>
      </trkpt>
      <trkpt lat="48.98159" lon="1.03914">
        <ele>274.4</ele>
        <time>2017-06-30T21:29:59Z</time>
      </trkpt>
      <trkpt lat="48.98151" lon="1.03923">
        <ele>274.2</ele>
        <time>2017-06-30T21:30:01Z</time>
      </trkpt>
      <trkpt lat="48.9814" lon="1.03932">
        <ele>273.9</ele>
        <time>2017-06-30T21:30:04Z</time>
      </trkpt>
      <trkpt lat="48.9813" lon="1.03936">
        <ele>273.8</ele>
        <time>2017-06-30T21:30:06Z</time>
      </trkpt>
      <trkpt lat="48.98121" lon="1.03937">
        <ele>273.7</ele>
        <time>2017-06-30T21:30:08Z</time>
      </trkpt>
      <trkpt lat="48.9811" lon="1.03933">
        <ele>274</ele>
        <time>2017-06-30T21:30:11Z</time>
      </trkpt>
      <trkpt lat="48.981" lon="1.03932">
        <ele>274.1</ele>
        <time>2017-06-30T21:30:13Z</time>
      </trkpt>
      <trkpt lat="48.98087" lon="1.03933">
        <ele>274.2</ele>
        <time>2017-06-30T21:30:16Z</time>
      </trkpt>
      <trkpt lat="48.98078" lon="1.03935">
        <ele>274.4</ele>
        <time>2017-06-30T21:30:18Z</time>
      </trkpt>
      <trkpt lat="48.98064" lon="1.03938">
        <ele>274.4</ele>
        <time>2017-06-30T21:30:21Z</time>
      </trkpt>
      <trkpt lat="48.98055" lon="1.03941">
        <ele>274.4</ele>
        <time>2017-06-30T21:30:23Z</time>
      </trkpt>
      <trkpt lat="48.98046" lon="1.03944">
        <ele>274.5</ele>
        <time>2017-06-30T21:30:25Z</time>
      </trkpt>
      <trkpt lat="48.98033" lon="1.03948">
        <ele>274.4</ele>
        <time>2017-06-30T21:30:28Z</time>
      </trkpt>
      <trkpt lat="48.98021" lon="1.03955">
        <ele>274.3</ele>
        <time>2017-06-30T21:30:31Z</time>
      </trkpt>
      <trkpt lat="48.98012" lon="1.03961">
        <ele>274.4</ele>
        <time>2017-06-30T21:30:33Z</time>
      </trkpt>
      <trkpt lat="48.98" lon="1.0397">
        <ele>274.6</ele>
        <time>2017-06-30T21:30:36Z</time>
      </trkpt>
      <trkpt lat="48.97989" lon="1.0398">
        <ele>274.8</ele>
        <time>2017-06-30T21:30:39Z</time>
      </trkpt>
      <trkpt lat="48.97979" lon="1.03989">
        <ele>275</ele>
        <time>2017-06-30T21:30:42Z</time>
      </trkpt>
      <trkpt lat="48.9797" lon="1.03997">
        <ele>275.3</ele>
        <time>2017-06-30T21:30:45Z</time>
      </trkpt>
      <trkpt lat="48.9796" lon="1.04008">
        <ele>275.5</ele>
        <time>2017-06-30T21:30:48Z</time>
      </trkpt>
      <trkpt lat="48.97952" lon="1.04017">
        <ele>275.3</ele>
        <time>2017-06-30T21:30:51Z</time>
      </trkpt>
      <trkpt lat="48.97944" lon="1.04027">
        <ele>275.1</ele>
        <time>2017-06-30T21:30:54Z</time>
      </trkpt>
      <trkpt lat="48.97935" lon="1.04036">
        <ele>275.1</ele>
        <time>2017-06-30T21:30:57Z</time>
      </trkpt>
      <trkpt lat="48.97926" lon="1.04046">
        <ele>275.3</ele>
        <time>2017-06-30T21:31:00Z</time>
      </trkpt>
      <trkpt lat="48.97916" lon="1.04055">
        <ele>275.5</ele>
        <time>2017-06-30T21:31:03Z</time>
      </trkpt>
      <trkpt lat="48.97909" lon="1.04064">
        <ele>275.5</ele>
        <time>2017-06-30T21:31:06Z</time>
      </trkpt>
      <trkpt lat="48.97901" lon="1.04074">
        <ele>275.2</ele>
        <time>2017-06-30T21:31:09Z</time>
      </trkpt>
      <trkpt lat="48.97895" lon="1.04086">
        <ele>275.2</ele>
        <time>2017-06-30T21:31:12Z</time>
      </trkpt>
      <trkpt lat="48.97888" lon="1.04095">
        <ele>275.3</ele>
        <time>2017-06-30T21:31:17Z</time>
      </trkpt>
      <trkpt lat="48.97883" lon="1.04107">
        <ele>275.6</ele>
        <time>2017-06-30T21:31:23Z</time>
      </trkpt>
      <trkpt lat="48.97875" lon="1.04117">
        <ele>275.8</ele>
        <time>2017-06-30T21:31:29Z</time>
      </trkpt>
      <trkpt lat="48.97866" lon="1.04126">
        <ele>275.7</ele>
        <time>2017-06-30T21:31:37Z</time>
      </trkpt>
      <trkpt lat="48.97859" lon="1.04134">
        <ele>275.8</ele>
        <time>2017-06-30T21:31:41Z</time>
      </trkpt>
      <trkpt lat="48.97852" lon="1.04145">
        <ele>275.9</ele>
        <time>2017-06-30T21:31:46Z</time>
      </trkpt>
      <trkpt lat="48.97845" lon="1.04156">
        <ele>275.8</ele>
        <time>2017-06-30T21:31:50Z</time>
      </trkpt>
      <trkpt lat="48.97839" lon="1.04168">
        <ele>276</ele>
        <time>2017-06-30T21:31:56Z</time>
      </trkpt>
      <trkpt lat="48.97833" lon="1.04179">
        <ele>276.1</ele>
        <time>2017-06-30T21:32:01Z</time>
      </trkpt>
      <trkpt lat="48.97826" lon="1.04193">
        <ele>276</ele>
        <time>2017-06-30T21:32:06Z</time>
      </trkpt>
      <trkpt lat="48.97819" lon="1.04206">
        <ele>276</ele>
        <time>2017-06-30T21:32:10Z</time>
      </trkpt>
      <trkpt lat="48.97812" lon="1.04218">
        <ele>276.2</ele>
        <time>2017-06-30T21:32:13Z</time>
      </trkpt>
      <trkpt lat="48.97805" lon="1.04229">
        <ele>276.2</ele>
        <time>2017-06-30T21:32:16Z</time>
      </trkpt>
      <trkpt lat="48.97799" lon="1.04241">
        <ele>276.3</ele>
        <time>2017-06-30T21:32:20Z</time>
      </trkpt>
      <trkpt lat="48.97792" lon="1.04253">
        <ele>276.7</ele>
        <time>2017-06-30T21:32:25Z</time>
      </trkpt>
      <trkpt lat="48.97787" lon="1.04265">
        <ele>276.9</ele>
        <time>2017-06-30T21:32:30Z</time>
      </trkpt>
      <trkpt lat="48.97782" lon="1.04279">
        <ele>276.9</ele>
        <time>2017-06-30T21:32:37Z</time>
      </trkpt>
      <trkpt lat="48.97779" lon="1.04293">
        <ele>276.8</ele>
        <time>2017-06-30T21:32:40Z</time>
      </trkpt>
      <trkpt lat="48.97776" lon="1.04308">
        <ele>276.9</ele>
        <time>2017-06-30T21:32:44Z</time>
      </trkpt>
      <trkpt lat="48.97773" lon="1.04321">
        <ele>277</ele>
        <time>2017-06-30T21:32:48Z</time>
      </trkpt>
      <trkpt lat="48.97771" lon="1.04337">
        <ele>277.1</ele>
        <time>2017-06-30T21:32:52Z</time>
      </trkpt>
      <trkpt lat="48.97767" lon="1.04352">
        <ele>277</ele>
        <time>2017-06-30T21:32:56Z</time>
      </trkpt>
      <trkpt lat="48.9776" lon="1.04368">
        <ele>277.2</ele>
        <time>2017-06-30T21:32:59Z</time>
      </trkpt>
      <trkpt lat="48.97754" lon="1.04381">
        <ele>277.3</ele>
        <time>2017-06-30T21:33:03Z</time>
      </trkpt>
      <trkpt lat="48.97747" lon="1.04397">
        <ele>277.4</ele>
        <time>2017-06-30T21:33:07Z</time>
      </trkpt>
      <trkpt lat="48.97744" lon="1.04413">
        <ele>277.5</ele>
        <time>2017-06-30T21:33:12Z</time>
      </trkpt>
      <trkpt lat="48.97742" lon="1.0443">
        <ele>277.7</ele>
        <time>2017-06-30T21:33:16Z</time>
      </trkpt>
      <trkpt lat="48.9774" lon="1.04448">
        <ele>277.9</ele>
        <time>2017-06-30T21:33:20Z</time>
      </trkpt>
      <trkpt lat="48.97735" lon="1.04462">
        <ele>278</ele>
        <time>2017-06-30T21:33:22Z</time>
      </trkpt>
      <trkpt lat="48.97732" lon="1.04478">
        <ele>278.3</ele>
        <time>2017-06-30T21:33:25Z</time>
      </trkpt>
      <trkpt lat="48.97727" lon="1.04494">
        <ele>278.5</ele>
        <time>2017-06-30T21:33:28Z</time>
      </trkpt>
      <trkpt lat="48.97722" lon="1.04508">
        <ele>278.8</ele>
        <time>2017-06-30T21:33:31Z</time>
      </trkpt>
      <trkpt lat="48.97715" lon="1.04518">
        <ele>279</ele>
        <time>2017-06-30T21:33:33Z</time>
      </trkpt>
      <trkpt lat="48.97709" lon="1.04533">
        <ele>279.1</ele>
        <time>2017-06-30T21:33:35Z</time>
      </trkpt>
      <trkpt lat="48.97702" lon="1.04545">
        <ele>279.2</ele>
        <time>2017-06-30T21:33:37Z</time>
      </trkpt>
      <trkpt lat="48.97694" lon="1.04561">
        <ele>279</ele>
        <time>2017-06-30T21:33:40Z</time>
      </trkpt>
      <trkpt lat="48.97687" lon="1.04576">
        <ele>279.1</ele>
        <time>2017-06-30T21:33:43Z</time>
      </trkpt>
      <trkpt lat="48.97683" lon="1.0459">
        <ele>279</ele>
        <time>2017-06-30T21:33:46Z</time>
      </trkpt>
      <trkpt lat="48.9768" lon="1.04605">
        <ele>278.9</ele>
        <time>2017-06-30T21:33:50Z</time>
      </trkpt>
      <trkpt lat="48.97676" lon="1.04619">
        <ele>278.8</ele>
        <time>2017-06-30T21:33:53Z</time>
      </trkpt>
      <trkpt lat="48.97666" lon="1.04631">
        <ele>278.5</ele>
        <time>2017-06-30T21:33:57Z</time>
      </trkpt>
      <trkpt lat="48.97659" lon="1.04639">
        <ele>278.5</ele>
        <time>2017-06-30T21:33:59Z</time>
      </trkpt>
      <trkpt lat="48.97652" lon="1.04653">
        <ele>278.7</ele>
        <time>2017-06-30T21:34:02Z</time>
      </trkpt>
      <trkpt lat="48.97645" lon="1.04665">
        <ele>278.7</ele>
        <time>2017-06-30T21:34:05Z</time>
      </trkpt>
      <trkpt lat="48.97638" lon="1.04675">
        <ele>278.6</ele>
        <time>2017-06-30T21:34:08Z</time>
      </trkpt>
      <trkpt lat="48.9763" lon="1.04691">
        <ele>278.5</ele>
        <time>2017-06-30T21:34:11Z</time>
      </trkpt>
      <trkpt lat="48.97623" lon="1.04702">
        <ele>278.5</ele>
        <time>2017-06-30T21:34:13Z</time>
      </trkpt>
      <trkpt lat="48.97618" lon="1.04714">
        <ele>278.5</ele>
        <time>2017-06-30T21:34:15Z</time>
      </trkpt>
      <trkpt lat="48.97611" lon="1.04725">
        <ele>278.5</ele>
        <time>2017-06-30T21:34:18Z</time>
      </trkpt>
      <trkpt lat="48.97602" lon="1.04733">
        <ele>278.6</ele>
        <time>2017-06-30T21:34:21Z</time>
      </trkpt>
      <trkpt lat="48.97592" lon="1.04745">
        <ele>278.6</ele>
        <time>2017-06-30T21:34:24Z</time>
      </trkpt>
      <trkpt lat="48.97583" lon="1.04757">
        <ele>278.7</ele>
        <time>2017-06-30T21:34:27Z</time>
      </trkpt>
      <trkpt lat="48.97573" lon="1.04769">
        <ele>278.7</ele>
        <time>2017-06-30T21:34:30Z</time>
      </trkpt>
      <trkpt lat="48.97564" lon="1.04781">
        <ele>278.7</ele>
        <time>2017-06-30T21:34:33Z</time>
      </trkpt>
      <trkpt lat="48.97557" lon="1.04792">
        <ele>278.7</ele>
        <time>2017-06-30T21:34:36Z</time>
      </trkpt>
      <trkpt lat="48.9755" lon="1.04804">
        <ele>278.7</ele>
        <time>2017-06-30T21:34:39Z</time>
      </trkpt>
      <trkpt lat="48.97543" lon="1.04815">
        <ele>278.6</ele>
        <time>2017-06-30T21:34:42Z</time>
      </trkpt>
      <trkpt lat="48.97538" lon="1.04831">
        <ele>278.5</ele>
        <time>2017-06-30T21:34:45Z</time>
      </trkpt>
      <trkpt lat="48.97533" lon="1.04843">
        <ele>278.5</ele>
        <time>2017-06-30T21:34:47Z</time>
      </trkpt>
      <trkpt lat="48.97525" lon="1.0486">
        <ele>278.5</ele>
        <time>2017-06-30T21:34:50Z</time>
      </trkpt>
      <trkpt lat="48.97519" lon="1.04871">
        <ele>278.6</ele>
        <time>2017-06-30T21:34:52Z</time>
      </trkpt>
      <trkpt lat="48.97512" lon="1.04882">
        <ele>278.6</ele>
        <time>2017-06-30T21:34:54Z</time>
      </trkpt>
      <trkpt lat="48.97504" lon="1.04897">
        <ele>278.5</ele>
        <time>2017-06-30T21:34:57Z</time>
      </trkpt>
      <trkpt lat="48.97496" lon="1.04911">
        <ele>278.4</ele>
        <time>2017-06-30T21:35:00Z</time>
      </trkpt>
      <trkpt lat="48.97489" lon="1.04924">
        <ele>278.2</ele>
        <time>2017-06-30T21:35:03Z</time>
      </trkpt>
      <trkpt lat="48.97481" lon="1.04937">
        <ele>278.2</ele>
        <time>2017-06-30T21:35:06Z</time>
      </trkpt>
      <trkpt lat="48.97473" lon="1.04954">
        <ele>278.3</ele>
        <time>2017-06-30T21:35:09Z</time>
      </trkpt>
      <trkpt lat="48.97466" lon="1.04967">
        <ele>278.3</ele>
        <time>2017-06-30T21:35:11Z</time>
      </trkpt>
      <trkpt lat="48.9746" lon="1.04978">
        <ele>278.4</ele>
        <time>2017-06-30T21:35:13Z</time>
      </trkpt>
      <trkpt lat="48.97455" lon="1.0499">
        <ele>278.3</ele>
        <time>2017-06-30T21:35:15Z</time>
      </trkpt>
      <trkpt lat="48.97449" lon="1.05001">
        <ele>278.4</ele>
        <time>2017-06-30T21:35:17Z</time>
      </trkpt>
      <trkpt lat="48.97441" lon="1.05018">
        <ele>278.2</ele>
        <time>2017-06-30T21:35:20Z</time>
      </trkpt>
      <trkpt lat="48.97435" lon="1.05029">
        <ele>278.2</ele>
        <time>2017-06-30T21:35:22Z</time>
      </trkpt>
      <trkpt lat="48.97425" lon="1.05044">
        <ele>278.3</ele>
        <time>2017-06-30T21:35:25Z</time>
      </trkpt>
      <trkpt lat="48.97416" lon="1.05057">
        <ele>278.3</ele>
        <time>2017-06-30T21:35:28Z</time>
      </trkpt>
      <trkpt lat="48.97408" lon="1.0507">
        <ele>278.1</ele>
        <time>2017-06-30T21:35:31Z</time>
      </trkpt>
      <trkpt lat="48.97401" lon="1.05083">
        <ele>278.2</ele>
        <time>2017-06-30T21:35:34Z</time>
      </trkpt>
      <trkpt lat="48.97395" lon="1.05096">
        <ele>278.3</ele>
        <time>2017-06-30T21:35:37Z</time>
      </trkpt>
      <trkpt lat="48.97388" lon="1.05108">
        <ele>278.6</ele>
        <time>2017-06-30T21:35:41Z</time>
      </trkpt>
      <trkpt lat="48.97383" lon="1.05121">
        <ele>278.5</ele>
        <time>2017-06-30T21:35:45Z</time>
      </trkpt>
      <trkpt lat="48.97377" lon="1.05131">
        <ele>278.7</ele>
        <time>2017-06-30T21:35:48Z</time>
      </trkpt>
      <trkpt lat="48.97372" lon="1.05144">
        <ele>278.7</ele>
        <time>2017-06-30T21:35:51Z</time>
      </trkpt>
      <trkpt lat="48.97366" lon="1.05161">
        <ele>278.7</ele>
        <time>2017-06-30T21:35:56Z</time>
      </trkpt>
      <trkpt lat="48.97363" lon="1.05175">
        <ele>278.7</ele>
        <time>2017-06-30T21:36:01Z</time>
      </trkpt>
      <trkpt lat="48.97357" lon="1.0519">
        <ele>278.4</ele>
        <time>2017-06-30T21:36:06Z</time>
      </trkpt>
      <trkpt lat="48.9735" lon="1.05203">
        <ele>278.4</ele>
        <time>2017-06-30T21:36:10Z</time>
      </trkpt>
      <trkpt lat="48.97345" lon="1.05219">
        <ele>278.4</ele>
        <time>2017-06-30T21:36:14Z</time>
      </trkpt>
      <trkpt lat="48.97338" lon="1.0523">
        <ele>278.5</ele>
        <time>2017-06-30T21:36:19Z</time>
      </trkpt>
      <trkpt lat="48.97333" lon="1.05244">
        <ele>278.1</ele>
        <time>2017-06-30T21:36:26Z</time>
      </trkpt>
      <trkpt lat="48.97327" lon="1.0526">
        <ele>278.1</ele>
        <time>2017-06-30T21:36:31Z</time>
      </trkpt>
      <trkpt lat="48.97321" lon="1.05272">
        <ele>278</ele>
        <time>2017-06-30T21:36:35Z</time>
      </trkpt>
      <trkpt lat="48.97316" lon="1.05284">
        <ele>277.9</ele>
        <time>2017-06-30T21:36:41Z</time>
      </trkpt>
      <trkpt lat="48.97309" lon="1.05296">
        <ele>277.9</ele>
        <time>2017-06-30T21:36:47Z</time>
      </trkpt>
      <trkpt lat="48.97303" lon="1.05309">
        <ele>277.5</ele>
        <time>2017-06-30T21:36:53Z</time>
      </trkpt>
      <trkpt lat="48.97298" lon="1.05321">
        <ele>277.3</ele>
        <time>2017-06-30T21:36:59Z</time>
      </trkpt>
      <trkpt lat="48.97291" lon="1.05332">
        <ele>277.4</ele>
        <time>2017-06-30T21:37:02Z</time>
      </trkpt>
      <trkpt lat="48.97287" lon="1.05346">
        <ele>277.6</ele>
        <time>2017-06-30T21:37:07Z</time>
      </trkpt>
      <trkpt lat="48.97284" lon="1.05362">
        <ele>277.6</ele>
        <time>2017-06-30T21:37:11Z</time>
      </trkpt>
      <trkpt lat="48.9728" lon="1.05377">
        <ele>277.7</ele>
        <time>2017-06-30T21:37:14Z</time>
      </trkpt>
      <trkpt lat="48.97278" lon="1.05392">
        <ele>277.5</ele>
        <time>2017-06-30T21:37:17Z</time>
      </trkpt>
      <trkpt lat="48.97274" lon="1.05407">
        <ele>277.1</ele>
        <time>2017-06-30T21:37:20Z</time>
      </trkpt>
      <trkpt lat="48.97273" lon="1.05421">
        <ele>276.8</ele>
        <time>2017-06-30T21:37:23Z</time>
      </trkpt>
      <trkpt lat="48.97272" lon="1.05435">
        <ele>276.9</ele>
        <time>2017-06-30T21:37:26Z</time>
      </trkpt>
      <trkpt lat="48.97272" lon="1.05453">
        <ele>276.6</ele>
        <time>2017-06-30T21:37:29Z</time>
      </trkpt>
      <trkpt lat="48.97272" lon="1.05468">
        <ele>276.3</ele>
        <time>2017-06-30T21:37:32Z</time>
      </trkpt>
      <trkpt lat="48.97274" lon="1.05485">
        <ele>275.8</ele>
        <time>2017-06-30T21:37:36Z</time>
      </trkpt>
      <trkpt lat="48.97271" lon="1.05499">
        <ele>275.1</ele>
        <time>2017-06-30T21:37:40Z</time>
      </trkpt>
      <trkpt lat="48.97268" lon="1.05513">
        <ele>274.4</ele>
        <time>2017-06-30T21:37:43Z</time>
      </trkpt>
      <trkpt lat="48.97266" lon="1.0553">
        <ele>274.5</ele>
        <time>2017-06-30T21:37:46Z</time>
      </trkpt>
      <trkpt lat="48.97266" lon="1.05547">
        <ele>274.5</ele>
        <time>2017-06-30T21:37:49Z</time>
      </trkpt>
      <trkpt lat="48.97263" lon="1.05563">
        <ele>274.5</ele>
        <time>2017-06-30T21:37:52Z</time>
      </trkpt>
      <trkpt lat="48.97257" lon="1.05579">
        <ele>274.6</ele>
        <time>2017-06-30T21:37:55Z</time>
      </trkpt>
      <trkpt lat="48.97255" lon="1.05594">
        <ele>274.6</ele>
        <time>2017-06-30T21:37:57Z</time>
      </trkpt>
      <trkpt lat="48.97253" lon="1.05608">
        <ele>274.6</ele>
        <time>2017-06-30T21:37:59Z</time>
      </trkpt>
      <trkpt lat="48.97252" lon="1.05624">
        <ele>274.3</ele>
        <time>2017-06-30T21:38:03Z</time>
      </trkpt>
      <trkpt lat="48.9725" lon="1.05639">
        <ele>274</ele>
        <time>2017-06-30T21:38:06Z</time>
      </trkpt>
      <trkpt lat="48.9725" lon="1.05654">
        <ele>273.7</ele>
        <time>2017-06-30T21:38:11Z</time>
      </trkpt>
      <trkpt lat="48.97248" lon="1.05667">
        <ele>273.5</ele>
        <time>2017-06-30T21:38:15Z</time>
      </trkpt>
      <trkpt lat="48.97247" lon="1.05682">
        <ele>273.3</ele>
        <time>2017-06-30T21:38:18Z</time>
      </trkpt>
      <trkpt lat="48.97247" lon="1.057">
        <ele>273.3</ele>
        <time>2017-06-30T21:38:21Z</time>
      </trkpt>
      <trkpt lat="48.97246" lon="1.05716">
        <ele>273.5</ele>
        <time>2017-06-30T21:38:24Z</time>
      </trkpt>
      <trkpt lat="48.97245" lon="1.05733">
        <ele>273.9</ele>
        <time>2017-06-30T21:38:28Z</time>
      </trkpt>
      <trkpt lat="48.97242" lon="1.05747">
        <ele>273.8</ele>
        <time>2017-06-30T21:38:31Z</time>
      </trkpt>
      <trkpt lat="48.9724" lon="1.05766">
        <ele>273.8</ele>
        <time>2017-06-30T21:38:34Z</time>
      </trkpt>
      <trkpt lat="48.97239" lon="1.05782">
        <ele>273.9</ele>
        <time>2017-06-30T21:38:36Z</time>
      </trkpt>
      <trkpt lat="48.97238" lon="1.058">
        <ele>273.9</ele>
        <time>2017-06-30T21:38:39Z</time>
      </trkpt>
      <trkpt lat="48.97236" lon="1.05818">
        <ele>273.9</ele>
        <time>2017-06-30T21:38:42Z</time>
      </trkpt>
      <trkpt lat="48.97234" lon="1.05838">
        <ele>273.8</ele>
        <time>2017-06-30T21:38:45Z</time>
      </trkpt>
      <trkpt lat="48.9723" lon="1.05857">
        <ele>273.7</ele>
        <time>2017-06-30T21:38:48Z</time>
      </trkpt>
      <trkpt lat="48.97228" lon="1.05873">
        <ele>273.5</ele>
        <time>2017-06-30T21:38:51Z</time>
      </trkpt>
      <trkpt lat="48.97225" lon="1.0589">
        <ele>273.4</ele>
        <time>2017-06-30T21:38:54Z</time>
      </trkpt>
      <trkpt lat="48.97222" lon="1.05909">
        <ele>273.4</ele>
        <time>2017-06-30T21:38:57Z</time>
      </trkpt>
      <trkpt lat="48.97221" lon="1.05928">
        <ele>273.4</ele>
        <time>2017-06-30T21:39:00Z</time>
      </trkpt>
      <trkpt lat="48.9722" lon="1.05944">
        <ele>273.5</ele>
        <time>2017-06-30T21:39:02Z</time>
      </trkpt>
      <trkpt lat="48.97218" lon="1.0596">
        <ele>273.6</ele>
        <time>2017-06-30T21:39:04Z</time>
      </trkpt>
      <trkpt lat="48.97216" lon="1.05974">
        <ele>273.6</ele>
        <time>2017-06-30T21:39:07Z</time>
      </trkpt>
      <trkpt lat="48.97214" lon="1.05987">
        <ele>273.5</ele>
        <time>2017-06-30T21:39:09Z</time>
      </trkpt>
      <trkpt lat="48.9721" lon="1.06003">
        <ele>273.4</ele>
        <time>2017-06-30T21:39:12Z</time>
      </trkpt>
      <trkpt lat="48.97209" lon="1.06019">
        <ele>273.6</ele>
        <time>2017-06-30T21:39:15Z</time>
      </trkpt>
      <trkpt lat="48.97205" lon="1.06034">
        <ele>273.8</ele>
        <time>2017-06-30T21:39:17Z</time>
      </trkpt>
      <trkpt lat="48.97203" lon="1.06049">
        <ele>273.9</ele>
        <time>2017-06-30T21:39:19Z</time>
      </trkpt>
      <trkpt lat="48.972" lon="1.06063">
        <ele>274</ele>
        <time>2017-06-30T21:39:21Z</time>
      </trkpt>
      <trkpt lat="48.97199" lon="1.06078">
        <ele>274.1</ele>
        <time>2017-06-30T21:39:23Z</time>
      </trkpt>
      <trkpt lat="48.97198" lon="1.06097">
        <ele>274.2</ele>
        <time>2017-06-30T21:39:26Z</time>
      </trkpt>
      <trkpt lat="48.97195" lon="1.06114">
        <ele>274.5</ele>
        <time>2017-06-30T21:39:29Z</time>
      </trkpt>
      <trkpt lat="48.97194" lon="1.06135">
        <ele>274.7</ele>
        <time>2017-06-30T21:39:32Z</time>
      </trkpt>
      <trkpt lat="48.97192" lon="1.06152">
        <ele>274.9</ele>
        <time>2017-06-30T21:39:35Z</time>
      </trkpt>
      <trkpt lat="48.97188" lon="1.06165">
        <ele>275</ele>
        <time>2017-06-30T21:39:38Z</time>
      </trkpt>
      <trkpt lat="48.97183" lon="1.06182">
        <ele>274.9</ele>
        <time>2017-06-30T21:39:41Z</time>
      </trkpt>
      <trkpt lat="48.97176" lon="1.06198">
        <ele>275</ele>
        <time>2017-06-30T21:39:44Z</time>
      </trkpt>
      <trkpt lat="48.97168" lon="1.06213">
        <ele>275.2</ele>
        <time>2017-06-30T21:39:47Z</time>
      </trkpt>
      <trkpt lat="48.97163" lon="1.06226">
        <ele>275.3</ele>
        <time>2017-06-30T21:39:50Z</time>
      </trkpt>
      <trkpt lat="48.97159" lon="1.0624">
        <ele>275.4</ele>
        <time>2017-06-30T21:39:53Z</time>
      </trkpt>
      <trkpt lat="48.97156" lon="1.06254">
        <ele>275.3</ele>
        <time>2017-06-30T21:39:58Z</time>
      </trkpt>
      <trkpt lat="48.97152" lon="1.06266">
        <ele>275.8</ele>
        <time>2017-06-30T21:40:09Z</time>
      </trkpt>
      <trkpt lat="48.9715" lon="1.0628">
        <ele>275.3</ele>
        <time>2017-06-30T21:40:25Z</time>
      </trkpt>
      <trkpt lat="48.97144" lon="1.0629">
        <ele>275.7</ele>
        <time>2017-06-30T21:41:01Z</time>
      </trkpt>
      <trkpt lat="48.97141" lon="1.06304">
        <ele>275.5</ele>
        <time>2017-06-30T21:41:08Z</time>
      </trkpt>
      <trkpt lat="48.97135" lon="1.06317">
        <ele>275.7</ele>
        <time>2017-06-30T21:41:13Z</time>
      </trkpt>
      <trkpt lat="48.97128" lon="1.06327">
        <ele>275.7</ele>
        <time>2017-06-30T21:41:16Z</time>
      </trkpt>
      <trkpt lat="48.97118" lon="1.06343">
        <ele>275.5</ele>
        <time>2017-06-30T21:41:19Z</time>
      </trkpt>
      <trkpt lat="48.97108" lon="1.06354">
        <ele>275.5</ele>
        <time>2017-06-30T21:41:22Z</time>
      </trkpt>
      <trkpt lat="48.97098" lon="1.06362">
        <ele>275.6</ele>
        <time>2017-06-30T21:41:24Z</time>
      </trkpt>
      <trkpt lat="48.97089" lon="1.06373">
        <ele>275.7</ele>
        <time>2017-06-30T21:41:26Z</time>
      </trkpt>
      <trkpt lat="48.97082" lon="1.06384">
        <ele>275.9</ele>
        <time>2017-06-30T21:41:28Z</time>
      </trkpt>
      <trkpt lat="48.97075" lon="1.06398">
        <ele>275.9</ele>
        <time>2017-06-30T21:41:30Z</time>
      </trkpt>
      <trkpt lat="48.97067" lon="1.06411">
        <ele>275.8</ele>
        <time>2017-06-30T21:41:32Z</time>
      </trkpt>
      <trkpt lat="48.97059" lon="1.06426">
        <ele>275.8</ele>
        <time>2017-06-30T21:41:34Z</time>
      </trkpt>
      <trkpt lat="48.97051" lon="1.06441">
        <ele>275.7</ele>
        <time>2017-06-30T21:41:36Z</time>
      </trkpt>
      <trkpt lat="48.97042" lon="1.06454">
        <ele>275.7</ele>
        <time>2017-06-30T21:41:38Z</time>
      </trkpt>
      <trkpt lat="48.97033" lon="1.06467">
        <ele>275.6</ele>
        <time>2017-06-30T21:41:40Z</time>
      </trkpt>
      <trkpt lat="48.97023" lon="1.06481">
        <ele>275.7</ele>
        <time>2017-06-30T21:41:42Z</time>
      </trkpt>
      <trkpt lat="48.97014" lon="1.06494">
        <ele>275.5</ele>
        <time>2017-06-30T21:41:44Z</time>
      </trkpt>
      <trkpt lat="48.97004" lon="1.06507">
        <ele>275.4</ele>
        <time>2017-06-30T21:41:46Z</time>
      </trkpt>
      <trkpt lat="48.96995" lon="1.06521">
        <ele>275.5</ele>
        <time>2017-06-30T21:41:48Z</time>
      </trkpt>
      <trkpt lat="48.96986" lon="1.06535">
        <ele>275.3</ele>
        <time>2017-06-30T21:41:50Z</time>
      </trkpt>
      <trkpt lat="48.96975" lon="1.06549">
        <ele>275.5</ele>
        <time>2017-06-30T21:41:52Z</time>
      </trkpt>
      <trkpt lat="48.96963" lon="1.06564">
        <ele>275.6</ele>
        <time>2017-06-30T21:41:54Z</time>
      </trkpt>
      <trkpt lat="48.96953" lon="1.0658">
        <ele>275.8</ele>
        <time>2017-06-30T21:41:56Z</time>
      </trkpt>
      <trkpt lat="48.96942" lon="1.06594">
        <ele>275.9</ele>
        <time>2017-06-30T21:41:58Z</time>
      </trkpt>
      <trkpt lat="48.96933" lon="1.06609">
        <ele>276.1</ele>
        <time>2017-06-30T21:42:00Z</time>
      </trkpt>
      <trkpt lat="48.96923" lon="1.06624">
        <ele>276.1</ele>
        <time>2017-06-30T21:42:02Z</time>
      </trkpt>
      <trkpt lat="48.96913" lon="1.06639">
        <ele>275.8</ele>
        <time>2017-06-30T21:42:04Z</time>
      </trkpt>
      <trkpt lat="48.96902" lon="1.06652">
        <ele>275.9</ele>
        <time>2017-06-30T21:42:06Z</time>
      </trkpt>
      <trkpt lat="48.9689" lon="1.06664">
        <ele>275.7</ele>
        <time>2017-06-30T21:42:08Z</time>
      </trkpt>
      <trkpt lat="48.96878" lon="1.06673">
        <ele>275.8</ele>
        <time>2017-06-30T21:42:10Z</time>
      </trkpt>
      <trkpt lat="48.96865" lon="1.06682">
        <ele>275.9</ele>
        <time>2017-06-30T21:42:12Z</time>
      </trkpt>
      <trkpt lat="48.96853" lon="1.06691">
        <ele>275.9</ele>
        <time>2017-06-30T21:42:14Z</time>
      </trkpt>
      <trkpt lat="48.96841" lon="1.06701">
        <ele>275.8</ele>
        <time>2017-06-30T21:42:16Z</time>
      </trkpt>
      <trkpt lat="48.96828" lon="1.06712">
        <ele>276</ele>
        <time>2017-06-30T21:42:18Z</time>
      </trkpt>
      <trkpt lat="48.96815" lon="1.06722">
        <ele>276</ele>
        <time>2017-06-30T21:42:20Z</time>
      </trkpt>
      <trkpt lat="48.96802" lon="1.06732">
        <ele>276.2</ele>
        <time>2017-06-30T21:42:22Z</time>
      </trkpt>
      <trkpt lat="48.96789" lon="1.06741">
        <ele>276.3</ele>
        <time>2017-06-30T21:42:24Z</time>
      </trkpt>
      <trkpt lat="48.96777" lon="1.06749">
        <ele>276.5</ele>
        <time>2017-06-30T21:42:26Z</time>
      </trkpt>
      <trkpt lat="48.96764" lon="1.06757">
        <ele>276.6</ele>
        <time>2017-06-30T21:42:28Z</time>
      </trkpt>
      <trkpt lat="48.96751" lon="1.06763">
        <ele>276.9</ele>
        <time>2017-06-30T21:42:30Z</time>
      </trkpt>
      <trkpt lat="48.96737" lon="1.06769">
        <ele>277.2</ele>
        <time>2017-06-30T21:42:32Z</time>
      </trkpt>
      <trkpt lat="48.96724" lon="1.06776">
        <ele>277</ele>
        <time>2017-06-30T21:42:34Z</time>
      </trkpt>
      <trkpt lat="48.96711" lon="1.06782">
        <ele>277.3</ele>
        <time>2017-06-30T21:42:36Z</time>
      </trkpt>
      <trkpt lat="48.96699" lon="1.06788">
        <ele>277.5</ele>
        <time>2017-06-30T21:42:38Z</time>
      </trkpt>
      <trkpt lat="48.96686" lon="1.06793">
        <ele>277.5</ele>
        <time>2017-06-30T21:42:40Z</time>
      </trkpt>
      <trkpt lat="48.96674" lon="1.06801">
        <ele>277.6</ele>
        <time>2017-06-30T21:42:42Z</time>
      </trkpt>
      <trkpt lat="48.96661" lon="1.06808">
        <ele>278</ele>
        <time>2017-06-30T21:42:44Z</time>
      </trkpt>
      <trkpt lat="48.96648" lon="1.06815">
        <ele>278.1</ele>
        <time>2017-06-30T21:42:46Z</time>
      </trkpt>
      <trkpt lat="48.96635" lon="1.06821">
        <ele>278.2</ele>
        <time>2017-06-30T21:42:48Z</time>
      </trkpt>
      <trkpt lat="48.96623" lon="1.06827">
        <ele>278.2</ele>
        <time>2017-06-30T21:42:50Z</time>
      </trkpt>
      <trkpt lat="48.9661" lon="1.06834">
        <ele>278.2</ele>
        <time>2017-06-30T21:42:52Z</time>
      </trkpt>
      <trkpt lat="48.96597" lon="1.06841">
        <ele>278.2</ele>
        <time>2017-06-30T21:42:54Z</time>
      </trkpt>
      <trkpt lat="48.96583" lon="1.06847">
        <ele>278.4</ele>
        <time>2017-06-30T21:42:56Z</time>
      </trkpt>
      <trkpt lat="48.96569" lon="1.06854">
        <ele>278.5</ele>
        <time>2017-06-30T21:42:58Z</time>
      </trkpt>
      <trkpt lat="48.96556" lon="1.0686">
        <ele>278.4</ele>
        <time>2017-06-30T21:43:00Z</time>
      </trkpt>
      <trkpt lat="48.96543" lon="1.06866">
        <ele>278.4</ele>
        <time>2017-06-30T21:43:02Z</time>
      </trkpt>
      <trkpt lat="48.9653" lon="1.06873">
        <ele>278.5</ele>
        <time>2017-06-30T21:43:04Z</time>
      </trkpt>
      <trkpt lat="48.96518" lon="1.0688">
        <ele>278.5</ele>
        <time>2017-06-30T21:43:06Z</time>
      </trkpt>
      <trkpt lat="48.96504" lon="1.06886">
        <ele>278.3</ele>
        <time>2017-06-30T21:43:08Z</time>
      </trkpt>
      <trkpt lat="48.96491" lon="1.06893">
        <ele>278.2</ele>
        <time>2017-06-30T21:43:10Z</time>
      </trkpt>
      <trkpt lat="48.96478" lon="1.069">
        <ele>278</ele>
        <time>2017-06-30T21:43:12Z</time>
      </trkpt>
      <trkpt lat="48.96465" lon="1.06907">
        <ele>277.9</ele>
        <time>2017-06-30T21:43:14Z</time>
      </trkpt>
      <trkpt lat="48.96452" lon="1.06914">
        <ele>277.9</ele>
        <time>2017-06-30T21:43:16Z</time>
      </trkpt>
      <trkpt lat="48.96438" lon="1.0692">
        <ele>278</ele>
        <time>2017-06-30T21:43:18Z</time>
      </trkpt>
      <trkpt lat="48.96425" lon="1.06927">
        <ele>278.1</ele>
        <time>2017-06-30T21:43:20Z</time>
      </trkpt>
      <trkpt lat="48.96411" lon="1.06934">
        <ele>277.8</ele>
        <time>2017-06-30T21:43:22Z</time>
      </trkpt>
      <trkpt lat="48.96398" lon="1.06941">
        <ele>277.6</ele>
        <time>2017-06-30T21:43:24Z</time>
      </trkpt>
      <trkpt lat="48.96384" lon="1.06947">
        <ele>277.5</ele>
        <time>2017-06-30T21:43:26Z</time>
      </trkpt>
      <trkpt lat="48.9637" lon="1.06954">
        <ele>277.4</ele>
        <time>2017-06-30T21:43:28Z</time>
      </trkpt>
      <trkpt lat="48.96357" lon="1.06961">
        <ele>277.3</ele>
        <time>2017-06-30T21:43:30Z</time>
      </trkpt>
      <trkpt lat="48.96344" lon="1.06967">
        <ele>277.2</ele>
        <time>2017-06-30T21:43:32Z</time>
      </trkpt>
      <trkpt lat="48.9633" lon="1.06973">
        <ele>277.2</ele>
        <time>2017-06-30T21:43:34Z</time>
      </trkpt>
      <trkpt lat="48.96317" lon="1.06979">
        <ele>277.2</ele>
        <time>2017-06-30T21:43:36Z</time>
      </trkpt>
      <trkpt lat="48.96304" lon="1.06985">
        <ele>277.2</ele>
        <time>2017-06-30T21:43:38Z</time>
      </trkpt>
      <trkpt lat="48.9629" lon="1.06992">
        <ele>277.3</ele>
        <time>2017-06-30T21:43:40Z</time>
      </trkpt>
      <trkpt lat="48.96277" lon="1.07">
        <ele>277.4</ele>
        <time>2017-06-30T21:43:42Z</time>
      </trkpt>
      <trkpt lat="48.96265" lon="1.07009">
        <ele>277.5</ele>
        <time>2017-06-30T21:43:44Z</time>
      </trkpt>
      <trkpt lat="48.96253" lon="1.07018">
        <ele>277.6</ele>
        <time>2017-06-30T21:43:46Z</time>
      </trkpt>
      <trkpt lat="48.96243" lon="1.07028">
        <ele>277.6</ele>
        <time>2017-06-30T21:43:48Z</time>
      </trkpt>
      <trkpt lat="48.96233" lon="1.07037">
        <ele>277.8</ele>
        <time>2017-06-30T21:43:50Z</time>
      </trkpt>
      <trkpt lat="48.96224" lon="1.07046">
        <ele>277.8</ele>
        <time>2017-06-30T21:43:52Z</time>
      </trkpt>
      <trkpt lat="48.96217" lon="1.07055">
        <ele>278</ele>
        <time>2017-06-30T21:43:54Z</time>
      </trkpt>
      <trkpt lat="48.96206" lon="1.07065">
        <ele>278</ele>
        <time>2017-06-30T21:43:57Z</time>
      </trkpt>
      <trkpt lat="48.96194" lon="1.07073">
        <ele>278.1</ele>
        <time>2017-06-30T21:44:00Z</time>
      </trkpt>
      <trkpt lat="48.96184" lon="1.07079">
        <ele>278</ele>
        <time>2017-06-30T21:44:02Z</time>
      </trkpt>
      <trkpt lat="48.96174" lon="1.07085">
        <ele>277.9</ele>
        <time>2017-06-30T21:44:04Z</time>
      </trkpt>
      <trkpt lat="48.96164" lon="1.07092">
        <ele>278</ele>
        <time>2017-06-30T21:44:06Z</time>
      </trkpt>
      <trkpt lat="48.96154" lon="1.07098">
        <ele>278.1</ele>
        <time>2017-06-30T21:44:08Z</time>
      </trkpt>
      <trkpt lat="48.96144" lon="1.07104">
        <ele>278.3</ele>
        <time>2017-06-30T21:44:10Z</time>
      </trkpt>
      <trkpt lat="48.96134" lon="1.0711">
        <ele>278.5</ele>
        <time>2017-06-30T21:44:12Z</time>
      </trkpt>
      <trkpt lat="48.96123" lon="1.07116">
        <ele>278.5</ele>
        <time>2017-06-30T21:44:14Z</time>
      </trkpt>
      <trkpt lat="48.96112" lon="1.07122">
        <ele>278.5</ele>
        <time>2017-06-30T21:44:16Z</time>
      </trkpt>
      <trkpt lat="48.96102" lon="1.07128">
        <ele>278.7</ele>
        <time>2017-06-30T21:44:18Z</time>
      </trkpt>
      <trkpt lat="48.96091" lon="1.07134">
        <ele>278.8</ele>
        <time>2017-06-30T21:44:20Z</time>
      </trkpt>
      <trkpt lat="48.9608" lon="1.07141">
        <ele>279</ele>
        <time>2017-06-30T21:44:22Z</time>
      </trkpt>
      <trkpt lat="48.9607" lon="1.07147">
        <ele>279.3</ele>
        <time>2017-06-30T21:44:24Z</time>
      </trkpt>
      <trkpt lat="48.9606" lon="1.07152">
        <ele>279.4</ele>
        <time>2017-06-30T21:44:26Z</time>
      </trkpt>
      <trkpt lat="48.9605" lon="1.07158">
        <ele>279.7</ele>
        <time>2017-06-30T21:44:28Z</time>
      </trkpt>
      <trkpt lat="48.9604" lon="1.07164">
        <ele>279.8</ele>
        <time>2017-06-30T21:44:30Z</time>
      </trkpt>
      <trkpt lat="48.96029" lon="1.07169">
        <ele>279.7</ele>
        <time>2017-06-30T21:44:32Z</time>
      </trkpt>
      <trkpt lat="48.96019" lon="1.07175">
        <ele>279.9</ele>
        <time>2017-06-30T21:44:34Z</time>
      </trkpt>
      <trkpt lat="48.96008" lon="1.07181">
        <ele>280</ele>
        <time>2017-06-30T21:44:36Z</time>
      </trkpt>
      <trkpt lat="48.95997" lon="1.07188">
        <ele>280.3</ele>
        <time>2017-06-30T21:44:38Z</time>
      </trkpt>
      <trkpt lat="48.95986" lon="1.07195">
        <ele>280.7</ele>
        <time>2017-06-30T21:44:40Z</time>
      </trkpt>
      <trkpt lat="48.95976" lon="1.07202">
        <ele>280.9</ele>
        <time>2017-06-30T21:44:42Z</time>
      </trkpt>
      <trkpt lat="48.95965" lon="1.0721">
        <ele>280.9</ele>
        <time>2017-06-30T21:44:44Z</time>
      </trkpt>
      <trkpt lat="48.95955" lon="1.07218">
        <ele>280.9</ele>
        <time>2017-06-30T21:44:46Z</time>
      </trkpt>
      <trkpt lat="48.95945" lon="1.07225">
        <ele>281</ele>
        <time>2017-06-30T21:44:48Z</time>
      </trkpt>
      <trkpt lat="48.95935" lon="1.07232">
        <ele>281.2</ele>
        <time>2017-06-30T21:44:50Z</time>
      </trkpt>
      <trkpt lat="48.95925" lon="1.0724">
        <ele>281.4</ele>
        <time>2017-06-30T21:44:52Z</time>
      </trkpt>
      <trkpt lat="48.95915" lon="1.07247">
        <ele>281.2</ele>
        <time>2017-06-30T21:44:54Z</time>
      </trkpt>
      <trkpt lat="48.95905" lon="1.07254">
        <ele>281.3</ele>
        <time>2017-06-30T21:44:56Z</time>
      </trkpt>
      <trkpt lat="48.95895" lon="1.07261">
        <ele>281.7</ele>
        <time>2017-06-30T21:44:58Z</time>
      </trkpt>
      <trkpt lat="48.95884" lon="1.07268">
        <ele>281.9</ele>
        <time>2017-06-30T21:45:00Z</time>
      </trkpt>
      <trkpt lat="48.95874" lon="1.07275">
        <ele>282.4</ele>
        <time>2017-06-30T21:45:02Z</time>
      </trkpt>
      <trkpt lat="48.95864" lon="1.07282">
        <ele>282.3</ele>
        <time>2017-06-30T21:45:04Z</time>
      </trkpt>
      <trkpt lat="48.95854" lon="1.07289">
        <ele>282.4</ele>
        <time>2017-06-30T21:45:06Z</time>
      </trkpt>
      <trkpt lat="48.95843" lon="1.07296">
        <ele>282.5</ele>
        <time>2017-06-30T21:45:08Z</time>
      </trkpt>
      <trkpt lat="48.95833" lon="1.07303">
        <ele>282.7</ele>
        <time>2017-06-30T21:45:10Z</time>
      </trkpt>
      <trkpt lat="48.95822" lon="1.0731">
        <ele>283.1</ele>
        <time>2017-06-30T21:45:12Z</time>
      </trkpt>
      <trkpt lat="48.95812" lon="1.07316">
        <ele>283</ele>
        <time>2017-06-30T21:45:14Z</time>
      </trkpt>
      <trkpt lat="48.95802" lon="1.07323">
        <ele>283.6</ele>
        <time>2017-06-30T21:45:16Z</time>
      </trkpt>
      <trkpt lat="48.95792" lon="1.0733">
        <ele>283.9</ele>
        <time>2017-06-30T21:45:18Z</time>
      </trkpt>
      <trkpt lat="48.95782" lon="1.07338">
        <ele>284.2</ele>
        <time>2017-06-30T21:45:20Z</time>
      </trkpt>
      <trkpt lat="48.95772" lon="1.07346">
        <ele>284.2</ele>
        <time>2017-06-30T21:45:22Z</time>
      </trkpt>
      <trkpt lat="48.95762" lon="1.07355">
        <ele>284.4</ele>
        <time>2017-06-30T21:45:24Z</time>
      </trkpt>
      <trkpt lat="48.95752" lon="1.07364">
        <ele>284.4</ele>
        <time>2017-06-30T21:45:26Z</time>
      </trkpt>
      <trkpt lat="48.95742" lon="1.07373">
        <ele>284.1</ele>
        <time>2017-06-30T21:45:28Z</time>
      </trkpt>
      <trkpt lat="48.95732" lon="1.07382">
        <ele>283.8</ele>
        <time>2017-06-30T21:45:30Z</time>
      </trkpt>
      <trkpt lat="48.95721" lon="1.07391">
        <ele>283.7</ele>
        <time>2017-06-30T21:45:32Z</time>
      </trkpt>
      <trkpt lat="48.95711" lon="1.07399">
        <ele>283.4</ele>
        <time>2017-06-30T21:45:34Z</time>
      </trkpt>
      <trkpt lat="48.957" lon="1.07408">
        <ele>283.6</ele>
        <time>2017-06-30T21:45:36Z</time>
      </trkpt>
      <trkpt lat="48.95688" lon="1.07418">
        <ele>283.7</ele>
        <time>2017-06-30T21:45:38Z</time>
      </trkpt>
      <trkpt lat="48.95677" lon="1.07427">
        <ele>283.4</ele>
        <time>2017-06-30T21:45:40Z</time>
      </trkpt>
      <trkpt lat="48.95666" lon="1.07436">
        <ele>283.2</ele>
        <time>2017-06-30T21:45:42Z</time>
      </trkpt>
      <trkpt lat="48.95656" lon="1.07446">
        <ele>283.3</ele>
        <time>2017-06-30T21:45:44Z</time>
      </trkpt>
      <trkpt lat="48.95645" lon="1.07456">
        <ele>283.4</ele>
        <time>2017-06-30T21:45:46Z</time>
      </trkpt>
      <trkpt lat="48.95634" lon="1.07467">
        <ele>283.4</ele>
        <time>2017-06-30T21:45:48Z</time>
      </trkpt>
      <trkpt lat="48.95624" lon="1.07479">
        <ele>283.1</ele>
        <time>2017-06-30T21:45:50Z</time>
      </trkpt>
      <trkpt lat="48.95615" lon="1.0749">
        <ele>282.7</ele>
        <time>2017-06-30T21:45:52Z</time>
      </trkpt>
      <trkpt lat="48.95605" lon="1.075">
        <ele>282.8</ele>
        <time>2017-06-30T21:45:55Z</time>
      </trkpt>
      <trkpt lat="48.95598" lon="1.07488">
        <ele>282.7</ele>
        <time>2017-06-30T21:45:59Z</time>
      </trkpt>
      <trkpt lat="48.95595" lon="1.07472">
        <ele>282.7</ele>
        <time>2017-06-30T21:46:02Z</time>
      </trkpt>
      <trkpt lat="48.95591" lon="1.07455">
        <ele>282.7</ele>
        <time>2017-06-30T21:46:05Z</time>
      </trkpt>
      <trkpt lat="48.95588" lon="1.07437">
        <ele>282.6</ele>
        <time>2017-06-30T21:46:08Z</time>
      </trkpt>
      <trkpt lat="48.95583" lon="1.07421">
        <ele>282.7</ele>
        <time>2017-06-30T21:46:11Z</time>
      </trkpt>
      <trkpt lat="48.95574" lon="1.07417">
        <ele>282.8</ele>
        <time>2017-06-30T21:46:14Z</time>
      </trkpt>
      <trkpt lat="48.95563" lon="1.07421">
        <ele>282.7</ele>
        <time>2017-06-30T21:46:17Z</time>
      </trkpt>
      <trkpt lat="48.95551" lon="1.07427">
        <ele>282.5</ele>
        <time>2017-06-30T21:46:20Z</time>
      </trkpt>
      <trkpt lat="48.95542" lon="1.07432">
        <ele>282.3</ele>
        <time>2017-06-30T21:46:22Z</time>
      </trkpt>
      <trkpt lat="48.95533" lon="1.07436">
        <ele>282.3</ele>
        <time>2017-06-30T21:46:24Z</time>
      </trkpt>
      <trkpt lat="48.95523" lon="1.07439">
        <ele>282</ele>
        <time>2017-06-30T21:46:26Z</time>
      </trkpt>
      <trkpt lat="48.95513" lon="1.07441">
        <ele>281.9</ele>
        <time>2017-06-30T21:46:28Z</time>
      </trkpt>
      <trkpt lat="48.95504" lon="1.07441">
        <ele>281.5</ele>
        <time>2017-06-30T21:46:30Z</time>
      </trkpt>
      <trkpt lat="48.95494" lon="1.07441">
        <ele>281.5</ele>
        <time>2017-06-30T21:46:32Z</time>
      </trkpt>
      <trkpt lat="48.95484" lon="1.07441">
        <ele>281.3</ele>
        <time>2017-06-30T21:46:34Z</time>
      </trkpt>
      <trkpt lat="48.95475" lon="1.07445">
        <ele>281.4</ele>
        <time>2017-06-30T21:46:36Z</time>
      </trkpt>
      <trkpt lat="48.95464" lon="1.07456">
        <ele>281.3</ele>
        <time>2017-06-30T21:46:39Z</time>
      </trkpt>
      <trkpt lat="48.95453" lon="1.0747">
        <ele>281.2</ele>
        <time>2017-06-30T21:46:42Z</time>
      </trkpt>
      <trkpt lat="48.95446" lon="1.0748">
        <ele>281.1</ele>
        <time>2017-06-30T21:46:44Z</time>
      </trkpt>
      <trkpt lat="48.95439" lon="1.07491">
        <ele>281.1</ele>
        <time>2017-06-30T21:46:46Z</time>
      </trkpt>
      <trkpt lat="48.95431" lon="1.07501">
        <ele>281</ele>
        <time>2017-06-30T21:46:48Z</time>
      </trkpt>
      <trkpt lat="48.95423" lon="1.07511">
        <ele>280.7</ele>
        <time>2017-06-30T21:46:50Z</time>
      </trkpt>
      <trkpt lat="48.95414" lon="1.07519">
        <ele>280.7</ele>
        <time>2017-06-30T21:46:52Z</time>
      </trkpt>
      <trkpt lat="48.95405" lon="1.07525">
        <ele>280.6</ele>
        <time>2017-06-30T21:46:54Z</time>
      </trkpt>
      <trkpt lat="48.95395" lon="1.07531">
        <ele>280.3</ele>
        <time>2017-06-30T21:46:56Z</time>
      </trkpt>
      <trkpt lat="48.95386" lon="1.07535">
        <ele>280</ele>
        <time>2017-06-30T21:46:58Z</time>
      </trkpt>
      <trkpt lat="48.95376" lon="1.0754">
        <ele>279.8</ele>
        <time>2017-06-30T21:47:00Z</time>
      </trkpt>
      <trkpt lat="48.95365" lon="1.07547">
        <ele>279.7</ele>
        <time>2017-06-30T21:47:02Z</time>
      </trkpt>
      <trkpt lat="48.95356" lon="1.07556">
        <ele>279.8</ele>
        <time>2017-06-30T21:47:04Z</time>
      </trkpt>
      <trkpt lat="48.95352" lon="1.07568">
        <ele>280</ele>
        <time>2017-06-30T21:47:06Z</time>
      </trkpt>
      <trkpt lat="48.95351" lon="1.07586">
        <ele>280</ele>
        <time>2017-06-30T21:47:09Z</time>
      </trkpt>
      <trkpt lat="48.9535" lon="1.07604">
        <ele>280</ele>
        <time>2017-06-30T21:47:12Z</time>
      </trkpt>
      <trkpt lat="48.95349" lon="1.07618">
        <ele>279.9</ele>
        <time>2017-06-30T21:47:14Z</time>
      </trkpt>
      <trkpt lat="48.95349" lon="1.07633">
        <ele>280</ele>
        <time>2017-06-30T21:47:16Z</time>
      </trkpt>
      <trkpt lat="48.95349" lon="1.07648">
        <ele>279.9</ele>
        <time>2017-06-30T21:47:18Z</time>
      </trkpt>
      <trkpt lat="48.95348" lon="1.07662">
        <ele>279.7</ele>
        <time>2017-06-30T21:47:20Z</time>
      </trkpt>
      <trkpt lat="48.95347" lon="1.07677">
        <ele>279.7</ele>
        <time>2017-06-30T21:47:22Z</time>
      </trkpt>
      <trkpt lat="48.95344" lon="1.07693">
        <ele>279.9</ele>
        <time>2017-06-30T21:47:24Z</time>
      </trkpt>
      <trkpt lat="48.95342" lon="1.07709">
        <ele>279.8</ele>
        <time>2017-06-30T21:47:26Z</time>
      </trkpt>
      <trkpt lat="48.9534" lon="1.07725">
        <ele>279.8</ele>
        <time>2017-06-30T21:47:28Z</time>
      </trkpt>
      <trkpt lat="48.95337" lon="1.0774">
        <ele>279.7</ele>
        <time>2017-06-30T21:47:30Z</time>
      </trkpt>
      <trkpt lat="48.95334" lon="1.07756">
        <ele>279.6</ele>
        <time>2017-06-30T21:47:32Z</time>
      </trkpt>
      <trkpt lat="48.9533" lon="1.07772">
        <ele>279.5</ele>
        <time>2017-06-30T21:47:34Z</time>
      </trkpt>
      <trkpt lat="48.95327" lon="1.07788">
        <ele>279.5</ele>
        <time>2017-06-30T21:47:36Z</time>
      </trkpt>
      <trkpt lat="48.95325" lon="1.07804">
        <ele>279.7</ele>
        <time>2017-06-30T21:47:38Z</time>
      </trkpt>
      <trkpt lat="48.95323" lon="1.0782">
        <ele>279.8</ele>
        <time>2017-06-30T21:47:40Z</time>
      </trkpt>
      <trkpt lat="48.95323" lon="1.07837">
        <ele>280</ele>
        <time>2017-06-30T21:47:43Z</time>
      </trkpt>
      <trkpt lat="48.95325" lon="1.07853">
        <ele>280.4</ele>
        <time>2017-06-30T21:47:47Z</time>
      </trkpt>
      <trkpt lat="48.95332" lon="1.07865">
        <ele>280.6</ele>
        <time>2017-06-30T21:47:52Z</time>
      </trkpt>
      <trkpt lat="48.95341" lon="1.07874">
        <ele>280.7</ele>
        <time>2017-06-30T21:47:56Z</time>
      </trkpt>
      <trkpt lat="48.9535" lon="1.07885">
        <ele>280.8</ele>
        <time>2017-06-30T21:48:00Z</time>
      </trkpt>
      <trkpt lat="48.95358" lon="1.07896">
        <ele>280.9</ele>
        <time>2017-06-30T21:48:04Z</time>
      </trkpt>
      <trkpt lat="48.95365" lon="1.07905">
        <ele>281</ele>
        <time>2017-06-30T21:48:07Z</time>
      </trkpt>
      <trkpt lat="48.95372" lon="1.07914">
        <ele>281.2</ele>
        <time>2017-06-30T21:48:10Z</time>
      </trkpt>
      <trkpt lat="48.95381" lon="1.07924">
        <ele>281</ele>
        <time>2017-06-30T21:48:14Z</time>
      </trkpt>
      <trkpt lat="48.95391" lon="1.07925">
        <ele>281</ele>
        <time>2017-06-30T21:48:18Z</time>
      </trkpt>
      <trkpt lat="48.95401" lon="1.07923">
        <ele>280.9</ele>
        <time>2017-06-30T21:48:21Z</time>
      </trkpt>
      <trkpt lat="48.95414" lon="1.07922">
        <ele>280.7</ele>
        <time>2017-06-30T21:48:24Z</time>
      </trkpt>
      <trkpt lat="48.95427" lon="1.07924">
        <ele>280.8</ele>
        <time>2017-06-30T21:48:27Z</time>
      </trkpt>
      <trkpt lat="48.95439" lon="1.07934">
        <ele>280.7</ele>
        <time>2017-06-30T21:48:30Z</time>
      </trkpt>
      <trkpt lat="48.95446" lon="1.07942">
        <ele>280.6</ele>
        <time>2017-06-30T21:48:32Z</time>
      </trkpt>
      <trkpt lat="48.95454" lon="1.07951">
        <ele>280.7</ele>
        <time>2017-06-30T21:48:34Z</time>
      </trkpt>
      <trkpt lat="48.95462" lon="1.07959">
        <ele>280.7</ele>
        <time>2017-06-30T21:48:36Z</time>
      </trkpt>
      <trkpt lat="48.95469" lon="1.07967">
        <ele>280.7</ele>
        <time>2017-06-30T21:48:38Z</time>
      </trkpt>
      <trkpt lat="48.95477" lon="1.07975">
        <ele>280.8</ele>
        <time>2017-06-30T21:48:40Z</time>
      </trkpt>
      <trkpt lat="48.95486" lon="1.07982">
        <ele>280.8</ele>
        <time>2017-06-30T21:48:42Z</time>
      </trkpt>
      <trkpt lat="48.95494" lon="1.07989">
        <ele>280.9</ele>
        <time>2017-06-30T21:48:44Z</time>
      </trkpt>
      <trkpt lat="48.95503" lon="1.07998">
        <ele>281</ele>
        <time>2017-06-30T21:48:46Z</time>
      </trkpt>
      <trkpt lat="48.95509" lon="1.08009">
        <ele>281</ele>
        <time>2017-06-30T21:48:48Z</time>
      </trkpt>
      <trkpt lat="48.95515" lon="1.08022">
        <ele>280.9</ele>
        <time>2017-06-30T21:48:50Z</time>
      </trkpt>
      <trkpt lat="48.9552" lon="1.08035">
        <ele>280.9</ele>
        <time>2017-06-30T21:48:52Z</time>
      </trkpt>
      <trkpt lat="48.95525" lon="1.08048">
        <ele>280.9</ele>
        <time>2017-06-30T21:48:54Z</time>
      </trkpt>
      <trkpt lat="48.95529" lon="1.08061">
        <ele>281.1</ele>
        <time>2017-06-30T21:48:56Z</time>
      </trkpt>
      <trkpt lat="48.95532" lon="1.08075">
        <ele>281.3</ele>
        <time>2017-06-30T21:48:58Z</time>
      </trkpt>
      <trkpt lat="48.95536" lon="1.08089">
        <ele>281.5</ele>
        <time>2017-06-30T21:49:00Z</time>
      </trkpt>
      <trkpt lat="48.95539" lon="1.08104">
        <ele>281.6</ele>
        <time>2017-06-30T21:49:02Z</time>
      </trkpt>
      <trkpt lat="48.95542" lon="1.08119">
        <ele>281.7</ele>
        <time>2017-06-30T21:49:04Z</time>
      </trkpt>
      <trkpt lat="48.95547" lon="1.08133">
        <ele>281.9</ele>
        <time>2017-06-30T21:49:06Z</time>
      </trkpt>
      <trkpt lat="48.95553" lon="1.08145">
        <ele>282</ele>
        <time>2017-06-30T21:49:08Z</time>
      </trkpt>
      <trkpt lat="48.95559" lon="1.08157">
        <ele>282.1</ele>
        <time>2017-06-30T21:49:10Z</time>
      </trkpt>
      <trkpt lat="48.95567" lon="1.0817">
        <ele>282</ele>
        <time>2017-06-30T21:49:12Z</time>
      </trkpt>
      <trkpt lat="48.95576" lon="1.08183">
        <ele>282</ele>
        <time>2017-06-30T21:49:14Z</time>
      </trkpt>
      <trkpt lat="48.95585" lon="1.08196">
        <ele>282</ele>
        <time>2017-06-30T21:49:16Z</time>
      </trkpt>
      <trkpt lat="48.95594" lon="1.08209">
        <ele>281.9</ele>
        <time>2017-06-30T21:49:18Z</time>
      </trkpt>
      <trkpt lat="48.95603" lon="1.08223">
        <ele>281.7</ele>
        <time>2017-06-30T21:49:20Z</time>
      </trkpt>
      <trkpt lat="48.95612" lon="1.08236">
        <ele>281.6</ele>
        <time>2017-06-30T21:49:22Z</time>
      </trkpt>
      <trkpt lat="48.95619" lon="1.08251">
        <ele>281.3</ele>
        <time>2017-06-30T21:49:24Z</time>
      </trkpt>
      <trkpt lat="48.95626" lon="1.08266">
        <ele>281</ele>
        <time>2017-06-30T21:49:26Z</time>
      </trkpt>
      <trkpt lat="48.95633" lon="1.08281">
        <ele>280.7</ele>
        <time>2017-06-30T21:49:28Z</time>
      </trkpt>
      <trkpt lat="48.95641" lon="1.08292">
        <ele>280.5</ele>
        <time>2017-06-30T21:49:30Z</time>
      </trkpt>
      <trkpt lat="48.95652" lon="1.08298">
        <ele>280.3</ele>
        <time>2017-06-30T21:49:32Z</time>
      </trkpt>
      <trkpt lat="48.95664" lon="1.08301">
        <ele>280.1</ele>
        <time>2017-06-30T21:49:34Z</time>
      </trkpt>
      <trkpt lat="48.95676" lon="1.08302">
        <ele>279.8</ele>
        <time>2017-06-30T21:49:36Z</time>
      </trkpt>
      <trkpt lat="48.95689" lon="1.08301">
        <ele>279.5</ele>
        <time>2017-06-30T21:49:38Z</time>
      </trkpt>
      <trkpt lat="48.95701" lon="1.083">
        <ele>279.1</ele>
        <time>2017-06-30T21:49:40Z</time>
      </trkpt>
      <trkpt lat="48.95713" lon="1.08297">
        <ele>279</ele>
        <time>2017-06-30T21:49:42Z</time>
      </trkpt>
      <trkpt lat="48.95724" lon="1.08293">
        <ele>278.6</ele>
        <time>2017-06-30T21:49:44Z</time>
      </trkpt>
      <trkpt lat="48.95736" lon="1.08288">
        <ele>278.2</ele>
        <time>2017-06-30T21:49:46Z</time>
      </trkpt>
      <trkpt lat="48.95748" lon="1.08283">
        <ele>277.8</ele>
        <time>2017-06-30T21:49:48Z</time>
      </trkpt>
      <trkpt lat="48.95761" lon="1.08278">
        <ele>277.5</ele>
        <time>2017-06-30T21:49:50Z</time>
      </trkpt>
      <trkpt lat="48.95773" lon="1.08274">
        <ele>277.4</ele>
        <time>2017-06-30T21:49:52Z</time>
      </trkpt>
      <trkpt lat="48.95786" lon="1.0827">
        <ele>277.1</ele>
        <time>2017-06-30T21:49:54Z</time>
      </trkpt>
      <trkpt lat="48.95798" lon="1.0827">
        <ele>276.7</ele>
        <time>2017-06-30T21:49:56Z</time>
      </trkpt>
      <trkpt lat="48.95809" lon="1.08278">
        <ele>276.4</ele>
        <time>2017-06-30T21:49:58Z</time>
      </trkpt>
      <trkpt lat="48.95819" lon="1.08289">
        <ele>276.2</ele>
        <time>2017-06-30T21:50:00Z</time>
      </trkpt>
      <trkpt lat="48.95828" lon="1.08302">
        <ele>276.1</ele>
        <time>2017-06-30T21:50:02Z</time>
      </trkpt>
      <trkpt lat="48.95838" lon="1.08316">
        <ele>276</ele>
        <time>2017-06-30T21:50:04Z</time>
      </trkpt>
      <trkpt lat="48.95848" lon="1.08329">
        <ele>275.8</ele>
        <time>2017-06-30T21:50:06Z</time>
      </trkpt>
      <trkpt lat="48.95858" lon="1.08342">
        <ele>275.5</ele>
        <time>2017-06-30T21:50:08Z</time>
      </trkpt>
      <trkpt lat="48.95868" lon="1.08355">
        <ele>275.1</ele>
        <time>2017-06-30T21:50:10Z</time>
      </trkpt>
      <trkpt lat="48.95879" lon="1.08367">
        <ele>274.9</ele>
        <time>2017-06-30T21:50:12Z</time>
      </trkpt>
      <trkpt lat="48.95889" lon="1.0838">
        <ele>274.6</ele>
        <time>2017-06-30T21:50:14Z</time>
      </trkpt>
      <trkpt lat="48.959" lon="1.08391">
        <ele>274.4</ele>
        <time>2017-06-30T21:50:16Z</time>
      </trkpt>
      <trkpt lat="48.95912" lon="1.08402">
        <ele>274.3</ele>
        <time>2017-06-30T21:50:18Z</time>
      </trkpt>
      <trkpt lat="48.95924" lon="1.08412">
        <ele>274</ele>
        <time>2017-06-30T21:50:20Z</time>
      </trkpt>
      <trkpt lat="48.95935" lon="1.08423">
        <ele>273.7</ele>
        <time>2017-06-30T21:50:22Z</time>
      </trkpt>
      <trkpt lat="48.95946" lon="1.08434">
        <ele>273.3</ele>
        <time>2017-06-30T21:50:24Z</time>
      </trkpt>
      <trkpt lat="48.95957" lon="1.08445">
        <ele>273</ele>
        <time>2017-06-30T21:50:26Z</time>
      </trkpt>
      <trkpt lat="48.95968" lon="1.08456">
        <ele>272.7</ele>
        <time>2017-06-30T21:50:28Z</time>
      </trkpt>
      <trkpt lat="48.95979" lon="1.08469">
        <ele>272.5</ele>
        <time>2017-06-30T21:50:30Z</time>
      </trkpt>
      <trkpt lat="48.95989" lon="1.08482">
        <ele>272.1</ele>
        <time>2017-06-30T21:50:32Z</time>
      </trkpt>
      <trkpt lat="48.95999" lon="1.08495">
        <ele>271.9</ele>
        <time>2017-06-30T21:50:34Z</time>
      </trkpt>
      <trkpt lat="48.96009" lon="1.08508">
        <ele>271.6</ele>
        <time>2017-06-30T21:50:36Z</time>
      </trkpt>
      <trkpt lat="48.96018" lon="1.08521">
        <ele>271.2</ele>
        <time>2017-06-30T21:50:38Z</time>
      </trkpt>
      <trkpt lat="48.96028" lon="1.08534">
        <ele>270.8</ele>
        <time>2017-06-30T21:50:40Z</time>
      </trkpt>
      <trkpt lat="48.96039" lon="1.08547">
        <ele>270.3</ele>
        <time>2017-06-30T21:50:42Z</time>
      </trkpt>
      <trkpt lat="48.9605" lon="1.08562">
        <ele>269.9</ele>
        <time>2017-06-30T21:50:44Z</time>
      </trkpt>
      <trkpt lat="48.9606" lon="1.08576">
        <ele>269.4</ele>
        <time>2017-06-30T21:50:46Z</time>
      </trkpt>
      <trkpt lat="48.96068" lon="1.0859">
        <ele>269</ele>
        <time>2017-06-30T21:50:48Z</time>
      </trkpt>
      <trkpt lat="48.96077" lon="1.08602">
        <ele>268.6</ele>
        <time>2017-06-30T21:50:50Z</time>
      </trkpt>
      <trkpt lat="48.96087" lon="1.08619">
        <ele>268.3</ele>
        <time>2017-06-30T21:50:52Z</time>
      </trkpt>
      <trkpt lat="48.96091" lon="1.08635">
        <ele>267.9</ele>
        <time>2017-06-30T21:50:54Z</time>
      </trkpt>
      <trkpt lat="48.96099" lon="1.08655">
        <ele>267.8</ele>
        <time>2017-06-30T21:50:56Z</time>
      </trkpt>
      <trkpt lat="48.96103" lon="1.08673">
        <ele>267.8</ele>
        <time>2017-06-30T21:50:58Z</time>
      </trkpt>
      <trkpt lat="48.96104" lon="1.08688">
        <ele>268</ele>
        <time>2017-06-30T21:51:00Z</time>
      </trkpt>
      <trkpt lat="48.96109" lon="1.08708">
        <ele>268.2</ele>
        <time>2017-06-30T21:51:02Z</time>
      </trkpt>
      <trkpt lat="48.96117" lon="1.08727">
        <ele>268.4</ele>
        <time>2017-06-30T21:51:04Z</time>
      </trkpt>
      <trkpt lat="48.96123" lon="1.08743">
        <ele>268.5</ele>
        <time>2017-06-30T21:51:06Z</time>
      </trkpt>
      <trkpt lat="48.96127" lon="1.08758">
        <ele>268.6</ele>
        <time>2017-06-30T21:51:08Z</time>
      </trkpt>
      <trkpt lat="48.96135" lon="1.08774">
        <ele>268.7</ele>
        <time>2017-06-30T21:51:10Z</time>
      </trkpt>
      <trkpt lat="48.96141" lon="1.08788">
        <ele>268.8</ele>
        <time>2017-06-30T21:51:12Z</time>
      </trkpt>
      <trkpt lat="48.96151" lon="1.08801">
        <ele>268.9</ele>
        <time>2017-06-30T21:51:15Z</time>
      </trkpt>
      <trkpt lat="48.9616" lon="1.08811">
        <ele>268.8</ele>
        <time>2017-06-30T21:51:17Z</time>
      </trkpt>
      <trkpt lat="48.96167" lon="1.08827">
        <ele>268.7</ele>
        <time>2017-06-30T21:51:19Z</time>
      </trkpt>
      <trkpt lat="48.96175" lon="1.08839">
        <ele>268.6</ele>
        <time>2017-06-30T21:51:21Z</time>
      </trkpt>
      <trkpt lat="48.96184" lon="1.08849">
        <ele>268.3</ele>
        <time>2017-06-30T21:51:23Z</time>
      </trkpt>
      <trkpt lat="48.96189" lon="1.0886">
        <ele>268</ele>
        <time>2017-06-30T21:51:25Z</time>
      </trkpt>
      <trkpt lat="48.96196" lon="1.08875">
        <ele>267.9</ele>
        <time>2017-06-30T21:51:27Z</time>
      </trkpt>
      <trkpt lat="48.96207" lon="1.08895">
        <ele>267.7</ele>
        <time>2017-06-30T21:51:29Z</time>
      </trkpt>
      <trkpt lat="48.96216" lon="1.08913">
        <ele>267.3</ele>
        <time>2017-06-30T21:51:31Z</time>
      </trkpt>
      <trkpt lat="48.96224" lon="1.08931">
        <ele>267</ele>
        <time>2017-06-30T21:51:33Z</time>
      </trkpt>
      <trkpt lat="48.96234" lon="1.08948">
        <ele>266.6</ele>
        <time>2017-06-30T21:51:35Z</time>
      </trkpt>
      <trkpt lat="48.96243" lon="1.08963">
        <ele>266.3</ele>
        <time>2017-06-30T21:51:37Z</time>
      </trkpt>
      <trkpt lat="48.96256" lon="1.08973">
        <ele>265.9</ele>
        <time>2017-06-30T21:51:39Z</time>
      </trkpt>
      <trkpt lat="48.96264" lon="1.08989">
        <ele>265.7</ele>
        <time>2017-06-30T21:51:41Z</time>
      </trkpt>
      <trkpt lat="48.96272" lon="1.09005">
        <ele>265.5</ele>
        <time>2017-06-30T21:51:43Z</time>
      </trkpt>
      <trkpt lat="48.9628" lon="1.09021">
        <ele>265.1</ele>
        <time>2017-06-30T21:51:45Z</time>
      </trkpt>
      <trkpt lat="48.96285" lon="1.0904">
        <ele>264.8</ele>
        <time>2017-06-30T21:51:47Z</time>
      </trkpt>
      <trkpt lat="48.96293" lon="1.09054">
        <ele>264.5</ele>
        <time>2017-06-30T21:51:49Z</time>
      </trkpt>
      <trkpt lat="48.96302" lon="1.09069">
        <ele>264.3</ele>
        <time>2017-06-30T21:51:51Z</time>
      </trkpt>
      <trkpt lat="48.96311" lon="1.09083">
        <ele>264.1</ele>
        <time>2017-06-30T21:51:53Z</time>
      </trkpt>
      <trkpt lat="48.96319" lon="1.09099">
        <ele>263.7</ele>
        <time>2017-06-30T21:51:55Z</time>
      </trkpt>
      <trkpt lat="48.96327" lon="1.09115">
        <ele>263.2</ele>
        <time>2017-06-30T21:51:57Z</time>
      </trkpt>
      <trkpt lat="48.96336" lon="1.09129">
        <ele>262.9</ele>
        <time>2017-06-30T21:51:59Z</time>
      </trkpt>
      <trkpt lat="48.96345" lon="1.09147">
        <ele>262.7</ele>
        <time>2017-06-30T21:52:01Z</time>
      </trkpt>
      <trkpt lat="48.96353" lon="1.09164">
        <ele>262.4</ele>
        <time>2017-06-30T21:52:03Z</time>
      </trkpt>
      <trkpt lat="48.96361" lon="1.09178">
        <ele>262.2</ele>
        <time>2017-06-30T21:52:05Z</time>
      </trkpt>
      <trkpt lat="48.96368" lon="1.09191">
        <ele>262.1</ele>
        <time>2017-06-30T21:52:07Z</time>
      </trkpt>
      <trkpt lat="48.96374" lon="1.09204">
        <ele>262.2</ele>
        <time>2017-06-30T21:52:09Z</time>
      </trkpt>
      <trkpt lat="48.96382" lon="1.0922">
        <ele>262.5</ele>
        <time>2017-06-30T21:52:12Z</time>
      </trkpt>
      <trkpt lat="48.96391" lon="1.09234">
        <ele>263</ele>
        <time>2017-06-30T21:52:14Z</time>
      </trkpt>
      <trkpt lat="48.96399" lon="1.09248">
        <ele>263.5</ele>
        <time>2017-06-30T21:52:16Z</time>
      </trkpt>
      <trkpt lat="48.96407" lon="1.09257">
        <ele>263.9</ele>
        <time>2017-06-30T21:52:18Z</time>
      </trkpt>
      <trkpt lat="48.96413" lon="1.09269">
        <ele>264.5</ele>
        <time>2017-06-30T21:52:20Z</time>
      </trkpt>
      <trkpt lat="48.96419" lon="1.09279">
        <ele>265.2</ele>
        <time>2017-06-30T21:52:22Z</time>
      </trkpt>
      <trkpt lat="48.96427" lon="1.09293">
        <ele>265.7</ele>
        <time>2017-06-30T21:52:24Z</time>
      </trkpt>
      <trkpt lat="48.96433" lon="1.09306">
        <ele>266.4</ele>
        <time>2017-06-30T21:52:26Z</time>
      </trkpt>
      <trkpt lat="48.96439" lon="1.09318">
        <ele>266.9</ele>
        <time>2017-06-30T21:52:28Z</time>
      </trkpt>
      <trkpt lat="48.96448" lon="1.09333">
        <ele>267.2</ele>
        <time>2017-06-30T21:52:30Z</time>
      </trkpt>
      <trkpt lat="48.96456" lon="1.09346">
        <ele>267.3</ele>
        <time>2017-06-30T21:52:32Z</time>
      </trkpt>
      <trkpt lat="48.96464" lon="1.09364">
        <ele>267.5</ele>
        <time>2017-06-30T21:52:34Z</time>
      </trkpt>
      <trkpt lat="48.96471" lon="1.09378">
        <ele>267.4</ele>
        <time>2017-06-30T21:52:36Z</time>
      </trkpt>
      <trkpt lat="48.96481" lon="1.09392">
        <ele>267.3</ele>
        <time>2017-06-30T21:52:38Z</time>
      </trkpt>
      <trkpt lat="48.96489" lon="1.09408">
        <ele>267.2</ele>
        <time>2017-06-30T21:52:40Z</time>
      </trkpt>
      <trkpt lat="48.96496" lon="1.09422">
        <ele>267.1</ele>
        <time>2017-06-30T21:52:42Z</time>
      </trkpt>
      <trkpt lat="48.96506" lon="1.09438">
        <ele>267</ele>
        <time>2017-06-30T21:52:44Z</time>
      </trkpt>
      <trkpt lat="48.96517" lon="1.09452">
        <ele>267</ele>
        <time>2017-06-30T21:52:46Z</time>
      </trkpt>
      <trkpt lat="48.96528" lon="1.09463">
        <ele>266.9</ele>
        <time>2017-06-30T21:52:48Z</time>
      </trkpt>
      <trkpt lat="48.9654" lon="1.09472">
        <ele>266.9</ele>
        <time>2017-06-30T21:52:50Z</time>
      </trkpt>
      <trkpt lat="48.9655" lon="1.09483">
        <ele>266.9</ele>
        <time>2017-06-30T21:52:52Z</time>
      </trkpt>
      <trkpt lat="48.96564" lon="1.0949">
        <ele>267</ele>
        <time>2017-06-30T21:52:54Z</time>
      </trkpt>
      <trkpt lat="48.96575" lon="1.09496">
        <ele>267.1</ele>
        <time>2017-06-30T21:52:56Z</time>
      </trkpt>
      <trkpt lat="48.96586" lon="1.09502">
        <ele>267.2</ele>
        <time>2017-06-30T21:52:58Z</time>
      </trkpt>
      <trkpt lat="48.96598" lon="1.09508">
        <ele>267.3</ele>
        <time>2017-06-30T21:53:00Z</time>
      </trkpt>
      <trkpt lat="48.9661" lon="1.09515">
        <ele>267.4</ele>
        <time>2017-06-30T21:53:02Z</time>
      </trkpt>
      <trkpt lat="48.96623" lon="1.09522">
        <ele>267.3</ele>
        <time>2017-06-30T21:53:04Z</time>
      </trkpt>
      <trkpt lat="48.96635" lon="1.09528">
        <ele>267.5</ele>
        <time>2017-06-30T21:53:06Z</time>
      </trkpt>
      <trkpt lat="48.96647" lon="1.09534">
        <ele>267.8</ele>
        <time>2017-06-30T21:53:08Z</time>
      </trkpt>
      <trkpt lat="48.96658" lon="1.0954">
        <ele>268.1</ele>
        <time>2017-06-30T21:53:10Z</time>
      </trkpt>
      <trkpt lat="48.9667" lon="1.09545">
        <ele>268.2</ele>
        <time>2017-06-30T21:53:12Z</time>
      </trkpt>
      <trkpt lat="48.96682" lon="1.09551">
        <ele>268.4</ele>
        <time>2017-06-30T21:53:14Z</time>
      </trkpt>
      <trkpt lat="48.96694" lon="1.09557">
        <ele>268.3</ele>
        <time>2017-06-30T21:53:16Z</time>
      </trkpt>
      <trkpt lat="48.96706" lon="1.09563">
        <ele>268.5</ele>
        <time>2017-06-30T21:53:18Z</time>
      </trkpt>
      <trkpt lat="48.96717" lon="1.0957">
        <ele>268.8</ele>
        <time>2017-06-30T21:53:20Z</time>
      </trkpt>
      <trkpt lat="48.96729" lon="1.09575">
        <ele>268.8</ele>
        <time>2017-06-30T21:53:22Z</time>
      </trkpt>
      <trkpt lat="48.96741" lon="1.0958">
        <ele>269.1</ele>
        <time>2017-06-30T21:53:24Z</time>
      </trkpt>
      <trkpt lat="48.96752" lon="1.09585">
        <ele>269.3</ele>
        <time>2017-06-30T21:53:26Z</time>
      </trkpt>
      <trkpt lat="48.96763" lon="1.09587">
        <ele>269.7</ele>
        <time>2017-06-30T21:53:28Z</time>
      </trkpt>
      <trkpt lat="48.96774" lon="1.09588">
        <ele>270.1</ele>
        <time>2017-06-30T21:53:30Z</time>
      </trkpt>
      <trkpt lat="48.96786" lon="1.0959">
        <ele>270.4</ele>
        <time>2017-06-30T21:53:32Z</time>
      </trkpt>
      <trkpt lat="48.96797" lon="1.09592">
        <ele>270.8</ele>
        <time>2017-06-30T21:53:34Z</time>
      </trkpt>
      <trkpt lat="48.96809" lon="1.09596">
        <ele>271.2</ele>
        <time>2017-06-30T21:53:36Z</time>
      </trkpt>
      <trkpt lat="48.9682" lon="1.09598">
        <ele>271.5</ele>
        <time>2017-06-30T21:53:38Z</time>
      </trkpt>
      <trkpt lat="48.96832" lon="1.096">
        <ele>271.7</ele>
        <time>2017-06-30T21:53:40Z</time>
      </trkpt>
      <trkpt lat="48.96843" lon="1.09603">
        <ele>272</ele>
        <time>2017-06-30T21:53:42Z</time>
      </trkpt>
      <trkpt lat="48.96855" lon="1.09605">
        <ele>272.2</ele>
        <time>2017-06-30T21:53:44Z</time>
      </trkpt>
      <trkpt lat="48.96866" lon="1.09606">
        <ele>272.3</ele>
        <time>2017-06-30T21:53:46Z</time>
      </trkpt>
      <trkpt lat="48.96877" lon="1.09608">
        <ele>272.4</ele>
        <time>2017-06-30T21:53:48Z</time>
      </trkpt>
      <trkpt lat="48.96887" lon="1.0961">
        <ele>272.6</ele>
        <time>2017-06-30T21:53:50Z</time>
      </trkpt>
      <trkpt lat="48.96897" lon="1.09613">
        <ele>272.8</ele>
        <time>2017-06-30T21:53:52Z</time>
      </trkpt>
      <trkpt lat="48.96907" lon="1.09614">
        <ele>273</ele>
        <time>2017-06-30T21:53:54Z</time>
      </trkpt>
      <trkpt lat="48.96917" lon="1.09617">
        <ele>272.8</ele>
        <time>2017-06-30T21:53:56Z</time>
      </trkpt>
      <trkpt lat="48.96928" lon="1.09621">
        <ele>273</ele>
        <time>2017-06-30T21:53:59Z</time>
      </trkpt>
      <trkpt lat="48.9694" lon="1.09615">
        <ele>273</ele>
        <time>2017-06-30T21:54:02Z</time>
      </trkpt>
      <trkpt lat="48.9695" lon="1.09605">
        <ele>273</ele>
        <time>2017-06-30T21:54:05Z</time>
      </trkpt>
      <trkpt lat="48.96961" lon="1.0961">
        <ele>272.8</ele>
        <time>2017-06-30T21:54:08Z</time>
      </trkpt>
      <trkpt lat="48.96971" lon="1.09622">
        <ele>272.8</ele>
        <time>2017-06-30T21:54:11Z</time>
      </trkpt>
      <trkpt lat="48.96982" lon="1.09633">
        <ele>272.8</ele>
        <time>2017-06-30T21:54:14Z</time>
      </trkpt>
      <trkpt lat="48.96991" lon="1.09643">
        <ele>273</ele>
        <time>2017-06-30T21:54:17Z</time>
      </trkpt>
      <trkpt lat="48.96998" lon="1.09651">
        <ele>273.4</ele>
        <time>2017-06-30T21:54:20Z</time>
      </trkpt>
      <trkpt lat="48.97008" lon="1.09655">
        <ele>273.3</ele>
        <time>2017-06-30T21:54:23Z</time>
      </trkpt>
      <trkpt lat="48.97017" lon="1.09663">
        <ele>273.3</ele>
        <time>2017-06-30T21:54:26Z</time>
      </trkpt>
      <trkpt lat="48.97026" lon="1.09674">
        <ele>273.6</ele>
        <time>2017-06-30T21:54:30Z</time>
      </trkpt>
      <trkpt lat="48.97033" lon="1.09684">
        <ele>273.4</ele>
        <time>2017-06-30T21:54:33Z</time>
      </trkpt>
      <trkpt lat="48.97037" lon="1.09698">
        <ele>273.5</ele>
        <time>2017-06-30T21:54:36Z</time>
      </trkpt>
      <trkpt lat="48.97043" lon="1.09713">
        <ele>273.7</ele>
        <time>2017-06-30T21:54:39Z</time>
      </trkpt>
      <trkpt lat="48.97046" lon="1.09732">
        <ele>273.7</ele>
        <time>2017-06-30T21:54:42Z</time>
      </trkpt>
      <trkpt lat="48.9705" lon="1.09747">
        <ele>273.4</ele>
        <time>2017-06-30T21:54:45Z</time>
      </trkpt>
      <trkpt lat="48.97051" lon="1.09765">
        <ele>273.8</ele>
        <time>2017-06-30T21:54:48Z</time>
      </trkpt>
      <trkpt lat="48.97056" lon="1.09782">
        <ele>274</ele>
        <time>2017-06-30T21:54:51Z</time>
      </trkpt>
      <trkpt lat="48.9706" lon="1.09795">
        <ele>274.2</ele>
        <time>2017-06-30T21:54:54Z</time>
      </trkpt>
      <trkpt lat="48.97063" lon="1.0981">
        <ele>274.2</ele>
        <time>2017-06-30T21:54:56Z</time>
      </trkpt>
      <trkpt lat="48.97062" lon="1.09823">
        <ele>274.3</ele>
        <time>2017-06-30T21:54:58Z</time>
      </trkpt>
      <trkpt lat="48.97064" lon="1.09847">
        <ele>274.3</ele>
        <time>2017-06-30T21:55:01Z</time>
      </trkpt>
      <trkpt lat="48.97065" lon="1.09865">
        <ele>274.5</ele>
        <time>2017-06-30T21:55:03Z</time>
      </trkpt>
      <trkpt lat="48.9707" lon="1.09879">
        <ele>274.6</ele>
        <time>2017-06-30T21:55:05Z</time>
      </trkpt>
      <trkpt lat="48.97073" lon="1.09895">
        <ele>274.4</ele>
        <time>2017-06-30T21:55:07Z</time>
      </trkpt>
      <trkpt lat="48.97078" lon="1.09909">
        <ele>274.5</ele>
        <time>2017-06-30T21:55:09Z</time>
      </trkpt>
      <trkpt lat="48.97081" lon="1.09924">
        <ele>274.5</ele>
        <time>2017-06-30T21:55:11Z</time>
      </trkpt>
      <trkpt lat="48.97085" lon="1.09942">
        <ele>274.5</ele>
        <time>2017-06-30T21:55:13Z</time>
      </trkpt>
      <trkpt lat="48.97088" lon="1.09961">
        <ele>274.7</ele>
        <time>2017-06-30T21:55:16Z</time>
      </trkpt>
      <trkpt lat="48.97089" lon="1.09976">
        <ele>274.7</ele>
        <time>2017-06-30T21:55:18Z</time>
      </trkpt>
      <trkpt lat="48.97088" lon="1.09992">
        <ele>274.8</ele>
        <time>2017-06-30T21:55:20Z</time>
      </trkpt>
      <trkpt lat="48.97088" lon="1.10008">
        <ele>274.7</ele>
        <time>2017-06-30T21:55:22Z</time>
      </trkpt>
      <trkpt lat="48.97088" lon="1.10024">
        <ele>274.8</ele>
        <time>2017-06-30T21:55:24Z</time>
      </trkpt>
      <trkpt lat="48.97089" lon="1.10038">
        <ele>274.7</ele>
        <time>2017-06-30T21:55:26Z</time>
      </trkpt>
      <trkpt lat="48.97089" lon="1.10056">
        <ele>274.6</ele>
        <time>2017-06-30T21:55:29Z</time>
      </trkpt>
      <trkpt lat="48.97088" lon="1.10075">
        <ele>274.7</ele>
        <time>2017-06-30T21:55:32Z</time>
      </trkpt>
      <trkpt lat="48.97085" lon="1.10094">
        <ele>274.7</ele>
        <time>2017-06-30T21:55:35Z</time>
      </trkpt>
      <trkpt lat="48.97079" lon="1.1011">
        <ele>274.6</ele>
        <time>2017-06-30T21:55:37Z</time>
      </trkpt>
      <trkpt lat="48.97077" lon="1.10126">
        <ele>274.6</ele>
        <time>2017-06-30T21:55:39Z</time>
      </trkpt>
      <trkpt lat="48.97076" lon="1.10143">
        <ele>274.6</ele>
        <time>2017-06-30T21:55:41Z</time>
      </trkpt>
      <trkpt lat="48.97075" lon="1.1016">
        <ele>274.6</ele>
        <time>2017-06-30T21:55:43Z</time>
      </trkpt>
      <trkpt lat="48.97074" lon="1.10178">
        <ele>274.5</ele>
        <time>2017-06-30T21:55:45Z</time>
      </trkpt>
      <trkpt lat="48.97072" lon="1.10194">
        <ele>274.5</ele>
        <time>2017-06-30T21:55:47Z</time>
      </trkpt>
      <trkpt lat="48.97071" lon="1.10213">
        <ele>274.5</ele>
        <time>2017-06-30T21:55:49Z</time>
      </trkpt>
      <trkpt lat="48.97072" lon="1.10233">
        <ele>274.3</ele>
        <time>2017-06-30T21:55:51Z</time>
      </trkpt>
      <trkpt lat="48.97074" lon="1.10253">
        <ele>274.2</ele>
        <time>2017-06-30T21:55:53Z</time>
      </trkpt>
      <trkpt lat="48.97076" lon="1.10269">
        <ele>274.1</ele>
        <time>2017-06-30T21:55:55Z</time>
      </trkpt>
      <trkpt lat="48.97078" lon="1.10284">
        <ele>274.1</ele>
        <time>2017-06-30T21:55:57Z</time>
      </trkpt>
      <trkpt lat="48.97081" lon="1.10298">
        <ele>274</ele>
        <time>2017-06-30T21:55:59Z</time>
      </trkpt>
      <trkpt lat="48.97079" lon="1.10314">
        <ele>273.9</ele>
        <time>2017-06-30T21:56:02Z</time>
      </trkpt>
      <trkpt lat="48.9707" lon="1.10326">
        <ele>273.8</ele>
        <time>2017-06-30T21:56:05Z</time>
      </trkpt>
      <trkpt lat="48.97062" lon="1.10339">
        <ele>274.1</ele>
        <time>2017-06-30T21:56:09Z</time>
      </trkpt>
      <trkpt lat="48.97058" lon="1.10355">
        <ele>274.2</ele>
        <time>2017-06-30T21:56:12Z</time>
      </trkpt>
      <trkpt lat="48.97052" lon="1.10367">
        <ele>274.4</ele>
        <time>2017-06-30T21:56:14Z</time>
      </trkpt>
      <trkpt lat="48.97045" lon="1.10384">
        <ele>274.5</ele>
        <time>2017-06-30T21:56:17Z</time>
      </trkpt>
      <trkpt lat="48.97039" lon="1.10402">
        <ele>274.7</ele>
        <time>2017-06-30T21:56:20Z</time>
      </trkpt>
      <trkpt lat="48.97032" lon="1.10416">
        <ele>274.9</ele>
        <time>2017-06-30T21:56:22Z</time>
      </trkpt>
      <trkpt lat="48.97027" lon="1.10429">
        <ele>275</ele>
        <time>2017-06-30T21:56:24Z</time>
      </trkpt>
      <trkpt lat="48.97018" lon="1.10442">
        <ele>275.2</ele>
        <time>2017-06-30T21:56:26Z</time>
      </trkpt>
      <trkpt lat="48.97012" lon="1.10454">
        <ele>275.6</ele>
        <time>2017-06-30T21:56:31Z</time>
      </trkpt>
      <trkpt lat="48.97007" lon="1.10466">
        <ele>276.2</ele>
        <time>2017-06-30T21:56:57Z</time>
      </trkpt>
      <trkpt lat="48.97001" lon="1.1048">
        <ele>276.3</ele>
        <time>2017-06-30T21:57:02Z</time>
      </trkpt>
      <trkpt lat="48.96994" lon="1.1049">
        <ele>276.3</ele>
        <time>2017-06-30T21:57:05Z</time>
      </trkpt>
      <trkpt lat="48.96985" lon="1.105">
        <ele>276.4</ele>
        <time>2017-06-30T21:57:08Z</time>
      </trkpt>
      <trkpt lat="48.96976" lon="1.10512">
        <ele>276.4</ele>
        <time>2017-06-30T21:57:11Z</time>
      </trkpt>
      <trkpt lat="48.96967" lon="1.10523">
        <ele>276.4</ele>
        <time>2017-06-30T21:57:14Z</time>
      </trkpt>
      <trkpt lat="48.96958" lon="1.10536">
        <ele>276.4</ele>
        <time>2017-06-30T21:57:17Z</time>
      </trkpt>
      <trkpt lat="48.96948" lon="1.10549">
        <ele>276.6</ele>
        <time>2017-06-30T21:57:20Z</time>
      </trkpt>
      <trkpt lat="48.96942" lon="1.10565">
        <ele>276.7</ele>
        <time>2017-06-30T21:57:23Z</time>
      </trkpt>
      <trkpt lat="48.96947" lon="1.10579">
        <ele>276.8</ele>
        <time>2017-06-30T21:57:26Z</time>
      </trkpt>
      <trkpt lat="48.96957" lon="1.10582">
        <ele>276.7</ele>
        <time>2017-06-30T21:57:29Z</time>
      </trkpt>
      <trkpt lat="48.96971" lon="1.10587">
        <ele>276.4</ele>
        <time>2017-06-30T21:57:32Z</time>
      </trkpt>
      <trkpt lat="48.96982" lon="1.10592">
        <ele>276.4</ele>
        <time>2017-06-30T21:57:35Z</time>
      </trkpt>
      <trkpt lat="48.96995" lon="1.10596">
        <ele>276.5</ele>
        <time>2017-06-30T21:57:37Z</time>
      </trkpt>
      <trkpt lat="48.97008" lon="1.106">
        <ele>276.5</ele>
        <time>2017-06-30T21:57:40Z</time>
      </trkpt>
      <trkpt lat="48.9702" lon="1.10605">
        <ele>276.5</ele>
        <time>2017-06-30T21:57:43Z</time>
      </trkpt>
      <trkpt lat="48.97033" lon="1.10609">
        <ele>276.4</ele>
        <time>2017-06-30T21:57:45Z</time>
      </trkpt>
      <trkpt lat="48.97046" lon="1.10614">
        <ele>276.3</ele>
        <time>2017-06-30T21:57:47Z</time>
      </trkpt>
      <trkpt lat="48.97058" lon="1.10617">
        <ele>276.2</ele>
        <time>2017-06-30T21:57:49Z</time>
      </trkpt>
      <trkpt lat="48.97068" lon="1.10622">
        <ele>276</ele>
        <time>2017-06-30T21:57:51Z</time>
      </trkpt>
      <trkpt lat="48.97078" lon="1.10625">
        <ele>275.8</ele>
        <time>2017-06-30T21:57:53Z</time>
      </trkpt>
      <trkpt lat="48.97088" lon="1.10628">
        <ele>275.7</ele>
        <time>2017-06-30T21:57:55Z</time>
      </trkpt>
      <trkpt lat="48.971" lon="1.10632">
        <ele>275.5</ele>
        <time>2017-06-30T21:57:57Z</time>
      </trkpt>
      <trkpt lat="48.9711" lon="1.10636">
        <ele>275.4</ele>
        <time>2017-06-30T21:57:59Z</time>
      </trkpt>
      <trkpt lat="48.9712" lon="1.1064">
        <ele>275.2</ele>
        <time>2017-06-30T21:58:01Z</time>
      </trkpt>
      <trkpt lat="48.97131" lon="1.10642">
        <ele>275.1</ele>
        <time>2017-06-30T21:58:03Z</time>
      </trkpt>
      <trkpt lat="48.97143" lon="1.10644">
        <ele>274.9</ele>
        <time>2017-06-30T21:58:05Z</time>
      </trkpt>
      <trkpt lat="48.97153" lon="1.10644">
        <ele>274.8</ele>
        <time>2017-06-30T21:58:07Z</time>
      </trkpt>
      <trkpt lat="48.97165" lon="1.10647">
        <ele>274.6</ele>
        <time>2017-06-30T21:58:09Z</time>
      </trkpt>
      <trkpt lat="48.97174" lon="1.10648">
        <ele>274.5</ele>
        <time>2017-06-30T21:58:11Z</time>
      </trkpt>
      <trkpt lat="48.97186" lon="1.10649">
        <ele>274.3</ele>
        <time>2017-06-30T21:58:13Z</time>
      </trkpt>
      <trkpt lat="48.97202" lon="1.10652">
        <ele>274</ele>
        <time>2017-06-30T21:58:15Z</time>
      </trkpt>
      <trkpt lat="48.97214" lon="1.10659">
        <ele>273.9</ele>
        <time>2017-06-30T21:58:17Z</time>
      </trkpt>
      <trkpt lat="48.97225" lon="1.10665">
        <ele>273.8</ele>
        <time>2017-06-30T21:58:19Z</time>
      </trkpt>
      <trkpt lat="48.97237" lon="1.10669">
        <ele>273.5</ele>
        <time>2017-06-30T21:58:21Z</time>
      </trkpt>
      <trkpt lat="48.97248" lon="1.10676">
        <ele>273.4</ele>
        <time>2017-06-30T21:58:23Z</time>
      </trkpt>
      <trkpt lat="48.97258" lon="1.10686">
        <ele>273.2</ele>
        <time>2017-06-30T21:58:25Z</time>
      </trkpt>
      <trkpt lat="48.97266" lon="1.10694">
        <ele>273</ele>
        <time>2017-06-30T21:58:27Z</time>
      </trkpt>
      <trkpt lat="48.97275" lon="1.10701">
        <ele>273</ele>
        <time>2017-06-30T21:58:29Z</time>
      </trkpt>
      <trkpt lat="48.97289" lon="1.10715">
        <ele>273.2</ele>
        <time>2017-06-30T21:58:31Z</time>
      </trkpt>
      <trkpt lat="48.97302" lon="1.10726">
        <ele>273</ele>
        <time>2017-06-30T21:58:33Z</time>
      </trkpt>
      <trkpt lat="48.97311" lon="1.10734">
        <ele>273.1</ele>
        <time>2017-06-30T21:58:35Z</time>
      </trkpt>
      <trkpt lat="48.9732" lon="1.10741">
        <ele>273.1</ele>
        <time>2017-06-30T21:58:37Z</time>
      </trkpt>
      <trkpt lat="48.97334" lon="1.10747">
        <ele>273</ele>
        <time>2017-06-30T21:58:39Z</time>
      </trkpt>
      <trkpt lat="48.97343" lon="1.10754">
        <ele>272.9</ele>
        <time>2017-06-30T21:58:41Z</time>
      </trkpt>
      <trkpt lat="48.97355" lon="1.1076">
        <ele>273</ele>
        <time>2017-06-30T21:58:43Z</time>
      </trkpt>
      <trkpt lat="48.97365" lon="1.10765">
        <ele>272.9</ele>
        <time>2017-06-30T21:58:45Z</time>
      </trkpt>
      <trkpt lat="48.97376" lon="1.1077">
        <ele>272.7</ele>
        <time>2017-06-30T21:58:47Z</time>
      </trkpt>
      <trkpt lat="48.9739" lon="1.10776">
        <ele>272.6</ele>
        <time>2017-06-30T21:58:49Z</time>
      </trkpt>
      <trkpt lat="48.974" lon="1.10783">
        <ele>272.5</ele>
        <time>2017-06-30T21:58:51Z</time>
      </trkpt>
      <trkpt lat="48.97411" lon="1.10794">
        <ele>272.3</ele>
        <time>2017-06-30T21:58:54Z</time>
      </trkpt>
      <trkpt lat="48.97419" lon="1.10801">
        <ele>272.1</ele>
        <time>2017-06-30T21:58:56Z</time>
      </trkpt>
      <trkpt lat="48.97428" lon="1.10811">
        <ele>272</ele>
        <time>2017-06-30T21:58:58Z</time>
      </trkpt>
      <trkpt lat="48.97437" lon="1.1082">
        <ele>271.9</ele>
        <time>2017-06-30T21:59:00Z</time>
      </trkpt>
      <trkpt lat="48.97446" lon="1.10832">
        <ele>271.8</ele>
        <time>2017-06-30T21:59:02Z</time>
      </trkpt>
      <trkpt lat="48.97454" lon="1.10842">
        <ele>271.7</ele>
        <time>2017-06-30T21:59:04Z</time>
      </trkpt>
      <trkpt lat="48.97464" lon="1.10852">
        <ele>271.6</ele>
        <time>2017-06-30T21:59:06Z</time>
      </trkpt>
      <trkpt lat="48.9747" lon="1.10866">
        <ele>271.5</ele>
        <time>2017-06-30T21:59:09Z</time>
      </trkpt>
      <trkpt lat="48.97477" lon="1.10878">
        <ele>271.4</ele>
        <time>2017-06-30T21:59:11Z</time>
      </trkpt>
      <trkpt lat="48.97484" lon="1.10893">
        <ele>271.2</ele>
        <time>2017-06-30T21:59:13Z</time>
      </trkpt>
      <trkpt lat="48.97491" lon="1.10907">
        <ele>271.1</ele>
        <time>2017-06-30T21:59:15Z</time>
      </trkpt>
      <trkpt lat="48.97499" lon="1.1092">
        <ele>271</ele>
        <time>2017-06-30T21:59:17Z</time>
      </trkpt>
      <trkpt lat="48.97506" lon="1.10931">
        <ele>270.8</ele>
        <time>2017-06-30T21:59:19Z</time>
      </trkpt>
      <trkpt lat="48.97517" lon="1.10944">
        <ele>270.7</ele>
        <time>2017-06-30T21:59:21Z</time>
      </trkpt>
      <trkpt lat="48.97527" lon="1.10954">
        <ele>270.4</ele>
        <time>2017-06-30T21:59:23Z</time>
      </trkpt>
      <trkpt lat="48.9754" lon="1.10961">
        <ele>270.2</ele>
        <time>2017-06-30T21:59:25Z</time>
      </trkpt>
      <trkpt lat="48.97556" lon="1.10967">
        <ele>269.8</ele>
        <time>2017-06-30T21:59:27Z</time>
      </trkpt>
      <trkpt lat="48.97567" lon="1.1097">
        <ele>269.6</ele>
        <time>2017-06-30T21:59:28Z</time>
      </trkpt>
      <trkpt lat="48.97576" lon="1.10973">
        <ele>269.5</ele>
        <time>2017-06-30T21:59:29Z</time>
      </trkpt>
      <trkpt lat="48.97594" lon="1.10981">
        <ele>268.9</ele>
        <time>2017-06-30T21:59:31Z</time>
      </trkpt>
      <trkpt lat="48.97603" lon="1.10985">
        <ele>268.5</ele>
        <time>2017-06-30T21:59:32Z</time>
      </trkpt>
      <trkpt lat="48.9762" lon="1.10992">
        <ele>267.6</ele>
        <time>2017-06-30T21:59:34Z</time>
      </trkpt>
      <trkpt lat="48.97635" lon="1.10996">
        <ele>266.6</ele>
        <time>2017-06-30T21:59:36Z</time>
      </trkpt>
      <trkpt lat="48.97649" lon="1.11">
        <ele>265.7</ele>
        <time>2017-06-30T21:59:38Z</time>
      </trkpt>
      <trkpt lat="48.9766" lon="1.11005">
        <ele>265.6</ele>
        <time>2017-06-30T21:59:39Z</time>
      </trkpt>
      <trkpt lat="48.9767" lon="1.11008">
        <ele>265.4</ele>
        <time>2017-06-30T21:59:40Z</time>
      </trkpt>
      <trkpt lat="48.97687" lon="1.11012">
        <ele>265.3</ele>
        <time>2017-06-30T21:59:42Z</time>
      </trkpt>
      <trkpt lat="48.97702" lon="1.11015">
        <ele>265.7</ele>
        <time>2017-06-30T21:59:44Z</time>
      </trkpt>
      <trkpt lat="48.97716" lon="1.11018">
        <ele>266.2</ele>
        <time>2017-06-30T21:59:46Z</time>
      </trkpt>
      <trkpt lat="48.9773" lon="1.11021">
        <ele>266.7</ele>
        <time>2017-06-30T21:59:48Z</time>
      </trkpt>
      <trkpt lat="48.97744" lon="1.11021">
        <ele>267.4</ele>
        <time>2017-06-30T21:59:50Z</time>
      </trkpt>
      <trkpt lat="48.97758" lon="1.11021">
        <ele>268</ele>
        <time>2017-06-30T21:59:52Z</time>
      </trkpt>
      <trkpt lat="48.9777" lon="1.11021">
        <ele>268.5</ele>
        <time>2017-06-30T21:59:54Z</time>
      </trkpt>
      <trkpt lat="48.97783" lon="1.11019">
        <ele>268.9</ele>
        <time>2017-06-30T21:59:56Z</time>
      </trkpt>
      <trkpt lat="48.97795" lon="1.11017">
        <ele>269.4</ele>
        <time>2017-06-30T21:59:58Z</time>
      </trkpt>
      <trkpt lat="48.97807" lon="1.11017">
        <ele>269.6</ele>
        <time>2017-06-30T22:00:00Z</time>
      </trkpt>
      <trkpt lat="48.97819" lon="1.11015">
        <ele>269.7</ele>
        <time>2017-06-30T22:00:02Z</time>
      </trkpt>
      <trkpt lat="48.97832" lon="1.11012">
        <ele>269.7</ele>
        <time>2017-06-30T22:00:04Z</time>
      </trkpt>
      <trkpt lat="48.97847" lon="1.1101">
        <ele>269.9</ele>
        <time>2017-06-30T22:00:06Z</time>
      </trkpt>
      <trkpt lat="48.97861" lon="1.1101">
        <ele>269.8</ele>
        <time>2017-06-30T22:00:08Z</time>
      </trkpt>
      <trkpt lat="48.97872" lon="1.11008">
        <ele>269.8</ele>
        <time>2017-06-30T22:00:10Z</time>
      </trkpt>
      <trkpt lat="48.97882" lon="1.11007">
        <ele>269.8</ele>
        <time>2017-06-30T22:00:12Z</time>
      </trkpt>
      <trkpt lat="48.97894" lon="1.11006">
        <ele>269.9</ele>
        <time>2017-06-30T22:00:14Z</time>
      </trkpt>
      <trkpt lat="48.97906" lon="1.11005">
        <ele>270.1</ele>
        <time>2017-06-30T22:00:16Z</time>
      </trkpt>
      <trkpt lat="48.97917" lon="1.11003">
        <ele>270.3</ele>
        <time>2017-06-30T22:00:18Z</time>
      </trkpt>
      <trkpt lat="48.97929" lon="1.11">
        <ele>270.4</ele>
        <time>2017-06-30T22:00:20Z</time>
      </trkpt>
      <trkpt lat="48.97941" lon="1.10995">
        <ele>270.7</ele>
        <time>2017-06-30T22:00:22Z</time>
      </trkpt>
      <trkpt lat="48.97951" lon="1.1099">
        <ele>270.8</ele>
        <time>2017-06-30T22:00:24Z</time>
      </trkpt>
      <trkpt lat="48.97963" lon="1.10983">
        <ele>271</ele>
        <time>2017-06-30T22:00:26Z</time>
      </trkpt>
      <trkpt lat="48.97974" lon="1.10976">
        <ele>271.2</ele>
        <time>2017-06-30T22:00:28Z</time>
      </trkpt>
      <trkpt lat="48.97985" lon="1.1097">
        <ele>271.4</ele>
        <time>2017-06-30T22:00:30Z</time>
      </trkpt>
      <trkpt lat="48.97996" lon="1.10963">
        <ele>271.7</ele>
        <time>2017-06-30T22:00:32Z</time>
      </trkpt>
      <trkpt lat="48.98007" lon="1.10956">
        <ele>271.8</ele>
        <time>2017-06-30T22:00:34Z</time>
      </trkpt>
      <trkpt lat="48.98017" lon="1.1095">
        <ele>272.1</ele>
        <time>2017-06-30T22:00:36Z</time>
      </trkpt>
      <trkpt lat="48.98027" lon="1.10943">
        <ele>272.2</ele>
        <time>2017-06-30T22:00:38Z</time>
      </trkpt>
      <trkpt lat="48.98037" lon="1.10938">
        <ele>272.3</ele>
        <time>2017-06-30T22:00:40Z</time>
      </trkpt>
      <trkpt lat="48.98048" lon="1.10932">
        <ele>272.6</ele>
        <time>2017-06-30T22:00:42Z</time>
      </trkpt>
      <trkpt lat="48.98058" lon="1.10928">
        <ele>272.7</ele>
        <time>2017-06-30T22:00:44Z</time>
      </trkpt>
      <trkpt lat="48.98069" lon="1.10923">
        <ele>272.8</ele>
        <time>2017-06-30T22:00:46Z</time>
      </trkpt>
      <trkpt lat="48.9808" lon="1.10919">
        <ele>272.9</ele>
        <time>2017-06-30T22:00:48Z</time>
      </trkpt>
      <trkpt lat="48.9809" lon="1.10915">
        <ele>273</ele>
        <time>2017-06-30T22:00:50Z</time>
      </trkpt>
      <trkpt lat="48.98101" lon="1.10911">
        <ele>273.2</ele>
        <time>2017-06-30T22:00:52Z</time>
      </trkpt>
      <trkpt lat="48.98111" lon="1.10907">
        <ele>273.4</ele>
        <time>2017-06-30T22:00:54Z</time>
      </trkpt>
      <trkpt lat="48.98122" lon="1.10903">
        <ele>273.7</ele>
        <time>2017-06-30T22:00:56Z</time>
      </trkpt>
      <trkpt lat="48.98132" lon="1.109">
        <ele>273.9</ele>
        <time>2017-06-30T22:00:58Z</time>
      </trkpt>
      <trkpt lat="48.98143" lon="1.10896">
        <ele>274</ele>
        <time>2017-06-30T22:01:00Z</time>
      </trkpt>
      <trkpt lat="48.98153" lon="1.10893">
        <ele>274.1</ele>
        <time>2017-06-30T22:01:02Z</time>
      </trkpt>
      <trkpt lat="48.98164" lon="1.10889">
        <ele>274.3</ele>
        <time>2017-06-30T22:01:04Z</time>
      </trkpt>
      <trkpt lat="48.98174" lon="1.10885">
        <ele>274.5</ele>
        <time>2017-06-30T22:01:06Z</time>
      </trkpt>
      <trkpt lat="48.98184" lon="1.10882">
        <ele>274.7</ele>
        <time>2017-06-30T22:01:08Z</time>
      </trkpt>
      <trkpt lat="48.98194" lon="1.10879">
        <ele>274.7</ele>
        <time>2017-06-30T22:01:10Z</time>
      </trkpt>
      <trkpt lat="48.98203" lon="1.10875">
        <ele>274.9</ele>
        <time>2017-06-30T22:01:12Z</time>
      </trkpt>
      <trkpt lat="48.98214" lon="1.10872">
        <ele>274.8</ele>
        <time>2017-06-30T22:01:14Z</time>
      </trkpt>
      <trkpt lat="48.98224" lon="1.10868">
        <ele>274.9</ele>
        <time>2017-06-30T22:01:16Z</time>
      </trkpt>
      <trkpt lat="48.98235" lon="1.10863">
        <ele>275.2</ele>
        <time>2017-06-30T22:01:18Z</time>
      </trkpt>
      <trkpt lat="48.98246" lon="1.10857">
        <ele>275.4</ele>
        <time>2017-06-30T22:01:20Z</time>
      </trkpt>
      <trkpt lat="48.98257" lon="1.10851">
        <ele>275.4</ele>
        <time>2017-06-30T22:01:22Z</time>
      </trkpt>
      <trkpt lat="48.98268" lon="1.10843">
        <ele>275.4</ele>
        <time>2017-06-30T22:01:24Z</time>
      </trkpt>
      <trkpt lat="48.98278" lon="1.10837">
        <ele>275.5</ele>
        <time>2017-06-30T22:01:26Z</time>
      </trkpt>
      <trkpt lat="48.98289" lon="1.1083">
        <ele>275.6</ele>
        <time>2017-06-30T22:01:28Z</time>
      </trkpt>
      <trkpt lat="48.98298" lon="1.10823">
        <ele>275.6</ele>
        <time>2017-06-30T22:01:30Z</time>
      </trkpt>
      <trkpt lat="48.98307" lon="1.10816">
        <ele>275.5</ele>
        <time>2017-06-30T22:01:32Z</time>
      </trkpt>
      <trkpt lat="48.98317" lon="1.10811">
        <ele>275.5</ele>
        <time>2017-06-30T22:01:34Z</time>
      </trkpt>
      <trkpt lat="48.98326" lon="1.10806">
        <ele>275.5</ele>
        <time>2017-06-30T22:01:36Z</time>
      </trkpt>
      <trkpt lat="48.98336" lon="1.108">
        <ele>275.2</ele>
        <time>2017-06-30T22:01:38Z</time>
      </trkpt>
      <trkpt lat="48.98346" lon="1.10795">
        <ele>275.2</ele>
        <time>2017-06-30T22:01:40Z</time>
      </trkpt>
      <trkpt lat="48.98356" lon="1.1079">
        <ele>275.3</ele>
        <time>2017-06-30T22:01:42Z</time>
      </trkpt>
      <trkpt lat="48.98367" lon="1.10786">
        <ele>275.3</ele>
        <time>2017-06-30T22:01:44Z</time>
      </trkpt>
      <trkpt lat="48.98378" lon="1.10783">
        <ele>275.1</ele>
        <time>2017-06-30T22:01:46Z</time>
      </trkpt>
      <trkpt lat="48.98389" lon="1.1078">
        <ele>275</ele>
        <time>2017-06-30T22:01:48Z</time>
      </trkpt>
      <trkpt lat="48.984" lon="1.10777">
        <ele>274.9</ele>
        <time>2017-06-30T22:01:50Z</time>
      </trkpt>
      <trkpt lat="48.98411" lon="1.10774">
        <ele>274.8</ele>
        <time>2017-06-30T22:01:52Z</time>
      </trkpt>
      <trkpt lat="48.98422" lon="1.1077">
        <ele>274.9</ele>
        <time>2017-06-30T22:01:54Z</time>
      </trkpt>
      <trkpt lat="48.98433" lon="1.10765">
        <ele>274.9</ele>
        <time>2017-06-30T22:01:56Z</time>
      </trkpt>
    </trkseg>
  </trk>
</gpx>